<?xml version='1.0' encoding='UTF-8'?><gpx version="1.1" creator="JPX - https://github.com/jenetics/jpx" xmlns="http://www.topografix.com/GPX/1/1"><trk><trkseg><trkpt lat="43.6793961" lon="12.6441948"><ele>202.0</ele><time>2026-03-22T09:11:07.519Z</time></trkpt><trkpt lat="43.6794641" lon="12.6441073"><ele>202.0</ele><time>2026-03-22T09:11:10.518Z</time></trkpt><trkpt lat="43.679498" lon="12.6440256"><ele>202.0</ele><time>2026-03-22T09:11:12.52Z</time></trkpt><trkpt lat="43.6795133" lon="12.6439315"><ele>202.0</ele><time>2026-03-22T09:11:46.518Z</time></trkpt><trkpt lat="43.6794445" lon="12.6439086"><ele>202.0</ele><time>2026-03-22T09:11:48.519Z</time></trkpt><trkpt lat="43.6792859" lon="12.6439108"><ele>202.0</ele><time>2026-03-22T09:11:50.518Z</time></trkpt><trkpt lat="43.6791803" lon="12.6439229"><ele>202.0</ele><time>2026-03-22T09:11:51.518Z</time></trkpt><trkpt lat="43.6790595" lon="12.6439414"><ele>202.0</ele><time>2026-03-22T09:11:52.517Z</time></trkpt><trkpt lat="43.6789343" lon="12.6439609"><ele>202.0</ele><time>2026-03-22T09:11:53.518Z</time></trkpt><trkpt lat="43.6788069" lon="12.6439778"><ele>202.0</ele><time>2026-03-22T09:11:54.52Z</time></trkpt><trkpt lat="43.6787033" lon="12.6439952"><ele>202.0</ele><time>2026-03-22T09:11:55.517Z</time></trkpt><trkpt lat="43.6786074" lon="12.6440094"><ele>202.0</ele><time>2026-03-22T09:11:56.52Z</time></trkpt><trkpt lat="43.6785181" lon="12.6440186"><ele>202.0</ele><time>2026-03-22T09:11:57.518Z</time></trkpt><trkpt lat="43.6784295" lon="12.644039"><ele>202.0</ele><time>2026-03-22T09:11:58.518Z</time></trkpt><trkpt lat="43.6783562" lon="12.6440572"><ele>201.99999999999997</ele><time>2026-03-22T09:11:59.518Z</time></trkpt><trkpt lat="43.6782808" lon="12.6440829"><ele>202.0</ele><time>2026-03-22T09:12:00.518Z</time></trkpt><trkpt lat="43.6782119" lon="12.6441251"><ele>202.0</ele><time>2026-03-22T09:12:01.518Z</time></trkpt><trkpt lat="43.67813" lon="12.6441567"><ele>202.0</ele><time>2026-03-22T09:12:02.517Z</time></trkpt><trkpt lat="43.6780576" lon="12.6442031"><ele>201.99999999999997</ele><time>2026-03-22T09:12:03.518Z</time></trkpt><trkpt lat="43.6779848" lon="12.6442531"><ele>202.0</ele><time>2026-03-22T09:12:04.518Z</time></trkpt><trkpt lat="43.6779163" lon="12.644298"><ele>201.99999999999997</ele><time>2026-03-22T09:12:05.519Z</time></trkpt><trkpt lat="43.6778593" lon="12.6443427"><ele>202.0</ele><time>2026-03-22T09:12:06.519Z</time></trkpt><trkpt lat="43.6777995" lon="12.6443971"><ele>202.0</ele><time>2026-03-22T09:12:07.518Z</time></trkpt><trkpt lat="43.6777263" lon="12.6444601"><ele>202.0</ele><time>2026-03-22T09:12:08.519Z</time></trkpt><trkpt lat="43.677634" lon="12.6445517"><ele>201.99999999999997</ele><time>2026-03-22T09:12:09.517Z</time></trkpt><trkpt lat="43.6775501" lon="12.6446514"><ele>202.0</ele><time>2026-03-22T09:12:10.518Z</time></trkpt><trkpt lat="43.6774692" lon="12.6447346"><ele>201.83333333333331</ele><time>2026-03-22T09:12:11.518Z</time></trkpt><trkpt lat="43.6773966" lon="12.6448087"><ele>201.66666666666666</ele><time>2026-03-22T09:12:12.517Z</time></trkpt><trkpt lat="43.6773338" lon="12.6448731"><ele>201.5</ele><time>2026-03-22T09:12:13.518Z</time></trkpt><trkpt lat="43.6772707" lon="12.6449479"><ele>201.33333333333331</ele><time>2026-03-22T09:12:14.519Z</time></trkpt><trkpt lat="43.677206" lon="12.6450228"><ele>201.16666666666666</ele><time>2026-03-22T09:12:15.518Z</time></trkpt><trkpt lat="43.6771494" lon="12.6450855"><ele>201.0</ele><time>2026-03-22T09:12:16.518Z</time></trkpt><trkpt lat="43.6770703" lon="12.6451618"><ele>201.0</ele><time>2026-03-22T09:12:18.519Z</time></trkpt><trkpt lat="43.6770004" lon="12.6452088"><ele>201.0</ele><time>2026-03-22T09:12:20.518Z</time></trkpt><trkpt lat="43.6769076" lon="12.6451908"><ele>201.0</ele><time>2026-03-22T09:12:22.518Z</time></trkpt><trkpt lat="43.6768474" lon="12.6451437"><ele>201.0</ele><time>2026-03-22T09:12:23.517Z</time></trkpt><trkpt lat="43.676778" lon="12.6450908"><ele>201.0</ele><time>2026-03-22T09:12:24.518Z</time></trkpt><trkpt lat="43.6767146" lon="12.6450424"><ele>201.0</ele><time>2026-03-22T09:12:25.519Z</time></trkpt><trkpt lat="43.6766277" lon="12.6449914"><ele>201.20000000000002</ele><time>2026-03-22T09:12:26.518Z</time></trkpt><trkpt lat="43.6765397" lon="12.6449466"><ele>201.4</ele><time>2026-03-22T09:12:27.518Z</time></trkpt><trkpt lat="43.6764539" lon="12.6449011"><ele>201.6</ele><time>2026-03-22T09:12:28.518Z</time></trkpt><trkpt lat="43.6763725" lon="12.6448529"><ele>201.8</ele><time>2026-03-22T09:12:29.518Z</time></trkpt><trkpt lat="43.6762796" lon="12.6448183"><ele>202.0</ele><time>2026-03-22T09:12:30.52Z</time></trkpt><trkpt lat="43.6761742" lon="12.6447623"><ele>202.33333333333331</ele><time>2026-03-22T09:12:31.518Z</time></trkpt><trkpt lat="43.6760565" lon="12.6447119"><ele>202.66666666666669</ele><time>2026-03-22T09:12:32.518Z</time></trkpt><trkpt lat="43.6758884" lon="12.6446212"><ele>203.0</ele><time>2026-03-22T09:12:33.52Z</time></trkpt><trkpt lat="43.6757321" lon="12.6445187"><ele>203.0</ele><time>2026-03-22T09:12:34.517Z</time></trkpt><trkpt lat="43.6755667" lon="12.644406"><ele>203.0</ele><time>2026-03-22T09:12:35.519Z</time></trkpt><trkpt lat="43.6753936" lon="12.6443108"><ele>203.0</ele><time>2026-03-22T09:12:36.517Z</time></trkpt><trkpt lat="43.6752195" lon="12.6442134"><ele>202.66666666666669</ele><time>2026-03-22T09:12:37.518Z</time></trkpt><trkpt lat="43.6750481" lon="12.6441111"><ele>202.33333333333331</ele><time>2026-03-22T09:12:38.518Z</time></trkpt><trkpt lat="43.6748654" lon="12.6440071"><ele>202.0</ele><time>2026-03-22T09:12:39.517Z</time></trkpt><trkpt lat="43.6746703" lon="12.643898"><ele>202.0</ele><time>2026-03-22T09:12:40.519Z</time></trkpt><trkpt lat="43.67447" lon="12.6437675"><ele>202.0</ele><time>2026-03-22T09:12:41.52Z</time></trkpt><trkpt lat="43.6742888" lon="12.6436378"><ele>202.0</ele><time>2026-03-22T09:12:42.518Z</time></trkpt><trkpt lat="43.6741241" lon="12.6435117"><ele>203.75</ele><time>2026-03-22T09:12:43.518Z</time></trkpt><trkpt lat="43.6739794" lon="12.6433907"><ele>205.5</ele><time>2026-03-22T09:12:44.518Z</time></trkpt><trkpt lat="43.6738552" lon="12.6432828"><ele>207.25</ele><time>2026-03-22T09:12:45.518Z</time></trkpt><trkpt lat="43.6737543" lon="12.6431814"><ele>209.0</ele><time>2026-03-22T09:12:46.517Z</time></trkpt><trkpt lat="43.6736695" lon="12.6430944"><ele>207.66666666666669</ele><time>2026-03-22T09:12:47.518Z</time></trkpt><trkpt lat="43.6735971" lon="12.6430449"><ele>206.33333333333334</ele><time>2026-03-22T09:12:48.518Z</time></trkpt><trkpt lat="43.6735111" lon="12.6430437"><ele>205.0</ele><time>2026-03-22T09:12:50.518Z</time></trkpt><trkpt lat="43.6734544" lon="12.643132"><ele>203.66666666666669</ele><time>2026-03-22T09:12:52.518Z</time></trkpt><trkpt lat="43.6734384" lon="12.6432346"><ele>202.33333333333334</ele><time>2026-03-22T09:12:53.518Z</time></trkpt><trkpt lat="43.6734288" lon="12.6433408"><ele>201.0</ele><time>2026-03-22T09:12:54.517Z</time></trkpt><trkpt lat="43.6734186" lon="12.6434609"><ele>201.0</ele><time>2026-03-22T09:12:55.519Z</time></trkpt><trkpt lat="43.6734024" lon="12.6435962"><ele>201.0</ele><time>2026-03-22T09:12:56.518Z</time></trkpt><trkpt lat="43.6733813" lon="12.6437208"><ele>201.0</ele><time>2026-03-22T09:12:57.518Z</time></trkpt><trkpt lat="43.6733669" lon="12.6438372"><ele>201.0</ele><time>2026-03-22T09:12:58.518Z</time></trkpt><trkpt lat="43.6733497" lon="12.6439383"><ele>201.0</ele><time>2026-03-22T09:12:59.517Z</time></trkpt><trkpt lat="43.6733352" lon="12.6440308"><ele>201.0</ele><time>2026-03-22T09:13:00.518Z</time></trkpt><trkpt lat="43.6733159" lon="12.6441187"><ele>200.33333333333334</ele><time>2026-03-22T09:13:01.518Z</time></trkpt><trkpt lat="43.6733019" lon="12.6442135"><ele>199.66666666666669</ele><time>2026-03-22T09:13:02.519Z</time></trkpt><trkpt lat="43.6732847" lon="12.6443276"><ele>199.0</ele><time>2026-03-22T09:13:03.518Z</time></trkpt><trkpt lat="43.6732684" lon="12.6444622"><ele>198.33333333333334</ele><time>2026-03-22T09:13:04.518Z</time></trkpt><trkpt lat="43.6732546" lon="12.6445875"><ele>197.66666666666669</ele><time>2026-03-22T09:13:05.519Z</time></trkpt><trkpt lat="43.6732396" lon="12.6447029"><ele>197.0</ele><time>2026-03-22T09:13:06.519Z</time></trkpt><trkpt lat="43.6732132" lon="12.6448065"><ele>197.0</ele><time>2026-03-22T09:13:07.518Z</time></trkpt><trkpt lat="43.6731688" lon="12.6448821"><ele>197.0</ele><time>2026-03-22T09:13:08.519Z</time></trkpt><trkpt lat="43.6730613" lon="12.6449282"><ele>197.0</ele><time>2026-03-22T09:13:10.517Z</time></trkpt><trkpt lat="43.6729872" lon="12.6448703"><ele>197.0</ele><time>2026-03-22T09:13:12.518Z</time></trkpt><trkpt lat="43.6729207" lon="12.6448559"><ele>197.0</ele><time>2026-03-22T09:13:24.517Z</time></trkpt><trkpt lat="43.6728133" lon="12.6447916"><ele>197.6</ele><time>2026-03-22T09:13:26.518Z</time></trkpt><trkpt lat="43.6727402" lon="12.6447335"><ele>198.2</ele><time>2026-03-22T09:13:27.517Z</time></trkpt><trkpt lat="43.6726568" lon="12.6446746"><ele>198.8</ele><time>2026-03-22T09:13:28.518Z</time></trkpt><trkpt lat="43.6725558" lon="12.6446046"><ele>199.4</ele><time>2026-03-22T09:13:29.518Z</time></trkpt><trkpt lat="43.6724358" lon="12.6445243"><ele>200.0</ele><time>2026-03-22T09:13:30.519Z</time></trkpt><trkpt lat="43.6723101" lon="12.6444274"><ele>200.0</ele><time>2026-03-22T09:13:31.517Z</time></trkpt><trkpt lat="43.6721663" lon="12.6443358"><ele>200.0</ele><time>2026-03-22T09:13:32.519Z</time></trkpt><trkpt lat="43.67201" lon="12.6442561"><ele>200.0</ele><time>2026-03-22T09:13:33.519Z</time></trkpt><trkpt lat="43.6718028" lon="12.6442183"><ele>200.66666666666669</ele><time>2026-03-22T09:13:34.518Z</time></trkpt><trkpt lat="43.6715859" lon="12.6441812"><ele>201.33333333333331</ele><time>2026-03-22T09:13:35.518Z</time></trkpt><trkpt lat="43.6713816" lon="12.6441512"><ele>202.0</ele><time>2026-03-22T09:13:36.518Z</time></trkpt><trkpt lat="43.6712013" lon="12.6441098"><ele>203.0</ele><time>2026-03-22T09:13:37.518Z</time></trkpt><trkpt lat="43.6710242" lon="12.644072"><ele>204.0</ele><time>2026-03-22T09:13:38.517Z</time></trkpt><trkpt lat="43.670865" lon="12.6440418"><ele>205.0</ele><time>2026-03-22T09:13:39.517Z</time></trkpt><trkpt lat="43.6707175" lon="12.6440146"><ele>205.0</ele><time>2026-03-22T09:13:40.518Z</time></trkpt><trkpt lat="43.6705809" lon="12.6439895"><ele>205.0</ele><time>2026-03-22T09:13:41.517Z</time></trkpt><trkpt lat="43.6704468" lon="12.6439553"><ele>205.0</ele><time>2026-03-22T09:13:42.519Z</time></trkpt><trkpt lat="43.6703095" lon="12.6439277"><ele>205.0</ele><time>2026-03-22T09:13:43.518Z</time></trkpt><trkpt lat="43.670164" lon="12.6439107"><ele>205.33333333333331</ele><time>2026-03-22T09:13:44.519Z</time></trkpt><trkpt lat="43.6700155" lon="12.6439121"><ele>205.66666666666669</ele><time>2026-03-22T09:13:45.518Z</time></trkpt><trkpt lat="43.6698593" lon="12.6439197"><ele>206.0</ele><time>2026-03-22T09:13:46.518Z</time></trkpt><trkpt lat="43.669694" lon="12.6439543"><ele>206.0</ele><time>2026-03-22T09:13:47.518Z</time></trkpt><trkpt lat="43.6695257" lon="12.6439958"><ele>206.0</ele><time>2026-03-22T09:13:48.518Z</time></trkpt><trkpt lat="43.6693531" lon="12.6440543"><ele>206.0</ele><time>2026-03-22T09:13:49.518Z</time></trkpt><trkpt lat="43.6691949" lon="12.6441133"><ele>206.25</ele><time>2026-03-22T09:13:50.518Z</time></trkpt><trkpt lat="43.6690503" lon="12.6441599"><ele>206.5</ele><time>2026-03-22T09:13:51.518Z</time></trkpt><trkpt lat="43.6689148" lon="12.6442061"><ele>206.75</ele><time>2026-03-22T09:13:52.517Z</time></trkpt><trkpt lat="43.6687859" lon="12.6442472"><ele>207.0</ele><time>2026-03-22T09:13:53.518Z</time></trkpt><trkpt lat="43.6686507" lon="12.6442908"><ele>207.0</ele><time>2026-03-22T09:13:54.518Z</time></trkpt><trkpt lat="43.6685227" lon="12.6443344"><ele>207.0</ele><time>2026-03-22T09:13:55.518Z</time></trkpt><trkpt lat="43.6684006" lon="12.6443793"><ele>207.0</ele><time>2026-03-22T09:13:56.517Z</time></trkpt><trkpt lat="43.6683003" lon="12.6444117"><ele>207.0</ele><time>2026-03-22T09:13:57.518Z</time></trkpt><trkpt lat="43.6682151" lon="12.6444354"><ele>207.0</ele><time>2026-03-22T09:13:58.519Z</time></trkpt><trkpt lat="43.6681367" lon="12.6444485"><ele>207.0</ele><time>2026-03-22T09:13:59.518Z</time></trkpt><trkpt lat="43.668065" lon="12.6444354"><ele>207.0</ele><time>2026-03-22T09:14:00.517Z</time></trkpt><trkpt lat="43.6680309" lon="12.6443607"><ele>207.0</ele><time>2026-03-22T09:14:01.518Z</time></trkpt><trkpt lat="43.6680125" lon="12.6442701"><ele>207.0</ele><time>2026-03-22T09:14:02.518Z</time></trkpt><trkpt lat="43.667997" lon="12.6441537"><ele>207.0</ele><time>2026-03-22T09:14:03.518Z</time></trkpt><trkpt lat="43.6679687" lon="12.6440397"><ele>207.0</ele><time>2026-03-22T09:14:04.517Z</time></trkpt><trkpt lat="43.6679206" lon="12.643945"><ele>207.0</ele><time>2026-03-22T09:14:05.517Z</time></trkpt><trkpt lat="43.6678579" lon="12.6438626"><ele>207.0</ele><time>2026-03-22T09:14:06.517Z</time></trkpt><trkpt lat="43.6677828" lon="12.6437863"><ele>207.0</ele><time>2026-03-22T09:14:07.517Z</time></trkpt><trkpt lat="43.6676896" lon="12.6437059"><ele>207.0</ele><time>2026-03-22T09:14:08.518Z</time></trkpt><trkpt lat="43.6675954" lon="12.643624"><ele>207.0</ele><time>2026-03-22T09:14:09.518Z</time></trkpt><trkpt lat="43.6675121" lon="12.6435416"><ele>206.25</ele><time>2026-03-22T09:14:10.517Z</time></trkpt><trkpt lat="43.6674243" lon="12.6434552"><ele>205.5</ele><time>2026-03-22T09:14:11.517Z</time></trkpt><trkpt lat="43.6673292" lon="12.6433687"><ele>204.75</ele><time>2026-03-22T09:14:12.518Z</time></trkpt><trkpt lat="43.6672257" lon="12.6432933"><ele>204.0</ele><time>2026-03-22T09:14:13.518Z</time></trkpt><trkpt lat="43.6671081" lon="12.6432362"><ele>204.0</ele><time>2026-03-22T09:14:14.518Z</time></trkpt><trkpt lat="43.666983" lon="12.6431923"><ele>204.0</ele><time>2026-03-22T09:14:15.518Z</time></trkpt><trkpt lat="43.6668569" lon="12.6431645"><ele>204.0</ele><time>2026-03-22T09:14:16.518Z</time></trkpt><trkpt lat="43.6667313" lon="12.6431549"><ele>204.0</ele><time>2026-03-22T09:14:17.517Z</time></trkpt><trkpt lat="43.6665883" lon="12.6431428"><ele>205.75</ele><time>2026-03-22T09:14:18.517Z</time></trkpt><trkpt lat="43.6664423" lon="12.6431274"><ele>207.5</ele><time>2026-03-22T09:14:19.518Z</time></trkpt><trkpt lat="43.6663102" lon="12.6430908"><ele>209.25</ele><time>2026-03-22T09:14:20.518Z</time></trkpt><trkpt lat="43.6662108" lon="12.6430297"><ele>211.0</ele><time>2026-03-22T09:14:21.519Z</time></trkpt><trkpt lat="43.6661011" lon="12.6429613"><ele>212.8</ele><time>2026-03-22T09:14:22.517Z</time></trkpt><trkpt lat="43.6660017" lon="12.6428813"><ele>214.60000000000002</ele><time>2026-03-22T09:14:23.519Z</time></trkpt><trkpt lat="43.665925" lon="12.6427747"><ele>216.4</ele><time>2026-03-22T09:14:24.518Z</time></trkpt><trkpt lat="43.6658503" lon="12.6426867"><ele>218.2</ele><time>2026-03-22T09:14:25.518Z</time></trkpt><trkpt lat="43.6657848" lon="12.642615"><ele>220.0</ele><time>2026-03-22T09:14:26.518Z</time></trkpt><trkpt lat="43.6657264" lon="12.6425397"><ele>221.2</ele><time>2026-03-22T09:14:27.519Z</time></trkpt><trkpt lat="43.6656635" lon="12.6424431"><ele>222.4</ele><time>2026-03-22T09:14:29.518Z</time></trkpt><trkpt lat="43.665574" lon="12.6424649"><ele>223.60000000000002</ele><time>2026-03-22T09:14:31.518Z</time></trkpt><trkpt lat="43.6654616" lon="12.6425821"><ele>224.8</ele><time>2026-03-22T09:14:33.517Z</time></trkpt><trkpt lat="43.6654009" lon="12.6426578"><ele>226.0</ele><time>2026-03-22T09:14:34.519Z</time></trkpt><trkpt lat="43.6653332" lon="12.6427163"><ele>227.60000000000002</ele><time>2026-03-22T09:14:35.518Z</time></trkpt><trkpt lat="43.6652663" lon="12.6428014"><ele>229.20000000000002</ele><time>2026-03-22T09:14:36.518Z</time></trkpt><trkpt lat="43.6652092" lon="12.6428918"><ele>230.79999999999998</ele><time>2026-03-22T09:14:37.517Z</time></trkpt><trkpt lat="43.6651426" lon="12.6429415"><ele>232.39999999999998</ele><time>2026-03-22T09:14:38.519Z</time></trkpt><trkpt lat="43.6650442" lon="12.6429251"><ele>234.0</ele><time>2026-03-22T09:14:40.518Z</time></trkpt><trkpt lat="43.6649847" lon="12.6427952"><ele>235.66666666666666</ele><time>2026-03-22T09:14:42.518Z</time></trkpt><trkpt lat="43.664974" lon="12.6426934"><ele>237.33333333333331</ele><time>2026-03-22T09:14:43.517Z</time></trkpt><trkpt lat="43.6649625" lon="12.642589"><ele>239.0</ele><time>2026-03-22T09:14:44.518Z</time></trkpt><trkpt lat="43.6649476" lon="12.6424836"><ele>240.66666666666666</ele><time>2026-03-22T09:14:45.518Z</time></trkpt><trkpt lat="43.664929" lon="12.6423675"><ele>242.33333333333331</ele><time>2026-03-22T09:14:46.518Z</time></trkpt><trkpt lat="43.6649175" lon="12.6422493"><ele>244.0</ele><time>2026-03-22T09:14:47.518Z</time></trkpt><trkpt lat="43.6649003" lon="12.6421299"><ele>244.0</ele><time>2026-03-22T09:14:48.518Z</time></trkpt><trkpt lat="43.6648746" lon="12.6419969"><ele>243.99999999999997</ele><time>2026-03-22T09:14:49.518Z</time></trkpt><trkpt lat="43.6648386" lon="12.6418679"><ele>243.99999999999997</ele><time>2026-03-22T09:14:50.517Z</time></trkpt><trkpt lat="43.664776" lon="12.6417575"><ele>244.0</ele><time>2026-03-22T09:14:51.518Z</time></trkpt><trkpt lat="43.6647085" lon="12.6416484"><ele>244.0</ele><time>2026-03-22T09:14:52.517Z</time></trkpt><trkpt lat="43.6646306" lon="12.6415502"><ele>243.49999999999997</ele><time>2026-03-22T09:14:53.519Z</time></trkpt><trkpt lat="43.6645549" lon="12.6414662"><ele>243.0</ele><time>2026-03-22T09:14:54.517Z</time></trkpt><trkpt lat="43.6644816" lon="12.6413971"><ele>242.5</ele><time>2026-03-22T09:14:55.518Z</time></trkpt><trkpt lat="43.6644048" lon="12.641325"><ele>242.0</ele><time>2026-03-22T09:14:56.518Z</time></trkpt><trkpt lat="43.6643511" lon="12.6412452"><ele>241.49999999999997</ele><time>2026-03-22T09:14:57.518Z</time></trkpt><trkpt lat="43.6642983" lon="12.6411542"><ele>241.0</ele><time>2026-03-22T09:14:58.518Z</time></trkpt><trkpt lat="43.6642638" lon="12.6410582"><ele>245.60000000000002</ele><time>2026-03-22T09:14:59.517Z</time></trkpt><trkpt lat="43.6642538" lon="12.6409426"><ele>250.20000000000002</ele><time>2026-03-22T09:15:00.517Z</time></trkpt><trkpt lat="43.6642541" lon="12.6408145"><ele>254.79999999999998</ele><time>2026-03-22T09:15:01.518Z</time></trkpt><trkpt lat="43.6642554" lon="12.640684"><ele>259.4</ele><time>2026-03-22T09:15:02.518Z</time></trkpt><trkpt lat="43.6642542" lon="12.6405451"><ele>264.0</ele><time>2026-03-22T09:15:03.518Z</time></trkpt><trkpt lat="43.6642497" lon="12.6404117"><ele>263.59999999999997</ele><time>2026-03-22T09:15:04.518Z</time></trkpt><trkpt lat="43.6642437" lon="12.6402647"><ele>263.2</ele><time>2026-03-22T09:15:05.517Z</time></trkpt><trkpt lat="43.6642321" lon="12.6401147"><ele>262.79999999999995</ele><time>2026-03-22T09:15:06.518Z</time></trkpt><trkpt lat="43.6642066" lon="12.6399851"><ele>262.4</ele><time>2026-03-22T09:15:07.516Z</time></trkpt><trkpt lat="43.6641645" lon="12.6398726"><ele>262.0</ele><time>2026-03-22T09:15:08.518Z</time></trkpt><trkpt lat="43.6641176" lon="12.6397735"><ele>262.0</ele><time>2026-03-22T09:15:09.517Z</time></trkpt><trkpt lat="43.6640537" lon="12.6396911"><ele>262.0</ele><time>2026-03-22T09:15:10.517Z</time></trkpt><trkpt lat="43.663982" lon="12.6396194"><ele>262.0</ele><time>2026-03-22T09:15:11.518Z</time></trkpt><trkpt lat="43.6639034" lon="12.6395455"><ele>262.0</ele><time>2026-03-22T09:15:12.517Z</time></trkpt><trkpt lat="43.6638071" lon="12.6394736"><ele>262.0</ele><time>2026-03-22T09:15:13.517Z</time></trkpt><trkpt lat="43.6637085" lon="12.6393982"><ele>265.75</ele><time>2026-03-22T09:15:14.517Z</time></trkpt><trkpt lat="43.6636061" lon="12.63932"><ele>269.5</ele><time>2026-03-22T09:15:15.518Z</time></trkpt><trkpt lat="43.6635003" lon="12.6392259"><ele>273.25</ele><time>2026-03-22T09:15:16.519Z</time></trkpt><trkpt lat="43.6633933" lon="12.639129"><ele>277.0</ele><time>2026-03-22T09:15:17.517Z</time></trkpt><trkpt lat="43.6633069" lon="12.6390458"><ele>277.0</ele><time>2026-03-22T09:15:18.517Z</time></trkpt><trkpt lat="43.6632266" lon="12.6389791"><ele>277.0</ele><time>2026-03-22T09:15:19.516Z</time></trkpt><trkpt lat="43.6631617" lon="12.6389172"><ele>277.0</ele><time>2026-03-22T09:15:20.517Z</time></trkpt><trkpt lat="43.6630977" lon="12.6388654"><ele>277.0</ele><time>2026-03-22T09:15:21.517Z</time></trkpt><trkpt lat="43.6630335" lon="12.638838"><ele>277.0</ele><time>2026-03-22T09:15:22.518Z</time></trkpt><trkpt lat="43.66296" lon="12.6388301"><ele>277.0</ele><time>2026-03-22T09:15:23.518Z</time></trkpt><trkpt lat="43.662883" lon="12.6388239"><ele>277.0</ele><time>2026-03-22T09:15:24.518Z</time></trkpt><trkpt lat="43.6627953" lon="12.6388267"><ele>277.0</ele><time>2026-03-22T09:15:25.518Z</time></trkpt><trkpt lat="43.6627122" lon="12.6388591"><ele>277.0</ele><time>2026-03-22T09:15:26.518Z</time></trkpt><trkpt lat="43.662638" lon="12.6389153"><ele>277.0</ele><time>2026-03-22T09:15:27.519Z</time></trkpt><trkpt lat="43.6625852" lon="12.6390114"><ele>277.0</ele><time>2026-03-22T09:15:28.517Z</time></trkpt><trkpt lat="43.6625321" lon="12.6391162"><ele>277.0</ele><time>2026-03-22T09:15:29.518Z</time></trkpt><trkpt lat="43.662475" lon="12.6392258"><ele>277.4</ele><time>2026-03-22T09:15:30.517Z</time></trkpt><trkpt lat="43.6624156" lon="12.6393405"><ele>277.79999999999995</ele><time>2026-03-22T09:15:31.518Z</time></trkpt><trkpt lat="43.6623475" lon="12.639438"><ele>278.2</ele><time>2026-03-22T09:15:32.518Z</time></trkpt><trkpt lat="43.6622679" lon="12.6395236"><ele>278.59999999999997</ele><time>2026-03-22T09:15:33.517Z</time></trkpt><trkpt lat="43.6621727" lon="12.639592"><ele>279.0</ele><time>2026-03-22T09:15:34.518Z</time></trkpt><trkpt lat="43.6620715" lon="12.6396642"><ele>282.0</ele><time>2026-03-22T09:15:35.516Z</time></trkpt><trkpt lat="43.6619621" lon="12.6397305"><ele>285.0</ele><time>2026-03-22T09:15:36.518Z</time></trkpt><trkpt lat="43.66185" lon="12.6397984"><ele>288.0</ele><time>2026-03-22T09:15:37.518Z</time></trkpt><trkpt lat="43.6617362" lon="12.639865"><ele>291.0</ele><time>2026-03-22T09:15:38.517Z</time></trkpt><trkpt lat="43.6616194" lon="12.639928"><ele>291.0</ele><time>2026-03-22T09:15:39.516Z</time></trkpt><trkpt lat="43.6614885" lon="12.6399828"><ele>291.0</ele><time>2026-03-22T09:15:40.516Z</time></trkpt><trkpt lat="43.6613496" lon="12.6400147"><ele>291.0</ele><time>2026-03-22T09:15:41.517Z</time></trkpt><trkpt lat="43.6612068" lon="12.6400398"><ele>291.0</ele><time>2026-03-22T09:15:42.517Z</time></trkpt><trkpt lat="43.6610985" lon="12.6400672"><ele>288.8</ele><time>2026-03-22T09:15:43.517Z</time></trkpt><trkpt lat="43.6609853" lon="12.6400942"><ele>286.6</ele><time>2026-03-22T09:15:44.518Z</time></trkpt><trkpt lat="43.6608758" lon="12.6401108"><ele>284.4</ele><time>2026-03-22T09:15:45.518Z</time></trkpt><trkpt lat="43.6607697" lon="12.6401407"><ele>282.2</ele><time>2026-03-22T09:15:46.517Z</time></trkpt><trkpt lat="43.6606612" lon="12.6401713"><ele>280.0</ele><time>2026-03-22T09:15:47.518Z</time></trkpt><trkpt lat="43.6605361" lon="12.640199"><ele>280.0</ele><time>2026-03-22T09:15:48.517Z</time></trkpt><trkpt lat="43.660416" lon="12.6402188"><ele>280.0</ele><time>2026-03-22T09:15:49.518Z</time></trkpt><trkpt lat="43.6602919" lon="12.6402314"><ele>280.0</ele><time>2026-03-22T09:15:50.516Z</time></trkpt><trkpt lat="43.6601887" lon="12.640246"><ele>280.0</ele><time>2026-03-22T09:15:51.517Z</time></trkpt><trkpt lat="43.6600892" lon="12.6402891"><ele>279.75</ele><time>2026-03-22T09:15:52.517Z</time></trkpt><trkpt lat="43.6599944" lon="12.6403618"><ele>279.5</ele><time>2026-03-22T09:15:53.518Z</time></trkpt><trkpt lat="43.6599041" lon="12.6404606"><ele>279.25</ele><time>2026-03-22T09:15:54.518Z</time></trkpt><trkpt lat="43.6598172" lon="12.6405748"><ele>279.0</ele><time>2026-03-22T09:15:55.516Z</time></trkpt><trkpt lat="43.6597417" lon="12.6406833"><ele>279.0</ele><time>2026-03-22T09:15:56.518Z</time></trkpt><trkpt lat="43.659667" lon="12.6407778"><ele>279.0</ele><time>2026-03-22T09:15:57.517Z</time></trkpt><trkpt lat="43.6595907" lon="12.6408485"><ele>279.0</ele><time>2026-03-22T09:15:58.517Z</time></trkpt><trkpt lat="43.6595074" lon="12.6408664"><ele>279.0</ele><time>2026-03-22T09:15:59.518Z</time></trkpt><trkpt lat="43.6594352" lon="12.6408415"><ele>279.0</ele><time>2026-03-22T09:16:00.517Z</time></trkpt><trkpt lat="43.6593653" lon="12.6407697"><ele>279.0</ele><time>2026-03-22T09:16:01.518Z</time></trkpt><trkpt lat="43.6593232" lon="12.6406687"><ele>278.5</ele><time>2026-03-22T09:16:02.518Z</time></trkpt><trkpt lat="43.659309" lon="12.6405385"><ele>278.0</ele><time>2026-03-22T09:16:03.517Z</time></trkpt><trkpt lat="43.6593147" lon="12.6403939"><ele>277.5</ele><time>2026-03-22T09:16:04.517Z</time></trkpt><trkpt lat="43.6593233" lon="12.6402213"><ele>277.0</ele><time>2026-03-22T09:16:05.517Z</time></trkpt><trkpt lat="43.6593325" lon="12.6400247"><ele>277.0</ele><time>2026-03-22T09:16:06.517Z</time></trkpt><trkpt lat="43.6593435" lon="12.6397973"><ele>277.0</ele><time>2026-03-22T09:16:07.518Z</time></trkpt><trkpt lat="43.6593519" lon="12.6395925"><ele>277.0</ele><time>2026-03-22T09:16:08.517Z</time></trkpt><trkpt lat="43.6593587" lon="12.639411"><ele>277.0</ele><time>2026-03-22T09:16:09.517Z</time></trkpt><trkpt lat="43.6593667" lon="12.6392451"><ele>277.5</ele><time>2026-03-22T09:16:10.518Z</time></trkpt><trkpt lat="43.6593661" lon="12.6391097"><ele>278.0</ele><time>2026-03-22T09:16:11.518Z</time></trkpt><trkpt lat="43.6593437" lon="12.639016"><ele>278.5</ele><time>2026-03-22T09:16:12.519Z</time></trkpt><trkpt lat="43.6592935" lon="12.6389535"><ele>279.0</ele><time>2026-03-22T09:16:13.519Z</time></trkpt><trkpt lat="43.6592262" lon="12.6389263"><ele>279.5</ele><time>2026-03-22T09:16:14.517Z</time></trkpt><trkpt lat="43.6591511" lon="12.6389429"><ele>280.0</ele><time>2026-03-22T09:16:15.517Z</time></trkpt><trkpt lat="43.6590689" lon="12.6390079"><ele>280.0</ele><time>2026-03-22T09:16:16.518Z</time></trkpt><trkpt lat="43.6589845" lon="12.6391246"><ele>280.0</ele><time>2026-03-22T09:16:17.516Z</time></trkpt><trkpt lat="43.6588946" lon="12.6392711"><ele>280.0</ele><time>2026-03-22T09:16:18.517Z</time></trkpt><trkpt lat="43.6587935" lon="12.6394476"><ele>280.0</ele><time>2026-03-22T09:16:19.517Z</time></trkpt><trkpt lat="43.6586855" lon="12.6396482"><ele>285.66666666666663</ele><time>2026-03-22T09:16:20.517Z</time></trkpt><trkpt lat="43.6585841" lon="12.6398471"><ele>291.3333333333333</ele><time>2026-03-22T09:16:21.518Z</time></trkpt><trkpt lat="43.658496" lon="12.6400255"><ele>297.0</ele><time>2026-03-22T09:16:22.519Z</time></trkpt><trkpt lat="43.6584119" lon="12.6401821"><ele>296.5</ele><time>2026-03-22T09:16:23.516Z</time></trkpt><trkpt lat="43.6583195" lon="12.6403318"><ele>296.0</ele><time>2026-03-22T09:16:24.518Z</time></trkpt><trkpt lat="43.6582042" lon="12.6404522"><ele>295.5</ele><time>2026-03-22T09:16:25.518Z</time></trkpt><trkpt lat="43.6580906" lon="12.6405824"><ele>295.0</ele><time>2026-03-22T09:16:26.518Z</time></trkpt><trkpt lat="43.6579637" lon="12.6407062"><ele>295.0</ele><time>2026-03-22T09:16:27.517Z</time></trkpt><trkpt lat="43.6578278" lon="12.6408382"><ele>295.0</ele><time>2026-03-22T09:16:28.516Z</time></trkpt><trkpt lat="43.6576974" lon="12.6409762"><ele>295.0</ele><time>2026-03-22T09:16:29.517Z</time></trkpt><trkpt lat="43.6575755" lon="12.6411023"><ele>297.3333333333333</ele><time>2026-03-22T09:16:30.519Z</time></trkpt><trkpt lat="43.6574923" lon="12.6411974"><ele>299.66666666666663</ele><time>2026-03-22T09:16:31.518Z</time></trkpt><trkpt lat="43.6574167" lon="12.6412512"><ele>302.0</ele><time>2026-03-22T09:16:32.518Z</time></trkpt><trkpt lat="43.6573389" lon="12.6412569"><ele>304.3333333333333</ele><time>2026-03-22T09:16:33.516Z</time></trkpt><trkpt lat="43.6572673" lon="12.6412287"><ele>306.6666666666667</ele><time>2026-03-22T09:16:34.518Z</time></trkpt><trkpt lat="43.6571864" lon="12.6411568"><ele>309.0</ele><time>2026-03-22T09:16:35.517Z</time></trkpt><trkpt lat="43.6571042" lon="12.641119"><ele>309.4</ele><time>2026-03-22T09:16:36.517Z</time></trkpt><trkpt lat="43.6570193" lon="12.6411243"><ele>309.79999999999995</ele><time>2026-03-22T09:16:37.516Z</time></trkpt><trkpt lat="43.6569282" lon="12.6411357"><ele>310.20000000000005</ele><time>2026-03-22T09:16:38.517Z</time></trkpt><trkpt lat="43.6568567" lon="12.6412131"><ele>310.6</ele><time>2026-03-22T09:16:39.518Z</time></trkpt><trkpt lat="43.656777" lon="12.6412949"><ele>311.0</ele><time>2026-03-22T09:16:40.518Z</time></trkpt><trkpt lat="43.656675" lon="12.6413682"><ele>314.75</ele><time>2026-03-22T09:16:41.518Z</time></trkpt><trkpt lat="43.6565633" lon="12.6414477"><ele>318.5</ele><time>2026-03-22T09:16:42.518Z</time></trkpt><trkpt lat="43.6564332" lon="12.6415142"><ele>322.25</ele><time>2026-03-22T09:16:43.517Z</time></trkpt><trkpt lat="43.6562973" lon="12.6415695"><ele>326.0</ele><time>2026-03-22T09:16:44.519Z</time></trkpt><trkpt lat="43.6561509" lon="12.641613"><ele>326.6666666666667</ele><time>2026-03-22T09:16:45.517Z</time></trkpt><trkpt lat="43.6559908" lon="12.6416555"><ele>327.3333333333333</ele><time>2026-03-22T09:16:46.518Z</time></trkpt><trkpt lat="43.6558296" lon="12.6417033"><ele>328.0</ele><time>2026-03-22T09:16:47.517Z</time></trkpt><trkpt lat="43.6556688" lon="12.641749"><ele>328.0</ele><time>2026-03-22T09:16:48.517Z</time></trkpt><trkpt lat="43.6555226" lon="12.641785"><ele>328.0</ele><time>2026-03-22T09:16:49.518Z</time></trkpt><trkpt lat="43.6553893" lon="12.6418193"><ele>328.0</ele><time>2026-03-22T09:16:50.517Z</time></trkpt><trkpt lat="43.6552724" lon="12.6418534"><ele>328.0</ele><time>2026-03-22T09:16:51.518Z</time></trkpt><trkpt lat="43.6551735" lon="12.6419004"><ele>330.0</ele><time>2026-03-22T09:16:52.516Z</time></trkpt><trkpt lat="43.65508" lon="12.6419723"><ele>332.0</ele><time>2026-03-22T09:16:53.517Z</time></trkpt><trkpt lat="43.6550124" lon="12.6420717"><ele>334.0</ele><time>2026-03-22T09:16:54.518Z</time></trkpt><trkpt lat="43.6549525" lon="12.6421997"><ele>336.0</ele><time>2026-03-22T09:16:55.516Z</time></trkpt><trkpt lat="43.654906" lon="12.642359"><ele>338.0</ele><time>2026-03-22T09:16:56.517Z</time></trkpt><trkpt lat="43.6548448" lon="12.6425314"><ele>338.0</ele><time>2026-03-22T09:16:57.518Z</time></trkpt><trkpt lat="43.654789" lon="12.642716"><ele>338.0</ele><time>2026-03-22T09:16:58.517Z</time></trkpt><trkpt lat="43.6547359" lon="12.6428822"><ele>338.0</ele><time>2026-03-22T09:16:59.517Z</time></trkpt><trkpt lat="43.6546855" lon="12.643021"><ele>338.0</ele><time>2026-03-22T09:17:00.517Z</time></trkpt><trkpt lat="43.6546375" lon="12.6431105"><ele>338.2</ele><time>2026-03-22T09:17:01.516Z</time></trkpt><trkpt lat="43.6545183" lon="12.6431406"><ele>338.4</ele><time>2026-03-22T09:17:03.518Z</time></trkpt><trkpt lat="43.6544538" lon="12.6430966"><ele>338.59999999999997</ele><time>2026-03-22T09:17:04.518Z</time></trkpt><trkpt lat="43.6543701" lon="12.6430388"><ele>338.79999999999995</ele><time>2026-03-22T09:17:05.518Z</time></trkpt><trkpt lat="43.6542704" lon="12.6429795"><ele>339.0</ele><time>2026-03-22T09:17:06.517Z</time></trkpt><trkpt lat="43.6541595" lon="12.6429248"><ele>342.25</ele><time>2026-03-22T09:17:07.517Z</time></trkpt><trkpt lat="43.6540383" lon="12.6428741"><ele>345.5</ele><time>2026-03-22T09:17:08.517Z</time></trkpt><trkpt lat="43.6539069" lon="12.6428241"><ele>348.75</ele><time>2026-03-22T09:17:09.518Z</time></trkpt><trkpt lat="43.6537748" lon="12.642768"><ele>352.0</ele><time>2026-03-22T09:17:10.517Z</time></trkpt><trkpt lat="43.6536446" lon="12.6427089"><ele>356.25</ele><time>2026-03-22T09:17:11.519Z</time></trkpt><trkpt lat="43.6535028" lon="12.642649"><ele>360.5</ele><time>2026-03-22T09:17:12.517Z</time></trkpt><trkpt lat="43.6533724" lon="12.6425895"><ele>364.75</ele><time>2026-03-22T09:17:13.518Z</time></trkpt><trkpt lat="43.6532704" lon="12.6425462"><ele>369.0</ele><time>2026-03-22T09:17:14.516Z</time></trkpt><trkpt lat="43.653179" lon="12.6425135"><ele>369.0</ele><time>2026-03-22T09:17:15.518Z</time></trkpt><trkpt lat="43.6530981" lon="12.6424655"><ele>369.0</ele><time>2026-03-22T09:17:16.517Z</time></trkpt><trkpt lat="43.653031" lon="12.6424079"><ele>369.0</ele><time>2026-03-22T09:17:17.518Z</time></trkpt><trkpt lat="43.6529836" lon="12.6423264"><ele>369.0</ele><time>2026-03-22T09:17:18.518Z</time></trkpt><trkpt lat="43.6529578" lon="12.6422361"><ele>369.0</ele><time>2026-03-22T09:17:19.517Z</time></trkpt><trkpt lat="43.6529396" lon="12.6421473"><ele>369.0</ele><time>2026-03-22T09:17:20.517Z</time></trkpt><trkpt lat="43.6528824" lon="12.6420454"><ele>369.0</ele><time>2026-03-22T09:17:22.518Z</time></trkpt><trkpt lat="43.6528112" lon="12.6420801"><ele>369.0</ele><time>2026-03-22T09:17:24.516Z</time></trkpt><trkpt lat="43.6527689" lon="12.6422216"><ele>369.0</ele><time>2026-03-22T09:17:26.516Z</time></trkpt><trkpt lat="43.6527435" lon="12.6423205"><ele>369.0</ele><time>2026-03-22T09:17:27.517Z</time></trkpt><trkpt lat="43.6527091" lon="12.6424387"><ele>369.0</ele><time>2026-03-22T09:17:28.519Z</time></trkpt><trkpt lat="43.6526816" lon="12.6425822"><ele>373.5</ele><time>2026-03-22T09:17:29.517Z</time></trkpt><trkpt lat="43.6526539" lon="12.6427351"><ele>378.0</ele><time>2026-03-22T09:17:30.517Z</time></trkpt><trkpt lat="43.6526134" lon="12.642885"><ele>382.5</ele><time>2026-03-22T09:17:31.517Z</time></trkpt><trkpt lat="43.6525725" lon="12.6430438"><ele>387.0</ele><time>2026-03-22T09:17:32.517Z</time></trkpt><trkpt lat="43.6525319" lon="12.643194"><ele>387.0</ele><time>2026-03-22T09:17:33.517Z</time></trkpt><trkpt lat="43.6524889" lon="12.6433231"><ele>387.0</ele><time>2026-03-22T09:17:34.518Z</time></trkpt><trkpt lat="43.6524418" lon="12.6434441"><ele>387.0</ele><time>2026-03-22T09:17:35.518Z</time></trkpt><trkpt lat="43.6524224" lon="12.6435552"><ele>387.0</ele><time>2026-03-22T09:17:36.518Z</time></trkpt><trkpt lat="43.6524473" lon="12.6436702"><ele>387.0</ele><time>2026-03-22T09:17:37.518Z</time></trkpt><trkpt lat="43.6524927" lon="12.6437921"><ele>386.8333333333333</ele><time>2026-03-22T09:17:38.519Z</time></trkpt><trkpt lat="43.6525161" lon="12.6439144"><ele>386.66666666666663</ele><time>2026-03-22T09:17:39.518Z</time></trkpt><trkpt lat="43.6525214" lon="12.6440222"><ele>386.5</ele><time>2026-03-22T09:17:40.517Z</time></trkpt><trkpt lat="43.6525054" lon="12.6441182"><ele>386.3333333333333</ele><time>2026-03-22T09:17:41.518Z</time></trkpt><trkpt lat="43.652444" lon="12.6442006"><ele>386.16666666666663</ele><time>2026-03-22T09:17:42.518Z</time></trkpt><trkpt lat="43.6523734" lon="12.6442891"><ele>386.0</ele><time>2026-03-22T09:17:43.518Z</time></trkpt><trkpt lat="43.6522826" lon="12.6443653"><ele>386.0</ele><time>2026-03-22T09:17:44.517Z</time></trkpt><trkpt lat="43.6521754" lon="12.6444415"><ele>386.0</ele><time>2026-03-22T09:17:45.519Z</time></trkpt><trkpt lat="43.6520716" lon="12.6445236"><ele>386.0</ele><time>2026-03-22T09:17:46.518Z</time></trkpt><trkpt lat="43.6519589" lon="12.644642"><ele>386.0</ele><time>2026-03-22T09:17:47.519Z</time></trkpt><trkpt lat="43.6518513" lon="12.6447709"><ele>388.20000000000005</ele><time>2026-03-22T09:17:48.517Z</time></trkpt><trkpt lat="43.6517734" lon="12.6448804"><ele>390.40000000000003</ele><time>2026-03-22T09:17:49.516Z</time></trkpt><trkpt lat="43.6516905" lon="12.644998"><ele>392.6</ele><time>2026-03-22T09:17:50.516Z</time></trkpt><trkpt lat="43.6516046" lon="12.6450857"><ele>394.8</ele><time>2026-03-22T09:17:51.517Z</time></trkpt><trkpt lat="43.6515142" lon="12.6451691"><ele>397.0</ele><time>2026-03-22T09:17:52.518Z</time></trkpt><trkpt lat="43.6514253" lon="12.645239"><ele>396.8</ele><time>2026-03-22T09:17:53.519Z</time></trkpt><trkpt lat="43.6513383" lon="12.6453155"><ele>396.6</ele><time>2026-03-22T09:17:54.517Z</time></trkpt><trkpt lat="43.6512569" lon="12.645403"><ele>396.40000000000003</ele><time>2026-03-22T09:17:55.517Z</time></trkpt><trkpt lat="43.651211" lon="12.645505"><ele>396.20000000000005</ele><time>2026-03-22T09:17:56.518Z</time></trkpt><trkpt lat="43.6511794" lon="12.6456231"><ele>396.0</ele><time>2026-03-22T09:17:57.517Z</time></trkpt><trkpt lat="43.6511415" lon="12.6457339"><ele>397.0</ele><time>2026-03-22T09:17:58.517Z</time></trkpt><trkpt lat="43.6511116" lon="12.6458474"><ele>398.0</ele><time>2026-03-22T09:17:59.516Z</time></trkpt><trkpt lat="43.6510839" lon="12.6459627"><ele>399.0</ele><time>2026-03-22T09:18:00.517Z</time></trkpt><trkpt lat="43.6510519" lon="12.6460465"><ele>400.0</ele><time>2026-03-22T09:18:01.518Z</time></trkpt><trkpt lat="43.651" lon="12.646187"><ele>401.0</ele><time>2026-03-22T09:18:03.517Z</time></trkpt><trkpt lat="43.6509973" lon="12.646345"><ele>401.0</ele><time>2026-03-22T09:18:05.518Z</time></trkpt><trkpt lat="43.6510304" lon="12.6464321"><ele>401.0</ele><time>2026-03-22T09:18:06.517Z</time></trkpt><trkpt lat="43.6510772" lon="12.6465061"><ele>401.0</ele><time>2026-03-22T09:18:07.516Z</time></trkpt><trkpt lat="43.651129" lon="12.6465943"><ele>401.0</ele><time>2026-03-22T09:18:08.519Z</time></trkpt><trkpt lat="43.6511833" lon="12.6466693"><ele>401.0</ele><time>2026-03-22T09:18:09.517Z</time></trkpt><trkpt lat="43.6512303" lon="12.6467557"><ele>401.0</ele><time>2026-03-22T09:18:10.518Z</time></trkpt><trkpt lat="43.651274" lon="12.6468282"><ele>401.0</ele><time>2026-03-22T09:18:11.518Z</time></trkpt><trkpt lat="43.6513242" lon="12.6469745"><ele>403.0</ele><time>2026-03-22T09:18:13.517Z</time></trkpt><trkpt lat="43.6512979" lon="12.6471226"><ele>405.0</ele><time>2026-03-22T09:18:15.518Z</time></trkpt><trkpt lat="43.6512839" lon="12.6472479"><ele>407.0</ele><time>2026-03-22T09:18:17.517Z</time></trkpt><trkpt lat="43.6512648" lon="12.6473943"><ele>409.0</ele><time>2026-03-22T09:18:19.516Z</time></trkpt><trkpt lat="43.6512442" lon="12.6475456"><ele>411.0</ele><time>2026-03-22T09:18:21.516Z</time></trkpt><trkpt lat="43.6512292" lon="12.6476994"><ele>411.0</ele><time>2026-03-22T09:18:23.518Z</time></trkpt><trkpt lat="43.6512192" lon="12.6477867"><ele>411.0</ele><time>2026-03-22T09:18:24.517Z</time></trkpt><trkpt lat="43.6511975" lon="12.647915"><ele>411.0</ele><time>2026-03-22T09:18:26.518Z</time></trkpt><trkpt lat="43.6511236" lon="12.6480677"><ele>411.0</ele><time>2026-03-22T09:18:28.517Z</time></trkpt><trkpt lat="43.6510565" lon="12.6481503"><ele>411.0</ele><time>2026-03-22T09:18:29.517Z</time></trkpt><trkpt lat="43.6509782" lon="12.6482274"><ele>412.3333333333333</ele><time>2026-03-22T09:18:30.518Z</time></trkpt><trkpt lat="43.6509008" lon="12.6483046"><ele>413.66666666666663</ele><time>2026-03-22T09:18:31.516Z</time></trkpt><trkpt lat="43.6508319" lon="12.6483706"><ele>415.0</ele><time>2026-03-22T09:18:32.517Z</time></trkpt><trkpt lat="43.6507726" lon="12.6484213"><ele>416.3333333333333</ele><time>2026-03-22T09:18:33.517Z</time></trkpt><trkpt lat="43.6507101" lon="12.6484784"><ele>417.66666666666663</ele><time>2026-03-22T09:18:34.516Z</time></trkpt><trkpt lat="43.6506553" lon="12.6485543"><ele>419.0</ele><time>2026-03-22T09:18:35.517Z</time></trkpt><trkpt lat="43.6506058" lon="12.6486237"><ele>422.4</ele><time>2026-03-22T09:18:36.518Z</time></trkpt><trkpt lat="43.6505383" lon="12.6487493"><ele>425.79999999999995</ele><time>2026-03-22T09:18:38.518Z</time></trkpt><trkpt lat="43.6505046" lon="12.6488963"><ele>429.20000000000005</ele><time>2026-03-22T09:18:40.517Z</time></trkpt><trkpt lat="43.6504801" lon="12.6489842"><ele>432.6</ele><time>2026-03-22T09:18:41.516Z</time></trkpt><trkpt lat="43.6504387" lon="12.6491398"><ele>436.0</ele><time>2026-03-22T09:18:43.519Z</time></trkpt><trkpt lat="43.6504219" lon="12.6492354"><ele>436.0</ele><time>2026-03-22T09:18:44.516Z</time></trkpt><trkpt lat="43.6503931" lon="12.649325"><ele>436.0</ele><time>2026-03-22T09:18:45.518Z</time></trkpt><trkpt lat="43.6503761" lon="12.6494203"><ele>436.0</ele><time>2026-03-22T09:18:46.517Z</time></trkpt><trkpt lat="43.6503867" lon="12.6495147"><ele>436.0</ele><time>2026-03-22T09:18:47.518Z</time></trkpt><trkpt lat="43.6503838" lon="12.6496115"><ele>436.0</ele><time>2026-03-22T09:18:48.518Z</time></trkpt><trkpt lat="43.6503899" lon="12.6497011"><ele>436.0</ele><time>2026-03-22T09:18:49.518Z</time></trkpt><trkpt lat="43.6504525" lon="12.6498129"><ele>436.0</ele><time>2026-03-22T09:18:51.518Z</time></trkpt><trkpt lat="43.6505475" lon="12.6498361"><ele>436.2857142857143</ele><time>2026-03-22T09:18:53.517Z</time></trkpt><trkpt lat="43.6506176" lon="12.6498327"><ele>436.57142857142856</ele><time>2026-03-22T09:18:54.517Z</time></trkpt><trkpt lat="43.6506859" lon="12.6498304"><ele>436.8571428571429</ele><time>2026-03-22T09:18:55.518Z</time></trkpt><trkpt lat="43.6507601" lon="12.6498436"><ele>437.1428571428571</ele><time>2026-03-22T09:18:56.516Z</time></trkpt><trkpt lat="43.6508333" lon="12.6498546"><ele>437.4285714285714</ele><time>2026-03-22T09:18:57.518Z</time></trkpt><trkpt lat="43.6509095" lon="12.6498755"><ele>437.7142857142857</ele><time>2026-03-22T09:18:58.517Z</time></trkpt><trkpt lat="43.6509908" lon="12.6499003"><ele>438.0</ele><time>2026-03-22T09:18:59.517Z</time></trkpt><trkpt lat="43.6510683" lon="12.6499258"><ele>439.3333333333333</ele><time>2026-03-22T09:19:00.518Z</time></trkpt><trkpt lat="43.6511536" lon="12.6499604"><ele>440.66666666666663</ele><time>2026-03-22T09:19:01.518Z</time></trkpt><trkpt lat="43.6512384" lon="12.649996"><ele>442.0</ele><time>2026-03-22T09:19:02.517Z</time></trkpt><trkpt lat="43.6513133" lon="12.6500433"><ele>443.3333333333333</ele><time>2026-03-22T09:19:03.516Z</time></trkpt><trkpt lat="43.651386" lon="12.6500974"><ele>444.66666666666663</ele><time>2026-03-22T09:19:04.516Z</time></trkpt><trkpt lat="43.6514603" lon="12.6501613"><ele>446.0</ele><time>2026-03-22T09:19:05.516Z</time></trkpt><trkpt lat="43.651535" lon="12.650217"><ele>445.99999999999994</ele><time>2026-03-22T09:19:06.516Z</time></trkpt><trkpt lat="43.651613" lon="12.6502757"><ele>446.0</ele><time>2026-03-22T09:19:07.519Z</time></trkpt><trkpt lat="43.6516942" lon="12.6503375"><ele>446.0</ele><time>2026-03-22T09:19:08.517Z</time></trkpt><trkpt lat="43.6517695" lon="12.650404"><ele>446.0</ele><time>2026-03-22T09:19:09.518Z</time></trkpt><trkpt lat="43.6518314" lon="12.6504771"><ele>445.99999999999994</ele><time>2026-03-22T09:19:10.518Z</time></trkpt><trkpt lat="43.6518983" lon="12.6505453"><ele>446.0</ele><time>2026-03-22T09:19:11.518Z</time></trkpt><trkpt lat="43.6519681" lon="12.6506061"><ele>445.99999999999994</ele><time>2026-03-22T09:19:12.516Z</time></trkpt><trkpt lat="43.6520381" lon="12.6506674"><ele>446.0</ele><time>2026-03-22T09:19:13.518Z</time></trkpt><trkpt lat="43.6521067" lon="12.6507157"><ele>446.0</ele><time>2026-03-22T09:19:14.516Z</time></trkpt><trkpt lat="43.6521704" lon="12.6507554"><ele>446.0</ele><time>2026-03-22T09:19:15.518Z</time></trkpt><trkpt lat="43.6522346" lon="12.6507893"><ele>445.99999999999994</ele><time>2026-03-22T09:19:16.516Z</time></trkpt><trkpt lat="43.6522949" lon="12.650832"><ele>446.0</ele><time>2026-03-22T09:19:17.517Z</time></trkpt><trkpt lat="43.6523555" lon="12.6509711"><ele>446.0</ele><time>2026-03-22T09:19:19.517Z</time></trkpt><trkpt lat="43.6523527" lon="12.6510597"><ele>446.0</ele><time>2026-03-22T09:19:20.517Z</time></trkpt><trkpt lat="43.6523316" lon="12.6511681"><ele>446.0</ele><time>2026-03-22T09:19:21.517Z</time></trkpt><trkpt lat="43.6522803" lon="12.6513111"><ele>446.0</ele><time>2026-03-22T09:19:22.516Z</time></trkpt><trkpt lat="43.6522326" lon="12.6514482"><ele>446.0</ele><time>2026-03-22T09:19:23.518Z</time></trkpt><trkpt lat="43.6521667" lon="12.651603"><ele>447.0</ele><time>2026-03-22T09:19:24.518Z</time></trkpt><trkpt lat="43.6520922" lon="12.6517611"><ele>448.0</ele><time>2026-03-22T09:19:25.517Z</time></trkpt><trkpt lat="43.6520112" lon="12.651914"><ele>449.0</ele><time>2026-03-22T09:19:26.518Z</time></trkpt><trkpt lat="43.6519206" lon="12.6520486"><ele>450.0</ele><time>2026-03-22T09:19:27.519Z</time></trkpt><trkpt lat="43.6518331" lon="12.6521823"><ele>450.0</ele><time>2026-03-22T09:19:28.518Z</time></trkpt><trkpt lat="43.6517524" lon="12.6523176"><ele>450.0</ele><time>2026-03-22T09:19:29.516Z</time></trkpt><trkpt lat="43.6516771" lon="12.6524519"><ele>450.0</ele><time>2026-03-22T09:19:30.518Z</time></trkpt><trkpt lat="43.6516047" lon="12.6525813"><ele>450.0</ele><time>2026-03-22T09:19:31.517Z</time></trkpt><trkpt lat="43.6515459" lon="12.6527321"><ele>453.75</ele><time>2026-03-22T09:19:32.517Z</time></trkpt><trkpt lat="43.6514931" lon="12.6528819"><ele>457.5</ele><time>2026-03-22T09:19:33.518Z</time></trkpt><trkpt lat="43.6514374" lon="12.6530512"><ele>461.25</ele><time>2026-03-22T09:19:34.517Z</time></trkpt><trkpt lat="43.6513874" lon="12.6532311"><ele>465.0</ele><time>2026-03-22T09:19:35.517Z</time></trkpt><trkpt lat="43.6513306" lon="12.6534036"><ele>465.0</ele><time>2026-03-22T09:19:36.518Z</time></trkpt><trkpt lat="43.6512744" lon="12.6535616"><ele>465.0</ele><time>2026-03-22T09:19:37.518Z</time></trkpt><trkpt lat="43.6512169" lon="12.6537232"><ele>465.0</ele><time>2026-03-22T09:19:38.516Z</time></trkpt><trkpt lat="43.6511569" lon="12.6538808"><ele>465.0</ele><time>2026-03-22T09:19:39.517Z</time></trkpt><trkpt lat="43.651101" lon="12.6540521"><ele>461.25</ele><time>2026-03-22T09:19:40.517Z</time></trkpt><trkpt lat="43.6510442" lon="12.6542284"><ele>457.5</ele><time>2026-03-22T09:19:41.518Z</time></trkpt><trkpt lat="43.6509799" lon="12.6543901"><ele>453.75</ele><time>2026-03-22T09:19:42.517Z</time></trkpt><trkpt lat="43.6509237" lon="12.6545542"><ele>450.0</ele><time>2026-03-22T09:19:43.516Z</time></trkpt><trkpt lat="43.6508617" lon="12.6547191"><ele>450.0</ele><time>2026-03-22T09:19:44.517Z</time></trkpt><trkpt lat="43.6508102" lon="12.6548752"><ele>450.0</ele><time>2026-03-22T09:19:45.517Z</time></trkpt><trkpt lat="43.6507446" lon="12.6550171"><ele>450.0</ele><time>2026-03-22T09:19:46.518Z</time></trkpt><trkpt lat="43.6506693" lon="12.6551499"><ele>450.0</ele><time>2026-03-22T09:19:47.517Z</time></trkpt><trkpt lat="43.6505793" lon="12.6552734"><ele>449.6</ele><time>2026-03-22T09:19:48.517Z</time></trkpt><trkpt lat="43.6504997" lon="12.6553898"><ele>449.2</ele><time>2026-03-22T09:19:49.517Z</time></trkpt><trkpt lat="43.6504327" lon="12.6555135"><ele>448.79999999999995</ele><time>2026-03-22T09:19:50.516Z</time></trkpt><trkpt lat="43.6504035" lon="12.6556442"><ele>448.4</ele><time>2026-03-22T09:19:51.516Z</time></trkpt><trkpt lat="43.6503816" lon="12.6557592"><ele>448.0</ele><time>2026-03-22T09:19:52.518Z</time></trkpt><trkpt lat="43.6503685" lon="12.6558447"><ele>449.0</ele><time>2026-03-22T09:19:53.518Z</time></trkpt><trkpt lat="43.6502861" lon="12.6559675"><ele>449.99999999999994</ele><time>2026-03-22T09:19:55.517Z</time></trkpt><trkpt lat="43.6502004" lon="12.6559944"><ele>450.99999999999994</ele><time>2026-03-22T09:19:56.518Z</time></trkpt><trkpt lat="43.6500969" lon="12.6560325"><ele>452.0</ele><time>2026-03-22T09:19:57.517Z</time></trkpt><trkpt lat="43.6499816" lon="12.6560872"><ele>453.0</ele><time>2026-03-22T09:19:58.516Z</time></trkpt><trkpt lat="43.6498508" lon="12.6561462"><ele>455.5</ele><time>2026-03-22T09:19:59.517Z</time></trkpt><trkpt lat="43.6497006" lon="12.6562068"><ele>458.0</ele><time>2026-03-22T09:20:00.516Z</time></trkpt><trkpt lat="43.6495533" lon="12.6562459"><ele>460.5</ele><time>2026-03-22T09:20:01.518Z</time></trkpt><trkpt lat="43.6494315" lon="12.656286"><ele>463.0</ele><time>2026-03-22T09:20:02.516Z</time></trkpt><trkpt lat="43.6493108" lon="12.6563015"><ele>465.79999999999995</ele><time>2026-03-22T09:20:03.517Z</time></trkpt><trkpt lat="43.6492001" lon="12.6563035"><ele>468.59999999999997</ele><time>2026-03-22T09:20:04.518Z</time></trkpt><trkpt lat="43.6490963" lon="12.6562985"><ele>471.40000000000003</ele><time>2026-03-22T09:20:05.518Z</time></trkpt><trkpt lat="43.6489997" lon="12.6562965"><ele>474.20000000000005</ele><time>2026-03-22T09:20:06.517Z</time></trkpt><trkpt lat="43.6489147" lon="12.6563026"><ele>477.0</ele><time>2026-03-22T09:20:07.516Z</time></trkpt><trkpt lat="43.6488105" lon="12.6563366"><ele>477.0</ele><time>2026-03-22T09:20:08.517Z</time></trkpt><trkpt lat="43.6487109" lon="12.656377"><ele>477.0</ele><time>2026-03-22T09:20:09.516Z</time></trkpt><trkpt lat="43.6486105" lon="12.6564453"><ele>477.0</ele><time>2026-03-22T09:20:10.518Z</time></trkpt><trkpt lat="43.6485087" lon="12.6565408"><ele>477.0</ele><time>2026-03-22T09:20:11.519Z</time></trkpt><trkpt lat="43.648413" lon="12.6566265"><ele>479.75</ele><time>2026-03-22T09:20:12.517Z</time></trkpt><trkpt lat="43.6483201" lon="12.6567177"><ele>482.5</ele><time>2026-03-22T09:20:13.518Z</time></trkpt><trkpt lat="43.6482175" lon="12.6567969"><ele>485.25</ele><time>2026-03-22T09:20:14.516Z</time></trkpt><trkpt lat="43.6480993" lon="12.6568773"><ele>488.0</ele><time>2026-03-22T09:20:15.516Z</time></trkpt><trkpt lat="43.6479841" lon="12.6569528"><ele>488.0</ele><time>2026-03-22T09:20:16.519Z</time></trkpt><trkpt lat="43.6478657" lon="12.6570171"><ele>488.0</ele><time>2026-03-22T09:20:17.516Z</time></trkpt><trkpt lat="43.6477431" lon="12.6570782"><ele>488.0</ele><time>2026-03-22T09:20:18.517Z</time></trkpt><trkpt lat="43.6476213" lon="12.6571358"><ele>488.0</ele><time>2026-03-22T09:20:19.516Z</time></trkpt><trkpt lat="43.647502" lon="12.6571603"><ele>486.3333333333333</ele><time>2026-03-22T09:20:20.516Z</time></trkpt><trkpt lat="43.6473991" lon="12.6571572"><ele>484.66666666666663</ele><time>2026-03-22T09:20:21.516Z</time></trkpt><trkpt lat="43.6473181" lon="12.6571439"><ele>483.0</ele><time>2026-03-22T09:20:22.517Z</time></trkpt><trkpt lat="43.6472361" lon="12.6571476"><ele>481.33333333333337</ele><time>2026-03-22T09:20:23.517Z</time></trkpt><trkpt lat="43.6471588" lon="12.6571978"><ele>479.6666666666667</ele><time>2026-03-22T09:20:24.517Z</time></trkpt><trkpt lat="43.6470866" lon="12.6572836"><ele>478.0</ele><time>2026-03-22T09:20:25.517Z</time></trkpt><trkpt lat="43.647006" lon="12.6573942"><ele>476.5</ele><time>2026-03-22T09:20:26.516Z</time></trkpt><trkpt lat="43.6469168" lon="12.6575376"><ele>475.0</ele><time>2026-03-22T09:20:27.518Z</time></trkpt><trkpt lat="43.6468394" lon="12.6576713"><ele>473.5</ele><time>2026-03-22T09:20:28.516Z</time></trkpt><trkpt lat="43.64677" lon="12.657799"><ele>472.0</ele><time>2026-03-22T09:20:29.517Z</time></trkpt><trkpt lat="43.6467183" lon="12.6579103"><ele>472.0</ele><time>2026-03-22T09:20:30.517Z</time></trkpt><trkpt lat="43.6466946" lon="12.6580402"><ele>472.00000000000006</ele><time>2026-03-22T09:20:31.517Z</time></trkpt><trkpt lat="43.6466705" lon="12.6581715"><ele>472.00000000000006</ele><time>2026-03-22T09:20:32.517Z</time></trkpt><trkpt lat="43.6466341" lon="12.6583007"><ele>472.0</ele><time>2026-03-22T09:20:33.518Z</time></trkpt><trkpt lat="43.6465721" lon="12.6584267"><ele>472.0</ele><time>2026-03-22T09:20:34.517Z</time></trkpt><trkpt lat="43.646511" lon="12.6585407"><ele>472.20000000000005</ele><time>2026-03-22T09:20:35.517Z</time></trkpt><trkpt lat="43.6464415" lon="12.6586513"><ele>472.40000000000003</ele><time>2026-03-22T09:20:36.516Z</time></trkpt><trkpt lat="43.6463515" lon="12.6587461"><ele>472.59999999999997</ele><time>2026-03-22T09:20:37.518Z</time></trkpt><trkpt lat="43.6462647" lon="12.6588409"><ele>472.79999999999995</ele><time>2026-03-22T09:20:38.517Z</time></trkpt><trkpt lat="43.6461714" lon="12.6589231"><ele>473.0</ele><time>2026-03-22T09:20:39.519Z</time></trkpt><trkpt lat="43.646069" lon="12.6589737"><ele>473.0</ele><time>2026-03-22T09:20:40.516Z</time></trkpt><trkpt lat="43.6459637" lon="12.659022"><ele>472.99999999999994</ele><time>2026-03-22T09:20:41.517Z</time></trkpt><trkpt lat="43.6458637" lon="12.6590877"><ele>472.99999999999994</ele><time>2026-03-22T09:20:42.517Z</time></trkpt><trkpt lat="43.6457754" lon="12.6591786"><ele>473.0</ele><time>2026-03-22T09:20:43.517Z</time></trkpt><trkpt lat="43.6456976" lon="12.6592981"><ele>473.0</ele><time>2026-03-22T09:20:44.517Z</time></trkpt><trkpt lat="43.6456215" lon="12.6594379"><ele>476.25</ele><time>2026-03-22T09:20:45.517Z</time></trkpt><trkpt lat="43.6455582" lon="12.6596416"><ele>479.5</ele><time>2026-03-22T09:20:46.518Z</time></trkpt><trkpt lat="43.6455042" lon="12.6598112"><ele>482.75</ele><time>2026-03-22T09:20:47.516Z</time></trkpt><trkpt lat="43.6454451" lon="12.659957"><ele>486.0</ele><time>2026-03-22T09:20:48.519Z</time></trkpt><trkpt lat="43.645396" lon="12.6600921"><ele>486.0</ele><time>2026-03-22T09:20:49.516Z</time></trkpt><trkpt lat="43.6453374" lon="12.6602163"><ele>486.0</ele><time>2026-03-22T09:20:50.518Z</time></trkpt><trkpt lat="43.6452736" lon="12.6603332"><ele>486.0</ele><time>2026-03-22T09:20:51.518Z</time></trkpt><trkpt lat="43.6452017" lon="12.660395"><ele>486.0</ele><time>2026-03-22T09:20:52.517Z</time></trkpt><trkpt lat="43.645126" lon="12.6604247"><ele>486.0</ele><time>2026-03-22T09:20:53.518Z</time></trkpt><trkpt lat="43.6450437" lon="12.6604097"><ele>484.4</ele><time>2026-03-22T09:20:54.518Z</time></trkpt><trkpt lat="43.6449742" lon="12.6603413"><ele>482.8</ele><time>2026-03-22T09:20:55.516Z</time></trkpt><trkpt lat="43.6449188" lon="12.6602261"><ele>481.19999999999993</ele><time>2026-03-22T09:20:56.516Z</time></trkpt><trkpt lat="43.6448617" lon="12.6600547"><ele>479.59999999999997</ele><time>2026-03-22T09:20:57.516Z</time></trkpt><trkpt lat="43.644816" lon="12.6598985"><ele>478.0</ele><time>2026-03-22T09:20:58.517Z</time></trkpt><trkpt lat="43.6447699" lon="12.6597627"><ele>477.79999999999995</ele><time>2026-03-22T09:20:59.517Z</time></trkpt><trkpt lat="43.6447102" lon="12.6596528"><ele>477.59999999999997</ele><time>2026-03-22T09:21:00.516Z</time></trkpt><trkpt lat="43.6446505" lon="12.6595671"><ele>477.40000000000003</ele><time>2026-03-22T09:21:01.518Z</time></trkpt><trkpt lat="43.6445707" lon="12.659549"><ele>477.20000000000005</ele><time>2026-03-22T09:21:02.517Z</time></trkpt><trkpt lat="43.644478" lon="12.6595458"><ele>477.0</ele><time>2026-03-22T09:21:03.518Z</time></trkpt><trkpt lat="43.6443754" lon="12.6595908"><ele>478.0</ele><time>2026-03-22T09:21:04.516Z</time></trkpt><trkpt lat="43.6442548" lon="12.6596831"><ele>479.0</ele><time>2026-03-22T09:21:05.519Z</time></trkpt><trkpt lat="43.6441442" lon="12.6597855"><ele>480.0</ele><time>2026-03-22T09:21:06.517Z</time></trkpt><trkpt lat="43.6440434" lon="12.6598686"><ele>481.0</ele><time>2026-03-22T09:21:07.516Z</time></trkpt><trkpt lat="43.6439393" lon="12.6598939"><ele>481.0</ele><time>2026-03-22T09:21:08.517Z</time></trkpt><trkpt lat="43.643832" lon="12.659869"><ele>481.0</ele><time>2026-03-22T09:21:09.516Z</time></trkpt><trkpt lat="43.6437126" lon="12.6598259"><ele>481.0</ele><time>2026-03-22T09:21:10.517Z</time></trkpt><trkpt lat="43.6435938" lon="12.6597889"><ele>481.0</ele><time>2026-03-22T09:21:11.516Z</time></trkpt><trkpt lat="43.6434903" lon="12.6597844"><ele>481.4</ele><time>2026-03-22T09:21:12.517Z</time></trkpt><trkpt lat="43.6433938" lon="12.6598096"><ele>481.8</ele><time>2026-03-22T09:21:13.517Z</time></trkpt><trkpt lat="43.6432934" lon="12.6598572"><ele>482.19999999999993</ele><time>2026-03-22T09:21:14.517Z</time></trkpt><trkpt lat="43.6431873" lon="12.6599105"><ele>482.59999999999997</ele><time>2026-03-22T09:21:15.516Z</time></trkpt><trkpt lat="43.6430677" lon="12.6599695"><ele>483.0</ele><time>2026-03-22T09:21:16.517Z</time></trkpt><trkpt lat="43.6429461" lon="12.6600453"><ele>483.0</ele><time>2026-03-22T09:21:17.517Z</time></trkpt><trkpt lat="43.6428389" lon="12.6601215"><ele>482.99999999999994</ele><time>2026-03-22T09:21:18.519Z</time></trkpt><trkpt lat="43.6427453" lon="12.660191"><ele>482.99999999999994</ele><time>2026-03-22T09:21:19.517Z</time></trkpt><trkpt lat="43.6426586" lon="12.6602595"><ele>483.0</ele><time>2026-03-22T09:21:20.516Z</time></trkpt><trkpt lat="43.6425777" lon="12.6603119"><ele>483.0</ele><time>2026-03-22T09:21:21.517Z</time></trkpt><trkpt lat="43.6424793" lon="12.6603445"><ele>483.4</ele><time>2026-03-22T09:21:22.518Z</time></trkpt><trkpt lat="43.6423758" lon="12.6603546"><ele>483.79999999999995</ele><time>2026-03-22T09:21:23.516Z</time></trkpt><trkpt lat="43.6422763" lon="12.6603551"><ele>484.2</ele><time>2026-03-22T09:21:24.517Z</time></trkpt><trkpt lat="43.6421746" lon="12.6603348"><ele>484.6</ele><time>2026-03-22T09:21:25.517Z</time></trkpt><trkpt lat="43.6420747" lon="12.6603203"><ele>485.0</ele><time>2026-03-22T09:21:26.517Z</time></trkpt><trkpt lat="43.6419784" lon="12.6602826"><ele>481.75</ele><time>2026-03-22T09:21:27.517Z</time></trkpt><trkpt lat="43.6418771" lon="12.6602586"><ele>478.5</ele><time>2026-03-22T09:21:28.518Z</time></trkpt><trkpt lat="43.6417756" lon="12.6602084"><ele>475.25</ele><time>2026-03-22T09:21:29.518Z</time></trkpt><trkpt lat="43.6416687" lon="12.6601398"><ele>472.0</ele><time>2026-03-22T09:21:30.516Z</time></trkpt><trkpt lat="43.6415416" lon="12.6600761"><ele>472.0</ele><time>2026-03-22T09:21:31.517Z</time></trkpt><trkpt lat="43.641422" lon="12.6600109"><ele>472.00000000000006</ele><time>2026-03-22T09:21:32.516Z</time></trkpt><trkpt lat="43.6413155" lon="12.6599741"><ele>472.00000000000006</ele><time>2026-03-22T09:21:33.516Z</time></trkpt><trkpt lat="43.6412145" lon="12.6599439"><ele>472.0</ele><time>2026-03-22T09:21:34.516Z</time></trkpt><trkpt lat="43.6411191" lon="12.6599128"><ele>472.0</ele><time>2026-03-22T09:21:35.517Z</time></trkpt><trkpt lat="43.6410184" lon="12.6598695"><ele>471.0</ele><time>2026-03-22T09:21:36.518Z</time></trkpt><trkpt lat="43.6409279" lon="12.6598111"><ele>470.00000000000006</ele><time>2026-03-22T09:21:37.516Z</time></trkpt><trkpt lat="43.6408384" lon="12.6597303"><ele>469.00000000000006</ele><time>2026-03-22T09:21:38.516Z</time></trkpt><trkpt lat="43.6407549" lon="12.6596309"><ele>468.0</ele><time>2026-03-22T09:21:39.517Z</time></trkpt><trkpt lat="43.640691" lon="12.6595147"><ele>467.0</ele><time>2026-03-22T09:21:40.517Z</time></trkpt><trkpt lat="43.6406421" lon="12.6593779"><ele>467.0</ele><time>2026-03-22T09:21:41.517Z</time></trkpt><trkpt lat="43.6406116" lon="12.6592335"><ele>467.00000000000006</ele><time>2026-03-22T09:21:42.517Z</time></trkpt><trkpt lat="43.6405784" lon="12.6591067"><ele>467.00000000000006</ele><time>2026-03-22T09:21:43.518Z</time></trkpt><trkpt lat="43.6405488" lon="12.658981"><ele>467.0</ele><time>2026-03-22T09:21:44.517Z</time></trkpt><trkpt lat="43.640527" lon="12.6588437"><ele>467.0</ele><time>2026-03-22T09:21:45.518Z</time></trkpt><trkpt lat="43.6405027" lon="12.6587101"><ele>467.40000000000003</ele><time>2026-03-22T09:21:46.518Z</time></trkpt><trkpt lat="43.6404821" lon="12.6585665"><ele>467.80000000000007</ele><time>2026-03-22T09:21:47.516Z</time></trkpt><trkpt lat="43.6404631" lon="12.6584173"><ele>468.2</ele><time>2026-03-22T09:21:48.517Z</time></trkpt><trkpt lat="43.6404456" lon="12.6582646"><ele>468.6</ele><time>2026-03-22T09:21:49.516Z</time></trkpt><trkpt lat="43.64043" lon="12.6581086"><ele>469.0</ele><time>2026-03-22T09:21:50.517Z</time></trkpt><trkpt lat="43.6404235" lon="12.6579544"><ele>469.0</ele><time>2026-03-22T09:21:51.516Z</time></trkpt><trkpt lat="43.6404263" lon="12.657801"><ele>469.0</ele><time>2026-03-22T09:21:52.516Z</time></trkpt><trkpt lat="43.6404282" lon="12.6576497"><ele>469.0</ele><time>2026-03-22T09:21:53.517Z</time></trkpt><trkpt lat="43.6404336" lon="12.6574986"><ele>469.0</ele><time>2026-03-22T09:21:54.518Z</time></trkpt><trkpt lat="43.6404358" lon="12.6573446"><ele>469.0</ele><time>2026-03-22T09:21:55.517Z</time></trkpt><trkpt lat="43.6404363" lon="12.6571874"><ele>470.2</ele><time>2026-03-22T09:21:56.516Z</time></trkpt><trkpt lat="43.6404371" lon="12.657044"><ele>471.4</ele><time>2026-03-22T09:21:57.516Z</time></trkpt><trkpt lat="43.6404399" lon="12.6569076"><ele>472.6</ele><time>2026-03-22T09:21:58.517Z</time></trkpt><trkpt lat="43.6404571" lon="12.6568091"><ele>473.8</ele><time>2026-03-22T09:21:59.516Z</time></trkpt><trkpt lat="43.6404846" lon="12.6567035"><ele>475.0</ele><time>2026-03-22T09:22:01.517Z</time></trkpt><trkpt lat="43.6405658" lon="12.6566155"><ele>476.6666666666667</ele><time>2026-03-22T09:23:02.516Z</time></trkpt><trkpt lat="43.6406233" lon="12.656567"><ele>478.33333333333337</ele><time>2026-03-22T09:23:03.516Z</time></trkpt><trkpt lat="43.6406878" lon="12.6565067"><ele>480.0</ele><time>2026-03-22T09:23:04.516Z</time></trkpt><trkpt lat="43.6407356" lon="12.6564173"><ele>481.66666666666663</ele><time>2026-03-22T09:23:05.517Z</time></trkpt><trkpt lat="43.6407746" lon="12.6563063"><ele>483.3333333333333</ele><time>2026-03-22T09:23:06.518Z</time></trkpt><trkpt lat="43.6408074" lon="12.6561699"><ele>485.0</ele><time>2026-03-22T09:23:07.517Z</time></trkpt><trkpt lat="43.6408269" lon="12.6560363"><ele>487.4</ele><time>2026-03-22T09:23:08.517Z</time></trkpt><trkpt lat="43.6408216" lon="12.655909"><ele>489.8</ele><time>2026-03-22T09:23:09.517Z</time></trkpt><trkpt lat="43.6408012" lon="12.65577"><ele>492.20000000000005</ele><time>2026-03-22T09:23:10.518Z</time></trkpt><trkpt lat="43.6407869" lon="12.65562"><ele>494.6</ele><time>2026-03-22T09:23:11.518Z</time></trkpt><trkpt lat="43.6407902" lon="12.6554695"><ele>497.0</ele><time>2026-03-22T09:23:12.517Z</time></trkpt><trkpt lat="43.6408281" lon="12.6553225"><ele>498.0</ele><time>2026-03-22T09:23:13.516Z</time></trkpt><trkpt lat="43.6408671" lon="12.655161"><ele>499.0</ele><time>2026-03-22T09:23:14.518Z</time></trkpt><trkpt lat="43.6409043" lon="12.6549809"><ele>500.0</ele><time>2026-03-22T09:23:15.517Z</time></trkpt><trkpt lat="43.6409372" lon="12.6547932"><ele>501.0</ele><time>2026-03-22T09:23:16.518Z</time></trkpt><trkpt lat="43.640974" lon="12.6546353"><ele>501.0</ele><time>2026-03-22T09:23:17.517Z</time></trkpt><trkpt lat="43.6410227" lon="12.6544999"><ele>501.0</ele><time>2026-03-22T09:23:18.517Z</time></trkpt><trkpt lat="43.6410677" lon="12.6543887"><ele>501.0</ele><time>2026-03-22T09:23:19.517Z</time></trkpt><trkpt lat="43.6411083" lon="12.6542867"><ele>501.0</ele><time>2026-03-22T09:23:20.518Z</time></trkpt><trkpt lat="43.6411337" lon="12.6541878"><ele>501.0</ele><time>2026-03-22T09:23:21.517Z</time></trkpt><trkpt lat="43.6410973" lon="12.6540358"><ele>501.20000000000005</ele><time>2026-03-22T09:23:23.516Z</time></trkpt><trkpt lat="43.6410412" lon="12.6539909"><ele>501.40000000000003</ele><time>2026-03-22T09:23:24.517Z</time></trkpt><trkpt lat="43.6409663" lon="12.6539765"><ele>501.6</ele><time>2026-03-22T09:23:25.517Z</time></trkpt><trkpt lat="43.6408819" lon="12.6539967"><ele>501.8</ele><time>2026-03-22T09:23:26.516Z</time></trkpt><trkpt lat="43.6407799" lon="12.6540278"><ele>502.0</ele><time>2026-03-22T09:23:27.516Z</time></trkpt><trkpt lat="43.6406574" lon="12.6540636"><ele>502.0</ele><time>2026-03-22T09:23:28.517Z</time></trkpt><trkpt lat="43.640527" lon="12.6541016"><ele>502.0</ele><time>2026-03-22T09:23:29.517Z</time></trkpt><trkpt lat="43.6404056" lon="12.6541405"><ele>502.0</ele><time>2026-03-22T09:23:30.516Z</time></trkpt><trkpt lat="43.6402902" lon="12.6541752"><ele>502.0</ele><time>2026-03-22T09:23:31.516Z</time></trkpt><trkpt lat="43.6401805" lon="12.6542038"><ele>501.25</ele><time>2026-03-22T09:23:32.518Z</time></trkpt><trkpt lat="43.6400729" lon="12.6542131"><ele>500.5</ele><time>2026-03-22T09:23:33.517Z</time></trkpt><trkpt lat="43.6399564" lon="12.65419"><ele>499.75</ele><time>2026-03-22T09:23:34.517Z</time></trkpt><trkpt lat="43.639829" lon="12.6541593"><ele>499.0</ele><time>2026-03-22T09:23:35.516Z</time></trkpt><trkpt lat="43.6396921" lon="12.6541533"><ele>499.0</ele><time>2026-03-22T09:23:36.517Z</time></trkpt><trkpt lat="43.639567" lon="12.6541709"><ele>499.0</ele><time>2026-03-22T09:23:37.516Z</time></trkpt><trkpt lat="43.6394329" lon="12.6541899"><ele>499.0</ele><time>2026-03-22T09:23:38.518Z</time></trkpt><trkpt lat="43.6392915" lon="12.6542036"><ele>499.0</ele><time>2026-03-22T09:23:39.517Z</time></trkpt><trkpt lat="43.6391407" lon="12.6542294"><ele>497.75</ele><time>2026-03-22T09:23:40.517Z</time></trkpt><trkpt lat="43.6389967" lon="12.6542756"><ele>496.5</ele><time>2026-03-22T09:23:41.516Z</time></trkpt><trkpt lat="43.6388697" lon="12.6543208"><ele>495.25</ele><time>2026-03-22T09:23:42.517Z</time></trkpt><trkpt lat="43.6387593" lon="12.6543607"><ele>494.0</ele><time>2026-03-22T09:23:43.518Z</time></trkpt><trkpt lat="43.6386627" lon="12.6544139"><ele>497.75</ele><time>2026-03-22T09:23:44.516Z</time></trkpt><trkpt lat="43.6385661" lon="12.6545005"><ele>501.5</ele><time>2026-03-22T09:23:45.518Z</time></trkpt><trkpt lat="43.6384792" lon="12.6546069"><ele>505.25</ele><time>2026-03-22T09:23:46.516Z</time></trkpt><trkpt lat="43.6383803" lon="12.6547041"><ele>509.0</ele><time>2026-03-22T09:23:47.517Z</time></trkpt><trkpt lat="43.6382715" lon="12.6547815"><ele>509.0</ele><time>2026-03-22T09:23:48.517Z</time></trkpt><trkpt lat="43.6381596" lon="12.6548812"><ele>509.0</ele><time>2026-03-22T09:23:49.517Z</time></trkpt><trkpt lat="43.6380255" lon="12.6549803"><ele>509.0</ele><time>2026-03-22T09:23:50.516Z</time></trkpt><trkpt lat="43.6379131" lon="12.6550618"><ele>509.0</ele><time>2026-03-22T09:23:51.518Z</time></trkpt><trkpt lat="43.6378008" lon="12.6551351"><ele>507.6</ele><time>2026-03-22T09:23:52.516Z</time></trkpt><trkpt lat="43.6377029" lon="12.6552131"><ele>506.2</ele><time>2026-03-22T09:23:53.517Z</time></trkpt><trkpt lat="43.6376014" lon="12.6552822"><ele>504.80000000000007</ele><time>2026-03-22T09:23:54.518Z</time></trkpt><trkpt lat="43.6375087" lon="12.6553103"><ele>503.40000000000003</ele><time>2026-03-22T09:23:55.518Z</time></trkpt><trkpt lat="43.6374146" lon="12.6553054"><ele>502.0</ele><time>2026-03-22T09:23:56.517Z</time></trkpt><trkpt lat="43.6373179" lon="12.6552767"><ele>502.0</ele><time>2026-03-22T09:23:57.516Z</time></trkpt><trkpt lat="43.6372184" lon="12.6552491"><ele>502.00000000000006</ele><time>2026-03-22T09:23:58.517Z</time></trkpt><trkpt lat="43.6371156" lon="12.6552374"><ele>502.00000000000006</ele><time>2026-03-22T09:23:59.517Z</time></trkpt><trkpt lat="43.6370039" lon="12.6552438"><ele>502.0</ele><time>2026-03-22T09:24:00.516Z</time></trkpt><trkpt lat="43.6368889" lon="12.6552764"><ele>502.0</ele><time>2026-03-22T09:24:01.517Z</time></trkpt><trkpt lat="43.6367679" lon="12.6553329"><ele>506.75</ele><time>2026-03-22T09:24:02.516Z</time></trkpt><trkpt lat="43.6366527" lon="12.655377"><ele>511.5</ele><time>2026-03-22T09:24:03.516Z</time></trkpt><trkpt lat="43.6365434" lon="12.6553937"><ele>516.25</ele><time>2026-03-22T09:24:04.517Z</time></trkpt><trkpt lat="43.6364309" lon="12.6553794"><ele>521.0</ele><time>2026-03-22T09:24:05.517Z</time></trkpt><trkpt lat="43.636325" lon="12.6553301"><ele>518.75</ele><time>2026-03-22T09:24:06.516Z</time></trkpt><trkpt lat="43.6362203" lon="12.655271"><ele>516.5</ele><time>2026-03-22T09:24:07.517Z</time></trkpt><trkpt lat="43.6361113" lon="12.6552085"><ele>514.25</ele><time>2026-03-22T09:24:08.517Z</time></trkpt><trkpt lat="43.6360046" lon="12.6551367"><ele>512.0</ele><time>2026-03-22T09:24:09.518Z</time></trkpt><trkpt lat="43.6359126" lon="12.6550501"><ele>512.0</ele><time>2026-03-22T09:24:10.516Z</time></trkpt><trkpt lat="43.6358282" lon="12.6549487"><ele>512.0</ele><time>2026-03-22T09:24:11.518Z</time></trkpt><trkpt lat="43.6357527" lon="12.6548716"><ele>512.0</ele><time>2026-03-22T09:24:12.516Z</time></trkpt><trkpt lat="43.6356715" lon="12.6548332"><ele>512.0</ele><time>2026-03-22T09:24:13.517Z</time></trkpt><trkpt lat="43.635583" lon="12.6548309"><ele>512.0</ele><time>2026-03-22T09:24:14.518Z</time></trkpt><trkpt lat="43.6354855" lon="12.6548527"><ele>512.0</ele><time>2026-03-22T09:24:15.517Z</time></trkpt><trkpt lat="43.6353733" lon="12.654862"><ele>512.0</ele><time>2026-03-22T09:24:16.517Z</time></trkpt><trkpt lat="43.635255" lon="12.654856"><ele>512.0</ele><time>2026-03-22T09:24:17.518Z</time></trkpt><trkpt lat="43.6351326" lon="12.654854"><ele>512.0</ele><time>2026-03-22T09:24:18.517Z</time></trkpt><trkpt lat="43.635019" lon="12.6548294"><ele>512.4</ele><time>2026-03-22T09:24:19.516Z</time></trkpt><trkpt lat="43.6349113" lon="12.6548013"><ele>512.8000000000001</ele><time>2026-03-22T09:24:20.517Z</time></trkpt><trkpt lat="43.6348079" lon="12.6547742"><ele>513.2</ele><time>2026-03-22T09:24:21.517Z</time></trkpt><trkpt lat="43.6347131" lon="12.6547507"><ele>513.6</ele><time>2026-03-22T09:24:22.518Z</time></trkpt><trkpt lat="43.6346286" lon="12.6547253"><ele>514.0</ele><time>2026-03-22T09:24:23.517Z</time></trkpt><trkpt lat="43.6345584" lon="12.6546807"><ele>514.0</ele><time>2026-03-22T09:24:24.516Z</time></trkpt><trkpt lat="43.6345048" lon="12.6546112"><ele>514.0</ele><time>2026-03-22T09:24:25.517Z</time></trkpt><trkpt lat="43.6344801" lon="12.6545287"><ele>514.0</ele><time>2026-03-22T09:24:26.516Z</time></trkpt><trkpt lat="43.6345189" lon="12.6543699"><ele>514.0</ele><time>2026-03-22T09:24:28.516Z</time></trkpt><trkpt lat="43.6345794" lon="12.6542957"><ele>514.0</ele><time>2026-03-22T09:24:29.518Z</time></trkpt><trkpt lat="43.6346561" lon="12.6542181"><ele>514.0</ele><time>2026-03-22T09:24:30.517Z</time></trkpt><trkpt lat="43.6347423" lon="12.6541129"><ele>514.6</ele><time>2026-03-22T09:24:31.517Z</time></trkpt><trkpt lat="43.6348228" lon="12.6539976"><ele>515.2</ele><time>2026-03-22T09:24:32.517Z</time></trkpt><trkpt lat="43.6348901" lon="12.653878"><ele>515.8000000000001</ele><time>2026-03-22T09:24:33.518Z</time></trkpt><trkpt lat="43.6349358" lon="12.6537452"><ele>516.4</ele><time>2026-03-22T09:24:34.516Z</time></trkpt><trkpt lat="43.6349554" lon="12.6535978"><ele>517.0</ele><time>2026-03-22T09:24:35.517Z</time></trkpt><trkpt lat="43.6349509" lon="12.6534302"><ele>514.75</ele><time>2026-03-22T09:24:36.518Z</time></trkpt><trkpt lat="43.6349331" lon="12.6532486"><ele>512.5</ele><time>2026-03-22T09:24:37.517Z</time></trkpt><trkpt lat="43.6349055" lon="12.6530529"><ele>510.25</ele><time>2026-03-22T09:24:38.517Z</time></trkpt><trkpt lat="43.6348688" lon="12.6528382"><ele>508.0</ele><time>2026-03-22T09:24:39.517Z</time></trkpt><trkpt lat="43.6348302" lon="12.6526399"><ele>507.75</ele><time>2026-03-22T09:24:40.517Z</time></trkpt><trkpt lat="43.6347858" lon="12.6524734"><ele>507.5</ele><time>2026-03-22T09:24:41.517Z</time></trkpt><trkpt lat="43.6347372" lon="12.6523184"><ele>507.25</ele><time>2026-03-22T09:24:42.517Z</time></trkpt><trkpt lat="43.6346907" lon="12.6521566"><ele>507.0</ele><time>2026-03-22T09:24:43.517Z</time></trkpt><trkpt lat="43.6346482" lon="12.6519849"><ele>509.0</ele><time>2026-03-22T09:24:44.517Z</time></trkpt><trkpt lat="43.634609" lon="12.6518008"><ele>511.0</ele><time>2026-03-22T09:24:45.516Z</time></trkpt><trkpt lat="43.6345755" lon="12.6515983"><ele>513.0</ele><time>2026-03-22T09:24:46.516Z</time></trkpt><trkpt lat="43.6345427" lon="12.651368"><ele>513.0</ele><time>2026-03-22T09:24:47.516Z</time></trkpt><trkpt lat="43.6345076" lon="12.6511318"><ele>513.0</ele><time>2026-03-22T09:24:48.516Z</time></trkpt><trkpt lat="43.6344742" lon="12.6509143"><ele>513.0</ele><time>2026-03-22T09:24:49.517Z</time></trkpt><trkpt lat="43.6344367" lon="12.6507071"><ele>511.0</ele><time>2026-03-22T09:24:50.517Z</time></trkpt><trkpt lat="43.6344003" lon="12.650511"><ele>509.0</ele><time>2026-03-22T09:24:51.517Z</time></trkpt><trkpt lat="43.6343617" lon="12.650326"><ele>507.0</ele><time>2026-03-22T09:24:52.518Z</time></trkpt><trkpt lat="43.634326" lon="12.6501484"><ele>505.0</ele><time>2026-03-22T09:24:53.517Z</time></trkpt><trkpt lat="43.6342943" lon="12.6499741"><ele>504.75</ele><time>2026-03-22T09:24:54.517Z</time></trkpt><trkpt lat="43.6342618" lon="12.6497917"><ele>504.5</ele><time>2026-03-22T09:24:55.516Z</time></trkpt><trkpt lat="43.6342416" lon="12.649593"><ele>504.25</ele><time>2026-03-22T09:24:56.517Z</time></trkpt><trkpt lat="43.634233" lon="12.649366"><ele>504.0</ele><time>2026-03-22T09:24:57.516Z</time></trkpt><trkpt lat="43.6342272" lon="12.6491011"><ele>502.5</ele><time>2026-03-22T09:24:58.517Z</time></trkpt><trkpt lat="43.6342149" lon="12.6487849"><ele>501.0</ele><time>2026-03-22T09:24:59.518Z</time></trkpt><trkpt lat="43.6342012" lon="12.648478"><ele>501.0</ele><time>2026-03-22T09:25:00.516Z</time></trkpt><trkpt lat="43.634189" lon="12.6481922"><ele>501.0</ele><time>2026-03-22T09:25:01.517Z</time></trkpt><trkpt lat="43.6341808" lon="12.6479298"><ele>501.0</ele><time>2026-03-22T09:25:02.518Z</time></trkpt><trkpt lat="43.6341765" lon="12.6477037"><ele>501.75</ele><time>2026-03-22T09:25:03.516Z</time></trkpt><trkpt lat="43.6341739" lon="12.6475114"><ele>502.5</ele><time>2026-03-22T09:25:04.517Z</time></trkpt><trkpt lat="43.6341711" lon="12.6473416"><ele>503.25</ele><time>2026-03-22T09:25:05.517Z</time></trkpt><trkpt lat="43.6341674" lon="12.6471803"><ele>504.0</ele><time>2026-03-22T09:25:06.518Z</time></trkpt><trkpt lat="43.6341613" lon="12.6470193"><ele>504.0</ele><time>2026-03-22T09:25:07.516Z</time></trkpt><trkpt lat="43.634138" lon="12.6468737"><ele>504.0</ele><time>2026-03-22T09:25:08.516Z</time></trkpt><trkpt lat="43.634094" lon="12.646732"><ele>504.0</ele><time>2026-03-22T09:25:09.516Z</time></trkpt><trkpt lat="43.6340274" lon="12.6465859"><ele>504.0</ele><time>2026-03-22T09:25:10.518Z</time></trkpt><trkpt lat="43.6339428" lon="12.64642"><ele>504.0</ele><time>2026-03-22T09:25:11.516Z</time></trkpt><trkpt lat="43.6338593" lon="12.6462576"><ele>504.0</ele><time>2026-03-22T09:25:12.517Z</time></trkpt><trkpt lat="43.6337857" lon="12.6461057"><ele>504.0</ele><time>2026-03-22T09:25:13.517Z</time></trkpt><trkpt lat="43.6337307" lon="12.6459648"><ele>504.0</ele><time>2026-03-22T09:25:14.516Z</time></trkpt><trkpt lat="43.6337008" lon="12.6458318"><ele>503.25</ele><time>2026-03-22T09:25:15.516Z</time></trkpt><trkpt lat="43.6336993" lon="12.6456895"><ele>502.5</ele><time>2026-03-22T09:25:16.516Z</time></trkpt><trkpt lat="43.6337154" lon="12.6455115"><ele>501.75</ele><time>2026-03-22T09:25:17.517Z</time></trkpt><trkpt lat="43.6337416" lon="12.6452987"><ele>501.0</ele><time>2026-03-22T09:25:18.518Z</time></trkpt><trkpt lat="43.6337681" lon="12.6450624"><ele>499.33333333333337</ele><time>2026-03-22T09:25:19.517Z</time></trkpt><trkpt lat="43.6338035" lon="12.6448572"><ele>497.6666666666667</ele><time>2026-03-22T09:25:20.518Z</time></trkpt><trkpt lat="43.6338673" lon="12.6446695"><ele>496.0</ele><time>2026-03-22T09:25:21.516Z</time></trkpt><trkpt lat="43.6339611" lon="12.6444833"><ele>497.6666666666667</ele><time>2026-03-22T09:25:22.517Z</time></trkpt><trkpt lat="43.6340612" lon="12.644286"><ele>499.33333333333337</ele><time>2026-03-22T09:25:23.517Z</time></trkpt><trkpt lat="43.6341499" lon="12.6440978"><ele>501.0</ele><time>2026-03-22T09:25:24.518Z</time></trkpt><trkpt lat="43.6342279" lon="12.6439168"><ele>501.0</ele><time>2026-03-22T09:25:25.516Z</time></trkpt><trkpt lat="43.6342928" lon="12.6437387"><ele>501.0</ele><time>2026-03-22T09:25:26.516Z</time></trkpt><trkpt lat="43.6343526" lon="12.6435657"><ele>501.0</ele><time>2026-03-22T09:25:27.516Z</time></trkpt><trkpt lat="43.6344058" lon="12.6433858"><ele>501.0</ele><time>2026-03-22T09:25:28.517Z</time></trkpt><trkpt lat="43.6344438" lon="12.6431909"><ele>501.66666666666663</ele><time>2026-03-22T09:25:29.516Z</time></trkpt><trkpt lat="43.6344711" lon="12.6429645"><ele>502.3333333333333</ele><time>2026-03-22T09:25:30.517Z</time></trkpt><trkpt lat="43.6344932" lon="12.6427377"><ele>503.0</ele><time>2026-03-22T09:25:31.516Z</time></trkpt><trkpt lat="43.6345115" lon="12.6425346"><ele>500.4</ele><time>2026-03-22T09:25:32.517Z</time></trkpt><trkpt lat="43.6345315" lon="12.6423526"><ele>497.79999999999995</ele><time>2026-03-22T09:25:33.517Z</time></trkpt><trkpt lat="43.6345491" lon="12.6421985"><ele>495.2</ele><time>2026-03-22T09:25:34.517Z</time></trkpt><trkpt lat="43.6345659" lon="12.6420693"><ele>492.6</ele><time>2026-03-22T09:25:35.516Z</time></trkpt><trkpt lat="43.6345931" lon="12.6419561"><ele>490.0</ele><time>2026-03-22T09:25:36.517Z</time></trkpt><trkpt lat="43.6346355" lon="12.6418538"><ele>489.75</ele><time>2026-03-22T09:25:37.517Z</time></trkpt><trkpt lat="43.634704" lon="12.6417672"><ele>489.5</ele><time>2026-03-22T09:25:38.517Z</time></trkpt><trkpt lat="43.6348031" lon="12.6416895"><ele>489.25</ele><time>2026-03-22T09:25:39.518Z</time></trkpt><trkpt lat="43.63493" lon="12.6416263"><ele>489.0</ele><time>2026-03-22T09:25:40.516Z</time></trkpt><trkpt lat="43.635073" lon="12.6415787"><ele>489.0</ele><time>2026-03-22T09:25:41.517Z</time></trkpt><trkpt lat="43.6352133" lon="12.6415371"><ele>489.0</ele><time>2026-03-22T09:25:42.518Z</time></trkpt><trkpt lat="43.6353408" lon="12.6415006"><ele>489.0</ele><time>2026-03-22T09:25:43.516Z</time></trkpt><trkpt lat="43.6354591" lon="12.6414671"><ele>489.0</ele><time>2026-03-22T09:25:44.517Z</time></trkpt><trkpt lat="43.6355656" lon="12.6414244"><ele>488.0</ele><time>2026-03-22T09:25:45.517Z</time></trkpt><trkpt lat="43.6356592" lon="12.6413589"><ele>487.0</ele><time>2026-03-22T09:25:46.518Z</time></trkpt><trkpt lat="43.6357473" lon="12.6412695"><ele>486.0</ele><time>2026-03-22T09:25:47.517Z</time></trkpt><trkpt lat="43.6358362" lon="12.64118"><ele>485.0</ele><time>2026-03-22T09:25:48.517Z</time></trkpt><trkpt lat="43.6359223" lon="12.6410796"><ele>484.0</ele><time>2026-03-22T09:25:49.517Z</time></trkpt><trkpt lat="43.636008" lon="12.6409887"><ele>482.0</ele><time>2026-03-22T09:25:50.517Z</time></trkpt><trkpt lat="43.6360983" lon="12.6408997"><ele>480.0</ele><time>2026-03-22T09:25:51.517Z</time></trkpt><trkpt lat="43.6361973" lon="12.640824"><ele>478.0</ele><time>2026-03-22T09:25:52.518Z</time></trkpt><trkpt lat="43.6363014" lon="12.6407554"><ele>476.0</ele><time>2026-03-22T09:25:53.517Z</time></trkpt><trkpt lat="43.6364078" lon="12.6407011"><ele>476.0</ele><time>2026-03-22T09:25:54.516Z</time></trkpt><trkpt lat="43.6365191" lon="12.640662"><ele>476.0</ele><time>2026-03-22T09:25:55.516Z</time></trkpt><trkpt lat="43.636648" lon="12.6406321"><ele>476.0</ele><time>2026-03-22T09:25:56.518Z</time></trkpt><trkpt lat="43.6367772" lon="12.640605"><ele>476.0</ele><time>2026-03-22T09:25:57.516Z</time></trkpt><trkpt lat="43.6369053" lon="12.6405801"><ele>473.5</ele><time>2026-03-22T09:25:58.516Z</time></trkpt><trkpt lat="43.63703" lon="12.6405311"><ele>471.0</ele><time>2026-03-22T09:25:59.516Z</time></trkpt><trkpt lat="43.6371531" lon="12.6404655"><ele>468.5</ele><time>2026-03-22T09:26:00.515Z</time></trkpt><trkpt lat="43.6372678" lon="12.6403905"><ele>466.0</ele><time>2026-03-22T09:26:01.515Z</time></trkpt><trkpt lat="43.637371" lon="12.6402952"><ele>465.5</ele><time>2026-03-22T09:26:02.516Z</time></trkpt><trkpt lat="43.6374668" lon="12.6401824"><ele>465.0</ele><time>2026-03-22T09:26:03.516Z</time></trkpt><trkpt lat="43.6375569" lon="12.6400637"><ele>464.5</ele><time>2026-03-22T09:26:04.515Z</time></trkpt><trkpt lat="43.6376411" lon="12.6399377"><ele>464.0</ele><time>2026-03-22T09:26:05.516Z</time></trkpt><trkpt lat="43.637724" lon="12.6398088"><ele>464.0</ele><time>2026-03-22T09:26:06.515Z</time></trkpt><trkpt lat="43.6377989" lon="12.6396717"><ele>464.0</ele><time>2026-03-22T09:26:07.516Z</time></trkpt><trkpt lat="43.6378742" lon="12.6395372"><ele>464.0</ele><time>2026-03-22T09:26:08.515Z</time></trkpt><trkpt lat="43.6379487" lon="12.6394064"><ele>464.0</ele><time>2026-03-22T09:26:09.517Z</time></trkpt><trkpt lat="43.6380343" lon="12.6392925"><ele>464.25</ele><time>2026-03-22T09:26:10.515Z</time></trkpt><trkpt lat="43.6381342" lon="12.6391865"><ele>464.5</ele><time>2026-03-22T09:26:11.516Z</time></trkpt><trkpt lat="43.6382418" lon="12.6390886"><ele>464.75</ele><time>2026-03-22T09:26:12.517Z</time></trkpt><trkpt lat="43.6383548" lon="12.6390154"><ele>465.0</ele><time>2026-03-22T09:26:13.517Z</time></trkpt><trkpt lat="43.6384707" lon="12.6389455"><ele>465.0</ele><time>2026-03-22T09:26:14.516Z</time></trkpt><trkpt lat="43.6385942" lon="12.6388913"><ele>465.0</ele><time>2026-03-22T09:26:15.517Z</time></trkpt><trkpt lat="43.6387203" lon="12.6388591"><ele>465.0</ele><time>2026-03-22T09:26:16.517Z</time></trkpt><trkpt lat="43.6388395" lon="12.6388318"><ele>465.0</ele><time>2026-03-22T09:26:17.516Z</time></trkpt><trkpt lat="43.6389488" lon="12.638794"><ele>465.0</ele><time>2026-03-22T09:26:18.516Z</time></trkpt><trkpt lat="43.6390604" lon="12.6387322"><ele>465.0</ele><time>2026-03-22T09:26:19.517Z</time></trkpt><trkpt lat="43.6391768" lon="12.63863"><ele>465.0</ele><time>2026-03-22T09:26:20.515Z</time></trkpt><trkpt lat="43.6392972" lon="12.638492"><ele>465.0</ele><time>2026-03-22T09:26:21.515Z</time></trkpt><trkpt lat="43.639407" lon="12.6383555"><ele>461.5</ele><time>2026-03-22T09:26:22.516Z</time></trkpt><trkpt lat="43.6395074" lon="12.6382299"><ele>458.0</ele><time>2026-03-22T09:26:23.515Z</time></trkpt><trkpt lat="43.6395939" lon="12.6381183"><ele>454.5</ele><time>2026-03-22T09:26:24.516Z</time></trkpt><trkpt lat="43.6396732" lon="12.6380277"><ele>451.0</ele><time>2026-03-22T09:26:25.516Z</time></trkpt><trkpt lat="43.6397625" lon="12.6379661"><ele>451.0</ele><time>2026-03-22T09:26:26.516Z</time></trkpt><trkpt lat="43.6398813" lon="12.637933"><ele>451.0</ele><time>2026-03-22T09:26:27.515Z</time></trkpt><trkpt lat="43.6400073" lon="12.6378949"><ele>451.0</ele><time>2026-03-22T09:26:28.517Z</time></trkpt><trkpt lat="43.6401315" lon="12.637862"><ele>451.0</ele><time>2026-03-22T09:26:29.515Z</time></trkpt><trkpt lat="43.6402421" lon="12.6378303"><ele>449.4</ele><time>2026-03-22T09:26:30.517Z</time></trkpt><trkpt lat="43.640331" lon="12.6378084"><ele>447.8</ele><time>2026-03-22T09:26:31.515Z</time></trkpt><trkpt lat="43.640405" lon="12.6378089"><ele>446.19999999999993</ele><time>2026-03-22T09:26:32.516Z</time></trkpt><trkpt lat="43.6405068" lon="12.6377668"><ele>444.59999999999997</ele><time>2026-03-22T09:26:34.515Z</time></trkpt><trkpt lat="43.6405097" lon="12.6376459"><ele>443.0</ele><time>2026-03-22T09:26:36.516Z</time></trkpt><trkpt lat="43.6404123" lon="12.6375931"><ele>438.75</ele><time>2026-03-22T09:26:38.516Z</time></trkpt><trkpt lat="43.6403309" lon="12.6375944"><ele>434.5</ele><time>2026-03-22T09:26:39.515Z</time></trkpt><trkpt lat="43.640227" lon="12.6375887"><ele>430.25</ele><time>2026-03-22T09:26:40.516Z</time></trkpt><trkpt lat="43.6400983" lon="12.6375911"><ele>426.0</ele><time>2026-03-22T09:26:41.516Z</time></trkpt><trkpt lat="43.6399474" lon="12.6376194"><ele>426.0</ele><time>2026-03-22T09:26:42.516Z</time></trkpt><trkpt lat="43.6397909" lon="12.6376676"><ele>426.0</ele><time>2026-03-22T09:26:43.516Z</time></trkpt><trkpt lat="43.6396157" lon="12.6377207"><ele>426.0</ele><time>2026-03-22T09:26:44.516Z</time></trkpt><trkpt lat="43.6394306" lon="12.6377766"><ele>433.0</ele><time>2026-03-22T09:26:45.517Z</time></trkpt><trkpt lat="43.6392656" lon="12.6378174"><ele>440.0</ele><time>2026-03-22T09:26:46.515Z</time></trkpt><trkpt lat="43.6391178" lon="12.6378382"><ele>447.0</ele><time>2026-03-22T09:26:47.517Z</time></trkpt><trkpt lat="43.6389819" lon="12.637844"><ele>447.0</ele><time>2026-03-22T09:26:48.515Z</time></trkpt><trkpt lat="43.6388568" lon="12.6378467"><ele>447.00000000000006</ele><time>2026-03-22T09:26:49.516Z</time></trkpt><trkpt lat="43.6387457" lon="12.6378429"><ele>447.00000000000006</ele><time>2026-03-22T09:26:50.515Z</time></trkpt><trkpt lat="43.6386444" lon="12.6378249"><ele>447.0</ele><time>2026-03-22T09:26:51.516Z</time></trkpt><trkpt lat="43.6385579" lon="12.6377814"><ele>447.0</ele><time>2026-03-22T09:26:52.516Z</time></trkpt><trkpt lat="43.6384932" lon="12.6377039"><ele>441.8</ele><time>2026-03-22T09:26:53.517Z</time></trkpt><trkpt lat="43.638442" lon="12.6376021"><ele>436.6</ele><time>2026-03-22T09:26:54.516Z</time></trkpt><trkpt lat="43.6383827" lon="12.6374953"><ele>431.40000000000003</ele><time>2026-03-22T09:26:55.516Z</time></trkpt><trkpt lat="43.6383126" lon="12.6373915"><ele>426.20000000000005</ele><time>2026-03-22T09:26:56.516Z</time></trkpt><trkpt lat="43.6382283" lon="12.63731"><ele>421.0</ele><time>2026-03-22T09:26:57.516Z</time></trkpt><trkpt lat="43.6381339" lon="12.6372415"><ele>421.0</ele><time>2026-03-22T09:26:58.516Z</time></trkpt><trkpt lat="43.6380306" lon="12.637189"><ele>421.0</ele><time>2026-03-22T09:26:59.515Z</time></trkpt><trkpt lat="43.637932" lon="12.6371482"><ele>421.0</ele><time>2026-03-22T09:27:00.517Z</time></trkpt><trkpt lat="43.6378372" lon="12.6371132"><ele>421.0</ele><time>2026-03-22T09:27:01.517Z</time></trkpt><trkpt lat="43.6377452" lon="12.6370796"><ele>421.0</ele><time>2026-03-22T09:27:02.515Z</time></trkpt><trkpt lat="43.6376646" lon="12.637044"><ele>420.1666666666667</ele><time>2026-03-22T09:27:03.515Z</time></trkpt><trkpt lat="43.6375992" lon="12.6370077"><ele>419.33333333333337</ele><time>2026-03-22T09:27:04.515Z</time></trkpt><trkpt lat="43.637545" lon="12.636957"><ele>418.5</ele><time>2026-03-22T09:27:05.517Z</time></trkpt><trkpt lat="43.6375056" lon="12.6368011"><ele>417.66666666666663</ele><time>2026-03-22T09:27:07.517Z</time></trkpt><trkpt lat="43.6375183" lon="12.6367107"><ele>416.8333333333333</ele><time>2026-03-22T09:27:08.516Z</time></trkpt><trkpt lat="43.6375478" lon="12.6366185"><ele>416.0</ele><time>2026-03-22T09:27:09.516Z</time></trkpt><trkpt lat="43.6375932" lon="12.6365108"><ele>411.8</ele><time>2026-03-22T09:27:10.516Z</time></trkpt><trkpt lat="43.6376444" lon="12.6363662"><ele>407.6</ele><time>2026-03-22T09:27:11.516Z</time></trkpt><trkpt lat="43.6376917" lon="12.6362281"><ele>403.4</ele><time>2026-03-22T09:27:12.516Z</time></trkpt><trkpt lat="43.6377337" lon="12.6360949"><ele>399.2</ele><time>2026-03-22T09:27:13.516Z</time></trkpt><trkpt lat="43.637771" lon="12.6359791"><ele>395.0</ele><time>2026-03-22T09:27:14.517Z</time></trkpt><trkpt lat="43.6377985" lon="12.6358806"><ele>394.0</ele><time>2026-03-22T09:27:15.515Z</time></trkpt><trkpt lat="43.6378213" lon="12.6357898"><ele>393.0</ele><time>2026-03-22T09:27:16.516Z</time></trkpt><trkpt lat="43.6378484" lon="12.6356751"><ele>392.0</ele><time>2026-03-22T09:27:17.516Z</time></trkpt><trkpt lat="43.6378881" lon="12.6355228"><ele>391.0</ele><time>2026-03-22T09:27:18.516Z</time></trkpt><trkpt lat="43.6379383" lon="12.6353364"><ele>390.0</ele><time>2026-03-22T09:27:19.515Z</time></trkpt><trkpt lat="43.6379953" lon="12.6351168"><ele>387.0</ele><time>2026-03-22T09:27:20.515Z</time></trkpt><trkpt lat="43.6380475" lon="12.6349192"><ele>384.0</ele><time>2026-03-22T09:27:21.516Z</time></trkpt><trkpt lat="43.6380979" lon="12.634731"><ele>381.0</ele><time>2026-03-22T09:27:22.516Z</time></trkpt><trkpt lat="43.6381398" lon="12.6345525"><ele>378.0</ele><time>2026-03-22T09:27:23.515Z</time></trkpt><trkpt lat="43.6381746" lon="12.6343869"><ele>377.4</ele><time>2026-03-22T09:27:24.515Z</time></trkpt><trkpt lat="43.6382074" lon="12.6342451"><ele>376.79999999999995</ele><time>2026-03-22T09:27:25.516Z</time></trkpt><trkpt lat="43.6382356" lon="12.6341192"><ele>376.2</ele><time>2026-03-22T09:27:26.517Z</time></trkpt><trkpt lat="43.6382558" lon="12.6340075"><ele>375.6</ele><time>2026-03-22T09:27:27.515Z</time></trkpt><trkpt lat="43.6382841" lon="12.6339057"><ele>375.0</ele><time>2026-03-22T09:27:28.515Z</time></trkpt><trkpt lat="43.6383185" lon="12.6337937"><ele>375.0</ele><time>2026-03-22T09:27:29.516Z</time></trkpt><trkpt lat="43.6383409" lon="12.6336548"><ele>375.0</ele><time>2026-03-22T09:27:30.516Z</time></trkpt><trkpt lat="43.6383584" lon="12.6335078"><ele>375.0</ele><time>2026-03-22T09:27:31.516Z</time></trkpt><trkpt lat="43.6383706" lon="12.6333563"><ele>375.0</ele><time>2026-03-22T09:27:32.515Z</time></trkpt><trkpt lat="43.6383903" lon="12.6332126"><ele>375.0</ele><time>2026-03-22T09:27:33.515Z</time></trkpt><trkpt lat="43.6384143" lon="12.63308"><ele>374.6666666666667</ele><time>2026-03-22T09:27:34.516Z</time></trkpt><trkpt lat="43.6384283" lon="12.6329573"><ele>374.3333333333333</ele><time>2026-03-22T09:27:35.515Z</time></trkpt><trkpt lat="43.6384417" lon="12.6328416"><ele>374.0</ele><time>2026-03-22T09:27:36.515Z</time></trkpt><trkpt lat="43.6384506" lon="12.6327207"><ele>373.66666666666663</ele><time>2026-03-22T09:27:37.515Z</time></trkpt><trkpt lat="43.6384621" lon="12.6326001"><ele>373.3333333333333</ele><time>2026-03-22T09:27:38.516Z</time></trkpt><trkpt lat="43.6384809" lon="12.6324799"><ele>373.0</ele><time>2026-03-22T09:27:39.517Z</time></trkpt><trkpt lat="43.6385014" lon="12.6323502"><ele>372.4</ele><time>2026-03-22T09:27:40.516Z</time></trkpt><trkpt lat="43.6385264" lon="12.6322181"><ele>371.79999999999995</ele><time>2026-03-22T09:27:41.516Z</time></trkpt><trkpt lat="43.6385537" lon="12.6320776"><ele>371.2</ele><time>2026-03-22T09:27:42.517Z</time></trkpt><trkpt lat="43.638586" lon="12.6319237"><ele>370.6</ele><time>2026-03-22T09:27:43.516Z</time></trkpt><trkpt lat="43.6386209" lon="12.6317557"><ele>370.0</ele><time>2026-03-22T09:27:44.516Z</time></trkpt><trkpt lat="43.6386525" lon="12.6315767"><ele>367.0</ele><time>2026-03-22T09:27:45.516Z</time></trkpt><trkpt lat="43.6386864" lon="12.631376"><ele>364.0</ele><time>2026-03-22T09:27:46.515Z</time></trkpt><trkpt lat="43.6387234" lon="12.6311872"><ele>361.0</ele><time>2026-03-22T09:27:47.515Z</time></trkpt><trkpt lat="43.6387564" lon="12.6310036"><ele>358.0</ele><time>2026-03-22T09:27:48.515Z</time></trkpt><trkpt lat="43.6387779" lon="12.6308217"><ele>357.5</ele><time>2026-03-22T09:27:49.516Z</time></trkpt><trkpt lat="43.6387946" lon="12.6306408"><ele>357.0</ele><time>2026-03-22T09:27:50.516Z</time></trkpt><trkpt lat="43.6388051" lon="12.630452"><ele>356.5</ele><time>2026-03-22T09:27:51.516Z</time></trkpt><trkpt lat="43.6388018" lon="12.6302439"><ele>356.0</ele><time>2026-03-22T09:27:52.515Z</time></trkpt><trkpt lat="43.6387844" lon="12.6300471"><ele>354.75</ele><time>2026-03-22T09:27:53.515Z</time></trkpt><trkpt lat="43.6387591" lon="12.6298459"><ele>353.5</ele><time>2026-03-22T09:27:54.516Z</time></trkpt><trkpt lat="43.6387312" lon="12.6296439"><ele>352.25</ele><time>2026-03-22T09:27:55.515Z</time></trkpt><trkpt lat="43.6387001" lon="12.6294513"><ele>351.0</ele><time>2026-03-22T09:27:56.517Z</time></trkpt><trkpt lat="43.6386717" lon="12.6292698"><ele>349.75</ele><time>2026-03-22T09:27:57.515Z</time></trkpt><trkpt lat="43.6386439" lon="12.6290929"><ele>348.5</ele><time>2026-03-22T09:27:58.516Z</time></trkpt><trkpt lat="43.6386305" lon="12.6289142"><ele>347.25</ele><time>2026-03-22T09:27:59.516Z</time></trkpt><trkpt lat="43.6386316" lon="12.6287249"><ele>346.0</ele><time>2026-03-22T09:28:00.516Z</time></trkpt><trkpt lat="43.6386392" lon="12.6285199"><ele>344.75</ele><time>2026-03-22T09:28:01.515Z</time></trkpt><trkpt lat="43.6386535" lon="12.6283043"><ele>343.5</ele><time>2026-03-22T09:28:02.516Z</time></trkpt><trkpt lat="43.6386676" lon="12.6281028"><ele>342.25</ele><time>2026-03-22T09:28:03.515Z</time></trkpt><trkpt lat="43.6386796" lon="12.6279075"><ele>341.0</ele><time>2026-03-22T09:28:04.515Z</time></trkpt><trkpt lat="43.638683" lon="12.6277198"><ele>339.75</ele><time>2026-03-22T09:28:05.516Z</time></trkpt><trkpt lat="43.6386799" lon="12.6275364"><ele>338.5</ele><time>2026-03-22T09:28:06.516Z</time></trkpt><trkpt lat="43.6386628" lon="12.627354"><ele>337.25</ele><time>2026-03-22T09:28:07.515Z</time></trkpt><trkpt lat="43.6386215" lon="12.6271719"><ele>336.0</ele><time>2026-03-22T09:28:08.515Z</time></trkpt><trkpt lat="43.6385553" lon="12.6269889"><ele>335.6666666666667</ele><time>2026-03-22T09:28:09.516Z</time></trkpt><trkpt lat="43.6384768" lon="12.6268094"><ele>335.33333333333337</ele><time>2026-03-22T09:28:10.516Z</time></trkpt><trkpt lat="43.6383888" lon="12.6266126"><ele>335.0</ele><time>2026-03-22T09:28:11.516Z</time></trkpt><trkpt lat="43.6383099" lon="12.6264068"><ele>335.0</ele><time>2026-03-22T09:28:12.516Z</time></trkpt><trkpt lat="43.6382374" lon="12.62622"><ele>335.0</ele><time>2026-03-22T09:28:13.516Z</time></trkpt><trkpt lat="43.6381698" lon="12.6260465"><ele>335.0</ele><time>2026-03-22T09:28:14.516Z</time></trkpt><trkpt lat="43.6381092" lon="12.6258876"><ele>335.0</ele><time>2026-03-22T09:28:15.516Z</time></trkpt><trkpt lat="43.6380533" lon="12.6257445"><ele>336.75</ele><time>2026-03-22T09:28:16.516Z</time></trkpt><trkpt lat="43.638008" lon="12.6255978"><ele>338.5</ele><time>2026-03-22T09:28:17.515Z</time></trkpt><trkpt lat="43.6379774" lon="12.625442"><ele>340.25</ele><time>2026-03-22T09:28:18.516Z</time></trkpt><trkpt lat="43.6379515" lon="12.6252807"><ele>342.0</ele><time>2026-03-22T09:28:19.515Z</time></trkpt><trkpt lat="43.6379363" lon="12.6251101"><ele>342.75</ele><time>2026-03-22T09:28:20.516Z</time></trkpt><trkpt lat="43.6379409" lon="12.624927"><ele>343.5</ele><time>2026-03-22T09:28:21.515Z</time></trkpt><trkpt lat="43.6379567" lon="12.6247278"><ele>344.25</ele><time>2026-03-22T09:28:22.515Z</time></trkpt><trkpt lat="43.63797" lon="12.6245337"><ele>345.0</ele><time>2026-03-22T09:28:23.516Z</time></trkpt><trkpt lat="43.6379802" lon="12.6243601"><ele>345.0</ele><time>2026-03-22T09:28:24.516Z</time></trkpt><trkpt lat="43.6379792" lon="12.6242013"><ele>345.0</ele><time>2026-03-22T09:28:25.516Z</time></trkpt><trkpt lat="43.6379676" lon="12.6240473"><ele>345.0</ele><time>2026-03-22T09:28:26.516Z</time></trkpt><trkpt lat="43.6379408" lon="12.6238953"><ele>345.0</ele><time>2026-03-22T09:28:27.516Z</time></trkpt><trkpt lat="43.6378971" lon="12.6237442"><ele>343.25</ele><time>2026-03-22T09:28:28.516Z</time></trkpt><trkpt lat="43.6378385" lon="12.623594"><ele>341.5</ele><time>2026-03-22T09:28:29.515Z</time></trkpt><trkpt lat="43.6377677" lon="12.6234487"><ele>339.75</ele><time>2026-03-22T09:28:30.516Z</time></trkpt><trkpt lat="43.6376974" lon="12.6233002"><ele>338.0</ele><time>2026-03-22T09:28:31.517Z</time></trkpt><trkpt lat="43.637632" lon="12.6231469"><ele>338.0</ele><time>2026-03-22T09:28:32.515Z</time></trkpt><trkpt lat="43.6375685" lon="12.6229976"><ele>338.0</ele><time>2026-03-22T09:28:33.516Z</time></trkpt><trkpt lat="43.6375087" lon="12.6228531"><ele>338.0</ele><time>2026-03-22T09:28:34.515Z</time></trkpt><trkpt lat="43.6374555" lon="12.6227088"><ele>338.0</ele><time>2026-03-22T09:28:35.516Z</time></trkpt><trkpt lat="43.6374109" lon="12.6225659"><ele>337.75</ele><time>2026-03-22T09:28:36.515Z</time></trkpt><trkpt lat="43.6373731" lon="12.6224244"><ele>337.5</ele><time>2026-03-22T09:28:37.517Z</time></trkpt><trkpt lat="43.63734" lon="12.6222743"><ele>337.25</ele><time>2026-03-22T09:28:38.515Z</time></trkpt><trkpt lat="43.6373277" lon="12.6221067"><ele>337.0</ele><time>2026-03-22T09:28:39.516Z</time></trkpt><trkpt lat="43.6373276" lon="12.6219209"><ele>336.25</ele><time>2026-03-22T09:28:40.515Z</time></trkpt><trkpt lat="43.6373205" lon="12.6217288"><ele>335.5</ele><time>2026-03-22T09:28:41.515Z</time></trkpt><trkpt lat="43.6373234" lon="12.6215417"><ele>334.75</ele><time>2026-03-22T09:28:42.517Z</time></trkpt><trkpt lat="43.6373277" lon="12.62136"><ele>334.0</ele><time>2026-03-22T09:28:43.516Z</time></trkpt><trkpt lat="43.6373255" lon="12.6211832"><ele>334.25</ele><time>2026-03-22T09:28:44.515Z</time></trkpt><trkpt lat="43.637308" lon="12.6210094"><ele>334.5</ele><time>2026-03-22T09:28:45.516Z</time></trkpt><trkpt lat="43.6372785" lon="12.6208334"><ele>334.75</ele><time>2026-03-22T09:28:46.516Z</time></trkpt><trkpt lat="43.6372389" lon="12.6206585"><ele>335.0</ele><time>2026-03-22T09:28:47.515Z</time></trkpt><trkpt lat="43.6371872" lon="12.6204933"><ele>335.0</ele><time>2026-03-22T09:28:48.515Z</time></trkpt><trkpt lat="43.6371243" lon="12.6203408"><ele>335.0</ele><time>2026-03-22T09:28:49.516Z</time></trkpt><trkpt lat="43.6370504" lon="12.6202007"><ele>335.0</ele><time>2026-03-22T09:28:50.515Z</time></trkpt><trkpt lat="43.6369616" lon="12.6200818"><ele>335.0</ele><time>2026-03-22T09:28:51.515Z</time></trkpt><trkpt lat="43.6368573" lon="12.6199833"><ele>336.75</ele><time>2026-03-22T09:28:52.517Z</time></trkpt><trkpt lat="43.6367471" lon="12.6199013"><ele>338.5</ele><time>2026-03-22T09:28:53.515Z</time></trkpt><trkpt lat="43.6366434" lon="12.6198151"><ele>340.25</ele><time>2026-03-22T09:28:54.515Z</time></trkpt><trkpt lat="43.6365421" lon="12.6197338"><ele>342.0</ele><time>2026-03-22T09:28:55.516Z</time></trkpt><trkpt lat="43.6364386" lon="12.6196401"><ele>342.0</ele><time>2026-03-22T09:28:56.517Z</time></trkpt><trkpt lat="43.6363352" lon="12.6195302"><ele>342.0</ele><time>2026-03-22T09:28:57.516Z</time></trkpt><trkpt lat="43.6362268" lon="12.619404"><ele>342.0</ele><time>2026-03-22T09:28:58.515Z</time></trkpt><trkpt lat="43.6361199" lon="12.6192544"><ele>342.0</ele><time>2026-03-22T09:28:59.516Z</time></trkpt><trkpt lat="43.6360028" lon="12.6190829"><ele>342.6666666666667</ele><time>2026-03-22T09:29:00.515Z</time></trkpt><trkpt lat="43.6358636" lon="12.6188929"><ele>343.33333333333337</ele><time>2026-03-22T09:29:01.517Z</time></trkpt><trkpt lat="43.6357113" lon="12.6186864"><ele>344.0</ele><time>2026-03-22T09:29:02.516Z</time></trkpt><trkpt lat="43.6355548" lon="12.6184776"><ele>342.6666666666667</ele><time>2026-03-22T09:29:03.516Z</time></trkpt><trkpt lat="43.6354099" lon="12.6182875"><ele>341.3333333333333</ele><time>2026-03-22T09:29:04.516Z</time></trkpt><trkpt lat="43.6352664" lon="12.6181082"><ele>340.0</ele><time>2026-03-22T09:29:05.515Z</time></trkpt><trkpt lat="43.6351278" lon="12.6179423"><ele>337.3333333333333</ele><time>2026-03-22T09:29:06.516Z</time></trkpt><trkpt lat="43.6349962" lon="12.6177854"><ele>334.6666666666667</ele><time>2026-03-22T09:29:07.515Z</time></trkpt><trkpt lat="43.6348697" lon="12.6176419"><ele>332.0</ele><time>2026-03-22T09:29:08.516Z</time></trkpt><trkpt lat="43.6347498" lon="12.6175101"><ele>332.0</ele><time>2026-03-22T09:29:09.516Z</time></trkpt><trkpt lat="43.6346337" lon="12.6173768"><ele>332.0</ele><time>2026-03-22T09:29:10.516Z</time></trkpt><trkpt lat="43.6345118" lon="12.6172409"><ele>332.0</ele><time>2026-03-22T09:29:11.515Z</time></trkpt><trkpt lat="43.6343877" lon="12.6170883"><ele>332.33333333333337</ele><time>2026-03-22T09:29:12.516Z</time></trkpt><trkpt lat="43.6342683" lon="12.6169268"><ele>332.6666666666667</ele><time>2026-03-22T09:29:13.516Z</time></trkpt><trkpt lat="43.634165" lon="12.6167691"><ele>333.0</ele><time>2026-03-22T09:29:14.517Z</time></trkpt><trkpt lat="43.6340841" lon="12.6166026"><ele>333.0</ele><time>2026-03-22T09:29:15.517Z</time></trkpt><trkpt lat="43.6340151" lon="12.6164239"><ele>333.0</ele><time>2026-03-22T09:29:16.516Z</time></trkpt><trkpt lat="43.6339511" lon="12.6162451"><ele>333.0</ele><time>2026-03-22T09:29:17.517Z</time></trkpt><trkpt lat="43.6338877" lon="12.6160715"><ele>333.0</ele><time>2026-03-22T09:29:18.516Z</time></trkpt><trkpt lat="43.6338174" lon="12.6158946"><ele>334.5</ele><time>2026-03-22T09:29:19.516Z</time></trkpt><trkpt lat="43.6337435" lon="12.6157165"><ele>336.0</ele><time>2026-03-22T09:29:20.516Z</time></trkpt><trkpt lat="43.6336797" lon="12.6155629"><ele>337.5</ele><time>2026-03-22T09:29:21.515Z</time></trkpt><trkpt lat="43.6336167" lon="12.6154265"><ele>339.0</ele><time>2026-03-22T09:29:22.516Z</time></trkpt><trkpt lat="43.6335531" lon="12.6153123"><ele>339.0</ele><time>2026-03-22T09:29:23.516Z</time></trkpt><trkpt lat="43.633477" lon="12.6152155"><ele>339.0</ele><time>2026-03-22T09:29:24.516Z</time></trkpt><trkpt lat="43.63339" lon="12.6151527"><ele>339.0</ele><time>2026-03-22T09:29:25.515Z</time></trkpt><trkpt lat="43.6333034" lon="12.6151238"><ele>339.0</ele><time>2026-03-22T09:29:26.515Z</time></trkpt><trkpt lat="43.6332199" lon="12.6151157"><ele>339.0</ele><time>2026-03-22T09:29:27.516Z</time></trkpt><trkpt lat="43.6331465" lon="12.6150985"><ele>339.0</ele><time>2026-03-22T09:29:28.516Z</time></trkpt><trkpt lat="43.6330761" lon="12.6150359"><ele>339.0</ele><time>2026-03-22T09:29:29.516Z</time></trkpt><trkpt lat="43.6330164" lon="12.6149425"><ele>339.0</ele><time>2026-03-22T09:29:30.516Z</time></trkpt><trkpt lat="43.6329768" lon="12.6148147"><ele>339.0</ele><time>2026-03-22T09:29:31.516Z</time></trkpt><trkpt lat="43.6329534" lon="12.6146716"><ele>339.0</ele><time>2026-03-22T09:29:32.517Z</time></trkpt><trkpt lat="43.6329231" lon="12.6145421"><ele>339.0</ele><time>2026-03-22T09:29:33.515Z</time></trkpt><trkpt lat="43.6328689" lon="12.6144173"><ele>342.6666666666667</ele><time>2026-03-22T09:29:34.516Z</time></trkpt><trkpt lat="43.6327882" lon="12.6142865"><ele>346.33333333333337</ele><time>2026-03-22T09:29:35.517Z</time></trkpt><trkpt lat="43.6326831" lon="12.6141307"><ele>350.0</ele><time>2026-03-22T09:29:36.516Z</time></trkpt><trkpt lat="43.6325647" lon="12.6139556"><ele>350.0</ele><time>2026-03-22T09:29:37.516Z</time></trkpt><trkpt lat="43.6324413" lon="12.6137783"><ele>350.0</ele><time>2026-03-22T09:29:38.516Z</time></trkpt><trkpt lat="43.6323409" lon="12.6136018"><ele>350.0</ele><time>2026-03-22T09:29:39.516Z</time></trkpt><trkpt lat="43.6322503" lon="12.613421"><ele>347.6666666666667</ele><time>2026-03-22T09:29:40.517Z</time></trkpt><trkpt lat="43.632166" lon="12.6132343"><ele>345.3333333333333</ele><time>2026-03-22T09:29:41.516Z</time></trkpt><trkpt lat="43.6320845" lon="12.6130433"><ele>343.0</ele><time>2026-03-22T09:29:42.517Z</time></trkpt><trkpt lat="43.6320049" lon="12.6128553"><ele>348.66666666666663</ele><time>2026-03-22T09:29:43.517Z</time></trkpt><trkpt lat="43.6319221" lon="12.6126687"><ele>354.3333333333333</ele><time>2026-03-22T09:29:44.516Z</time></trkpt><trkpt lat="43.6318352" lon="12.6124546"><ele>360.0</ele><time>2026-03-22T09:29:45.516Z</time></trkpt><trkpt lat="43.6317475" lon="12.6122251"><ele>359.3333333333333</ele><time>2026-03-22T09:29:46.515Z</time></trkpt><trkpt lat="43.6316606" lon="12.6119723"><ele>358.66666666666663</ele><time>2026-03-22T09:29:47.517Z</time></trkpt><trkpt lat="43.6315857" lon="12.6117565"><ele>358.0</ele><time>2026-03-22T09:29:48.516Z</time></trkpt><trkpt lat="43.6315256" lon="12.6115668"><ele>358.0</ele><time>2026-03-22T09:29:49.517Z</time></trkpt><trkpt lat="43.6314706" lon="12.611398"><ele>358.0</ele><time>2026-03-22T09:29:50.515Z</time></trkpt><trkpt lat="43.6314147" lon="12.6112413"><ele>358.0</ele><time>2026-03-22T09:29:51.517Z</time></trkpt><trkpt lat="43.631357" lon="12.6110969"><ele>358.0</ele><time>2026-03-22T09:29:52.516Z</time></trkpt><trkpt lat="43.631299" lon="12.6109516"><ele>359.59999999999997</ele><time>2026-03-22T09:29:53.515Z</time></trkpt><trkpt lat="43.6312414" lon="12.610808"><ele>361.2</ele><time>2026-03-22T09:29:54.515Z</time></trkpt><trkpt lat="43.6311847" lon="12.610671"><ele>362.8</ele><time>2026-03-22T09:29:55.516Z</time></trkpt><trkpt lat="43.6311404" lon="12.6105567"><ele>364.4</ele><time>2026-03-22T09:29:56.517Z</time></trkpt><trkpt lat="43.631103" lon="12.6104629"><ele>366.0</ele><time>2026-03-22T09:29:57.516Z</time></trkpt><trkpt lat="43.6310672" lon="12.6103912"><ele>366.5</ele><time>2026-03-22T09:29:58.515Z</time></trkpt><trkpt lat="43.6309659" lon="12.6103144"><ele>367.0</ele><time>2026-03-22T09:30:00.515Z</time></trkpt><trkpt lat="43.6308905" lon="12.6102931"><ele>367.5</ele><time>2026-03-22T09:30:01.515Z</time></trkpt><trkpt lat="43.6308062" lon="12.6102896"><ele>368.0</ele><time>2026-03-22T09:30:02.516Z</time></trkpt><trkpt lat="43.6307217" lon="12.6103031"><ele>368.5</ele><time>2026-03-22T09:30:03.516Z</time></trkpt><trkpt lat="43.6306418" lon="12.610323"><ele>369.0</ele><time>2026-03-22T09:30:04.515Z</time></trkpt><trkpt lat="43.6305617" lon="12.6103555"><ele>370.0</ele><time>2026-03-22T09:30:05.516Z</time></trkpt><trkpt lat="43.6304801" lon="12.6103965"><ele>371.0</ele><time>2026-03-22T09:30:06.515Z</time></trkpt><trkpt lat="43.6303894" lon="12.6104466"><ele>372.0</ele><time>2026-03-22T09:30:07.517Z</time></trkpt><trkpt lat="43.6302756" lon="12.6105058"><ele>373.0</ele><time>2026-03-22T09:30:08.516Z</time></trkpt><trkpt lat="43.630136" lon="12.610571"><ele>375.0</ele><time>2026-03-22T09:30:09.516Z</time></trkpt><trkpt lat="43.6299754" lon="12.6106464"><ele>377.0</ele><time>2026-03-22T09:30:10.516Z</time></trkpt><trkpt lat="43.6298452" lon="12.6107026"><ele>379.0</ele><time>2026-03-22T09:30:11.516Z</time></trkpt><trkpt lat="43.6297329" lon="12.6107511"><ele>381.0</ele><time>2026-03-22T09:30:12.515Z</time></trkpt><trkpt lat="43.6296401" lon="12.6107965"><ele>381.0</ele><time>2026-03-22T09:30:13.516Z</time></trkpt><trkpt lat="43.6295626" lon="12.6108221"><ele>381.0</ele><time>2026-03-22T09:30:14.516Z</time></trkpt><trkpt lat="43.6294738" lon="12.6108792"><ele>381.0</ele><time>2026-03-22T09:30:16.516Z</time></trkpt><trkpt lat="43.6295602" lon="12.6108787"><ele>381.0</ele><time>2026-03-22T09:30:20.515Z</time></trkpt><trkpt lat="43.6296306" lon="12.6108242"><ele>381.0</ele><time>2026-03-22T09:30:21.517Z</time></trkpt><trkpt lat="43.6297303" lon="12.610776"><ele>381.0</ele><time>2026-03-22T09:30:22.515Z</time></trkpt><trkpt lat="43.6298665" lon="12.610704"><ele>381.0</ele><time>2026-03-22T09:30:23.515Z</time></trkpt><trkpt lat="43.6300143" lon="12.6106331"><ele>381.0</ele><time>2026-03-22T09:30:24.516Z</time></trkpt><trkpt lat="43.6301414" lon="12.6105739"><ele>381.0</ele><time>2026-03-22T09:30:25.515Z</time></trkpt><trkpt lat="43.6302591" lon="12.6105131"><ele>379.4</ele><time>2026-03-22T09:30:26.515Z</time></trkpt><trkpt lat="43.6303682" lon="12.6104561"><ele>377.8</ele><time>2026-03-22T09:30:27.515Z</time></trkpt><trkpt lat="43.6304717" lon="12.6103988"><ele>376.2</ele><time>2026-03-22T09:30:28.516Z</time></trkpt><trkpt lat="43.6305678" lon="12.6103516"><ele>374.59999999999997</ele><time>2026-03-22T09:30:29.517Z</time></trkpt><trkpt lat="43.6306637" lon="12.6103239"><ele>373.0</ele><time>2026-03-22T09:30:30.516Z</time></trkpt><trkpt lat="43.6307547" lon="12.6103105"><ele>372.2</ele><time>2026-03-22T09:30:31.516Z</time></trkpt><trkpt lat="43.6308365" lon="12.6102988"><ele>371.4</ele><time>2026-03-22T09:30:32.515Z</time></trkpt><trkpt lat="43.6309067" lon="12.6102988"><ele>370.59999999999997</ele><time>2026-03-22T09:30:33.516Z</time></trkpt><trkpt lat="43.6309957" lon="12.6102458"><ele>369.79999999999995</ele><time>2026-03-22T09:30:35.517Z</time></trkpt><trkpt lat="43.6309653" lon="12.6101608"><ele>369.0</ele><time>2026-03-22T09:30:37.515Z</time></trkpt><trkpt lat="43.6308218" lon="12.6101072"><ele>369.0</ele><time>2026-03-22T09:30:39.516Z</time></trkpt><trkpt lat="43.6307198" lon="12.6100587"><ele>369.0</ele><time>2026-03-22T09:30:40.517Z</time></trkpt><trkpt lat="43.630615" lon="12.6099581"><ele>369.0</ele><time>2026-03-22T09:30:41.516Z</time></trkpt><trkpt lat="43.630526" lon="12.6098319"><ele>369.0</ele><time>2026-03-22T09:30:42.517Z</time></trkpt><trkpt lat="43.6304451" lon="12.6096775"><ele>369.0</ele><time>2026-03-22T09:30:43.515Z</time></trkpt><trkpt lat="43.6303669" lon="12.6095294"><ele>369.0</ele><time>2026-03-22T09:30:44.516Z</time></trkpt><trkpt lat="43.6302859" lon="12.6093903"><ele>369.0</ele><time>2026-03-22T09:30:45.516Z</time></trkpt><trkpt lat="43.630214" lon="12.6092739"><ele>369.0</ele><time>2026-03-22T09:30:46.515Z</time></trkpt><trkpt lat="43.6301461" lon="12.6091673"><ele>367.5</ele><time>2026-03-22T09:30:47.517Z</time></trkpt><trkpt lat="43.6300908" lon="12.6090715"><ele>366.0</ele><time>2026-03-22T09:30:48.515Z</time></trkpt><trkpt lat="43.6300503" lon="12.608985"><ele>364.5</ele><time>2026-03-22T09:30:49.515Z</time></trkpt><trkpt lat="43.6300271" lon="12.6088873"><ele>363.0</ele><time>2026-03-22T09:30:50.515Z</time></trkpt><trkpt lat="43.6300334" lon="12.6087657"><ele>361.5</ele><time>2026-03-22T09:30:51.515Z</time></trkpt><trkpt lat="43.6300752" lon="12.6086316"><ele>360.0</ele><time>2026-03-22T09:30:52.515Z</time></trkpt><trkpt lat="43.6301478" lon="12.6084897"><ele>357.4</ele><time>2026-03-22T09:30:53.516Z</time></trkpt><trkpt lat="43.6302232" lon="12.6083556"><ele>354.8</ele><time>2026-03-22T09:30:54.516Z</time></trkpt><trkpt lat="43.6302962" lon="12.608229"><ele>352.20000000000005</ele><time>2026-03-22T09:30:55.515Z</time></trkpt><trkpt lat="43.6303528" lon="12.6081342"><ele>349.6</ele><time>2026-03-22T09:30:56.517Z</time></trkpt><trkpt lat="43.630396" lon="12.6080675"><ele>347.0</ele><time>2026-03-22T09:30:57.516Z</time></trkpt><trkpt lat="43.6304444" lon="12.6079957"><ele>347.0</ele><time>2026-03-22T09:31:00.515Z</time></trkpt><trkpt lat="43.6305241" lon="12.6079045"><ele>347.0</ele><time>2026-03-22T09:31:09.516Z</time></trkpt><trkpt lat="43.6305773" lon="12.6078566"><ele>347.0</ele><time>2026-03-22T09:31:10.516Z</time></trkpt><trkpt lat="43.6306471" lon="12.6078059"><ele>347.0</ele><time>2026-03-22T09:31:11.516Z</time></trkpt><trkpt lat="43.6307424" lon="12.6077443"><ele>347.0</ele><time>2026-03-22T09:31:12.517Z</time></trkpt><trkpt lat="43.630835" lon="12.607675"><ele>345.8</ele><time>2026-03-22T09:31:13.515Z</time></trkpt><trkpt lat="43.6309261" lon="12.6075986"><ele>344.6</ele><time>2026-03-22T09:31:14.516Z</time></trkpt><trkpt lat="43.6310111" lon="12.6075127"><ele>343.40000000000003</ele><time>2026-03-22T09:31:15.516Z</time></trkpt><trkpt lat="43.6310782" lon="12.6073999"><ele>342.20000000000005</ele><time>2026-03-22T09:31:16.516Z</time></trkpt><trkpt lat="43.6311359" lon="12.6072742"><ele>341.0</ele><time>2026-03-22T09:31:17.515Z</time></trkpt><trkpt lat="43.6311913" lon="12.6071467"><ele>339.6</ele><time>2026-03-22T09:31:18.516Z</time></trkpt><trkpt lat="43.631244" lon="12.6070122"><ele>338.20000000000005</ele><time>2026-03-22T09:31:19.516Z</time></trkpt><trkpt lat="43.6312929" lon="12.6068724"><ele>336.79999999999995</ele><time>2026-03-22T09:31:20.516Z</time></trkpt><trkpt lat="43.6313427" lon="12.6067304"><ele>335.4</ele><time>2026-03-22T09:31:21.515Z</time></trkpt><trkpt lat="43.6313939" lon="12.6065927"><ele>334.0</ele><time>2026-03-22T09:31:22.516Z</time></trkpt><trkpt lat="43.6314391" lon="12.6064723"><ele>332.16666666666663</ele><time>2026-03-22T09:31:23.515Z</time></trkpt><trkpt lat="43.6314772" lon="12.6063675"><ele>330.3333333333333</ele><time>2026-03-22T09:31:24.516Z</time></trkpt><trkpt lat="43.6315119" lon="12.6062762"><ele>328.5</ele><time>2026-03-22T09:31:25.515Z</time></trkpt><trkpt lat="43.631545" lon="12.6061965"><ele>326.6666666666667</ele><time>2026-03-22T09:31:26.517Z</time></trkpt><trkpt lat="43.6315765" lon="12.6060743"><ele>324.83333333333337</ele><time>2026-03-22T09:31:28.516Z</time></trkpt><trkpt lat="43.6315489" lon="12.6059832"><ele>323.0</ele><time>2026-03-22T09:31:30.515Z</time></trkpt><trkpt lat="43.6314493" lon="12.6059311"><ele>322.59999999999997</ele><time>2026-03-22T09:31:32.516Z</time></trkpt><trkpt lat="43.6313769" lon="12.6059058"><ele>322.2</ele><time>2026-03-22T09:31:33.515Z</time></trkpt><trkpt lat="43.6312918" lon="12.605869"><ele>321.8</ele><time>2026-03-22T09:31:34.517Z</time></trkpt><trkpt lat="43.6311941" lon="12.6058239"><ele>321.4</ele><time>2026-03-22T09:31:35.516Z</time></trkpt><trkpt lat="43.6310781" lon="12.6057843"><ele>321.0</ele><time>2026-03-22T09:31:36.516Z</time></trkpt><trkpt lat="43.6309501" lon="12.6057392"><ele>321.0</ele><time>2026-03-22T09:31:37.515Z</time></trkpt><trkpt lat="43.6308061" lon="12.6056813"><ele>321.0</ele><time>2026-03-22T09:31:38.515Z</time></trkpt><trkpt lat="43.6306586" lon="12.6056169"><ele>321.0</ele><time>2026-03-22T09:31:39.516Z</time></trkpt><trkpt lat="43.6305036" lon="12.6055483"><ele>321.0</ele><time>2026-03-22T09:31:40.516Z</time></trkpt><trkpt lat="43.6303466" lon="12.6054871"><ele>321.0</ele><time>2026-03-22T09:31:41.516Z</time></trkpt><trkpt lat="43.6302009" lon="12.6054437"><ele>321.0</ele><time>2026-03-22T09:31:42.517Z</time></trkpt><trkpt lat="43.6300645" lon="12.6054043"><ele>321.8</ele><time>2026-03-22T09:31:43.516Z</time></trkpt><trkpt lat="43.6299403" lon="12.6053705"><ele>322.6</ele><time>2026-03-22T09:31:44.516Z</time></trkpt><trkpt lat="43.6298274" lon="12.605339"><ele>323.4</ele><time>2026-03-22T09:31:45.517Z</time></trkpt><trkpt lat="43.6297238" lon="12.6053176"><ele>324.2</ele><time>2026-03-22T09:31:46.516Z</time></trkpt><trkpt lat="43.6296299" lon="12.6052925"><ele>325.0</ele><time>2026-03-22T09:31:47.517Z</time></trkpt><trkpt lat="43.6295442" lon="12.6052691"><ele>325.5</ele><time>2026-03-22T09:31:48.515Z</time></trkpt><trkpt lat="43.6294662" lon="12.6052637"><ele>326.0</ele><time>2026-03-22T09:31:49.515Z</time></trkpt><trkpt lat="43.6294024" lon="12.605268"><ele>326.5</ele><time>2026-03-22T09:31:50.515Z</time></trkpt><trkpt lat="43.6293159" lon="12.6053145"><ele>327.0</ele><time>2026-03-22T09:31:52.515Z</time></trkpt><trkpt lat="43.6292378" lon="12.6054429"><ele>327.5</ele><time>2026-03-22T09:31:54.516Z</time></trkpt><trkpt lat="43.6291898" lon="12.6055418"><ele>328.0</ele><time>2026-03-22T09:31:55.517Z</time></trkpt><trkpt lat="43.6291375" lon="12.6056503"><ele>328.0</ele><time>2026-03-22T09:31:56.515Z</time></trkpt><trkpt lat="43.6290833" lon="12.6057775"><ele>328.0</ele><time>2026-03-22T09:31:57.516Z</time></trkpt><trkpt lat="43.6290245" lon="12.605919"><ele>328.0</ele><time>2026-03-22T09:31:58.516Z</time></trkpt><trkpt lat="43.6289656" lon="12.6060554"><ele>328.0</ele><time>2026-03-22T09:31:59.516Z</time></trkpt><trkpt lat="43.6289118" lon="12.6061732"><ele>328.0</ele><time>2026-03-22T09:32:00.515Z</time></trkpt><trkpt lat="43.6288624" lon="12.6062797"><ele>328.79999999999995</ele><time>2026-03-22T09:32:01.515Z</time></trkpt><trkpt lat="43.6288154" lon="12.6063713"><ele>329.6</ele><time>2026-03-22T09:32:02.516Z</time></trkpt><trkpt lat="43.6287681" lon="12.6064409"><ele>330.4</ele><time>2026-03-22T09:32:03.516Z</time></trkpt><trkpt lat="43.6286593" lon="12.606438"><ele>331.20000000000005</ele><time>2026-03-22T09:32:05.515Z</time></trkpt><trkpt lat="43.6285874" lon="12.6063811"><ele>332.0</ele><time>2026-03-22T09:32:06.517Z</time></trkpt><trkpt lat="43.6285005" lon="12.6062902"><ele>331.0</ele><time>2026-03-22T09:32:07.516Z</time></trkpt><trkpt lat="43.628399" lon="12.606164"><ele>330.0</ele><time>2026-03-22T09:32:08.515Z</time></trkpt><trkpt lat="43.6282777" lon="12.6059932"><ele>329.0</ele><time>2026-03-22T09:32:09.515Z</time></trkpt><trkpt lat="43.6281675" lon="12.6058216"><ele>329.0</ele><time>2026-03-22T09:32:10.515Z</time></trkpt><trkpt lat="43.6280835" lon="12.6056685"><ele>329.0</ele><time>2026-03-22T09:32:11.515Z</time></trkpt><trkpt lat="43.6280161" lon="12.6055377"><ele>329.0</ele><time>2026-03-22T09:32:12.515Z</time></trkpt><trkpt lat="43.6279696" lon="12.6054196"><ele>329.0</ele><time>2026-03-22T09:32:13.515Z</time></trkpt><trkpt lat="43.6279474" lon="12.6053135"><ele>329.0</ele><time>2026-03-22T09:32:14.516Z</time></trkpt><trkpt lat="43.6279516" lon="12.6051943"><ele>330.25</ele><time>2026-03-22T09:32:15.516Z</time></trkpt><trkpt lat="43.6279777" lon="12.6050379"><ele>331.5</ele><time>2026-03-22T09:32:16.515Z</time></trkpt><trkpt lat="43.6280108" lon="12.6048382"><ele>332.75</ele><time>2026-03-22T09:32:17.516Z</time></trkpt><trkpt lat="43.6280304" lon="12.6046476"><ele>334.0</ele><time>2026-03-22T09:32:18.515Z</time></trkpt><trkpt lat="43.6280329" lon="12.6044584"><ele>334.0</ele><time>2026-03-22T09:32:19.515Z</time></trkpt><trkpt lat="43.6280169" lon="12.6042697"><ele>334.0</ele><time>2026-03-22T09:32:20.516Z</time></trkpt><trkpt lat="43.6279862" lon="12.6040779"><ele>334.0</ele><time>2026-03-22T09:32:21.515Z</time></trkpt><trkpt lat="43.6279358" lon="12.6038837"><ele>334.0</ele><time>2026-03-22T09:32:22.516Z</time></trkpt><trkpt lat="43.627869" lon="12.6036965"><ele>336.75</ele><time>2026-03-22T09:32:23.516Z</time></trkpt><trkpt lat="43.6277936" lon="12.6035388"><ele>339.5</ele><time>2026-03-22T09:32:24.516Z</time></trkpt><trkpt lat="43.6277209" lon="12.6034207"><ele>342.25</ele><time>2026-03-22T09:32:25.515Z</time></trkpt><trkpt lat="43.6276435" lon="12.6033096"><ele>345.0</ele><time>2026-03-22T09:32:26.515Z</time></trkpt><trkpt lat="43.6275533" lon="12.6032186"><ele>345.0</ele><time>2026-03-22T09:32:27.515Z</time></trkpt><trkpt lat="43.6274395" lon="12.6031626"><ele>345.0</ele><time>2026-03-22T09:32:28.516Z</time></trkpt><trkpt lat="43.6272975" lon="12.6031214"><ele>345.0</ele><time>2026-03-22T09:32:29.516Z</time></trkpt><trkpt lat="43.6271617" lon="12.6030882"><ele>345.0</ele><time>2026-03-22T09:32:30.517Z</time></trkpt><trkpt lat="43.627042" lon="12.6030493"><ele>345.25</ele><time>2026-03-22T09:32:31.515Z</time></trkpt><trkpt lat="43.6269169" lon="12.6029913"><ele>345.5</ele><time>2026-03-22T09:32:32.516Z</time></trkpt><trkpt lat="43.6267899" lon="12.6029199"><ele>345.75</ele><time>2026-03-22T09:32:33.517Z</time></trkpt><trkpt lat="43.6266687" lon="12.6028454"><ele>346.0</ele><time>2026-03-22T09:32:34.516Z</time></trkpt><trkpt lat="43.6265657" lon="12.6027579"><ele>348.25</ele><time>2026-03-22T09:32:35.516Z</time></trkpt><trkpt lat="43.6264756" lon="12.6026477"><ele>350.5</ele><time>2026-03-22T09:32:36.516Z</time></trkpt><trkpt lat="43.6263967" lon="12.6025362"><ele>352.75</ele><time>2026-03-22T09:32:37.515Z</time></trkpt><trkpt lat="43.6263013" lon="12.6024414"><ele>355.0</ele><time>2026-03-22T09:32:38.516Z</time></trkpt><trkpt lat="43.6261956" lon="12.6023625"><ele>355.16666666666663</ele><time>2026-03-22T09:32:39.516Z</time></trkpt><trkpt lat="43.6261037" lon="12.6022902"><ele>355.3333333333333</ele><time>2026-03-22T09:32:40.516Z</time></trkpt><trkpt lat="43.6260285" lon="12.6022302"><ele>355.5</ele><time>2026-03-22T09:32:41.516Z</time></trkpt><trkpt lat="43.6259539" lon="12.602172"><ele>355.6666666666667</ele><time>2026-03-22T09:32:42.515Z</time></trkpt><trkpt lat="43.6258851" lon="12.6021093"><ele>355.83333333333337</ele><time>2026-03-22T09:32:43.515Z</time></trkpt><trkpt lat="43.6258216" lon="12.6020493"><ele>356.0</ele><time>2026-03-22T09:32:44.515Z</time></trkpt><trkpt lat="43.6257597" lon="12.6019736"><ele>356.8</ele><time>2026-03-22T09:32:45.516Z</time></trkpt><trkpt lat="43.6257039" lon="12.6018734"><ele>357.6</ele><time>2026-03-22T09:32:46.515Z</time></trkpt><trkpt lat="43.6256512" lon="12.6017396"><ele>358.4</ele><time>2026-03-22T09:32:47.515Z</time></trkpt><trkpt lat="43.625601" lon="12.6016083"><ele>359.2</ele><time>2026-03-22T09:32:48.517Z</time></trkpt><trkpt lat="43.6255648" lon="12.6014812"><ele>360.0</ele><time>2026-03-22T09:32:49.516Z</time></trkpt><trkpt lat="43.6255308" lon="12.6013759"><ele>360.0</ele><time>2026-03-22T09:32:50.517Z</time></trkpt><trkpt lat="43.6255031" lon="12.6012907"><ele>360.0</ele><time>2026-03-22T09:32:51.516Z</time></trkpt><trkpt lat="43.6254285" lon="12.6011688"><ele>360.0</ele><time>2026-03-22T09:32:53.516Z</time></trkpt><trkpt lat="43.6253586" lon="12.6011411"><ele>360.0</ele><time>2026-03-22T09:32:54.516Z</time></trkpt><trkpt lat="43.6252651" lon="12.6011316"><ele>360.0</ele><time>2026-03-22T09:32:55.517Z</time></trkpt><trkpt lat="43.6251563" lon="12.6011301"><ele>360.3333333333333</ele><time>2026-03-22T09:32:56.515Z</time></trkpt><trkpt lat="43.6250697" lon="12.6011191"><ele>360.6666666666667</ele><time>2026-03-22T09:32:57.515Z</time></trkpt><trkpt lat="43.6249954" lon="12.6010764"><ele>361.0</ele><time>2026-03-22T09:32:58.516Z</time></trkpt><trkpt lat="43.6249375" lon="12.6009938"><ele>361.33333333333337</ele><time>2026-03-22T09:32:59.515Z</time></trkpt><trkpt lat="43.6248982" lon="12.600894"><ele>361.6666666666667</ele><time>2026-03-22T09:33:00.516Z</time></trkpt><trkpt lat="43.624882" lon="12.6007757"><ele>362.0</ele><time>2026-03-22T09:33:01.516Z</time></trkpt><trkpt lat="43.6248682" lon="12.6006293"><ele>362.0</ele><time>2026-03-22T09:33:02.516Z</time></trkpt><trkpt lat="43.6248507" lon="12.6004634"><ele>362.0</ele><time>2026-03-22T09:33:03.516Z</time></trkpt><trkpt lat="43.6248297" lon="12.6002837"><ele>362.0</ele><time>2026-03-22T09:33:04.516Z</time></trkpt><trkpt lat="43.6248084" lon="12.6001112"><ele>362.0</ele><time>2026-03-22T09:33:05.515Z</time></trkpt><trkpt lat="43.6247847" lon="12.5999599"><ele>361.25</ele><time>2026-03-22T09:33:06.515Z</time></trkpt><trkpt lat="43.6247506" lon="12.5998184"><ele>360.5</ele><time>2026-03-22T09:33:07.515Z</time></trkpt><trkpt lat="43.6247046" lon="12.5996791"><ele>359.75</ele><time>2026-03-22T09:33:08.516Z</time></trkpt><trkpt lat="43.6246355" lon="12.5995378"><ele>359.0</ele><time>2026-03-22T09:33:09.515Z</time></trkpt><trkpt lat="43.6245614" lon="12.5993794"><ele>359.0</ele><time>2026-03-22T09:33:10.515Z</time></trkpt><trkpt lat="43.6244856" lon="12.5992037"><ele>359.0</ele><time>2026-03-22T09:33:11.517Z</time></trkpt><trkpt lat="43.6244072" lon="12.5990331"><ele>359.0</ele><time>2026-03-22T09:33:12.515Z</time></trkpt><trkpt lat="43.6243297" lon="12.5988956"><ele>359.0</ele><time>2026-03-22T09:33:13.516Z</time></trkpt><trkpt lat="43.6242565" lon="12.598777"><ele>361.2</ele><time>2026-03-22T09:33:14.517Z</time></trkpt><trkpt lat="43.6241939" lon="12.5986667"><ele>363.4</ele><time>2026-03-22T09:33:15.515Z</time></trkpt><trkpt lat="43.6241351" lon="12.5985595"><ele>365.6</ele><time>2026-03-22T09:33:16.516Z</time></trkpt><trkpt lat="43.6240902" lon="12.59844"><ele>367.8</ele><time>2026-03-22T09:33:17.516Z</time></trkpt><trkpt lat="43.6240629" lon="12.598309"><ele>370.0</ele><time>2026-03-22T09:33:18.515Z</time></trkpt><trkpt lat="43.624052" lon="12.5981629"><ele>370.0</ele><time>2026-03-22T09:33:19.516Z</time></trkpt><trkpt lat="43.6240608" lon="12.5980166"><ele>370.0</ele><time>2026-03-22T09:33:20.517Z</time></trkpt><trkpt lat="43.624078" lon="12.5978783"><ele>370.0</ele><time>2026-03-22T09:33:21.516Z</time></trkpt><trkpt lat="43.6241022" lon="12.5977522"><ele>370.0</ele><time>2026-03-22T09:33:22.515Z</time></trkpt><trkpt lat="43.6241218" lon="12.5976381"><ele>370.0</ele><time>2026-03-22T09:33:23.516Z</time></trkpt><trkpt lat="43.6241422" lon="12.5975389"><ele>368.4</ele><time>2026-03-22T09:33:24.515Z</time></trkpt><trkpt lat="43.6241529" lon="12.5974445"><ele>366.8</ele><time>2026-03-22T09:33:25.517Z</time></trkpt><trkpt lat="43.6241474" lon="12.5973552"><ele>365.20000000000005</ele><time>2026-03-22T09:33:26.515Z</time></trkpt><trkpt lat="43.6240894" lon="12.5972166"><ele>363.6</ele><time>2026-03-22T09:33:28.515Z</time></trkpt><trkpt lat="43.6239835" lon="12.5971484"><ele>362.0</ele><time>2026-03-22T09:33:30.515Z</time></trkpt><trkpt lat="43.6238577" lon="12.5971888"><ele>362.0</ele><time>2026-03-22T09:33:32.515Z</time></trkpt><trkpt lat="43.6237829" lon="12.5972525"><ele>362.0</ele><time>2026-03-22T09:33:33.515Z</time></trkpt><trkpt lat="43.6236979" lon="12.5973445"><ele>362.0</ele><time>2026-03-22T09:33:34.517Z</time></trkpt><trkpt lat="43.6236141" lon="12.5974555"><ele>362.0</ele><time>2026-03-22T09:33:35.515Z</time></trkpt><trkpt lat="43.6235263" lon="12.5975727"><ele>362.0</ele><time>2026-03-22T09:33:36.515Z</time></trkpt><trkpt lat="43.6234301" lon="12.5976891"><ele>363.75</ele><time>2026-03-22T09:33:37.515Z</time></trkpt><trkpt lat="43.6233283" lon="12.5978083"><ele>365.5</ele><time>2026-03-22T09:33:38.515Z</time></trkpt><trkpt lat="43.62323" lon="12.5979191"><ele>367.25</ele><time>2026-03-22T09:33:39.516Z</time></trkpt><trkpt lat="43.6231274" lon="12.598013"><ele>369.0</ele><time>2026-03-22T09:33:40.516Z</time></trkpt><trkpt lat="43.6230146" lon="12.5980808"><ele>372.75</ele><time>2026-03-22T09:33:41.515Z</time></trkpt><trkpt lat="43.622899" lon="12.598132"><ele>376.5</ele><time>2026-03-22T09:33:42.516Z</time></trkpt><trkpt lat="43.622779" lon="12.5981801"><ele>380.25</ele><time>2026-03-22T09:33:43.515Z</time></trkpt><trkpt lat="43.6226707" lon="12.5982235"><ele>384.0</ele><time>2026-03-22T09:33:44.515Z</time></trkpt><trkpt lat="43.6225804" lon="12.5982557"><ele>384.1666666666667</ele><time>2026-03-22T09:33:45.516Z</time></trkpt><trkpt lat="43.6224965" lon="12.5982762"><ele>384.33333333333337</ele><time>2026-03-22T09:33:46.516Z</time></trkpt><trkpt lat="43.6224111" lon="12.5982656"><ele>384.5</ele><time>2026-03-22T09:33:47.516Z</time></trkpt><trkpt lat="43.6223304" lon="12.59822"><ele>384.6666666666667</ele><time>2026-03-22T09:33:48.515Z</time></trkpt><trkpt lat="43.6222601" lon="12.5981517"><ele>384.83333333333337</ele><time>2026-03-22T09:33:49.517Z</time></trkpt><trkpt lat="43.6221934" lon="12.5980681"><ele>385.0</ele><time>2026-03-22T09:33:50.516Z</time></trkpt><trkpt lat="43.6221331" lon="12.5979689"><ele>385.0</ele><time>2026-03-22T09:33:51.515Z</time></trkpt><trkpt lat="43.6220697" lon="12.5978489"><ele>385.0</ele><time>2026-03-22T09:33:52.516Z</time></trkpt><trkpt lat="43.6219934" lon="12.5976874"><ele>385.0</ele><time>2026-03-22T09:33:53.516Z</time></trkpt><trkpt lat="43.6219171" lon="12.5975096"><ele>385.0</ele><time>2026-03-22T09:33:54.517Z</time></trkpt><trkpt lat="43.6218428" lon="12.5973449"><ele>385.0</ele><time>2026-03-22T09:33:55.516Z</time></trkpt><trkpt lat="43.6217782" lon="12.5972117"><ele>385.0</ele><time>2026-03-22T09:33:56.516Z</time></trkpt><trkpt lat="43.6217076" lon="12.5970988"><ele>385.0</ele><time>2026-03-22T09:33:57.516Z</time></trkpt><trkpt lat="43.6216195" lon="12.5969885"><ele>385.0</ele><time>2026-03-22T09:33:58.516Z</time></trkpt><trkpt lat="43.6215115" lon="12.5968669"><ele>384.75</ele><time>2026-03-22T09:33:59.517Z</time></trkpt><trkpt lat="43.6213985" lon="12.5967427"><ele>384.5</ele><time>2026-03-22T09:34:00.516Z</time></trkpt><trkpt lat="43.6213053" lon="12.5966267"><ele>384.25</ele><time>2026-03-22T09:34:01.516Z</time></trkpt><trkpt lat="43.6212193" lon="12.596506"><ele>384.0</ele><time>2026-03-22T09:34:02.516Z</time></trkpt><trkpt lat="43.6211356" lon="12.5963778"><ele>384.0</ele><time>2026-03-22T09:34:03.516Z</time></trkpt><trkpt lat="43.6210629" lon="12.596272"><ele>384.0</ele><time>2026-03-22T09:34:04.515Z</time></trkpt><trkpt lat="43.6209962" lon="12.5961864"><ele>384.0</ele><time>2026-03-22T09:34:05.515Z</time></trkpt><trkpt lat="43.6209284" lon="12.5961119"><ele>384.0</ele><time>2026-03-22T09:34:06.516Z</time></trkpt><trkpt lat="43.6208437" lon="12.5960526"><ele>384.0</ele><time>2026-03-22T09:34:07.515Z</time></trkpt><trkpt lat="43.6207471" lon="12.5960135"><ele>384.0</ele><time>2026-03-22T09:34:08.517Z</time></trkpt><trkpt lat="43.6206232" lon="12.5959969"><ele>384.0</ele><time>2026-03-22T09:34:09.515Z</time></trkpt><trkpt lat="43.6204997" lon="12.5959949"><ele>384.0</ele><time>2026-03-22T09:34:10.515Z</time></trkpt><trkpt lat="43.6203864" lon="12.5959899"><ele>384.0</ele><time>2026-03-22T09:34:11.516Z</time></trkpt><trkpt lat="43.6202795" lon="12.5959745"><ele>384.5</ele><time>2026-03-22T09:34:12.515Z</time></trkpt><trkpt lat="43.6201791" lon="12.5959516"><ele>385.0</ele><time>2026-03-22T09:34:13.517Z</time></trkpt><trkpt lat="43.6200867" lon="12.5959297"><ele>385.5</ele><time>2026-03-22T09:34:14.516Z</time></trkpt><trkpt lat="43.6200095" lon="12.5959046"><ele>386.0</ele><time>2026-03-22T09:34:15.515Z</time></trkpt><trkpt lat="43.6199521" lon="12.5958514"><ele>386.5</ele><time>2026-03-22T09:34:16.516Z</time></trkpt><trkpt lat="43.6199021" lon="12.5957676"><ele>387.0</ele><time>2026-03-22T09:34:17.515Z</time></trkpt><trkpt lat="43.6198585" lon="12.5956529"><ele>387.0</ele><time>2026-03-22T09:34:18.515Z</time></trkpt><trkpt lat="43.6198094" lon="12.5955056"><ele>387.0</ele><time>2026-03-22T09:34:19.516Z</time></trkpt><trkpt lat="43.6197521" lon="12.5953177"><ele>387.0</ele><time>2026-03-22T09:34:20.517Z</time></trkpt><trkpt lat="43.6197039" lon="12.5951518"><ele>387.0</ele><time>2026-03-22T09:34:21.516Z</time></trkpt><trkpt lat="43.6196683" lon="12.5949986"><ele>388.0</ele><time>2026-03-22T09:34:22.515Z</time></trkpt><trkpt lat="43.6196333" lon="12.5948449"><ele>389.0</ele><time>2026-03-22T09:34:23.517Z</time></trkpt><trkpt lat="43.6196062" lon="12.59469"><ele>390.0</ele><time>2026-03-22T09:34:24.516Z</time></trkpt><trkpt lat="43.6195924" lon="12.5945294"><ele>391.0</ele><time>2026-03-22T09:34:25.516Z</time></trkpt><trkpt lat="43.6195989" lon="12.5943642"><ele>391.0</ele><time>2026-03-22T09:34:26.515Z</time></trkpt><trkpt lat="43.6196204" lon="12.5941836"><ele>391.0</ele><time>2026-03-22T09:34:27.515Z</time></trkpt><trkpt lat="43.6196366" lon="12.5939893"><ele>391.0</ele><time>2026-03-22T09:34:28.515Z</time></trkpt><trkpt lat="43.6196478" lon="12.5938195"><ele>391.0</ele><time>2026-03-22T09:34:29.517Z</time></trkpt><trkpt lat="43.6196555" lon="12.593657"><ele>391.4</ele><time>2026-03-22T09:34:30.515Z</time></trkpt><trkpt lat="43.6196649" lon="12.5935153"><ele>391.8</ele><time>2026-03-22T09:34:31.515Z</time></trkpt><trkpt lat="43.6196543" lon="12.5933839"><ele>392.2</ele><time>2026-03-22T09:34:32.516Z</time></trkpt><trkpt lat="43.6196232" lon="12.5932378"><ele>392.59999999999997</ele><time>2026-03-22T09:34:33.516Z</time></trkpt><trkpt lat="43.6195697" lon="12.5930613"><ele>393.0</ele><time>2026-03-22T09:34:34.516Z</time></trkpt><trkpt lat="43.6195102" lon="12.5928605"><ele>392.59999999999997</ele><time>2026-03-22T09:34:35.516Z</time></trkpt><trkpt lat="43.6194802" lon="12.5926942"><ele>392.2</ele><time>2026-03-22T09:34:36.515Z</time></trkpt><trkpt lat="43.6194562" lon="12.5925494"><ele>391.8</ele><time>2026-03-22T09:34:37.515Z</time></trkpt><trkpt lat="43.619445" lon="12.5924329"><ele>391.4</ele><time>2026-03-22T09:34:38.517Z</time></trkpt><trkpt lat="43.6194552" lon="12.5923383"><ele>391.0</ele><time>2026-03-22T09:34:39.516Z</time></trkpt><trkpt lat="43.6194881" lon="12.5922354"><ele>391.0</ele><time>2026-03-22T09:34:40.516Z</time></trkpt><trkpt lat="43.6195519" lon="12.592126"><ele>391.0</ele><time>2026-03-22T09:34:41.515Z</time></trkpt><trkpt lat="43.6196369" lon="12.5919996"><ele>391.0</ele><time>2026-03-22T09:34:42.517Z</time></trkpt><trkpt lat="43.6197153" lon="12.5918763"><ele>391.0</ele><time>2026-03-22T09:34:43.516Z</time></trkpt><trkpt lat="43.6197812" lon="12.591779"><ele>391.0</ele><time>2026-03-22T09:34:44.515Z</time></trkpt><trkpt lat="43.6198387" lon="12.5916942"><ele>391.0</ele><time>2026-03-22T09:34:45.515Z</time></trkpt><trkpt lat="43.6198796" lon="12.591625"><ele>391.0</ele><time>2026-03-22T09:34:46.517Z</time></trkpt><trkpt lat="43.619876" lon="12.591469"><ele>391.0</ele><time>2026-03-22T09:34:48.516Z</time></trkpt><trkpt lat="43.6197367" lon="12.5914049"><ele>391.0</ele><time>2026-03-22T09:34:50.515Z</time></trkpt><trkpt lat="43.619651" lon="12.5914161"><ele>391.0</ele><time>2026-03-22T09:34:51.517Z</time></trkpt><trkpt lat="43.6195634" lon="12.5914416"><ele>391.0</ele><time>2026-03-22T09:34:52.516Z</time></trkpt><trkpt lat="43.6194856" lon="12.5914491"><ele>391.0</ele><time>2026-03-22T09:34:53.516Z</time></trkpt><trkpt lat="43.6194087" lon="12.5914514"><ele>391.0</ele><time>2026-03-22T09:34:54.516Z</time></trkpt><trkpt lat="43.6193206" lon="12.5914173"><ele>391.0</ele><time>2026-03-22T09:34:55.516Z</time></trkpt><trkpt lat="43.6192303" lon="12.5913333"><ele>391.0</ele><time>2026-03-22T09:34:56.517Z</time></trkpt><trkpt lat="43.6191557" lon="12.5912069"><ele>389.25</ele><time>2026-03-22T09:34:57.515Z</time></trkpt><trkpt lat="43.6190874" lon="12.59104"><ele>387.5</ele><time>2026-03-22T09:34:58.516Z</time></trkpt><trkpt lat="43.6190257" lon="12.5908833"><ele>385.75</ele><time>2026-03-22T09:34:59.516Z</time></trkpt><trkpt lat="43.618983" lon="12.5907511"><ele>384.0</ele><time>2026-03-22T09:35:00.515Z</time></trkpt><trkpt lat="43.6189597" lon="12.5906258"><ele>384.0</ele><time>2026-03-22T09:35:01.516Z</time></trkpt><trkpt lat="43.6189643" lon="12.5904817"><ele>384.0</ele><time>2026-03-22T09:35:02.516Z</time></trkpt><trkpt lat="43.6190001" lon="12.5903121"><ele>384.0</ele><time>2026-03-22T09:35:03.515Z</time></trkpt><trkpt lat="43.6190561" lon="12.5901464"><ele>384.0</ele><time>2026-03-22T09:35:04.514Z</time></trkpt><trkpt lat="43.619128" lon="12.5899807"><ele>386.0</ele><time>2026-03-22T09:35:05.514Z</time></trkpt><trkpt lat="43.6191957" lon="12.5898218"><ele>388.0</ele><time>2026-03-22T09:35:06.514Z</time></trkpt><trkpt lat="43.619249" lon="12.5896864"><ele>390.0</ele><time>2026-03-22T09:35:07.515Z</time></trkpt><trkpt lat="43.6193017" lon="12.5895582"><ele>392.0</ele><time>2026-03-22T09:35:08.515Z</time></trkpt><trkpt lat="43.6193686" lon="12.5894364"><ele>394.5</ele><time>2026-03-22T09:35:09.516Z</time></trkpt><trkpt lat="43.6194504" lon="12.5893297"><ele>397.0</ele><time>2026-03-22T09:35:10.515Z</time></trkpt><trkpt lat="43.61955" lon="12.5892442"><ele>399.5</ele><time>2026-03-22T09:35:11.516Z</time></trkpt><trkpt lat="43.6196731" lon="12.5891775"><ele>402.0</ele><time>2026-03-22T09:35:12.515Z</time></trkpt><trkpt lat="43.6198304" lon="12.5891167"><ele>402.0</ele><time>2026-03-22T09:35:13.516Z</time></trkpt><trkpt lat="43.6199895" lon="12.5890724"><ele>402.0</ele><time>2026-03-22T09:35:14.515Z</time></trkpt><trkpt lat="43.6201237" lon="12.589049"><ele>402.0</ele><time>2026-03-22T09:35:15.515Z</time></trkpt><trkpt lat="43.6202487" lon="12.5890207"><ele>402.0</ele><time>2026-03-22T09:35:16.515Z</time></trkpt><trkpt lat="43.6203661" lon="12.5889984"><ele>402.8</ele><time>2026-03-22T09:35:17.515Z</time></trkpt><trkpt lat="43.6204673" lon="12.5889801"><ele>403.6</ele><time>2026-03-22T09:35:18.515Z</time></trkpt><trkpt lat="43.6205548" lon="12.588963"><ele>404.40000000000003</ele><time>2026-03-22T09:35:19.515Z</time></trkpt><trkpt lat="43.6206278" lon="12.5889371"><ele>405.20000000000005</ele><time>2026-03-22T09:35:20.514Z</time></trkpt><trkpt lat="43.6206913" lon="12.5888049"><ele>406.0</ele><time>2026-03-22T09:35:22.515Z</time></trkpt><trkpt lat="43.6206815" lon="12.5887064"><ele>407.75</ele><time>2026-03-22T09:35:23.515Z</time></trkpt><trkpt lat="43.6206396" lon="12.5885921"><ele>409.5</ele><time>2026-03-22T09:35:24.514Z</time></trkpt><trkpt lat="43.6205781" lon="12.5884643"><ele>411.25</ele><time>2026-03-22T09:35:25.514Z</time></trkpt><trkpt lat="43.6205041" lon="12.588323"><ele>413.0</ele><time>2026-03-22T09:35:26.516Z</time></trkpt><trkpt lat="43.6204169" lon="12.588177"><ele>413.0</ele><time>2026-03-22T09:35:27.515Z</time></trkpt><trkpt lat="43.6203185" lon="12.5880322"><ele>413.0</ele><time>2026-03-22T09:35:28.515Z</time></trkpt><trkpt lat="43.6202066" lon="12.5878936"><ele>413.0</ele><time>2026-03-22T09:35:29.515Z</time></trkpt><trkpt lat="43.6200992" lon="12.5877497"><ele>413.0</ele><time>2026-03-22T09:35:30.515Z</time></trkpt><trkpt lat="43.620003" lon="12.5876113"><ele>414.75</ele><time>2026-03-22T09:35:31.514Z</time></trkpt><trkpt lat="43.6199156" lon="12.5874742"><ele>416.5</ele><time>2026-03-22T09:35:32.515Z</time></trkpt><trkpt lat="43.6198336" lon="12.5873494"><ele>418.25</ele><time>2026-03-22T09:35:33.515Z</time></trkpt><trkpt lat="43.6197537" lon="12.5872338"><ele>420.0</ele><time>2026-03-22T09:35:34.515Z</time></trkpt><trkpt lat="43.6196819" lon="12.5871104"><ele>418.2</ele><time>2026-03-22T09:35:35.514Z</time></trkpt><trkpt lat="43.6196295" lon="12.5869941"><ele>416.4</ele><time>2026-03-22T09:35:36.514Z</time></trkpt><trkpt lat="43.6195803" lon="12.5868746"><ele>414.6</ele><time>2026-03-22T09:35:37.514Z</time></trkpt><trkpt lat="43.6195282" lon="12.5867465"><ele>412.8</ele><time>2026-03-22T09:35:38.515Z</time></trkpt><trkpt lat="43.6194711" lon="12.5866028"><ele>411.0</ele><time>2026-03-22T09:35:39.515Z</time></trkpt><trkpt lat="43.619399" lon="12.5864251"><ele>413.75</ele><time>2026-03-22T09:35:40.515Z</time></trkpt><trkpt lat="43.619336" lon="12.5862436"><ele>416.5</ele><time>2026-03-22T09:35:41.515Z</time></trkpt><trkpt lat="43.6192844" lon="12.5860843"><ele>419.25</ele><time>2026-03-22T09:35:42.514Z</time></trkpt><trkpt lat="43.6192339" lon="12.585948"><ele>422.0</ele><time>2026-03-22T09:35:43.515Z</time></trkpt><trkpt lat="43.6191871" lon="12.5858247"><ele>422.0</ele><time>2026-03-22T09:35:44.516Z</time></trkpt><trkpt lat="43.6191454" lon="12.5857119"><ele>422.0</ele><time>2026-03-22T09:35:45.515Z</time></trkpt><trkpt lat="43.619108" lon="12.5856054"><ele>422.0</ele><time>2026-03-22T09:35:46.515Z</time></trkpt><trkpt lat="43.6190979" lon="12.5854919"><ele>422.0</ele><time>2026-03-22T09:35:47.515Z</time></trkpt><trkpt lat="43.619118" lon="12.5853617"><ele>422.0</ele><time>2026-03-22T09:35:48.514Z</time></trkpt><trkpt lat="43.6191808" lon="12.5852239"><ele>419.0</ele><time>2026-03-22T09:35:49.515Z</time></trkpt><trkpt lat="43.6192832" lon="12.5850658"><ele>416.0</ele><time>2026-03-22T09:35:50.515Z</time></trkpt><trkpt lat="43.6193874" lon="12.5849117"><ele>413.0</ele><time>2026-03-22T09:35:51.515Z</time></trkpt><trkpt lat="43.6194748" lon="12.5847757"><ele>410.0</ele><time>2026-03-22T09:35:52.516Z</time></trkpt><trkpt lat="43.6195502" lon="12.5846663"><ele>409.66666666666663</ele><time>2026-03-22T09:35:53.515Z</time></trkpt><trkpt lat="43.6196053" lon="12.5845762"><ele>409.3333333333333</ele><time>2026-03-22T09:35:54.515Z</time></trkpt><trkpt lat="43.6196918" lon="12.5844896"><ele>409.0</ele><time>2026-03-22T09:35:56.515Z</time></trkpt><trkpt lat="43.6197882" lon="12.5845098"><ele>408.66666666666663</ele><time>2026-03-22T09:35:58.515Z</time></trkpt><trkpt lat="43.6198436" lon="12.5845621"><ele>408.3333333333333</ele><time>2026-03-22T09:35:59.514Z</time></trkpt><trkpt lat="43.6199044" lon="12.5846448"><ele>408.0</ele><time>2026-03-22T09:36:00.515Z</time></trkpt><trkpt lat="43.6199846" lon="12.5847619"><ele>408.0</ele><time>2026-03-22T09:36:01.515Z</time></trkpt><trkpt lat="43.6200634" lon="12.5848552"><ele>408.0</ele><time>2026-03-22T09:36:02.516Z</time></trkpt><trkpt lat="43.6201492" lon="12.5849197"><ele>408.0</ele><time>2026-03-22T09:36:03.514Z</time></trkpt><trkpt lat="43.6202454" lon="12.5849416"><ele>408.0</ele><time>2026-03-22T09:36:04.514Z</time></trkpt><trkpt lat="43.6203471" lon="12.5849257"><ele>408.0</ele><time>2026-03-22T09:36:05.515Z</time></trkpt><trkpt lat="43.6204626" lon="12.5848965"><ele>405.75</ele><time>2026-03-22T09:36:06.514Z</time></trkpt><trkpt lat="43.6205934" lon="12.5848688"><ele>403.5</ele><time>2026-03-22T09:36:07.514Z</time></trkpt><trkpt lat="43.6207348" lon="12.584843"><ele>401.25</ele><time>2026-03-22T09:36:08.515Z</time></trkpt><trkpt lat="43.6208901" lon="12.5848124"><ele>399.0</ele><time>2026-03-22T09:36:09.515Z</time></trkpt><trkpt lat="43.6210511" lon="12.5848013"><ele>397.2</ele><time>2026-03-22T09:36:10.515Z</time></trkpt><trkpt lat="43.6211824" lon="12.5847986"><ele>395.4</ele><time>2026-03-22T09:36:11.515Z</time></trkpt><trkpt lat="43.6212931" lon="12.5847947"><ele>393.6</ele><time>2026-03-22T09:36:12.515Z</time></trkpt><trkpt lat="43.6213853" lon="12.5847865"><ele>391.8</ele><time>2026-03-22T09:36:13.514Z</time></trkpt><trkpt lat="43.6214702" lon="12.5847649"><ele>390.0</ele><time>2026-03-22T09:36:14.515Z</time></trkpt><trkpt lat="43.6215611" lon="12.584717"><ele>390.0</ele><time>2026-03-22T09:36:15.514Z</time></trkpt><trkpt lat="43.6216415" lon="12.5846384"><ele>390.0</ele><time>2026-03-22T09:36:16.515Z</time></trkpt><trkpt lat="43.6217168" lon="12.584545"><ele>390.0</ele><time>2026-03-22T09:36:17.515Z</time></trkpt><trkpt lat="43.6217875" lon="12.5844371"><ele>390.0</ele><time>2026-03-22T09:36:18.514Z</time></trkpt><trkpt lat="43.6218552" lon="12.5843334"><ele>390.0</ele><time>2026-03-22T09:36:19.516Z</time></trkpt><trkpt lat="43.6219112" lon="12.5842446"><ele>390.8333333333333</ele><time>2026-03-22T09:36:20.515Z</time></trkpt><trkpt lat="43.6219613" lon="12.5841711"><ele>391.66666666666663</ele><time>2026-03-22T09:36:21.515Z</time></trkpt><trkpt lat="43.6220196" lon="12.5841312"><ele>392.5</ele><time>2026-03-22T09:36:22.515Z</time></trkpt><trkpt lat="43.6220845" lon="12.5841324"><ele>393.3333333333333</ele><time>2026-03-22T09:36:23.515Z</time></trkpt><trkpt lat="43.6221571" lon="12.5841644"><ele>394.16666666666663</ele><time>2026-03-22T09:36:24.515Z</time></trkpt><trkpt lat="43.6222447" lon="12.584215"><ele>395.0</ele><time>2026-03-22T09:36:25.515Z</time></trkpt><trkpt lat="43.6223466" lon="12.5842786"><ele>392.0</ele><time>2026-03-22T09:36:26.515Z</time></trkpt><trkpt lat="43.62247" lon="12.5843179"><ele>389.0</ele><time>2026-03-22T09:36:27.514Z</time></trkpt><trkpt lat="43.62259" lon="12.5843259"><ele>386.0</ele><time>2026-03-22T09:36:28.516Z</time></trkpt><trkpt lat="43.6227057" lon="12.5843211"><ele>383.0</ele><time>2026-03-22T09:36:29.514Z</time></trkpt><trkpt lat="43.6228193" lon="12.584309"><ele>380.0</ele><time>2026-03-22T09:36:30.515Z</time></trkpt><trkpt lat="43.6229224" lon="12.5842936"><ele>377.0</ele><time>2026-03-22T09:36:31.516Z</time></trkpt><trkpt lat="43.6230197" lon="12.5842894"><ele>374.0</ele><time>2026-03-22T09:36:32.515Z</time></trkpt><trkpt lat="43.6231131" lon="12.5843088"><ele>371.0</ele><time>2026-03-22T09:36:33.515Z</time></trkpt><trkpt lat="43.6231939" lon="12.584367"><ele>368.0</ele><time>2026-03-22T09:36:34.514Z</time></trkpt><trkpt lat="43.6232799" lon="12.5844663"><ele>370.0</ele><time>2026-03-22T09:36:35.515Z</time></trkpt><trkpt lat="43.6233739" lon="12.5845854"><ele>372.0</ele><time>2026-03-22T09:36:36.516Z</time></trkpt><trkpt lat="43.6234714" lon="12.5846956"><ele>374.0</ele><time>2026-03-22T09:36:37.514Z</time></trkpt><trkpt lat="43.6235548" lon="12.5847892"><ele>376.0</ele><time>2026-03-22T09:36:38.514Z</time></trkpt><trkpt lat="43.6236311" lon="12.5848736"><ele>375.5</ele><time>2026-03-22T09:36:39.515Z</time></trkpt><trkpt lat="43.6237028" lon="12.5849474"><ele>375.0</ele><time>2026-03-22T09:36:40.515Z</time></trkpt><trkpt lat="43.6237649" lon="12.5850115"><ele>374.5</ele><time>2026-03-22T09:36:41.516Z</time></trkpt><trkpt lat="43.6238191" lon="12.5850862"><ele>374.0</ele><time>2026-03-22T09:36:42.515Z</time></trkpt><trkpt lat="43.6238673" lon="12.5851815"><ele>373.5</ele><time>2026-03-22T09:36:43.514Z</time></trkpt><trkpt lat="43.6239317" lon="12.5852841"><ele>373.0</ele><time>2026-03-22T09:36:44.515Z</time></trkpt><trkpt lat="43.6240243" lon="12.5853837"><ele>371.75</ele><time>2026-03-22T09:36:45.515Z</time></trkpt><trkpt lat="43.6241406" lon="12.5854816"><ele>370.5</ele><time>2026-03-22T09:36:46.514Z</time></trkpt><trkpt lat="43.6242665" lon="12.5855851"><ele>369.25</ele><time>2026-03-22T09:36:47.514Z</time></trkpt><trkpt lat="43.6243812" lon="12.5856802"><ele>368.0</ele><time>2026-03-22T09:36:48.516Z</time></trkpt><trkpt lat="43.6244894" lon="12.5857721"><ele>367.4</ele><time>2026-03-22T09:36:49.514Z</time></trkpt><trkpt lat="43.6245942" lon="12.5858512"><ele>366.79999999999995</ele><time>2026-03-22T09:36:50.514Z</time></trkpt><trkpt lat="43.6246859" lon="12.585935"><ele>366.2</ele><time>2026-03-22T09:36:51.514Z</time></trkpt><trkpt lat="43.6247672" lon="12.5860261"><ele>365.6</ele><time>2026-03-22T09:36:52.515Z</time></trkpt><trkpt lat="43.6248383" lon="12.5861397"><ele>365.0</ele><time>2026-03-22T09:36:53.515Z</time></trkpt><trkpt lat="43.6249004" lon="12.5862843"><ele>362.6666666666667</ele><time>2026-03-22T09:36:54.515Z</time></trkpt><trkpt lat="43.6249519" lon="12.58646"><ele>360.3333333333333</ele><time>2026-03-22T09:36:55.515Z</time></trkpt><trkpt lat="43.6249954" lon="12.5866676"><ele>358.0</ele><time>2026-03-22T09:36:56.516Z</time></trkpt><trkpt lat="43.6250375" lon="12.5869021"><ele>356.25</ele><time>2026-03-22T09:36:57.515Z</time></trkpt><trkpt lat="43.6250539" lon="12.5871317"><ele>354.5</ele><time>2026-03-22T09:36:58.515Z</time></trkpt><trkpt lat="43.6250458" lon="12.5873246"><ele>352.75</ele><time>2026-03-22T09:36:59.515Z</time></trkpt><trkpt lat="43.6250359" lon="12.5874884"><ele>351.0</ele><time>2026-03-22T09:37:00.516Z</time></trkpt><trkpt lat="43.625032" lon="12.5876363"><ele>351.0</ele><time>2026-03-22T09:37:01.514Z</time></trkpt><trkpt lat="43.6250356" lon="12.5877733"><ele>351.0</ele><time>2026-03-22T09:37:02.516Z</time></trkpt><trkpt lat="43.6250652" lon="12.5878924"><ele>351.0</ele><time>2026-03-22T09:37:03.515Z</time></trkpt><trkpt lat="43.6251217" lon="12.5879826"><ele>351.0</ele><time>2026-03-22T09:37:04.515Z</time></trkpt><trkpt lat="43.6252015" lon="12.5880441"><ele>351.0</ele><time>2026-03-22T09:37:05.515Z</time></trkpt><trkpt lat="43.6252973" lon="12.5880791"><ele>346.25</ele><time>2026-03-22T09:37:06.514Z</time></trkpt><trkpt lat="43.6254118" lon="12.5880916"><ele>341.5</ele><time>2026-03-22T09:37:07.515Z</time></trkpt><trkpt lat="43.6255364" lon="12.588087"><ele>336.75</ele><time>2026-03-22T09:37:08.514Z</time></trkpt><trkpt lat="43.6256869" lon="12.5880132"><ele>332.0</ele><time>2026-03-22T09:37:09.515Z</time></trkpt><trkpt lat="43.6258565" lon="12.5879178"><ele>329.0</ele><time>2026-03-22T09:37:10.515Z</time></trkpt><trkpt lat="43.6260131" lon="12.5878316"><ele>326.0</ele><time>2026-03-22T09:37:11.514Z</time></trkpt><trkpt lat="43.6261654" lon="12.5877472"><ele>323.0</ele><time>2026-03-22T09:37:12.514Z</time></trkpt><trkpt lat="43.6263043" lon="12.5876575"><ele>323.0</ele><time>2026-03-22T09:37:13.515Z</time></trkpt><trkpt lat="43.6264278" lon="12.5875552"><ele>323.0</ele><time>2026-03-22T09:37:14.514Z</time></trkpt><trkpt lat="43.6265411" lon="12.5874436"><ele>323.0</ele><time>2026-03-22T09:37:15.515Z</time></trkpt><trkpt lat="43.6266524" lon="12.5873249"><ele>323.0</ele><time>2026-03-22T09:37:16.515Z</time></trkpt><trkpt lat="43.6267763" lon="12.5871906"><ele>323.0</ele><time>2026-03-22T09:37:17.514Z</time></trkpt><trkpt lat="43.6269098" lon="12.5870763"><ele>323.0</ele><time>2026-03-22T09:37:18.515Z</time></trkpt><trkpt lat="43.6270321" lon="12.5869918"><ele>323.0</ele><time>2026-03-22T09:37:19.514Z</time></trkpt><trkpt lat="43.6271487" lon="12.5869141"><ele>323.0</ele><time>2026-03-22T09:37:20.515Z</time></trkpt><trkpt lat="43.6272554" lon="12.5868425"><ele>321.59999999999997</ele><time>2026-03-22T09:37:21.516Z</time></trkpt><trkpt lat="43.6273466" lon="12.5867519"><ele>320.2</ele><time>2026-03-22T09:37:22.514Z</time></trkpt><trkpt lat="43.6274261" lon="12.5866558"><ele>318.8</ele><time>2026-03-22T09:37:23.514Z</time></trkpt><trkpt lat="43.6274956" lon="12.5865678"><ele>317.4</ele><time>2026-03-22T09:37:24.515Z</time></trkpt><trkpt lat="43.6275504" lon="12.5864886"><ele>316.0</ele><time>2026-03-22T09:37:25.514Z</time></trkpt><trkpt lat="43.6276024" lon="12.5864367"><ele>316.0</ele><time>2026-03-22T09:37:26.515Z</time></trkpt><trkpt lat="43.6277274" lon="12.5864644"><ele>316.0</ele><time>2026-03-22T09:37:28.516Z</time></trkpt><trkpt lat="43.6277702" lon="12.5865377"><ele>316.0</ele><time>2026-03-22T09:37:29.514Z</time></trkpt><trkpt lat="43.6277979" lon="12.5866406"><ele>316.0</ele><time>2026-03-22T09:37:30.515Z</time></trkpt><trkpt lat="43.627826" lon="12.5867661"><ele>316.0</ele><time>2026-03-22T09:37:31.515Z</time></trkpt><trkpt lat="43.6278513" lon="12.5868981"><ele>315.2</ele><time>2026-03-22T09:37:32.515Z</time></trkpt><trkpt lat="43.6278595" lon="12.587029"><ele>314.40000000000003</ele><time>2026-03-22T09:37:33.516Z</time></trkpt><trkpt lat="43.6278528" lon="12.5871691"><ele>313.6</ele><time>2026-03-22T09:37:34.515Z</time></trkpt><trkpt lat="43.6278277" lon="12.5873001"><ele>312.8</ele><time>2026-03-22T09:37:35.515Z</time></trkpt><trkpt lat="43.627797" lon="12.5874186"><ele>312.0</ele><time>2026-03-22T09:37:36.515Z</time></trkpt><trkpt lat="43.6277712" lon="12.5875109"><ele>312.0</ele><time>2026-03-22T09:37:37.514Z</time></trkpt><trkpt lat="43.6277696" lon="12.5875988"><ele>312.0</ele><time>2026-03-22T09:37:38.516Z</time></trkpt><trkpt lat="43.6278566" lon="12.5876766"><ele>312.0</ele><time>2026-03-22T09:37:40.514Z</time></trkpt><trkpt lat="43.6279745" lon="12.5876024"><ele>312.0</ele><time>2026-03-22T09:37:42.514Z</time></trkpt><trkpt lat="43.6280606" lon="12.5875549"><ele>312.0</ele><time>2026-03-22T09:37:43.514Z</time></trkpt><trkpt lat="43.628152" lon="12.5875497"><ele>308.2</ele><time>2026-03-22T09:37:44.515Z</time></trkpt><trkpt lat="43.6282521" lon="12.5875514"><ele>304.4</ele><time>2026-03-22T09:37:45.516Z</time></trkpt><trkpt lat="43.6283618" lon="12.5875633"><ele>300.6</ele><time>2026-03-22T09:37:46.515Z</time></trkpt><trkpt lat="43.6284654" lon="12.5875548"><ele>296.8</ele><time>2026-03-22T09:37:47.515Z</time></trkpt><trkpt lat="43.6285621" lon="12.5875109"><ele>293.0</ele><time>2026-03-22T09:37:48.514Z</time></trkpt><trkpt lat="43.62863" lon="12.5874385"><ele>289.5</ele><time>2026-03-22T09:37:49.515Z</time></trkpt><trkpt lat="43.6286716" lon="12.5873287"><ele>286.0</ele><time>2026-03-22T09:37:50.515Z</time></trkpt><trkpt lat="43.6286852" lon="12.5871698"><ele>282.5</ele><time>2026-03-22T09:37:51.515Z</time></trkpt><trkpt lat="43.6286856" lon="12.5869588"><ele>279.0</ele><time>2026-03-22T09:37:52.514Z</time></trkpt><trkpt lat="43.6286928" lon="12.5867164"><ele>278.59999999999997</ele><time>2026-03-22T09:37:53.514Z</time></trkpt><trkpt lat="43.6286912" lon="12.5865136"><ele>278.2</ele><time>2026-03-22T09:37:54.514Z</time></trkpt><trkpt lat="43.6286864" lon="12.5863478"><ele>277.79999999999995</ele><time>2026-03-22T09:37:55.515Z</time></trkpt><trkpt lat="43.628689" lon="12.5862171"><ele>277.4</ele><time>2026-03-22T09:37:56.516Z</time></trkpt><trkpt lat="43.6287008" lon="12.5861038"><ele>277.0</ele><time>2026-03-22T09:37:57.515Z</time></trkpt><trkpt lat="43.6287396" lon="12.5860206"><ele>277.0</ele><time>2026-03-22T09:37:58.515Z</time></trkpt><trkpt lat="43.6287987" lon="12.5859768"><ele>277.0</ele><time>2026-03-22T09:37:59.514Z</time></trkpt><trkpt lat="43.6288634" lon="12.5859916"><ele>277.0</ele><time>2026-03-22T09:38:00.514Z</time></trkpt><trkpt lat="43.6289147" lon="12.586069"><ele>277.0</ele><time>2026-03-22T09:38:01.515Z</time></trkpt><trkpt lat="43.6289686" lon="12.5862052"><ele>277.0</ele><time>2026-03-22T09:38:02.514Z</time></trkpt><trkpt lat="43.6290481" lon="12.5863845"><ele>277.0</ele><time>2026-03-22T09:38:03.515Z</time></trkpt><trkpt lat="43.6291751" lon="12.5865857"><ele>277.0</ele><time>2026-03-22T09:38:04.516Z</time></trkpt><trkpt lat="43.6292952" lon="12.5867776"><ele>277.0</ele><time>2026-03-22T09:38:05.514Z</time></trkpt><trkpt lat="43.6294071" lon="12.5869576"><ele>275.0</ele><time>2026-03-22T09:38:06.515Z</time></trkpt><trkpt lat="43.6295187" lon="12.5871211"><ele>273.0</ele><time>2026-03-22T09:38:07.515Z</time></trkpt><trkpt lat="43.6296322" lon="12.5872583"><ele>271.0</ele><time>2026-03-22T09:38:08.515Z</time></trkpt><trkpt lat="43.6297495" lon="12.5873632"><ele>271.0</ele><time>2026-03-22T09:38:09.515Z</time></trkpt><trkpt lat="43.6298668" lon="12.5874432"><ele>271.0</ele><time>2026-03-22T09:38:10.515Z</time></trkpt><trkpt lat="43.6299689" lon="12.587521"><ele>271.0</ele><time>2026-03-22T09:38:11.516Z</time></trkpt><trkpt lat="43.6300429" lon="12.5875919"><ele>271.0</ele><time>2026-03-22T09:38:12.516Z</time></trkpt><trkpt lat="43.630111" lon="12.5876413"><ele>271.0</ele><time>2026-03-22T09:38:13.515Z</time></trkpt><trkpt lat="43.6301853" lon="12.5876528"><ele>271.0</ele><time>2026-03-22T09:38:14.515Z</time></trkpt><trkpt lat="43.6302821" lon="12.5876292"><ele>271.0</ele><time>2026-03-22T09:38:15.514Z</time></trkpt><trkpt lat="43.6303875" lon="12.5875715"><ele>271.0</ele><time>2026-03-22T09:38:16.515Z</time></trkpt><trkpt lat="43.6304889" lon="12.5874784"><ele>271.0</ele><time>2026-03-22T09:38:17.515Z</time></trkpt><trkpt lat="43.6305958" lon="12.587352"><ele>269.0</ele><time>2026-03-22T09:38:18.515Z</time></trkpt><trkpt lat="43.6307232" lon="12.5872053"><ele>267.0</ele><time>2026-03-22T09:38:19.515Z</time></trkpt><trkpt lat="43.6308526" lon="12.5870531"><ele>265.0</ele><time>2026-03-22T09:38:20.515Z</time></trkpt><trkpt lat="43.6309782" lon="12.5869099"><ele>265.66666666666663</ele><time>2026-03-22T09:38:21.515Z</time></trkpt><trkpt lat="43.6310986" lon="12.5867736"><ele>266.3333333333333</ele><time>2026-03-22T09:38:22.514Z</time></trkpt><trkpt lat="43.6312081" lon="12.5866363"><ele>267.0</ele><time>2026-03-22T09:38:23.515Z</time></trkpt><trkpt lat="43.6313058" lon="12.5864766"><ele>267.0</ele><time>2026-03-22T09:38:24.515Z</time></trkpt><trkpt lat="43.6313911" lon="12.5863015"><ele>267.0</ele><time>2026-03-22T09:38:25.515Z</time></trkpt><trkpt lat="43.63145" lon="12.5861483"><ele>267.0</ele><time>2026-03-22T09:38:26.515Z</time></trkpt><trkpt lat="43.6314908" lon="12.5860239"><ele>267.0</ele><time>2026-03-22T09:38:27.516Z</time></trkpt><trkpt lat="43.6315326" lon="12.5859174"><ele>267.0</ele><time>2026-03-22T09:38:28.515Z</time></trkpt><trkpt lat="43.6315693" lon="12.5857921"><ele>267.0</ele><time>2026-03-22T09:38:30.515Z</time></trkpt><trkpt lat="43.6316112" lon="12.5857177"><ele>267.0</ele><time>2026-03-22T09:38:32.515Z</time></trkpt><trkpt lat="43.6316657" lon="12.5857673"><ele>267.0</ele><time>2026-03-22T09:38:35.514Z</time></trkpt><trkpt lat="43.6316491" lon="12.5859071"><ele>267.0</ele><time>2026-03-22T09:38:37.515Z</time></trkpt><trkpt lat="43.6316356" lon="12.5860378"><ele>267.0</ele><time>2026-03-22T09:38:38.516Z</time></trkpt><trkpt lat="43.6316297" lon="12.5861889"><ele>267.0</ele><time>2026-03-22T09:38:39.515Z</time></trkpt><trkpt lat="43.6316424" lon="12.5863657"><ele>267.0</ele><time>2026-03-22T09:38:40.514Z</time></trkpt><trkpt lat="43.6316682" lon="12.5865844"><ele>267.0</ele><time>2026-03-22T09:38:41.516Z</time></trkpt><trkpt lat="43.6317054" lon="12.5868375"><ele>267.0</ele><time>2026-03-22T09:38:42.514Z</time></trkpt><trkpt lat="43.631751" lon="12.5870862"><ele>267.0</ele><time>2026-03-22T09:38:43.514Z</time></trkpt><trkpt lat="43.6317939" lon="12.5873486"><ele>267.0</ele><time>2026-03-22T09:38:44.514Z</time></trkpt><trkpt lat="43.6318203" lon="12.5875843"><ele>267.0</ele><time>2026-03-22T09:38:45.514Z</time></trkpt><trkpt lat="43.6318212" lon="12.5878187"><ele>267.0</ele><time>2026-03-22T09:38:46.514Z</time></trkpt><trkpt lat="43.6317753" lon="12.5880551"><ele>267.0</ele><time>2026-03-22T09:38:47.515Z</time></trkpt><trkpt lat="43.6316849" lon="12.588283"><ele>268.3333333333333</ele><time>2026-03-22T09:38:48.516Z</time></trkpt><trkpt lat="43.631557" lon="12.5885075"><ele>269.66666666666663</ele><time>2026-03-22T09:38:49.514Z</time></trkpt><trkpt lat="43.6314061" lon="12.5887551"><ele>271.0</ele><time>2026-03-22T09:38:50.515Z</time></trkpt><trkpt lat="43.631245" lon="12.5890331"><ele>270.66666666666663</ele><time>2026-03-22T09:38:51.516Z</time></trkpt><trkpt lat="43.6311021" lon="12.5892789"><ele>270.3333333333333</ele><time>2026-03-22T09:38:52.515Z</time></trkpt><trkpt lat="43.6309725" lon="12.5895006"><ele>270.0</ele><time>2026-03-22T09:38:53.514Z</time></trkpt><trkpt lat="43.6308601" lon="12.5896951"><ele>272.3333333333333</ele><time>2026-03-22T09:38:54.514Z</time></trkpt><trkpt lat="43.6307602" lon="12.5898814"><ele>274.66666666666663</ele><time>2026-03-22T09:38:55.514Z</time></trkpt><trkpt lat="43.6306881" lon="12.59007"><ele>277.0</ele><time>2026-03-22T09:38:56.516Z</time></trkpt><trkpt lat="43.6306453" lon="12.5902805"><ele>277.66666666666663</ele><time>2026-03-22T09:38:57.514Z</time></trkpt><trkpt lat="43.630636" lon="12.5905054"><ele>278.3333333333333</ele><time>2026-03-22T09:38:58.516Z</time></trkpt><trkpt lat="43.6306405" lon="12.5907139"><ele>279.0</ele><time>2026-03-22T09:38:59.514Z</time></trkpt><trkpt lat="43.6306484" lon="12.5909052"><ele>279.0</ele><time>2026-03-22T09:39:00.515Z</time></trkpt><trkpt lat="43.6306528" lon="12.5910658"><ele>279.0</ele><time>2026-03-22T09:39:01.515Z</time></trkpt><trkpt lat="43.6306524" lon="12.5911914"><ele>279.0</ele><time>2026-03-22T09:39:02.515Z</time></trkpt><trkpt lat="43.6306653" lon="12.5912774"><ele>279.0</ele><time>2026-03-22T09:39:03.514Z</time></trkpt><trkpt lat="43.6307214" lon="12.5913702"><ele>279.0</ele><time>2026-03-22T09:39:05.515Z</time></trkpt><trkpt lat="43.6308036" lon="12.5913883"><ele>279.0</ele><time>2026-03-22T09:39:07.514Z</time></trkpt><trkpt lat="43.6309133" lon="12.5913166"><ele>279.0</ele><time>2026-03-22T09:39:09.516Z</time></trkpt><trkpt lat="43.6309709" lon="12.5912464"><ele>279.0</ele><time>2026-03-22T09:39:10.515Z</time></trkpt><trkpt lat="43.6310318" lon="12.5911517"><ele>279.0</ele><time>2026-03-22T09:39:11.516Z</time></trkpt><trkpt lat="43.6310976" lon="12.5910418"><ele>279.0</ele><time>2026-03-22T09:39:12.514Z</time></trkpt><trkpt lat="43.6311644" lon="12.5909277"><ele>279.0</ele><time>2026-03-22T09:39:13.515Z</time></trkpt><trkpt lat="43.6312336" lon="12.5908053"><ele>280.75</ele><time>2026-03-22T09:39:14.515Z</time></trkpt><trkpt lat="43.6313044" lon="12.5906814"><ele>282.5</ele><time>2026-03-22T09:39:15.515Z</time></trkpt><trkpt lat="43.6313811" lon="12.5905507"><ele>284.25</ele><time>2026-03-22T09:39:16.515Z</time></trkpt><trkpt lat="43.6314604" lon="12.5904061"><ele>286.0</ele><time>2026-03-22T09:39:17.514Z</time></trkpt><trkpt lat="43.6315319" lon="12.5902803"><ele>286.16666666666663</ele><time>2026-03-22T09:39:18.514Z</time></trkpt><trkpt lat="43.6315974" lon="12.5901768"><ele>286.3333333333333</ele><time>2026-03-22T09:39:19.514Z</time></trkpt><trkpt lat="43.6316651" lon="12.5901039"><ele>286.5</ele><time>2026-03-22T09:39:20.515Z</time></trkpt><trkpt lat="43.6317378" lon="12.5900604"><ele>286.6666666666667</ele><time>2026-03-22T09:39:21.514Z</time></trkpt><trkpt lat="43.6318079" lon="12.590052"><ele>286.83333333333337</ele><time>2026-03-22T09:39:22.514Z</time></trkpt><trkpt lat="43.6318783" lon="12.5900632"><ele>287.0</ele><time>2026-03-22T09:39:23.515Z</time></trkpt><trkpt lat="43.6319423" lon="12.5900697"><ele>289.2</ele><time>2026-03-22T09:39:24.514Z</time></trkpt><trkpt lat="43.632068" lon="12.5900688"><ele>291.4</ele><time>2026-03-22T09:39:26.514Z</time></trkpt><trkpt lat="43.6321331" lon="12.5900792"><ele>293.6</ele><time>2026-03-22T09:39:27.515Z</time></trkpt><trkpt lat="43.6322191" lon="12.5900912"><ele>295.8</ele><time>2026-03-22T09:39:28.515Z</time></trkpt><trkpt lat="43.6323088" lon="12.5901044"><ele>298.0</ele><time>2026-03-22T09:39:29.516Z</time></trkpt><trkpt lat="43.6324024" lon="12.5901196"><ele>298.0</ele><time>2026-03-22T09:39:30.515Z</time></trkpt><trkpt lat="43.6324994" lon="12.5901385"><ele>298.0</ele><time>2026-03-22T09:39:31.515Z</time></trkpt><trkpt lat="43.6325961" lon="12.5901651"><ele>298.0</ele><time>2026-03-22T09:39:32.516Z</time></trkpt><trkpt lat="43.6326936" lon="12.5901949"><ele>298.0</ele><time>2026-03-22T09:39:33.514Z</time></trkpt><trkpt lat="43.6327877" lon="12.59022"><ele>298.0</ele><time>2026-03-22T09:39:34.516Z</time></trkpt><trkpt lat="43.6328741" lon="12.5902466"><ele>300.0</ele><time>2026-03-22T09:39:35.514Z</time></trkpt><trkpt lat="43.6329588" lon="12.5902729"><ele>302.0</ele><time>2026-03-22T09:39:36.515Z</time></trkpt><trkpt lat="43.6330457" lon="12.5903093"><ele>304.0</ele><time>2026-03-22T09:39:37.514Z</time></trkpt><trkpt lat="43.633135" lon="12.5903534"><ele>306.0</ele><time>2026-03-22T09:39:38.514Z</time></trkpt><trkpt lat="43.6332276" lon="12.5903997"><ele>308.0</ele><time>2026-03-22T09:39:39.515Z</time></trkpt><trkpt lat="43.6333223" lon="12.5904497"><ele>308.6</ele><time>2026-03-22T09:39:40.514Z</time></trkpt><trkpt lat="43.6334207" lon="12.5904998"><ele>309.20000000000005</ele><time>2026-03-22T09:39:41.515Z</time></trkpt><trkpt lat="43.6335201" lon="12.5905569"><ele>309.8</ele><time>2026-03-22T09:39:42.514Z</time></trkpt><trkpt lat="43.6336204" lon="12.5906213"><ele>310.40000000000003</ele><time>2026-03-22T09:39:43.515Z</time></trkpt><trkpt lat="43.6337252" lon="12.5906855"><ele>311.0</ele><time>2026-03-22T09:39:44.514Z</time></trkpt><trkpt lat="43.6338261" lon="12.5907554"><ele>313.8</ele><time>2026-03-22T09:39:45.514Z</time></trkpt><trkpt lat="43.6339242" lon="12.5908209"><ele>316.6</ele><time>2026-03-22T09:39:46.514Z</time></trkpt><trkpt lat="43.6340226" lon="12.5908693"><ele>319.4</ele><time>2026-03-22T09:39:47.516Z</time></trkpt><trkpt lat="43.6341219" lon="12.5909024"><ele>322.2</ele><time>2026-03-22T09:39:48.515Z</time></trkpt><trkpt lat="43.6342255" lon="12.5909287"><ele>325.0</ele><time>2026-03-22T09:39:49.514Z</time></trkpt><trkpt lat="43.6343314" lon="12.5909515"><ele>325.0</ele><time>2026-03-22T09:39:50.515Z</time></trkpt><trkpt lat="43.6344309" lon="12.5909688"><ele>325.0</ele><time>2026-03-22T09:39:51.516Z</time></trkpt><trkpt lat="43.6345247" lon="12.5909948"><ele>325.0</ele><time>2026-03-22T09:39:52.514Z</time></trkpt><trkpt lat="43.6346135" lon="12.5910253"><ele>325.0</ele><time>2026-03-22T09:39:53.514Z</time></trkpt><trkpt lat="43.6346966" lon="12.5910447"><ele>325.0</ele><time>2026-03-22T09:39:54.514Z</time></trkpt><trkpt lat="43.634776" lon="12.5910474"><ele>327.6</ele><time>2026-03-22T09:39:55.514Z</time></trkpt><trkpt lat="43.6348642" lon="12.5910313"><ele>330.2</ele><time>2026-03-22T09:39:56.515Z</time></trkpt><trkpt lat="43.6349628" lon="12.5910019"><ele>332.79999999999995</ele><time>2026-03-22T09:39:57.514Z</time></trkpt><trkpt lat="43.6350614" lon="12.590964"><ele>335.4</ele><time>2026-03-22T09:39:58.515Z</time></trkpt><trkpt lat="43.6351539" lon="12.5909194"><ele>338.0</ele><time>2026-03-22T09:39:59.514Z</time></trkpt><trkpt lat="43.6352575" lon="12.5908873"><ele>343.25</ele><time>2026-03-22T09:40:00.516Z</time></trkpt><trkpt lat="43.6353682" lon="12.5908715"><ele>348.5</ele><time>2026-03-22T09:40:01.515Z</time></trkpt><trkpt lat="43.6354803" lon="12.5908852"><ele>353.75</ele><time>2026-03-22T09:40:02.514Z</time></trkpt><trkpt lat="43.6355951" lon="12.5909205"><ele>359.0</ele><time>2026-03-22T09:40:03.515Z</time></trkpt><trkpt lat="43.6357" lon="12.5909814"><ele>359.0</ele><time>2026-03-22T09:40:04.516Z</time></trkpt><trkpt lat="43.6357965" lon="12.591069"><ele>359.0</ele><time>2026-03-22T09:40:05.514Z</time></trkpt><trkpt lat="43.6358742" lon="12.5911819"><ele>359.0</ele><time>2026-03-22T09:40:06.515Z</time></trkpt><trkpt lat="43.6359434" lon="12.5913008"><ele>359.0</ele><time>2026-03-22T09:40:07.516Z</time></trkpt><trkpt lat="43.6360026" lon="12.5913955"><ele>359.0</ele><time>2026-03-22T09:40:08.515Z</time></trkpt><trkpt lat="43.6360587" lon="12.5914674"><ele>358.0</ele><time>2026-03-22T09:40:09.516Z</time></trkpt><trkpt lat="43.6361206" lon="12.5915103"><ele>357.0</ele><time>2026-03-22T09:40:10.515Z</time></trkpt><trkpt lat="43.6361948" lon="12.5915485"><ele>356.0</ele><time>2026-03-22T09:40:11.514Z</time></trkpt><trkpt lat="43.6362776" lon="12.5915636"><ele>355.0</ele><time>2026-03-22T09:40:12.515Z</time></trkpt><trkpt lat="43.636371" lon="12.591576"><ele>354.0</ele><time>2026-03-22T09:40:13.515Z</time></trkpt><trkpt lat="43.6364706" lon="12.5915822"><ele>353.0</ele><time>2026-03-22T09:40:14.514Z</time></trkpt><trkpt lat="43.6365629" lon="12.5915927"><ele>353.0</ele><time>2026-03-22T09:40:15.515Z</time></trkpt><trkpt lat="43.6366482" lon="12.5916038"><ele>353.0</ele><time>2026-03-22T09:40:16.515Z</time></trkpt><trkpt lat="43.6367166" lon="12.5916055"><ele>353.0</ele><time>2026-03-22T09:40:17.514Z</time></trkpt><trkpt lat="43.6367816" lon="12.5915595"><ele>353.0</ele><time>2026-03-22T09:40:19.515Z</time></trkpt><trkpt lat="43.6368512" lon="12.5915848"><ele>353.0</ele><time>2026-03-22T09:40:33.515Z</time></trkpt><trkpt lat="43.6368746" lon="12.5916874"><ele>353.0</ele><time>2026-03-22T09:40:35.514Z</time></trkpt><trkpt lat="43.6368996" lon="12.5918103"><ele>353.0</ele><time>2026-03-22T09:40:37.514Z</time></trkpt><trkpt lat="43.6369259" lon="12.5919643"><ele>353.0</ele><time>2026-03-22T09:40:39.516Z</time></trkpt><trkpt lat="43.6369307" lon="12.5921419"><ele>353.0</ele><time>2026-03-22T09:40:41.516Z</time></trkpt><trkpt lat="43.6369235" lon="12.5922349"><ele>353.0</ele><time>2026-03-22T09:40:42.515Z</time></trkpt><trkpt lat="43.6369087" lon="12.5923203"><ele>353.0</ele><time>2026-03-22T09:40:43.514Z</time></trkpt><trkpt lat="43.6368884" lon="12.5924092"><ele>353.0</ele><time>2026-03-22T09:40:44.515Z</time></trkpt><trkpt lat="43.6368599" lon="12.5924979"><ele>353.0</ele><time>2026-03-22T09:40:45.514Z</time></trkpt><trkpt lat="43.6368263" lon="12.5925858"><ele>353.0</ele><time>2026-03-22T09:40:46.515Z</time></trkpt><trkpt lat="43.6367883" lon="12.592675"><ele>353.0</ele><time>2026-03-22T09:40:47.515Z</time></trkpt><trkpt lat="43.6367513" lon="12.5927682"><ele>353.0</ele><time>2026-03-22T09:40:48.515Z</time></trkpt><trkpt lat="43.6367132" lon="12.592856"><ele>353.0</ele><time>2026-03-22T09:40:49.515Z</time></trkpt><trkpt lat="43.6366802" lon="12.5929399"><ele>353.0</ele><time>2026-03-22T09:40:50.514Z</time></trkpt><trkpt lat="43.636632" lon="12.5930834"><ele>354.1666666666667</ele><time>2026-03-22T09:40:52.515Z</time></trkpt><trkpt lat="43.6365995" lon="12.5932019"><ele>355.33333333333337</ele><time>2026-03-22T09:40:54.514Z</time></trkpt><trkpt lat="43.636557" lon="12.5933162"><ele>356.5</ele><time>2026-03-22T09:40:56.514Z</time></trkpt><trkpt lat="43.6365381" lon="12.5934083"><ele>357.6666666666667</ele><time>2026-03-22T09:40:57.515Z</time></trkpt><trkpt lat="43.6365117" lon="12.5935094"><ele>358.8333333333333</ele><time>2026-03-22T09:40:58.514Z</time></trkpt><trkpt lat="43.6365002" lon="12.5936106"><ele>360.0</ele><time>2026-03-22T09:40:59.515Z</time></trkpt><trkpt lat="43.6364813" lon="12.5937085"><ele>360.0</ele><time>2026-03-22T09:41:00.516Z</time></trkpt><trkpt lat="43.6364505" lon="12.5938661"><ele>360.0</ele><time>2026-03-22T09:41:02.514Z</time></trkpt><trkpt lat="43.6364252" lon="12.5939961"><ele>360.0</ele><time>2026-03-22T09:41:04.514Z</time></trkpt><trkpt lat="43.6363983" lon="12.5941299"><ele>360.0</ele><time>2026-03-22T09:41:06.516Z</time></trkpt><trkpt lat="43.6363583" lon="12.5942376"><ele>360.0</ele><time>2026-03-22T09:41:08.515Z</time></trkpt><trkpt lat="43.636314" lon="12.5943249"><ele>360.0</ele><time>2026-03-22T09:41:10.515Z</time></trkpt><trkpt lat="43.6362604" lon="12.5944239"><ele>360.0</ele><time>2026-03-22T09:41:12.514Z</time></trkpt><trkpt lat="43.6362032" lon="12.5945336"><ele>360.0</ele><time>2026-03-22T09:41:14.515Z</time></trkpt><trkpt lat="43.6361614" lon="12.5946179"><ele>360.0</ele><time>2026-03-22T09:41:16.516Z</time></trkpt><trkpt lat="43.6361952" lon="12.5946978"><ele>360.0</ele><time>2026-03-22T09:41:22.514Z</time></trkpt><trkpt lat="43.6362678" lon="12.5947353"><ele>360.0</ele><time>2026-03-22T09:41:25.515Z</time></trkpt><trkpt lat="43.6363287" lon="12.5947904"><ele>358.6666666666667</ele><time>2026-03-22T09:41:27.515Z</time></trkpt><trkpt lat="43.6363878" lon="12.5948325"><ele>357.3333333333333</ele><time>2026-03-22T09:41:29.516Z</time></trkpt><trkpt lat="43.6364673" lon="12.5948983"><ele>356.0</ele><time>2026-03-22T09:41:32.515Z</time></trkpt><trkpt lat="43.6365292" lon="12.5949469"><ele>354.66666666666663</ele><time>2026-03-22T09:41:34.515Z</time></trkpt><trkpt lat="43.6366007" lon="12.5950003"><ele>353.3333333333333</ele><time>2026-03-22T09:41:36.515Z</time></trkpt><trkpt lat="43.6366625" lon="12.5950603"><ele>352.0</ele><time>2026-03-22T09:41:38.514Z</time></trkpt><trkpt lat="43.6367403" lon="12.5951208"><ele>352.0</ele><time>2026-03-22T09:41:41.516Z</time></trkpt><trkpt lat="43.636808" lon="12.5951731"><ele>352.0</ele><time>2026-03-22T09:41:44.515Z</time></trkpt><trkpt lat="43.6368641" lon="12.595214"><ele>352.0</ele><time>2026-03-22T09:41:47.515Z</time></trkpt><trkpt lat="43.6369274" lon="12.5952582"><ele>352.0</ele><time>2026-03-22T09:41:51.515Z</time></trkpt><trkpt lat="43.636987" lon="12.5953003"><ele>352.0</ele><time>2026-03-22T09:41:55.515Z</time></trkpt><trkpt lat="43.63706" lon="12.5953579"><ele>352.0</ele><time>2026-03-22T09:41:58.516Z</time></trkpt><trkpt lat="43.6371362" lon="12.5954232"><ele>348.16666666666663</ele><time>2026-03-22T09:42:01.516Z</time></trkpt><trkpt lat="43.6371975" lon="12.5954728"><ele>344.3333333333333</ele><time>2026-03-22T09:42:03.515Z</time></trkpt><trkpt lat="43.6372598" lon="12.5955239"><ele>340.5</ele><time>2026-03-22T09:42:05.514Z</time></trkpt><trkpt lat="43.6373298" lon="12.5955848"><ele>336.6666666666667</ele><time>2026-03-22T09:42:07.516Z</time></trkpt><trkpt lat="43.6373867" lon="12.5956373"><ele>332.83333333333337</ele><time>2026-03-22T09:42:09.515Z</time></trkpt><trkpt lat="43.6374666" lon="12.5957012"><ele>329.0</ele><time>2026-03-22T09:42:12.516Z</time></trkpt><trkpt lat="43.6375403" lon="12.5957609"><ele>329.0</ele><time>2026-03-22T09:42:15.515Z</time></trkpt><trkpt lat="43.6375953" lon="12.5958063"><ele>329.0</ele><time>2026-03-22T09:42:17.515Z</time></trkpt><trkpt lat="43.6376676" lon="12.5958714"><ele>329.0</ele><time>2026-03-22T09:42:20.515Z</time></trkpt><trkpt lat="43.6377413" lon="12.5959547"><ele>329.0</ele><time>2026-03-22T09:42:23.515Z</time></trkpt><trkpt lat="43.6378058" lon="12.5960376"><ele>329.0</ele><time>2026-03-22T09:42:25.514Z</time></trkpt><trkpt lat="43.6378543" lon="12.596129"><ele>329.0</ele><time>2026-03-22T09:42:27.515Z</time></trkpt><trkpt lat="43.6378984" lon="12.5962106"><ele>325.5</ele><time>2026-03-22T09:42:29.515Z</time></trkpt><trkpt lat="43.6379526" lon="12.5962914"><ele>322.0</ele><time>2026-03-22T09:42:31.515Z</time></trkpt><trkpt lat="43.6380265" lon="12.5963566"><ele>318.5</ele><time>2026-03-22T09:42:33.515Z</time></trkpt><trkpt lat="43.6380977" lon="12.5963924"><ele>315.0</ele><time>2026-03-22T09:42:35.515Z</time></trkpt><trkpt lat="43.6381654" lon="12.5964347"><ele>311.5</ele><time>2026-03-22T09:42:37.515Z</time></trkpt><trkpt lat="43.6382475" lon="12.5964871"><ele>308.0</ele><time>2026-03-22T09:42:40.515Z</time></trkpt><trkpt lat="43.6383404" lon="12.596491"><ele>308.0</ele><time>2026-03-22T09:42:42.516Z</time></trkpt><trkpt lat="43.6384703" lon="12.5965125"><ele>308.0</ele><time>2026-03-22T09:42:44.516Z</time></trkpt><trkpt lat="43.6385417" lon="12.5965511"><ele>308.0</ele><time>2026-03-22T09:42:45.514Z</time></trkpt><trkpt lat="43.6386182" lon="12.5965935"><ele>308.0</ele><time>2026-03-22T09:42:46.515Z</time></trkpt><trkpt lat="43.6386893" lon="12.5966414"><ele>308.0</ele><time>2026-03-22T09:42:47.514Z</time></trkpt><trkpt lat="43.6387553" lon="12.5966885"><ele>308.0</ele><time>2026-03-22T09:42:48.514Z</time></trkpt><trkpt lat="43.6388219" lon="12.596742"><ele>306.83333333333337</ele><time>2026-03-22T09:42:49.514Z</time></trkpt><trkpt lat="43.6388917" lon="12.5968034"><ele>305.6666666666667</ele><time>2026-03-22T09:42:50.515Z</time></trkpt><trkpt lat="43.6389571" lon="12.5968744"><ele>304.5</ele><time>2026-03-22T09:42:51.514Z</time></trkpt><trkpt lat="43.6390219" lon="12.5969538"><ele>303.3333333333333</ele><time>2026-03-22T09:42:52.515Z</time></trkpt><trkpt lat="43.6390752" lon="12.5970357"><ele>302.16666666666663</ele><time>2026-03-22T09:42:53.515Z</time></trkpt><trkpt lat="43.6391206" lon="12.5971167"><ele>301.0</ele><time>2026-03-22T09:42:54.516Z</time></trkpt><trkpt lat="43.6391528" lon="12.5971972"><ele>297.40000000000003</ele><time>2026-03-22T09:42:55.515Z</time></trkpt><trkpt lat="43.639184" lon="12.5973615"><ele>293.8</ele><time>2026-03-22T09:42:57.514Z</time></trkpt><trkpt lat="43.6392235" lon="12.5975195"><ele>290.20000000000005</ele><time>2026-03-22T09:42:59.515Z</time></trkpt><trkpt lat="43.6393096" lon="12.5976332"><ele>286.6</ele><time>2026-03-22T09:43:01.514Z</time></trkpt><trkpt lat="43.6393724" lon="12.5976671"><ele>283.0</ele><time>2026-03-22T09:43:02.515Z</time></trkpt><trkpt lat="43.639446" lon="12.5976759"><ele>280.66666666666663</ele><time>2026-03-22T09:43:03.514Z</time></trkpt><trkpt lat="43.6395129" lon="12.5976713"><ele>278.3333333333333</ele><time>2026-03-22T09:43:04.514Z</time></trkpt><trkpt lat="43.6396383" lon="12.5976348"><ele>276.0</ele><time>2026-03-22T09:43:06.513Z</time></trkpt><trkpt lat="43.6396992" lon="12.59761"><ele>273.6666666666667</ele><time>2026-03-22T09:43:07.515Z</time></trkpt><trkpt lat="43.6397667" lon="12.5975767"><ele>271.33333333333337</ele><time>2026-03-22T09:43:08.514Z</time></trkpt><trkpt lat="43.6398382" lon="12.5975298"><ele>269.0</ele><time>2026-03-22T09:43:09.513Z</time></trkpt><trkpt lat="43.6399114" lon="12.597474"><ele>269.0</ele><time>2026-03-22T09:43:10.513Z</time></trkpt><trkpt lat="43.639993" lon="12.5974244"><ele>269.0</ele><time>2026-03-22T09:43:11.514Z</time></trkpt><trkpt lat="43.6400765" lon="12.5973848"><ele>269.0</ele><time>2026-03-22T09:43:12.514Z</time></trkpt><trkpt lat="43.6401625" lon="12.5973447"><ele>269.0</ele><time>2026-03-22T09:43:13.514Z</time></trkpt><trkpt lat="43.6402491" lon="12.5973067"><ele>269.0</ele><time>2026-03-22T09:43:14.514Z</time></trkpt><trkpt lat="43.6403363" lon="12.597275"><ele>269.0</ele><time>2026-03-22T09:43:15.513Z</time></trkpt><trkpt lat="43.6404179" lon="12.5972524"><ele>267.14285714285717</ele><time>2026-03-22T09:43:16.514Z</time></trkpt><trkpt lat="43.6404953" lon="12.5972368"><ele>265.28571428571433</ele><time>2026-03-22T09:43:17.513Z</time></trkpt><trkpt lat="43.6405706" lon="12.5972265"><ele>263.42857142857144</ele><time>2026-03-22T09:43:18.514Z</time></trkpt><trkpt lat="43.640644" lon="12.5972192"><ele>261.57142857142856</ele><time>2026-03-22T09:43:19.514Z</time></trkpt><trkpt lat="43.6407139" lon="12.5972179"><ele>259.71428571428567</ele><time>2026-03-22T09:43:20.514Z</time></trkpt><trkpt lat="43.640786" lon="12.5972359"><ele>257.85714285714283</ele><time>2026-03-22T09:43:21.513Z</time></trkpt><trkpt lat="43.6408502" lon="12.5972783"><ele>256.0</ele><time>2026-03-22T09:43:22.513Z</time></trkpt><trkpt lat="43.6409099" lon="12.5973284"><ele>256.0</ele><time>2026-03-22T09:43:23.515Z</time></trkpt><trkpt lat="43.6409678" lon="12.5973763"><ele>255.99999999999997</ele><time>2026-03-22T09:43:24.513Z</time></trkpt><trkpt lat="43.6410278" lon="12.5974096"><ele>256.0</ele><time>2026-03-22T09:43:25.514Z</time></trkpt><trkpt lat="43.6410921" lon="12.597412"><ele>256.0</ele><time>2026-03-22T09:43:26.514Z</time></trkpt><trkpt lat="43.6411619" lon="12.5973893"><ele>255.99999999999997</ele><time>2026-03-22T09:43:27.515Z</time></trkpt><trkpt lat="43.6412313" lon="12.5973617"><ele>256.0</ele><time>2026-03-22T09:43:28.514Z</time></trkpt><trkpt lat="43.6413045" lon="12.5973618"><ele>256.0</ele><time>2026-03-22T09:43:29.513Z</time></trkpt><trkpt lat="43.6413819" lon="12.5973794"><ele>254.0</ele><time>2026-03-22T09:43:30.514Z</time></trkpt><trkpt lat="43.64147" lon="12.5974129"><ele>252.00000000000003</ele><time>2026-03-22T09:43:31.515Z</time></trkpt><trkpt lat="43.641567" lon="12.5974516"><ele>250.00000000000003</ele><time>2026-03-22T09:43:32.513Z</time></trkpt><trkpt lat="43.6416614" lon="12.5974792"><ele>248.0</ele><time>2026-03-22T09:43:33.514Z</time></trkpt><trkpt lat="43.6417481" lon="12.5974882"><ele>246.0</ele><time>2026-03-22T09:43:34.513Z</time></trkpt><trkpt lat="43.6418383" lon="12.5974828"><ele>246.00000000000003</ele><time>2026-03-22T09:43:35.515Z</time></trkpt><trkpt lat="43.6419251" lon="12.597465"><ele>246.0</ele><time>2026-03-22T09:43:36.514Z</time></trkpt><trkpt lat="43.6419974" lon="12.5974369"><ele>246.00000000000003</ele><time>2026-03-22T09:43:37.513Z</time></trkpt><trkpt lat="43.6420654" lon="12.5973996"><ele>246.00000000000003</ele><time>2026-03-22T09:43:38.514Z</time></trkpt><trkpt lat="43.6421316" lon="12.5973624"><ele>246.0</ele><time>2026-03-22T09:43:39.514Z</time></trkpt><trkpt lat="43.6421942" lon="12.5973302"><ele>246.00000000000003</ele><time>2026-03-22T09:43:40.514Z</time></trkpt><trkpt lat="43.6422588" lon="12.5973084"><ele>246.00000000000003</ele><time>2026-03-22T09:43:41.514Z</time></trkpt><trkpt lat="43.6423229" lon="12.5972969"><ele>243.83333333333334</ele><time>2026-03-22T09:43:42.514Z</time></trkpt><trkpt lat="43.6424303" lon="12.5972856"><ele>241.66666666666669</ele><time>2026-03-22T09:43:44.514Z</time></trkpt><trkpt lat="43.6425024" lon="12.5972274"><ele>239.5</ele><time>2026-03-22T09:43:47.513Z</time></trkpt><trkpt lat="43.6424991" lon="12.5970972"><ele>237.33333333333334</ele><time>2026-03-22T09:43:49.514Z</time></trkpt><trkpt lat="43.6424787" lon="12.5970087"><ele>235.16666666666669</ele><time>2026-03-22T09:43:50.513Z</time></trkpt><trkpt lat="43.642473" lon="12.5969218"><ele>233.0</ele><time>2026-03-22T09:43:51.514Z</time></trkpt><trkpt lat="43.642521" lon="12.5968124"><ele>232.50000000000003</ele><time>2026-03-22T09:43:53.514Z</time></trkpt><trkpt lat="43.6426077" lon="12.5967436"><ele>232.0</ele><time>2026-03-22T09:43:55.515Z</time></trkpt><trkpt lat="43.6426696" lon="12.5967051"><ele>231.5</ele><time>2026-03-22T09:43:56.515Z</time></trkpt><trkpt lat="43.6427406" lon="12.5966645"><ele>231.0</ele><time>2026-03-22T09:43:57.515Z</time></trkpt><trkpt lat="43.6428226" lon="12.5966244"><ele>230.50000000000003</ele><time>2026-03-22T09:43:58.513Z</time></trkpt><trkpt lat="43.6429222" lon="12.5965828"><ele>230.0</ele><time>2026-03-22T09:43:59.514Z</time></trkpt><trkpt lat="43.643052" lon="12.5965374"><ele>228.0</ele><time>2026-03-22T09:44:00.513Z</time></trkpt><trkpt lat="43.6431921" lon="12.596497"><ele>226.0</ele><time>2026-03-22T09:44:01.515Z</time></trkpt><trkpt lat="43.6433366" lon="12.5964656"><ele>224.0</ele><time>2026-03-22T09:44:02.514Z</time></trkpt><trkpt lat="43.6434643" lon="12.5964388"><ele>222.0</ele><time>2026-03-22T09:44:03.515Z</time></trkpt><trkpt lat="43.6435987" lon="12.5964122"><ele>221.66666666666669</ele><time>2026-03-22T09:44:04.515Z</time></trkpt><trkpt lat="43.6437413" lon="12.5963789"><ele>221.33333333333334</ele><time>2026-03-22T09:44:05.514Z</time></trkpt><trkpt lat="43.6438914" lon="12.596352"><ele>221.0</ele><time>2026-03-22T09:44:06.514Z</time></trkpt><trkpt lat="43.6440514" lon="12.5963315"><ele>221.0</ele><time>2026-03-22T09:44:07.514Z</time></trkpt><trkpt lat="43.6442189" lon="12.5963047"><ele>221.0</ele><time>2026-03-22T09:44:08.513Z</time></trkpt><trkpt lat="43.6443754" lon="12.5962809"><ele>221.0</ele><time>2026-03-22T09:44:09.514Z</time></trkpt><trkpt lat="43.6445174" lon="12.5962712"><ele>222.0</ele><time>2026-03-22T09:44:10.513Z</time></trkpt><trkpt lat="43.6446486" lon="12.5962647"><ele>223.0</ele><time>2026-03-22T09:44:11.514Z</time></trkpt><trkpt lat="43.6447778" lon="12.5962564"><ele>224.0</ele><time>2026-03-22T09:44:12.513Z</time></trkpt><trkpt lat="43.6449031" lon="12.5962395"><ele>225.0</ele><time>2026-03-22T09:44:13.515Z</time></trkpt><trkpt lat="43.6450257" lon="12.5962233"><ele>225.0</ele><time>2026-03-22T09:44:14.514Z</time></trkpt><trkpt lat="43.6451311" lon="12.5962131"><ele>225.0</ele><time>2026-03-22T09:44:15.514Z</time></trkpt><trkpt lat="43.6452238" lon="12.5962046"><ele>225.0</ele><time>2026-03-22T09:44:16.514Z</time></trkpt><trkpt lat="43.6452958" lon="12.5961991"><ele>225.0</ele><time>2026-03-22T09:44:17.515Z</time></trkpt><trkpt lat="43.645388" lon="12.5961465"><ele>225.0</ele><time>2026-03-22T09:44:19.513Z</time></trkpt><trkpt lat="43.6454317" lon="12.5959977"><ele>225.6</ele><time>2026-03-22T09:44:21.514Z</time></trkpt><trkpt lat="43.6454339" lon="12.5958628"><ele>226.2</ele><time>2026-03-22T09:44:22.513Z</time></trkpt><trkpt lat="43.6454285" lon="12.5956967"><ele>226.8</ele><time>2026-03-22T09:44:23.513Z</time></trkpt><trkpt lat="43.6454077" lon="12.5955412"><ele>227.4</ele><time>2026-03-22T09:44:24.515Z</time></trkpt><trkpt lat="43.6453788" lon="12.5953991"><ele>228.0</ele><time>2026-03-22T09:44:25.513Z</time></trkpt><trkpt lat="43.6453579" lon="12.5952432"><ele>228.25</ele><time>2026-03-22T09:44:26.514Z</time></trkpt><trkpt lat="43.6453355" lon="12.5950719"><ele>228.5</ele><time>2026-03-22T09:44:27.513Z</time></trkpt><trkpt lat="43.6453002" lon="12.5948838"><ele>228.75</ele><time>2026-03-22T09:44:28.515Z</time></trkpt><trkpt lat="43.6452597" lon="12.5946815"><ele>229.0</ele><time>2026-03-22T09:44:29.513Z</time></trkpt><trkpt lat="43.6452274" lon="12.59449"><ele>228.5</ele><time>2026-03-22T09:44:30.514Z</time></trkpt><trkpt lat="43.6451982" lon="12.5942971"><ele>228.0</ele><time>2026-03-22T09:44:31.513Z</time></trkpt><trkpt lat="43.6451748" lon="12.5940932"><ele>227.5</ele><time>2026-03-22T09:44:32.513Z</time></trkpt><trkpt lat="43.645156" lon="12.5938894"><ele>227.0</ele><time>2026-03-22T09:44:33.514Z</time></trkpt><trkpt lat="43.6451388" lon="12.5937076"><ele>227.25</ele><time>2026-03-22T09:44:34.515Z</time></trkpt><trkpt lat="43.6451219" lon="12.5935369"><ele>227.5</ele><time>2026-03-22T09:44:35.514Z</time></trkpt><trkpt lat="43.645111" lon="12.5933762"><ele>227.75</ele><time>2026-03-22T09:44:36.515Z</time></trkpt><trkpt lat="43.6451081" lon="12.5932267"><ele>228.0</ele><time>2026-03-22T09:44:37.514Z</time></trkpt><trkpt lat="43.6451225" lon="12.5930756"><ele>228.0</ele><time>2026-03-22T09:44:38.514Z</time></trkpt><trkpt lat="43.6451592" lon="12.5929218"><ele>228.0</ele><time>2026-03-22T09:44:39.513Z</time></trkpt><trkpt lat="43.6452181" lon="12.5927789"><ele>228.0</ele><time>2026-03-22T09:44:40.514Z</time></trkpt><trkpt lat="43.6452979" lon="12.5926523"><ele>228.0</ele><time>2026-03-22T09:44:41.514Z</time></trkpt><trkpt lat="43.6453761" lon="12.5925394"><ele>228.2</ele><time>2026-03-22T09:44:42.514Z</time></trkpt><trkpt lat="43.6454402" lon="12.5924323"><ele>228.4</ele><time>2026-03-22T09:44:43.513Z</time></trkpt><trkpt lat="43.645491" lon="12.5923205"><ele>228.59999999999997</ele><time>2026-03-22T09:44:44.515Z</time></trkpt><trkpt lat="43.6455412" lon="12.5922038"><ele>228.79999999999998</ele><time>2026-03-22T09:44:45.515Z</time></trkpt><trkpt lat="43.6456014" lon="12.5920893"><ele>229.0</ele><time>2026-03-22T09:44:46.513Z</time></trkpt><trkpt lat="43.6456723" lon="12.5919792"><ele>229.0</ele><time>2026-03-22T09:44:47.515Z</time></trkpt><trkpt lat="43.6457559" lon="12.5918787"><ele>229.0</ele><time>2026-03-22T09:44:48.514Z</time></trkpt><trkpt lat="43.6458547" lon="12.5917915"><ele>229.0</ele><time>2026-03-22T09:44:49.514Z</time></trkpt><trkpt lat="43.6459646" lon="12.5917235"><ele>229.0</ele><time>2026-03-22T09:44:50.514Z</time></trkpt><trkpt lat="43.6460816" lon="12.5916581"><ele>229.5</ele><time>2026-03-22T09:44:51.513Z</time></trkpt><trkpt lat="43.6462061" lon="12.5915883"><ele>230.0</ele><time>2026-03-22T09:44:52.514Z</time></trkpt><trkpt lat="43.6463391" lon="12.5915256"><ele>230.5</ele><time>2026-03-22T09:44:53.514Z</time></trkpt><trkpt lat="43.6464661" lon="12.5914595"><ele>231.0</ele><time>2026-03-22T09:44:54.514Z</time></trkpt><trkpt lat="43.6465811" lon="12.5914054"><ele>231.0</ele><time>2026-03-22T09:44:55.515Z</time></trkpt><trkpt lat="43.6466829" lon="12.5913531"><ele>231.00000000000003</ele><time>2026-03-22T09:44:56.514Z</time></trkpt><trkpt lat="43.6467738" lon="12.5912899"><ele>231.00000000000003</ele><time>2026-03-22T09:44:57.513Z</time></trkpt><trkpt lat="43.6468586" lon="12.5912116"><ele>231.0</ele><time>2026-03-22T09:44:58.515Z</time></trkpt><trkpt lat="43.64694" lon="12.5911171"><ele>231.0</ele><time>2026-03-22T09:44:59.514Z</time></trkpt><trkpt lat="43.6470265" lon="12.5910224"><ele>230.8</ele><time>2026-03-22T09:45:00.513Z</time></trkpt><trkpt lat="43.6471155" lon="12.5909265"><ele>230.60000000000002</ele><time>2026-03-22T09:45:01.515Z</time></trkpt><trkpt lat="43.6472025" lon="12.5908429"><ele>230.4</ele><time>2026-03-22T09:45:02.513Z</time></trkpt><trkpt lat="43.6472844" lon="12.5907667"><ele>230.2</ele><time>2026-03-22T09:45:03.514Z</time></trkpt><trkpt lat="43.6473836" lon="12.5907075"><ele>230.0</ele><time>2026-03-22T09:45:04.515Z</time></trkpt><trkpt lat="43.647512" lon="12.5906547"><ele>230.0</ele><time>2026-03-22T09:45:05.514Z</time></trkpt><trkpt lat="43.6476344" lon="12.5906122"><ele>230.0</ele><time>2026-03-22T09:45:06.514Z</time></trkpt><trkpt lat="43.6477424" lon="12.5905606"><ele>230.0</ele><time>2026-03-22T09:45:07.514Z</time></trkpt><trkpt lat="43.6478452" lon="12.5905018"><ele>230.0</ele><time>2026-03-22T09:45:08.514Z</time></trkpt><trkpt lat="43.6479343" lon="12.5904283"><ele>230.00000000000003</ele><time>2026-03-22T09:45:09.514Z</time></trkpt><trkpt lat="43.6480062" lon="12.5903454"><ele>230.0</ele><time>2026-03-22T09:45:10.514Z</time></trkpt><trkpt lat="43.6480567" lon="12.590276"><ele>230.0</ele><time>2026-03-22T09:45:11.513Z</time></trkpt><trkpt lat="43.6480926" lon="12.5902023"><ele>230.0</ele><time>2026-03-22T09:45:12.514Z</time></trkpt><trkpt lat="43.6481207" lon="12.5901197"><ele>230.00000000000003</ele><time>2026-03-22T09:45:13.514Z</time></trkpt><trkpt lat="43.6481546" lon="12.5900186"><ele>230.0</ele><time>2026-03-22T09:45:14.514Z</time></trkpt><trkpt lat="43.6481915" lon="12.5899043"><ele>230.0</ele><time>2026-03-22T09:45:15.513Z</time></trkpt><trkpt lat="43.6482377" lon="12.5897743"><ele>230.0</ele><time>2026-03-22T09:45:16.513Z</time></trkpt><trkpt lat="43.6482986" lon="12.5896121"><ele>230.0</ele><time>2026-03-22T09:45:17.513Z</time></trkpt><trkpt lat="43.6483711" lon="12.5894595"><ele>230.0</ele><time>2026-03-22T09:45:18.515Z</time></trkpt><trkpt lat="43.6484312" lon="12.5893166"><ele>230.0</ele><time>2026-03-22T09:45:19.514Z</time></trkpt><trkpt lat="43.648473" lon="12.5891707"><ele>230.0</ele><time>2026-03-22T09:45:20.514Z</time></trkpt><trkpt lat="43.6485115" lon="12.5890191"><ele>230.0</ele><time>2026-03-22T09:45:21.514Z</time></trkpt><trkpt lat="43.6485462" lon="12.5888582"><ele>230.0</ele><time>2026-03-22T09:45:22.513Z</time></trkpt><trkpt lat="43.6485944" lon="12.5886999"><ele>232.5</ele><time>2026-03-22T09:45:23.514Z</time></trkpt><trkpt lat="43.6486645" lon="12.5885556"><ele>235.0</ele><time>2026-03-22T09:45:24.514Z</time></trkpt><trkpt lat="43.6487516" lon="12.5884249"><ele>237.5</ele><time>2026-03-22T09:45:25.513Z</time></trkpt><trkpt lat="43.6488327" lon="12.5883048"><ele>240.0</ele><time>2026-03-22T09:45:26.515Z</time></trkpt><trkpt lat="43.648894" lon="12.5881791"><ele>240.0</ele><time>2026-03-22T09:45:27.513Z</time></trkpt><trkpt lat="43.6489462" lon="12.5880574"><ele>240.0</ele><time>2026-03-22T09:45:28.515Z</time></trkpt><trkpt lat="43.6489889" lon="12.5879583"><ele>240.0</ele><time>2026-03-22T09:45:29.514Z</time></trkpt><trkpt lat="43.649043" lon="12.5878777"><ele>240.0</ele><time>2026-03-22T09:45:31.514Z</time></trkpt><trkpt lat="43.6491093" lon="12.5879054"><ele>240.0</ele><time>2026-03-22T09:45:43.513Z</time></trkpt><trkpt lat="43.6491791" lon="12.5880576"><ele>240.0</ele><time>2026-03-22T09:45:45.513Z</time></trkpt><trkpt lat="43.6492152" lon="12.5881755"><ele>240.0</ele><time>2026-03-22T09:45:46.514Z</time></trkpt><trkpt lat="43.6492693" lon="12.5883038"><ele>240.0</ele><time>2026-03-22T09:45:47.514Z</time></trkpt><trkpt lat="43.6493265" lon="12.588441"><ele>240.0</ele><time>2026-03-22T09:45:48.514Z</time></trkpt><trkpt lat="43.649371" lon="12.588552"><ele>240.0</ele><time>2026-03-22T09:45:49.513Z</time></trkpt><trkpt lat="43.649408" lon="12.5886443"><ele>239.8</ele><time>2026-03-22T09:45:50.515Z</time></trkpt><trkpt lat="43.649494" lon="12.5887171"><ele>239.6</ele><time>2026-03-22T09:45:52.513Z</time></trkpt><trkpt lat="43.6496027" lon="12.5886701"><ele>239.39999999999998</ele><time>2026-03-22T09:45:54.514Z</time></trkpt><trkpt lat="43.6496751" lon="12.5886198"><ele>239.2</ele><time>2026-03-22T09:45:55.514Z</time></trkpt><trkpt lat="43.6497765" lon="12.5885371"><ele>239.0</ele><time>2026-03-22T09:45:56.513Z</time></trkpt><trkpt lat="43.6498844" lon="12.5884503"><ele>239.79999999999998</ele><time>2026-03-22T09:45:57.514Z</time></trkpt><trkpt lat="43.6499722" lon="12.5883773"><ele>240.59999999999997</ele><time>2026-03-22T09:45:58.514Z</time></trkpt><trkpt lat="43.6500461" lon="12.5883056"><ele>241.4</ele><time>2026-03-22T09:45:59.513Z</time></trkpt><trkpt lat="43.6500936" lon="12.5882313"><ele>242.2</ele><time>2026-03-22T09:46:00.513Z</time></trkpt><trkpt lat="43.6501016" lon="12.5880787"><ele>243.0</ele><time>2026-03-22T09:46:02.514Z</time></trkpt><trkpt lat="43.650126" lon="12.5879611"><ele>243.0</ele><time>2026-03-22T09:46:04.514Z</time></trkpt><trkpt lat="43.6502128" lon="12.5880236"><ele>243.0</ele><time>2026-03-22T09:46:07.514Z</time></trkpt><trkpt lat="43.6502654" lon="12.5881313"><ele>243.0</ele><time>2026-03-22T09:46:08.513Z</time></trkpt><trkpt lat="43.6503208" lon="12.5882428"><ele>243.0</ele><time>2026-03-22T09:46:09.515Z</time></trkpt><trkpt lat="43.6503876" lon="12.5883674"><ele>243.0</ele><time>2026-03-22T09:46:10.514Z</time></trkpt><trkpt lat="43.65046" lon="12.5884939"><ele>244.25</ele><time>2026-03-22T09:46:11.513Z</time></trkpt><trkpt lat="43.6505427" lon="12.5886109"><ele>245.5</ele><time>2026-03-22T09:46:12.513Z</time></trkpt><trkpt lat="43.6506379" lon="12.5887128"><ele>246.75</ele><time>2026-03-22T09:46:13.513Z</time></trkpt><trkpt lat="43.6507505" lon="12.5887945"><ele>248.0</ele><time>2026-03-22T09:46:14.515Z</time></trkpt><trkpt lat="43.6508744" lon="12.5888887"><ele>248.0</ele><time>2026-03-22T09:46:15.513Z</time></trkpt><trkpt lat="43.6510041" lon="12.5889797"><ele>248.0</ele><time>2026-03-22T09:46:16.514Z</time></trkpt><trkpt lat="43.6511278" lon="12.5890447"><ele>248.0</ele><time>2026-03-22T09:46:17.514Z</time></trkpt><trkpt lat="43.6512573" lon="12.5890965"><ele>248.0</ele><time>2026-03-22T09:46:18.514Z</time></trkpt><trkpt lat="43.651392" lon="12.5891444"><ele>253.5</ele><time>2026-03-22T09:46:19.515Z</time></trkpt><trkpt lat="43.651535" lon="12.5891824"><ele>259.0</ele><time>2026-03-22T09:46:20.514Z</time></trkpt><trkpt lat="43.6516576" lon="12.5892102"><ele>264.5</ele><time>2026-03-22T09:46:21.514Z</time></trkpt><trkpt lat="43.6517668" lon="12.5892316"><ele>270.0</ele><time>2026-03-22T09:46:22.513Z</time></trkpt><trkpt lat="43.6518783" lon="12.5892583"><ele>272.75</ele><time>2026-03-22T09:46:23.513Z</time></trkpt><trkpt lat="43.6519906" lon="12.5893008"><ele>275.5</ele><time>2026-03-22T09:46:24.514Z</time></trkpt><trkpt lat="43.6521126" lon="12.5893908"><ele>278.25</ele><time>2026-03-22T09:46:25.515Z</time></trkpt><trkpt lat="43.652228" lon="12.5895123"><ele>281.0</ele><time>2026-03-22T09:46:26.514Z</time></trkpt><trkpt lat="43.6523274" lon="12.5896652"><ele>281.0</ele><time>2026-03-22T09:46:27.513Z</time></trkpt><trkpt lat="43.6524194" lon="12.58983"><ele>281.0</ele><time>2026-03-22T09:46:28.514Z</time></trkpt><trkpt lat="43.6524964" lon="12.589956"><ele>281.0</ele><time>2026-03-22T09:46:29.514Z</time></trkpt><trkpt lat="43.6525626" lon="12.5900671"><ele>281.0</ele><time>2026-03-22T09:46:30.514Z</time></trkpt><trkpt lat="43.6526088" lon="12.5901708"><ele>281.0</ele><time>2026-03-22T09:46:31.515Z</time></trkpt><trkpt lat="43.6526465" lon="12.5902512"><ele>281.0</ele><time>2026-03-22T09:46:32.513Z</time></trkpt><trkpt lat="43.6527255" lon="12.5903599"><ele>281.0</ele><time>2026-03-22T09:46:34.513Z</time></trkpt><trkpt lat="43.6528206" lon="12.5903266"><ele>281.0</ele><time>2026-03-22T09:46:36.514Z</time></trkpt><trkpt lat="43.6529052" lon="12.5901749"><ele>281.0</ele><time>2026-03-22T09:46:38.514Z</time></trkpt><trkpt lat="43.6529436" lon="12.590069"><ele>282.40000000000003</ele><time>2026-03-22T09:46:39.514Z</time></trkpt><trkpt lat="43.6529808" lon="12.589953"><ele>283.8</ele><time>2026-03-22T09:46:40.514Z</time></trkpt><trkpt lat="43.6530175" lon="12.5898262"><ele>285.20000000000005</ele><time>2026-03-22T09:46:41.515Z</time></trkpt><trkpt lat="43.6530575" lon="12.5896933"><ele>286.6</ele><time>2026-03-22T09:46:42.514Z</time></trkpt><trkpt lat="43.6531031" lon="12.5895601"><ele>288.0</ele><time>2026-03-22T09:46:43.513Z</time></trkpt><trkpt lat="43.6531558" lon="12.58943"><ele>290.2</ele><time>2026-03-22T09:46:44.514Z</time></trkpt><trkpt lat="43.6532012" lon="12.5892994"><ele>292.4</ele><time>2026-03-22T09:46:45.514Z</time></trkpt><trkpt lat="43.6532453" lon="12.5891758"><ele>294.59999999999997</ele><time>2026-03-22T09:46:46.513Z</time></trkpt><trkpt lat="43.6532825" lon="12.5890614"><ele>296.8</ele><time>2026-03-22T09:46:47.514Z</time></trkpt><trkpt lat="43.6533148" lon="12.5889455"><ele>299.0</ele><time>2026-03-22T09:46:48.514Z</time></trkpt><trkpt lat="43.6533385" lon="12.5888279"><ele>299.0</ele><time>2026-03-22T09:46:49.513Z</time></trkpt><trkpt lat="43.6533556" lon="12.5887087"><ele>299.0</ele><time>2026-03-22T09:46:50.514Z</time></trkpt><trkpt lat="43.6533614" lon="12.5885895"><ele>299.0</ele><time>2026-03-22T09:46:51.514Z</time></trkpt><trkpt lat="43.6533601" lon="12.5884703"><ele>299.0</ele><time>2026-03-22T09:46:52.513Z</time></trkpt><trkpt lat="43.6533499" lon="12.5883556"><ele>299.0</ele><time>2026-03-22T09:46:53.513Z</time></trkpt><trkpt lat="43.6533259" lon="12.5882483"><ele>299.0</ele><time>2026-03-22T09:46:54.513Z</time></trkpt><trkpt lat="43.6532935" lon="12.588157"><ele>300.0</ele><time>2026-03-22T09:46:55.514Z</time></trkpt><trkpt lat="43.6532535" lon="12.5880609"><ele>301.0</ele><time>2026-03-22T09:46:56.514Z</time></trkpt><trkpt lat="43.6532004" lon="12.5879633"><ele>302.0</ele><time>2026-03-22T09:46:57.513Z</time></trkpt><trkpt lat="43.65315" lon="12.5878614"><ele>303.0</ele><time>2026-03-22T09:46:58.515Z</time></trkpt><trkpt lat="43.6531057" lon="12.587754"><ele>304.0</ele><time>2026-03-22T09:46:59.514Z</time></trkpt><trkpt lat="43.6530674" lon="12.5876357"><ele>305.0</ele><time>2026-03-22T09:47:00.514Z</time></trkpt><trkpt lat="43.6530256" lon="12.5875061"><ele>305.1666666666667</ele><time>2026-03-22T09:47:01.515Z</time></trkpt><trkpt lat="43.652992" lon="12.5873948"><ele>305.33333333333337</ele><time>2026-03-22T09:47:02.513Z</time></trkpt><trkpt lat="43.6529694" lon="12.5873055"><ele>305.5</ele><time>2026-03-22T09:47:03.513Z</time></trkpt><trkpt lat="43.6529465" lon="12.5872124"><ele>305.6666666666667</ele><time>2026-03-22T09:47:04.513Z</time></trkpt><trkpt lat="43.6529275" lon="12.5871155"><ele>305.8333333333333</ele><time>2026-03-22T09:47:05.514Z</time></trkpt><trkpt lat="43.6529295" lon="12.5870125"><ele>306.0</ele><time>2026-03-22T09:47:06.514Z</time></trkpt><trkpt lat="43.6529468" lon="12.5869095"><ele>307.0</ele><time>2026-03-22T09:47:07.514Z</time></trkpt><trkpt lat="43.6529766" lon="12.5868071"><ele>308.0</ele><time>2026-03-22T09:47:08.515Z</time></trkpt><trkpt lat="43.6530064" lon="12.5867006"><ele>309.0</ele><time>2026-03-22T09:47:09.515Z</time></trkpt><trkpt lat="43.6530361" lon="12.5865961"><ele>310.0</ele><time>2026-03-22T09:47:10.514Z</time></trkpt><trkpt lat="43.6530523" lon="12.586492"><ele>311.0</ele><time>2026-03-22T09:47:11.513Z</time></trkpt><trkpt lat="43.6530537" lon="12.5863886"><ele>312.0</ele><time>2026-03-22T09:47:12.513Z</time></trkpt><trkpt lat="43.65305" lon="12.5862914"><ele>312.0</ele><time>2026-03-22T09:47:13.514Z</time></trkpt><trkpt lat="43.6530628" lon="12.5861946"><ele>312.0</ele><time>2026-03-22T09:47:14.514Z</time></trkpt><trkpt lat="43.6530793" lon="12.5860976"><ele>312.0</ele><time>2026-03-22T09:47:15.514Z</time></trkpt><trkpt lat="43.6531083" lon="12.5859982"><ele>312.0</ele><time>2026-03-22T09:47:16.514Z</time></trkpt><trkpt lat="43.6531351" lon="12.5858908"><ele>312.0</ele><time>2026-03-22T09:47:17.514Z</time></trkpt><trkpt lat="43.6531606" lon="12.5857855"><ele>312.0</ele><time>2026-03-22T09:47:18.513Z</time></trkpt><trkpt lat="43.6531875" lon="12.5856864"><ele>313.4</ele><time>2026-03-22T09:47:19.514Z</time></trkpt><trkpt lat="43.6532096" lon="12.5855987"><ele>314.79999999999995</ele><time>2026-03-22T09:47:20.513Z</time></trkpt><trkpt lat="43.6532281" lon="12.5855008"><ele>316.2</ele><time>2026-03-22T09:47:21.513Z</time></trkpt><trkpt lat="43.6532472" lon="12.5854102"><ele>317.59999999999997</ele><time>2026-03-22T09:47:22.515Z</time></trkpt><trkpt lat="43.6532923" lon="12.5852475"><ele>319.0</ele><time>2026-03-22T09:47:24.514Z</time></trkpt><trkpt lat="43.6533329" lon="12.5850781"><ele>320.2</ele><time>2026-03-22T09:47:26.515Z</time></trkpt><trkpt lat="43.653357" lon="12.5849964"><ele>321.4</ele><time>2026-03-22T09:47:27.513Z</time></trkpt><trkpt lat="43.653404" lon="12.5848445"><ele>322.6</ele><time>2026-03-22T09:47:29.513Z</time></trkpt><trkpt lat="43.653433" lon="12.5847664"><ele>323.8</ele><time>2026-03-22T09:47:30.515Z</time></trkpt><trkpt lat="43.653474" lon="12.5846312"><ele>325.0</ele><time>2026-03-22T09:47:32.513Z</time></trkpt><trkpt lat="43.6535083" lon="12.5844902"><ele>325.0</ele><time>2026-03-22T09:47:34.514Z</time></trkpt><trkpt lat="43.6535172" lon="12.5843423"><ele>325.0</ele><time>2026-03-22T09:47:36.513Z</time></trkpt><trkpt lat="43.6535284" lon="12.5841889"><ele>325.0</ele><time>2026-03-22T09:47:38.514Z</time></trkpt><trkpt lat="43.6535513" lon="12.5840473"><ele>325.0</ele><time>2026-03-22T09:47:40.514Z</time></trkpt><trkpt lat="43.6535451" lon="12.583912"><ele>325.0</ele><time>2026-03-22T09:47:42.514Z</time></trkpt><trkpt lat="43.6535078" lon="12.583778"><ele>323.5</ele><time>2026-03-22T09:47:44.513Z</time></trkpt><trkpt lat="43.6534524" lon="12.5836211"><ele>322.0</ele><time>2026-03-22T09:47:46.513Z</time></trkpt><trkpt lat="43.6534278" lon="12.5835407"><ele>320.5</ele><time>2026-03-22T09:47:47.513Z</time></trkpt><trkpt lat="43.6534006" lon="12.5834529"><ele>319.0</ele><time>2026-03-22T09:47:48.514Z</time></trkpt><trkpt lat="43.653374" lon="12.5833622"><ele>317.5</ele><time>2026-03-22T09:47:49.514Z</time></trkpt><trkpt lat="43.65335" lon="12.5832737"><ele>316.0</ele><time>2026-03-22T09:47:50.513Z</time></trkpt><trkpt lat="43.6533266" lon="12.5831904"><ele>316.0</ele><time>2026-03-22T09:47:51.514Z</time></trkpt><trkpt lat="43.6532937" lon="12.5830329"><ele>316.0</ele><time>2026-03-22T09:47:53.514Z</time></trkpt><trkpt lat="43.6533011" lon="12.5829091"><ele>316.0</ele><time>2026-03-22T09:47:55.514Z</time></trkpt><trkpt lat="43.6533285" lon="12.5828197"><ele>316.0</ele><time>2026-03-22T09:47:57.514Z</time></trkpt><trkpt lat="43.6533977" lon="12.582779"><ele>316.0</ele><time>2026-03-22T09:47:59.514Z</time></trkpt><trkpt lat="43.6534741" lon="12.5827508"><ele>316.0</ele><time>2026-03-22T09:48:01.514Z</time></trkpt><trkpt lat="43.6535683" lon="12.5827369"><ele>316.16666666666663</ele><time>2026-03-22T09:48:04.514Z</time></trkpt><trkpt lat="43.6536425" lon="12.5827788"><ele>316.3333333333333</ele><time>2026-03-22T09:48:06.514Z</time></trkpt><trkpt lat="43.6537455" lon="12.5828395"><ele>316.5</ele><time>2026-03-22T09:48:08.514Z</time></trkpt><trkpt lat="43.6538081" lon="12.5828182"><ele>316.6666666666667</ele><time>2026-03-22T09:48:09.514Z</time></trkpt><trkpt lat="43.6538659" lon="12.5827566"><ele>316.83333333333337</ele><time>2026-03-22T09:48:10.513Z</time></trkpt><trkpt lat="43.65392" lon="12.5826629"><ele>317.0</ele><time>2026-03-22T09:48:11.513Z</time></trkpt><trkpt lat="43.653989" lon="12.5825238"><ele>317.0</ele><time>2026-03-22T09:48:12.515Z</time></trkpt><trkpt lat="43.654066" lon="12.5823772"><ele>317.0</ele><time>2026-03-22T09:48:13.513Z</time></trkpt><trkpt lat="43.6541342" lon="12.582272"><ele>317.0</ele><time>2026-03-22T09:48:14.514Z</time></trkpt><trkpt lat="43.6542112" lon="12.582192"><ele>317.0</ele><time>2026-03-22T09:48:15.514Z</time></trkpt><trkpt lat="43.654309" lon="12.5821417"><ele>317.0</ele><time>2026-03-22T09:48:16.514Z</time></trkpt><trkpt lat="43.6544258" lon="12.582105"><ele>318.25</ele><time>2026-03-22T09:48:17.514Z</time></trkpt><trkpt lat="43.6545718" lon="12.5820619"><ele>319.5</ele><time>2026-03-22T09:48:18.514Z</time></trkpt><trkpt lat="43.654714" lon="12.5820211"><ele>320.75</ele><time>2026-03-22T09:48:19.514Z</time></trkpt><trkpt lat="43.6548327" lon="12.581982"><ele>322.0</ele><time>2026-03-22T09:48:20.515Z</time></trkpt><trkpt lat="43.6549384" lon="12.5819215"><ele>322.0</ele><time>2026-03-22T09:48:21.515Z</time></trkpt><trkpt lat="43.6550374" lon="12.5818216"><ele>322.0</ele><time>2026-03-22T09:48:22.515Z</time></trkpt><trkpt lat="43.6551306" lon="12.5816925"><ele>322.0</ele><time>2026-03-22T09:48:23.515Z</time></trkpt><trkpt lat="43.655227" lon="12.581555"><ele>322.0</ele><time>2026-03-22T09:48:24.514Z</time></trkpt><trkpt lat="43.6553308" lon="12.5814209"><ele>322.5</ele><time>2026-03-22T09:48:25.515Z</time></trkpt><trkpt lat="43.6554483" lon="12.581296"><ele>323.0</ele><time>2026-03-22T09:48:26.514Z</time></trkpt><trkpt lat="43.6555706" lon="12.5811684"><ele>323.5</ele><time>2026-03-22T09:48:27.515Z</time></trkpt><trkpt lat="43.6556803" lon="12.5810344"><ele>324.0</ele><time>2026-03-22T09:48:28.513Z</time></trkpt><trkpt lat="43.6557715" lon="12.5809195"><ele>325.79999999999995</ele><time>2026-03-22T09:48:29.514Z</time></trkpt><trkpt lat="43.6558544" lon="12.5808109"><ele>327.59999999999997</ele><time>2026-03-22T09:48:30.514Z</time></trkpt><trkpt lat="43.655925" lon="12.5807078"><ele>329.4</ele><time>2026-03-22T09:48:31.514Z</time></trkpt><trkpt lat="43.6559744" lon="12.5806016"><ele>331.2</ele><time>2026-03-22T09:48:32.513Z</time></trkpt><trkpt lat="43.6560064" lon="12.5804763"><ele>333.0</ele><time>2026-03-22T09:48:33.514Z</time></trkpt><trkpt lat="43.6560172" lon="12.5803279"><ele>334.75</ele><time>2026-03-22T09:48:34.514Z</time></trkpt><trkpt lat="43.6560087" lon="12.5801749"><ele>336.5</ele><time>2026-03-22T09:48:35.515Z</time></trkpt><trkpt lat="43.6559906" lon="12.5799937"><ele>338.25</ele><time>2026-03-22T09:48:36.514Z</time></trkpt><trkpt lat="43.6559686" lon="12.5797742"><ele>340.0</ele><time>2026-03-22T09:48:37.515Z</time></trkpt><trkpt lat="43.6559492" lon="12.579571"><ele>342.4</ele><time>2026-03-22T09:48:38.514Z</time></trkpt><trkpt lat="43.6559283" lon="12.5794018"><ele>344.8</ele><time>2026-03-22T09:48:39.513Z</time></trkpt><trkpt lat="43.6559125" lon="12.5792515"><ele>347.20000000000005</ele><time>2026-03-22T09:48:40.513Z</time></trkpt><trkpt lat="43.6558891" lon="12.5791152"><ele>349.6</ele><time>2026-03-22T09:48:41.514Z</time></trkpt><trkpt lat="43.6558417" lon="12.5789907"><ele>352.0</ele><time>2026-03-22T09:48:42.515Z</time></trkpt><trkpt lat="43.655769" lon="12.5788761"><ele>352.0</ele><time>2026-03-22T09:48:43.514Z</time></trkpt><trkpt lat="43.6556783" lon="12.578761"><ele>352.0</ele><time>2026-03-22T09:48:44.515Z</time></trkpt><trkpt lat="43.6555706" lon="12.5786348"><ele>352.0</ele><time>2026-03-22T09:48:45.513Z</time></trkpt><trkpt lat="43.6554748" lon="12.578519"><ele>352.0</ele><time>2026-03-22T09:48:46.515Z</time></trkpt><trkpt lat="43.6553969" lon="12.5784262"><ele>354.0</ele><time>2026-03-22T09:48:47.514Z</time></trkpt><trkpt lat="43.65534" lon="12.5783442"><ele>356.0</ele><time>2026-03-22T09:48:48.513Z</time></trkpt><trkpt lat="43.6553022" lon="12.5782682"><ele>358.0</ele><time>2026-03-22T09:48:49.513Z</time></trkpt><trkpt lat="43.6553183" lon="12.5781246"><ele>360.0</ele><time>2026-03-22T09:48:51.513Z</time></trkpt><trkpt lat="43.6554232" lon="12.5780866"><ele>362.0</ele><time>2026-03-22T09:48:53.513Z</time></trkpt><trkpt lat="43.6554975" lon="12.5781108"><ele>364.0</ele><time>2026-03-22T09:48:54.515Z</time></trkpt><trkpt lat="43.6555778" lon="12.5781549"><ele>364.0</ele><time>2026-03-22T09:48:55.514Z</time></trkpt><trkpt lat="43.6556664" lon="12.578196"><ele>364.0</ele><time>2026-03-22T09:48:56.515Z</time></trkpt><trkpt lat="43.6557598" lon="12.5782005"><ele>364.0</ele><time>2026-03-22T09:48:57.514Z</time></trkpt><trkpt lat="43.6558493" lon="12.5781563"><ele>364.0</ele><time>2026-03-22T09:48:58.514Z</time></trkpt><trkpt lat="43.6559289" lon="12.57807"><ele>364.0</ele><time>2026-03-22T09:48:59.513Z</time></trkpt><trkpt lat="43.6560141" lon="12.5779466"><ele>362.75</ele><time>2026-03-22T09:49:00.514Z</time></trkpt><trkpt lat="43.6561158" lon="12.5778054"><ele>361.5</ele><time>2026-03-22T09:49:01.513Z</time></trkpt><trkpt lat="43.6562183" lon="12.5776827"><ele>360.25</ele><time>2026-03-22T09:49:02.515Z</time></trkpt><trkpt lat="43.6563303" lon="12.5775854"><ele>359.0</ele><time>2026-03-22T09:49:03.515Z</time></trkpt><trkpt lat="43.6564573" lon="12.5775082"><ele>362.5</ele><time>2026-03-22T09:49:04.515Z</time></trkpt><trkpt lat="43.6566" lon="12.5774247"><ele>366.0</ele><time>2026-03-22T09:49:05.514Z</time></trkpt><trkpt lat="43.6567232" lon="12.5773602"><ele>369.5</ele><time>2026-03-22T09:49:06.513Z</time></trkpt><trkpt lat="43.6568354" lon="12.5773021"><ele>373.0</ele><time>2026-03-22T09:49:07.513Z</time></trkpt><trkpt lat="43.6569438" lon="12.5772495"><ele>372.25</ele><time>2026-03-22T09:49:08.515Z</time></trkpt><trkpt lat="43.6570545" lon="12.5772183"><ele>371.5</ele><time>2026-03-22T09:49:09.513Z</time></trkpt><trkpt lat="43.6571806" lon="12.577206"><ele>370.75</ele><time>2026-03-22T09:49:10.513Z</time></trkpt><trkpt lat="43.6573255" lon="12.5771898"><ele>370.0</ele><time>2026-03-22T09:49:11.514Z</time></trkpt><trkpt lat="43.6574904" lon="12.5771602"><ele>370.0</ele><time>2026-03-22T09:49:12.513Z</time></trkpt><trkpt lat="43.6576679" lon="12.5771117"><ele>370.0</ele><time>2026-03-22T09:49:13.514Z</time></trkpt><trkpt lat="43.6578676" lon="12.5770514"><ele>370.0</ele><time>2026-03-22T09:49:14.514Z</time></trkpt><trkpt lat="43.6580436" lon="12.576992"><ele>367.0</ele><time>2026-03-22T09:49:15.514Z</time></trkpt><trkpt lat="43.6582118" lon="12.5769351"><ele>364.0</ele><time>2026-03-22T09:49:16.514Z</time></trkpt><trkpt lat="43.6583706" lon="12.5768862"><ele>361.0</ele><time>2026-03-22T09:49:17.514Z</time></trkpt><trkpt lat="43.658534" lon="12.5768248"><ele>362.3333333333333</ele><time>2026-03-22T09:49:18.514Z</time></trkpt><trkpt lat="43.6587009" lon="12.5767507"><ele>363.6666666666667</ele><time>2026-03-22T09:49:19.514Z</time></trkpt><trkpt lat="43.6588697" lon="12.5766639"><ele>365.0</ele><time>2026-03-22T09:49:20.515Z</time></trkpt><trkpt lat="43.6590429" lon="12.5765688"><ele>365.0</ele><time>2026-03-22T09:49:21.514Z</time></trkpt><trkpt lat="43.6592205" lon="12.576476"><ele>365.0</ele><time>2026-03-22T09:49:22.515Z</time></trkpt><trkpt lat="43.6593943" lon="12.576391"><ele>365.0</ele><time>2026-03-22T09:49:23.514Z</time></trkpt><trkpt lat="43.6595509" lon="12.5763081"><ele>366.75</ele><time>2026-03-22T09:49:24.513Z</time></trkpt><trkpt lat="43.6596938" lon="12.5762291"><ele>368.5</ele><time>2026-03-22T09:49:25.514Z</time></trkpt><trkpt lat="43.6598242" lon="12.5761585"><ele>370.25</ele><time>2026-03-22T09:49:26.514Z</time></trkpt><trkpt lat="43.6599438" lon="12.5760908"><ele>372.0</ele><time>2026-03-22T09:49:27.513Z</time></trkpt><trkpt lat="43.6600545" lon="12.5760192"><ele>372.0</ele><time>2026-03-22T09:49:28.514Z</time></trkpt><trkpt lat="43.6601473" lon="12.575942"><ele>372.0</ele><time>2026-03-22T09:49:29.513Z</time></trkpt><trkpt lat="43.6602209" lon="12.5758596"><ele>372.0</ele><time>2026-03-22T09:49:30.513Z</time></trkpt><trkpt lat="43.6602756" lon="12.5757783"><ele>372.0</ele><time>2026-03-22T09:49:31.514Z</time></trkpt><trkpt lat="43.6603099" lon="12.5756966"><ele>372.0</ele><time>2026-03-22T09:49:32.513Z</time></trkpt><trkpt lat="43.6603271" lon="12.5755308"><ele>372.0</ele><time>2026-03-22T09:49:34.514Z</time></trkpt><trkpt lat="43.6602941" lon="12.5754532"><ele>372.0</ele><time>2026-03-22T09:49:35.513Z</time></trkpt><trkpt lat="43.6602409" lon="12.5753678"><ele>372.0</ele><time>2026-03-22T09:49:36.514Z</time></trkpt><trkpt lat="43.6601958" lon="12.575256"><ele>372.0</ele><time>2026-03-22T09:49:37.514Z</time></trkpt><trkpt lat="43.6601773" lon="12.5751339"><ele>372.0</ele><time>2026-03-22T09:49:38.514Z</time></trkpt><trkpt lat="43.6601818" lon="12.5749758"><ele>372.0</ele><time>2026-03-22T09:49:39.514Z</time></trkpt><trkpt lat="43.660203" lon="12.5748019"><ele>373.25</ele><time>2026-03-22T09:49:40.513Z</time></trkpt><trkpt lat="43.6602359" lon="12.5746195"><ele>374.5</ele><time>2026-03-22T09:49:41.513Z</time></trkpt><trkpt lat="43.6602749" lon="12.5744317"><ele>375.75</ele><time>2026-03-22T09:49:42.514Z</time></trkpt><trkpt lat="43.6603069" lon="12.5742569"><ele>377.0</ele><time>2026-03-22T09:49:43.514Z</time></trkpt><trkpt lat="43.660341" lon="12.5741152"><ele>379.20000000000005</ele><time>2026-03-22T09:49:44.513Z</time></trkpt><trkpt lat="43.6603816" lon="12.5739969"><ele>381.4</ele><time>2026-03-22T09:49:45.513Z</time></trkpt><trkpt lat="43.6604403" lon="12.5738945"><ele>383.6</ele><time>2026-03-22T09:49:46.514Z</time></trkpt><trkpt lat="43.660519" lon="12.5738094"><ele>385.79999999999995</ele><time>2026-03-22T09:49:47.512Z</time></trkpt><trkpt lat="43.6606156" lon="12.5737422"><ele>388.0</ele><time>2026-03-22T09:49:48.513Z</time></trkpt><trkpt lat="43.6607238" lon="12.5736748"><ele>388.0</ele><time>2026-03-22T09:49:49.514Z</time></trkpt><trkpt lat="43.6608389" lon="12.5736045"><ele>388.0</ele><time>2026-03-22T09:49:50.514Z</time></trkpt><trkpt lat="43.6609618" lon="12.5735397"><ele>388.0</ele><time>2026-03-22T09:49:51.513Z</time></trkpt><trkpt lat="43.6610951" lon="12.5734881"><ele>388.0</ele><time>2026-03-22T09:49:52.513Z</time></trkpt><trkpt lat="43.6612364" lon="12.5734678"><ele>390.75</ele><time>2026-03-22T09:49:53.514Z</time></trkpt><trkpt lat="43.6613849" lon="12.5734732"><ele>393.5</ele><time>2026-03-22T09:49:54.513Z</time></trkpt><trkpt lat="43.6615337" lon="12.5734798"><ele>396.25</ele><time>2026-03-22T09:49:55.513Z</time></trkpt><trkpt lat="43.6616751" lon="12.5734672"><ele>399.0</ele><time>2026-03-22T09:49:56.512Z</time></trkpt><trkpt lat="43.6618031" lon="12.5734473"><ele>399.0</ele><time>2026-03-22T09:49:57.513Z</time></trkpt><trkpt lat="43.6619208" lon="12.5734325"><ele>399.0</ele><time>2026-03-22T09:49:58.513Z</time></trkpt><trkpt lat="43.6620292" lon="12.5734308"><ele>399.0</ele><time>2026-03-22T09:49:59.513Z</time></trkpt><trkpt lat="43.6621351" lon="12.5734419"><ele>399.0</ele><time>2026-03-22T09:50:00.513Z</time></trkpt><trkpt lat="43.6622243" lon="12.5735204"><ele>399.0</ele><time>2026-03-22T09:50:01.513Z</time></trkpt><trkpt lat="43.6623003" lon="12.5736018"><ele>400.2</ele><time>2026-03-22T09:50:02.512Z</time></trkpt><trkpt lat="43.6623695" lon="12.573688"><ele>401.4</ele><time>2026-03-22T09:50:03.512Z</time></trkpt><trkpt lat="43.6623797" lon="12.5738439"><ele>402.6</ele><time>2026-03-22T09:50:04.513Z</time></trkpt><trkpt lat="43.6623925" lon="12.5740083"><ele>403.8</ele><time>2026-03-22T09:50:05.513Z</time></trkpt><trkpt lat="43.6623984" lon="12.5741782"><ele>405.0</ele><time>2026-03-22T09:50:06.513Z</time></trkpt><trkpt lat="43.6624226" lon="12.5743375"><ele>405.0</ele><time>2026-03-22T09:50:07.513Z</time></trkpt><trkpt lat="43.6624587" lon="12.5744987"><ele>405.0</ele><time>2026-03-22T09:50:08.513Z</time></trkpt><trkpt lat="43.6625045" lon="12.5746504"><ele>405.0</ele><time>2026-03-22T09:50:09.513Z</time></trkpt><trkpt lat="43.6625586" lon="12.5747943"><ele>405.0</ele><time>2026-03-22T09:50:10.513Z</time></trkpt><trkpt lat="43.6626267" lon="12.5749209"><ele>404.25</ele><time>2026-03-22T09:50:11.512Z</time></trkpt><trkpt lat="43.6627122" lon="12.5750421"><ele>403.5</ele><time>2026-03-22T09:50:12.513Z</time></trkpt><trkpt lat="43.6628139" lon="12.5751695"><ele>402.75</ele><time>2026-03-22T09:50:13.513Z</time></trkpt><trkpt lat="43.6629156" lon="12.5752967"><ele>402.0</ele><time>2026-03-22T09:50:14.513Z</time></trkpt><trkpt lat="43.6630013" lon="12.5754055"><ele>404.6</ele><time>2026-03-22T09:50:15.513Z</time></trkpt><trkpt lat="43.6630831" lon="12.5755292"><ele>407.20000000000005</ele><time>2026-03-22T09:50:16.512Z</time></trkpt><trkpt lat="43.66314" lon="12.575655"><ele>409.8</ele><time>2026-03-22T09:50:17.512Z</time></trkpt><trkpt lat="43.6631652" lon="12.5757927"><ele>412.4</ele><time>2026-03-22T09:50:18.514Z</time></trkpt><trkpt lat="43.6631728" lon="12.5759464"><ele>415.0</ele><time>2026-03-22T09:50:19.513Z</time></trkpt><trkpt lat="43.6631829" lon="12.5761046"><ele>413.83333333333337</ele><time>2026-03-22T09:50:20.513Z</time></trkpt><trkpt lat="43.6632044" lon="12.576248"><ele>412.6666666666667</ele><time>2026-03-22T09:50:21.512Z</time></trkpt><trkpt lat="43.6632254" lon="12.5763671"><ele>411.5</ele><time>2026-03-22T09:50:22.513Z</time></trkpt><trkpt lat="43.663252" lon="12.5764707"><ele>410.33333333333337</ele><time>2026-03-22T09:50:23.513Z</time></trkpt><trkpt lat="43.6632944" lon="12.5765544"><ele>409.1666666666667</ele><time>2026-03-22T09:50:24.513Z</time></trkpt><trkpt lat="43.6633547" lon="12.5766116"><ele>408.0</ele><time>2026-03-22T09:50:25.512Z</time></trkpt><trkpt lat="43.6634267" lon="12.5766404"><ele>408.0</ele><time>2026-03-22T09:50:26.513Z</time></trkpt><trkpt lat="43.6634954" lon="12.5766344"><ele>408.0</ele><time>2026-03-22T09:50:27.512Z</time></trkpt><trkpt lat="43.6635905" lon="12.5765231"><ele>408.0</ele><time>2026-03-22T09:50:29.513Z</time></trkpt><trkpt lat="43.6636386" lon="12.576436"><ele>408.0</ele><time>2026-03-22T09:50:30.513Z</time></trkpt><trkpt lat="43.6636948" lon="12.5763261"><ele>408.0</ele><time>2026-03-22T09:50:31.514Z</time></trkpt><trkpt lat="43.6637363" lon="12.5762202"><ele>409.4</ele><time>2026-03-22T09:50:32.514Z</time></trkpt><trkpt lat="43.6637523" lon="12.5761065"><ele>410.79999999999995</ele><time>2026-03-22T09:50:33.512Z</time></trkpt><trkpt lat="43.6637412" lon="12.5759727"><ele>412.2</ele><time>2026-03-22T09:50:34.512Z</time></trkpt><trkpt lat="43.6637054" lon="12.5758175"><ele>413.6</ele><time>2026-03-22T09:50:35.514Z</time></trkpt><trkpt lat="43.6636465" lon="12.5756428"><ele>415.0</ele><time>2026-03-22T09:50:36.512Z</time></trkpt><trkpt lat="43.6635727" lon="12.5754767"><ele>417.4</ele><time>2026-03-22T09:50:37.512Z</time></trkpt><trkpt lat="43.6635122" lon="12.575349"><ele>419.8</ele><time>2026-03-22T09:50:38.512Z</time></trkpt><trkpt lat="43.6634615" lon="12.5752362"><ele>422.20000000000005</ele><time>2026-03-22T09:50:39.514Z</time></trkpt><trkpt lat="43.6634089" lon="12.575132"><ele>424.6</ele><time>2026-03-22T09:50:40.513Z</time></trkpt><trkpt lat="43.6633684" lon="12.5750306"><ele>427.0</ele><time>2026-03-22T09:50:41.513Z</time></trkpt><trkpt lat="43.6633488" lon="12.5749329"><ele>427.0</ele><time>2026-03-22T09:50:42.513Z</time></trkpt><trkpt lat="43.6633621" lon="12.5748291"><ele>427.00000000000006</ele><time>2026-03-22T09:50:43.513Z</time></trkpt><trkpt lat="43.6634132" lon="12.574747"><ele>427.00000000000006</ele><time>2026-03-22T09:50:44.512Z</time></trkpt><trkpt lat="43.6634992" lon="12.5746677"><ele>427.0</ele><time>2026-03-22T09:50:45.513Z</time></trkpt><trkpt lat="43.6636148" lon="12.5745783"><ele>427.0</ele><time>2026-03-22T09:50:46.513Z</time></trkpt><trkpt lat="43.66373" lon="12.5744974"><ele>428.5</ele><time>2026-03-22T09:50:47.514Z</time></trkpt><trkpt lat="43.6638285" lon="12.5744262"><ele>430.0</ele><time>2026-03-22T09:50:48.513Z</time></trkpt><trkpt lat="43.6639178" lon="12.5743342"><ele>431.5</ele><time>2026-03-22T09:50:49.512Z</time></trkpt><trkpt lat="43.6639909" lon="12.5742131"><ele>433.0</ele><time>2026-03-22T09:50:50.514Z</time></trkpt><trkpt lat="43.664053" lon="12.5740576"><ele>433.0</ele><time>2026-03-22T09:50:51.513Z</time></trkpt><trkpt lat="43.6640995" lon="12.5738748"><ele>433.0</ele><time>2026-03-22T09:50:52.513Z</time></trkpt><trkpt lat="43.6641386" lon="12.573655"><ele>433.0</ele><time>2026-03-22T09:50:53.513Z</time></trkpt><trkpt lat="43.6641668" lon="12.5734163"><ele>434.0</ele><time>2026-03-22T09:50:54.514Z</time></trkpt><trkpt lat="43.6641773" lon="12.5731521"><ele>435.0</ele><time>2026-03-22T09:50:55.513Z</time></trkpt><trkpt lat="43.6641693" lon="12.5728778"><ele>436.0</ele><time>2026-03-22T09:50:56.512Z</time></trkpt><trkpt lat="43.664158" lon="12.5726535"><ele>438.25</ele><time>2026-03-22T09:50:57.512Z</time></trkpt><trkpt lat="43.6641512" lon="12.5724481"><ele>440.5</ele><time>2026-03-22T09:50:58.512Z</time></trkpt><trkpt lat="43.6641357" lon="12.5722608"><ele>442.75</ele><time>2026-03-22T09:50:59.512Z</time></trkpt><trkpt lat="43.6641242" lon="12.572073"><ele>445.0</ele><time>2026-03-22T09:51:00.513Z</time></trkpt><trkpt lat="43.6641072" lon="12.5718854"><ele>445.0</ele><time>2026-03-22T09:51:01.513Z</time></trkpt><trkpt lat="43.6640798" lon="12.5716897"><ele>445.0</ele><time>2026-03-22T09:51:02.514Z</time></trkpt><trkpt lat="43.6640481" lon="12.5714807"><ele>445.0</ele><time>2026-03-22T09:51:03.514Z</time></trkpt><trkpt lat="43.6640173" lon="12.5712796"><ele>445.0</ele><time>2026-03-22T09:51:04.512Z</time></trkpt><trkpt lat="43.6639836" lon="12.57109"><ele>444.33333333333337</ele><time>2026-03-22T09:51:05.513Z</time></trkpt><trkpt lat="43.6639321" lon="12.5708944"><ele>443.66666666666663</ele><time>2026-03-22T09:51:06.513Z</time></trkpt><trkpt lat="43.6638693" lon="12.5706853"><ele>443.0</ele><time>2026-03-22T09:51:07.514Z</time></trkpt><trkpt lat="43.6638077" lon="12.5704738"><ele>445.5</ele><time>2026-03-22T09:51:08.512Z</time></trkpt><trkpt lat="43.6637598" lon="12.5702698"><ele>448.0</ele><time>2026-03-22T09:51:09.513Z</time></trkpt><trkpt lat="43.6637252" lon="12.5700818"><ele>450.5</ele><time>2026-03-22T09:51:10.512Z</time></trkpt><trkpt lat="43.6636977" lon="12.5699052"><ele>453.0</ele><time>2026-03-22T09:51:11.512Z</time></trkpt><trkpt lat="43.6636839" lon="12.5697231"><ele>453.0</ele><time>2026-03-22T09:51:12.513Z</time></trkpt><trkpt lat="43.6636822" lon="12.5695355"><ele>453.0</ele><time>2026-03-22T09:51:13.513Z</time></trkpt><trkpt lat="43.6636879" lon="12.5693341"><ele>453.0</ele><time>2026-03-22T09:51:14.512Z</time></trkpt><trkpt lat="43.6637099" lon="12.5691198"><ele>453.0</ele><time>2026-03-22T09:51:15.513Z</time></trkpt><trkpt lat="43.663742" lon="12.5689345"><ele>455.75</ele><time>2026-03-22T09:51:16.512Z</time></trkpt><trkpt lat="43.663774" lon="12.5687725"><ele>458.5</ele><time>2026-03-22T09:51:17.513Z</time></trkpt><trkpt lat="43.6638115" lon="12.568634"><ele>461.25</ele><time>2026-03-22T09:51:18.513Z</time></trkpt><trkpt lat="43.6638639" lon="12.5685106"><ele>464.0</ele><time>2026-03-22T09:51:19.514Z</time></trkpt><trkpt lat="43.6639383" lon="12.5683777"><ele>464.75</ele><time>2026-03-22T09:51:20.513Z</time></trkpt><trkpt lat="43.6640147" lon="12.5682273"><ele>465.5</ele><time>2026-03-22T09:51:21.513Z</time></trkpt><trkpt lat="43.6640677" lon="12.5680695"><ele>466.25</ele><time>2026-03-22T09:51:22.513Z</time></trkpt><trkpt lat="43.664114" lon="12.5679047"><ele>467.0</ele><time>2026-03-22T09:51:23.513Z</time></trkpt><trkpt lat="43.6641341" lon="12.567716"><ele>467.0</ele><time>2026-03-22T09:51:24.514Z</time></trkpt><trkpt lat="43.6641527" lon="12.5675351"><ele>467.0</ele><time>2026-03-22T09:51:25.512Z</time></trkpt><trkpt lat="43.6641558" lon="12.5673683"><ele>467.0</ele><time>2026-03-22T09:51:26.513Z</time></trkpt><trkpt lat="43.6641463" lon="12.5672101"><ele>467.0</ele><time>2026-03-22T09:51:27.513Z</time></trkpt><trkpt lat="43.6641166" lon="12.5670538"><ele>465.5</ele><time>2026-03-22T09:51:28.512Z</time></trkpt><trkpt lat="43.6640667" lon="12.5669037"><ele>464.0</ele><time>2026-03-22T09:51:29.513Z</time></trkpt><trkpt lat="43.6640011" lon="12.5667818"><ele>462.5</ele><time>2026-03-22T09:51:30.512Z</time></trkpt><trkpt lat="43.6639162" lon="12.5666823"><ele>461.0</ele><time>2026-03-22T09:51:31.512Z</time></trkpt><trkpt lat="43.6638047" lon="12.5665806"><ele>461.0</ele><time>2026-03-22T09:51:32.513Z</time></trkpt><trkpt lat="43.6636791" lon="12.566465"><ele>461.0</ele><time>2026-03-22T09:51:33.514Z</time></trkpt><trkpt lat="43.6635371" lon="12.5663388"><ele>461.0</ele><time>2026-03-22T09:51:34.513Z</time></trkpt><trkpt lat="43.6633809" lon="12.5662003"><ele>462.3333333333333</ele><time>2026-03-22T09:51:35.512Z</time></trkpt><trkpt lat="43.6632174" lon="12.5660557"><ele>463.66666666666663</ele><time>2026-03-22T09:51:36.513Z</time></trkpt><trkpt lat="43.6630689" lon="12.5659269"><ele>465.0</ele><time>2026-03-22T09:51:37.512Z</time></trkpt><trkpt lat="43.6629491" lon="12.565817"><ele>465.0</ele><time>2026-03-22T09:51:38.513Z</time></trkpt><trkpt lat="43.6628493" lon="12.5657247"><ele>465.0</ele><time>2026-03-22T09:51:39.513Z</time></trkpt><trkpt lat="43.6627657" lon="12.5656315"><ele>465.0</ele><time>2026-03-22T09:51:40.512Z</time></trkpt><trkpt lat="43.6626997" lon="12.5655219"><ele>465.0</ele><time>2026-03-22T09:51:41.513Z</time></trkpt><trkpt lat="43.6626482" lon="12.5653938"><ele>465.0</ele><time>2026-03-22T09:51:42.513Z</time></trkpt><trkpt lat="43.6625954" lon="12.5652501"><ele>467.4</ele><time>2026-03-22T09:51:43.512Z</time></trkpt><trkpt lat="43.6625472" lon="12.5650849"><ele>469.8</ele><time>2026-03-22T09:51:44.513Z</time></trkpt><trkpt lat="43.6625002" lon="12.5649407"><ele>472.20000000000005</ele><time>2026-03-22T09:51:45.514Z</time></trkpt><trkpt lat="43.6624529" lon="12.5648206"><ele>474.6</ele><time>2026-03-22T09:51:46.512Z</time></trkpt><trkpt lat="43.6624054" lon="12.564724"><ele>477.0</ele><time>2026-03-22T09:51:47.512Z</time></trkpt><trkpt lat="43.6623463" lon="12.5646479"><ele>477.0</ele><time>2026-03-22T09:51:48.512Z</time></trkpt><trkpt lat="43.6622672" lon="12.5645848"><ele>477.00000000000006</ele><time>2026-03-22T09:51:49.512Z</time></trkpt><trkpt lat="43.6621653" lon="12.5645253"><ele>477.00000000000006</ele><time>2026-03-22T09:51:50.514Z</time></trkpt><trkpt lat="43.6620602" lon="12.5644653"><ele>477.0</ele><time>2026-03-22T09:51:51.513Z</time></trkpt><trkpt lat="43.661965" lon="12.564399"><ele>477.0</ele><time>2026-03-22T09:51:52.513Z</time></trkpt><trkpt lat="43.6618788" lon="12.5643273"><ele>477.0</ele><time>2026-03-22T09:51:53.512Z</time></trkpt><trkpt lat="43.661805" lon="12.5642387"><ele>477.00000000000006</ele><time>2026-03-22T09:51:54.513Z</time></trkpt><trkpt lat="43.6617523" lon="12.5641287"><ele>477.00000000000006</ele><time>2026-03-22T09:51:55.514Z</time></trkpt><trkpt lat="43.6617109" lon="12.5639981"><ele>477.0</ele><time>2026-03-22T09:51:56.514Z</time></trkpt><trkpt lat="43.6616964" lon="12.563831"><ele>477.0</ele><time>2026-03-22T09:51:57.512Z</time></trkpt><trkpt lat="43.661693" lon="12.5636587"><ele>475.8</ele><time>2026-03-22T09:51:58.512Z</time></trkpt><trkpt lat="43.6616899" lon="12.5634987"><ele>474.6</ele><time>2026-03-22T09:51:59.512Z</time></trkpt><trkpt lat="43.661694" lon="12.563342"><ele>473.40000000000003</ele><time>2026-03-22T09:52:00.512Z</time></trkpt><trkpt lat="43.6617069" lon="12.5631946"><ele>472.20000000000005</ele><time>2026-03-22T09:52:01.514Z</time></trkpt><trkpt lat="43.6617227" lon="12.5630529"><ele>471.0</ele><time>2026-03-22T09:52:02.512Z</time></trkpt><trkpt lat="43.66175" lon="12.5629204"><ele>470.1666666666667</ele><time>2026-03-22T09:52:03.512Z</time></trkpt><trkpt lat="43.6617768" lon="12.5628124"><ele>469.33333333333337</ele><time>2026-03-22T09:52:04.512Z</time></trkpt><trkpt lat="43.6618025" lon="12.5627193"><ele>468.5</ele><time>2026-03-22T09:52:05.513Z</time></trkpt><trkpt lat="43.6618317" lon="12.5626163"><ele>467.6666666666667</ele><time>2026-03-22T09:52:06.513Z</time></trkpt><trkpt lat="43.6618702" lon="12.5624997"><ele>466.83333333333337</ele><time>2026-03-22T09:52:07.513Z</time></trkpt><trkpt lat="43.661916" lon="12.5623555"><ele>466.0</ele><time>2026-03-22T09:52:08.512Z</time></trkpt><trkpt lat="43.661973" lon="12.562175"><ele>463.33333333333337</ele><time>2026-03-22T09:52:09.514Z</time></trkpt><trkpt lat="43.6620504" lon="12.561952"><ele>460.66666666666663</ele><time>2026-03-22T09:52:10.513Z</time></trkpt><trkpt lat="43.6621231" lon="12.5617498"><ele>458.0</ele><time>2026-03-22T09:52:11.514Z</time></trkpt><trkpt lat="43.6621885" lon="12.5615588"><ele>458.0</ele><time>2026-03-22T09:52:12.512Z</time></trkpt><trkpt lat="43.6622445" lon="12.5613925"><ele>458.0</ele><time>2026-03-22T09:52:13.513Z</time></trkpt><trkpt lat="43.6622947" lon="12.5612489"><ele>458.0</ele><time>2026-03-22T09:52:14.512Z</time></trkpt><trkpt lat="43.6623474" lon="12.5611243"><ele>458.0</ele><time>2026-03-22T09:52:15.513Z</time></trkpt><trkpt lat="43.662409" lon="12.5610111"><ele>457.25</ele><time>2026-03-22T09:52:16.513Z</time></trkpt><trkpt lat="43.6624878" lon="12.56089"><ele>456.5</ele><time>2026-03-22T09:52:17.512Z</time></trkpt><trkpt lat="43.6625811" lon="12.5607677"><ele>455.75</ele><time>2026-03-22T09:52:18.512Z</time></trkpt><trkpt lat="43.6626855" lon="12.5606404"><ele>455.0</ele><time>2026-03-22T09:52:19.512Z</time></trkpt><trkpt lat="43.6627989" lon="12.5605196"><ele>454.0</ele><time>2026-03-22T09:52:20.513Z</time></trkpt><trkpt lat="43.6629155" lon="12.5604163"><ele>453.0</ele><time>2026-03-22T09:52:21.513Z</time></trkpt><trkpt lat="43.6630509" lon="12.5603204"><ele>452.0</ele><time>2026-03-22T09:52:22.512Z</time></trkpt><trkpt lat="43.6632003" lon="12.560235"><ele>453.5</ele><time>2026-03-22T09:52:23.514Z</time></trkpt><trkpt lat="43.6633316" lon="12.5601703"><ele>455.0</ele><time>2026-03-22T09:52:24.514Z</time></trkpt><trkpt lat="43.6634505" lon="12.5601069"><ele>456.5</ele><time>2026-03-22T09:52:25.513Z</time></trkpt><trkpt lat="43.6635494" lon="12.5600528"><ele>458.0</ele><time>2026-03-22T09:52:26.514Z</time></trkpt><trkpt lat="43.6636323" lon="12.559993"><ele>458.0</ele><time>2026-03-22T09:52:27.512Z</time></trkpt><trkpt lat="43.6637057" lon="12.559912"><ele>457.99999999999994</ele><time>2026-03-22T09:52:28.513Z</time></trkpt><trkpt lat="43.6637638" lon="12.559808"><ele>457.99999999999994</ele><time>2026-03-22T09:52:29.513Z</time></trkpt><trkpt lat="43.6638122" lon="12.55968"><ele>458.0</ele><time>2026-03-22T09:52:30.512Z</time></trkpt><trkpt lat="43.6638559" lon="12.5595372"><ele>458.0</ele><time>2026-03-22T09:52:31.513Z</time></trkpt><trkpt lat="43.6639068" lon="12.5593853"><ele>461.25</ele><time>2026-03-22T09:52:32.513Z</time></trkpt><trkpt lat="43.6639618" lon="12.5592345"><ele>464.5</ele><time>2026-03-22T09:52:33.512Z</time></trkpt><trkpt lat="43.6640129" lon="12.5590764"><ele>467.75</ele><time>2026-03-22T09:52:34.513Z</time></trkpt><trkpt lat="43.6640605" lon="12.5589126"><ele>471.0</ele><time>2026-03-22T09:52:35.512Z</time></trkpt><trkpt lat="43.6641156" lon="12.5587475"><ele>471.5</ele><time>2026-03-22T09:52:36.513Z</time></trkpt><trkpt lat="43.664183" lon="12.558587"><ele>472.0</ele><time>2026-03-22T09:52:37.512Z</time></trkpt><trkpt lat="43.6642568" lon="12.5584236"><ele>472.5</ele><time>2026-03-22T09:52:38.512Z</time></trkpt><trkpt lat="43.664343" lon="12.5582583"><ele>473.0</ele><time>2026-03-22T09:52:39.512Z</time></trkpt><trkpt lat="43.6644385" lon="12.5580933"><ele>479.66666666666663</ele><time>2026-03-22T09:52:40.513Z</time></trkpt><trkpt lat="43.6645344" lon="12.5579279"><ele>486.33333333333337</ele><time>2026-03-22T09:52:41.513Z</time></trkpt><trkpt lat="43.6646349" lon="12.5577684"><ele>493.0</ele><time>2026-03-22T09:52:42.512Z</time></trkpt><trkpt lat="43.6647416" lon="12.5576133"><ele>493.0</ele><time>2026-03-22T09:52:43.514Z</time></trkpt><trkpt lat="43.6648475" lon="12.5574562"><ele>493.0</ele><time>2026-03-22T09:52:44.512Z</time></trkpt><trkpt lat="43.66493" lon="12.5573303"><ele>493.0</ele><time>2026-03-22T09:52:45.514Z</time></trkpt><trkpt lat="43.6650114" lon="12.5572138"><ele>493.0</ele><time>2026-03-22T09:52:46.513Z</time></trkpt><trkpt lat="43.6650843" lon="12.5571044"><ele>491.0</ele><time>2026-03-22T09:52:47.512Z</time></trkpt><trkpt lat="43.6651548" lon="12.5569868"><ele>489.0</ele><time>2026-03-22T09:52:48.513Z</time></trkpt><trkpt lat="43.6652288" lon="12.55685"><ele>487.0</ele><time>2026-03-22T09:52:49.513Z</time></trkpt><trkpt lat="43.6653088" lon="12.5567009"><ele>485.0</ele><time>2026-03-22T09:52:50.513Z</time></trkpt><trkpt lat="43.6653943" lon="12.5565397"><ele>488.75</ele><time>2026-03-22T09:52:51.512Z</time></trkpt><trkpt lat="43.6654754" lon="12.5563553"><ele>492.5</ele><time>2026-03-22T09:52:52.514Z</time></trkpt><trkpt lat="43.665549" lon="12.5561618"><ele>496.25</ele><time>2026-03-22T09:52:53.514Z</time></trkpt><trkpt lat="43.6656075" lon="12.5559961"><ele>500.0</ele><time>2026-03-22T09:52:54.513Z</time></trkpt><trkpt lat="43.6656505" lon="12.5558437"><ele>500.0</ele><time>2026-03-22T09:52:55.514Z</time></trkpt><trkpt lat="43.6656805" lon="12.5557075"><ele>500.0</ele><time>2026-03-22T09:52:56.513Z</time></trkpt><trkpt lat="43.665719" lon="12.5555762"><ele>500.0</ele><time>2026-03-22T09:52:57.513Z</time></trkpt><trkpt lat="43.6657721" lon="12.555445"><ele>500.0</ele><time>2026-03-22T09:52:58.513Z</time></trkpt><trkpt lat="43.6658307" lon="12.5553167"><ele>500.0</ele><time>2026-03-22T09:52:59.513Z</time></trkpt><trkpt lat="43.6658878" lon="12.555199"><ele>498.75</ele><time>2026-03-22T09:53:00.514Z</time></trkpt><trkpt lat="43.6659433" lon="12.5550803"><ele>497.5</ele><time>2026-03-22T09:53:01.513Z</time></trkpt><trkpt lat="43.6660033" lon="12.5549594"><ele>496.25</ele><time>2026-03-22T09:53:02.512Z</time></trkpt><trkpt lat="43.6660754" lon="12.5548312"><ele>495.0</ele><time>2026-03-22T09:53:03.513Z</time></trkpt><trkpt lat="43.6661605" lon="12.5546774"><ele>496.0</ele><time>2026-03-22T09:53:04.513Z</time></trkpt><trkpt lat="43.6662488" lon="12.5545176"><ele>497.0</ele><time>2026-03-22T09:53:05.514Z</time></trkpt><trkpt lat="43.666325" lon="12.55439"><ele>498.0</ele><time>2026-03-22T09:53:06.513Z</time></trkpt><trkpt lat="43.6663939" lon="12.5542802"><ele>499.0</ele><time>2026-03-22T09:53:07.513Z</time></trkpt><trkpt lat="43.6664506" lon="12.5541906"><ele>499.00000000000006</ele><time>2026-03-22T09:53:08.513Z</time></trkpt><trkpt lat="43.6664959" lon="12.5541026"><ele>499.0</ele><time>2026-03-22T09:53:09.513Z</time></trkpt><trkpt lat="43.6665246" lon="12.5540087"><ele>499.0</ele><time>2026-03-22T09:53:10.512Z</time></trkpt><trkpt lat="43.6665467" lon="12.5539118"><ele>499.0</ele><time>2026-03-22T09:53:11.513Z</time></trkpt><trkpt lat="43.6665671" lon="12.5537955"><ele>499.00000000000006</ele><time>2026-03-22T09:53:12.513Z</time></trkpt><trkpt lat="43.6665888" lon="12.5536757"><ele>499.0</ele><time>2026-03-22T09:53:13.513Z</time></trkpt><trkpt lat="43.6666156" lon="12.553564"><ele>499.1666666666667</ele><time>2026-03-22T09:53:14.512Z</time></trkpt><trkpt lat="43.6666466" lon="12.5534564"><ele>499.33333333333337</ele><time>2026-03-22T09:53:15.512Z</time></trkpt><trkpt lat="43.6666906" lon="12.5533694"><ele>499.5</ele><time>2026-03-22T09:53:16.513Z</time></trkpt><trkpt lat="43.6667389" lon="12.5533058"><ele>499.66666666666663</ele><time>2026-03-22T09:53:17.513Z</time></trkpt><trkpt lat="43.6668068" lon="12.5532547"><ele>499.8333333333333</ele><time>2026-03-22T09:53:18.513Z</time></trkpt><trkpt lat="43.6669033" lon="12.5532049"><ele>500.0</ele><time>2026-03-22T09:53:19.512Z</time></trkpt><trkpt lat="43.6670122" lon="12.5531592"><ele>499.99999999999994</ele><time>2026-03-22T09:53:20.513Z</time></trkpt><trkpt lat="43.6670937" lon="12.5531279"><ele>500.0</ele><time>2026-03-22T09:53:21.513Z</time></trkpt><trkpt lat="43.6671594" lon="12.5531007"><ele>500.0</ele><time>2026-03-22T09:53:22.513Z</time></trkpt><trkpt lat="43.6672182" lon="12.5530696"><ele>500.0</ele><time>2026-03-22T09:53:23.513Z</time></trkpt><trkpt lat="43.6672953" lon="12.5530393"><ele>499.99999999999994</ele><time>2026-03-22T09:53:24.514Z</time></trkpt><trkpt lat="43.6673964" lon="12.5530206"><ele>500.0</ele><time>2026-03-22T09:53:25.512Z</time></trkpt><trkpt lat="43.6675294" lon="12.5530139"><ele>500.0</ele><time>2026-03-22T09:53:26.513Z</time></trkpt><trkpt lat="43.6676987" lon="12.5530136"><ele>500.0</ele><time>2026-03-22T09:53:27.513Z</time></trkpt><trkpt lat="43.6678924" lon="12.5530135"><ele>500.0</ele><time>2026-03-22T09:53:28.512Z</time></trkpt><trkpt lat="43.6680553" lon="12.5530156"><ele>500.0</ele><time>2026-03-22T09:53:29.513Z</time></trkpt><trkpt lat="43.6682071" lon="12.5530156"><ele>500.0</ele><time>2026-03-22T09:53:30.513Z</time></trkpt><trkpt lat="43.6683562" lon="12.5530061"><ele>500.0</ele><time>2026-03-22T09:53:31.512Z</time></trkpt><trkpt lat="43.668512" lon="12.552989"><ele>498.5</ele><time>2026-03-22T09:53:32.512Z</time></trkpt><trkpt lat="43.6686657" lon="12.5529621"><ele>497.0</ele><time>2026-03-22T09:53:33.514Z</time></trkpt><trkpt lat="43.6687961" lon="12.5529198"><ele>495.5</ele><time>2026-03-22T09:53:34.514Z</time></trkpt><trkpt lat="43.6689106" lon="12.5528753"><ele>494.0</ele><time>2026-03-22T09:53:35.513Z</time></trkpt><trkpt lat="43.6690134" lon="12.5528415"><ele>494.0</ele><time>2026-03-22T09:53:36.512Z</time></trkpt><trkpt lat="43.6691063" lon="12.5528148"><ele>494.0</ele><time>2026-03-22T09:53:37.513Z</time></trkpt><trkpt lat="43.6691834" lon="12.5528022"><ele>494.0</ele><time>2026-03-22T09:53:38.513Z</time></trkpt><trkpt lat="43.6692792" lon="12.5528083"><ele>494.0</ele><time>2026-03-22T09:53:40.512Z</time></trkpt><trkpt lat="43.6693245" lon="12.5528958"><ele>494.0</ele><time>2026-03-22T09:53:42.513Z</time></trkpt><trkpt lat="43.6693504" lon="12.5530516"><ele>494.0</ele><time>2026-03-22T09:53:44.513Z</time></trkpt><trkpt lat="43.6694139" lon="12.5531216"><ele>494.0</ele><time>2026-03-22T09:53:46.513Z</time></trkpt><trkpt lat="43.6695558" lon="12.5531485"><ele>494.0</ele><time>2026-03-22T09:53:48.512Z</time></trkpt><trkpt lat="43.6696533" lon="12.5531652"><ele>494.0</ele><time>2026-03-22T09:53:49.513Z</time></trkpt><trkpt lat="43.6697625" lon="12.553184"><ele>494.0</ele><time>2026-03-22T09:53:50.512Z</time></trkpt><trkpt lat="43.6698681" lon="12.5532093"><ele>490.2</ele><time>2026-03-22T09:53:51.512Z</time></trkpt><trkpt lat="43.6699738" lon="12.5532337"><ele>486.4</ele><time>2026-03-22T09:53:52.513Z</time></trkpt><trkpt lat="43.6700795" lon="12.5532511"><ele>482.6</ele><time>2026-03-22T09:53:53.513Z</time></trkpt><trkpt lat="43.6701839" lon="12.5532673"><ele>478.8</ele><time>2026-03-22T09:53:54.513Z</time></trkpt><trkpt lat="43.6702827" lon="12.5532826"><ele>475.0</ele><time>2026-03-22T09:53:55.513Z</time></trkpt><trkpt lat="43.670378" lon="12.553301"><ele>472.6666666666667</ele><time>2026-03-22T09:53:56.513Z</time></trkpt><trkpt lat="43.6704653" lon="12.5533227"><ele>470.33333333333337</ele><time>2026-03-22T09:53:57.512Z</time></trkpt><trkpt lat="43.6705475" lon="12.5533437"><ele>468.0</ele><time>2026-03-22T09:53:58.513Z</time></trkpt><trkpt lat="43.6706285" lon="12.5533558"><ele>465.66666666666663</ele><time>2026-03-22T09:53:59.512Z</time></trkpt><trkpt lat="43.6707047" lon="12.5533546"><ele>463.3333333333333</ele><time>2026-03-22T09:54:00.513Z</time></trkpt><trkpt lat="43.6707794" lon="12.5533297"><ele>461.0</ele><time>2026-03-22T09:54:01.513Z</time></trkpt><trkpt lat="43.6708641" lon="12.5532723"><ele>461.0</ele><time>2026-03-22T09:54:02.512Z</time></trkpt><trkpt lat="43.6709654" lon="12.5531919"><ele>461.0</ele><time>2026-03-22T09:54:03.512Z</time></trkpt><trkpt lat="43.6710837" lon="12.5530942"><ele>461.0</ele><time>2026-03-22T09:54:04.512Z</time></trkpt><trkpt lat="43.6711996" lon="12.553009"><ele>461.0</ele><time>2026-03-22T09:54:05.514Z</time></trkpt><trkpt lat="43.6713146" lon="12.5529362"><ele>462.4</ele><time>2026-03-22T09:54:06.514Z</time></trkpt><trkpt lat="43.6714267" lon="12.552877"><ele>463.8</ele><time>2026-03-22T09:54:07.512Z</time></trkpt><trkpt lat="43.6715356" lon="12.5528345"><ele>465.19999999999993</ele><time>2026-03-22T09:54:08.512Z</time></trkpt><trkpt lat="43.6716257" lon="12.5528047"><ele>466.59999999999997</ele><time>2026-03-22T09:54:09.512Z</time></trkpt><trkpt lat="43.6717022" lon="12.5527871"><ele>468.0</ele><time>2026-03-22T09:54:10.513Z</time></trkpt><trkpt lat="43.6717715" lon="12.552776"><ele>468.0</ele><time>2026-03-22T09:54:11.513Z</time></trkpt><trkpt lat="43.6718427" lon="12.5527702"><ele>468.0</ele><time>2026-03-22T09:54:12.513Z</time></trkpt><trkpt lat="43.6719222" lon="12.5527901"><ele>468.0</ele><time>2026-03-22T09:54:13.513Z</time></trkpt><trkpt lat="43.672009" lon="12.5528449"><ele>468.0</ele><time>2026-03-22T09:54:14.513Z</time></trkpt><trkpt lat="43.6721009" lon="12.5529063"><ele>468.0</ele><time>2026-03-22T09:54:15.512Z</time></trkpt><trkpt lat="43.6721858" lon="12.5529481"><ele>468.0</ele><time>2026-03-22T09:54:16.513Z</time></trkpt><trkpt lat="43.6722693" lon="12.5529628"><ele>466.2</ele><time>2026-03-22T09:54:17.512Z</time></trkpt><trkpt lat="43.6723395" lon="12.5529467"><ele>464.4</ele><time>2026-03-22T09:54:18.514Z</time></trkpt><trkpt lat="43.6724044" lon="12.5529012"><ele>462.59999999999997</ele><time>2026-03-22T09:54:19.512Z</time></trkpt><trkpt lat="43.6724745" lon="12.5528226"><ele>460.79999999999995</ele><time>2026-03-22T09:54:20.514Z</time></trkpt><trkpt lat="43.6725531" lon="12.5527139"><ele>459.0</ele><time>2026-03-22T09:54:21.514Z</time></trkpt><trkpt lat="43.6726448" lon="12.5525902"><ele>459.0</ele><time>2026-03-22T09:54:22.512Z</time></trkpt><trkpt lat="43.672726" lon="12.5524886"><ele>459.0</ele><time>2026-03-22T09:54:23.513Z</time></trkpt><trkpt lat="43.6728047" lon="12.5524026"><ele>459.0</ele><time>2026-03-22T09:54:24.513Z</time></trkpt><trkpt lat="43.6728714" lon="12.5523282"><ele>459.0</ele><time>2026-03-22T09:54:25.513Z</time></trkpt><trkpt lat="43.6729204" lon="12.5522401"><ele>459.0</ele><time>2026-03-22T09:54:26.513Z</time></trkpt><trkpt lat="43.672957" lon="12.5521334"><ele>459.6</ele><time>2026-03-22T09:54:27.513Z</time></trkpt><trkpt lat="43.672976" lon="12.5520167"><ele>460.2</ele><time>2026-03-22T09:54:28.513Z</time></trkpt><trkpt lat="43.6729956" lon="12.5518969"><ele>460.80000000000007</ele><time>2026-03-22T09:54:29.513Z</time></trkpt><trkpt lat="43.673015" lon="12.5517741"><ele>461.40000000000003</ele><time>2026-03-22T09:54:30.512Z</time></trkpt><trkpt lat="43.6730656" lon="12.5516601"><ele>462.0</ele><time>2026-03-22T09:54:31.513Z</time></trkpt><trkpt lat="43.6731349" lon="12.5515634"><ele>462.0</ele><time>2026-03-22T09:54:32.513Z</time></trkpt><trkpt lat="43.6732243" lon="12.5514957"><ele>462.00000000000006</ele><time>2026-03-22T09:54:33.513Z</time></trkpt><trkpt lat="43.6733309" lon="12.5514449"><ele>462.00000000000006</ele><time>2026-03-22T09:54:34.513Z</time></trkpt><trkpt lat="43.6734367" lon="12.5514113"><ele>462.0</ele><time>2026-03-22T09:54:35.513Z</time></trkpt><trkpt lat="43.6735264" lon="12.5513766"><ele>462.0</ele><time>2026-03-22T09:54:36.514Z</time></trkpt><trkpt lat="43.6736171" lon="12.5513684"><ele>460.0</ele><time>2026-03-22T09:54:37.513Z</time></trkpt><trkpt lat="43.6737058" lon="12.5513664"><ele>458.0</ele><time>2026-03-22T09:54:38.512Z</time></trkpt><trkpt lat="43.6737897" lon="12.5513708"><ele>456.0</ele><time>2026-03-22T09:54:39.513Z</time></trkpt><trkpt lat="43.6738628" lon="12.5513669"><ele>454.0</ele><time>2026-03-22T09:54:40.513Z</time></trkpt><trkpt lat="43.6739278" lon="12.5513441"><ele>452.0</ele><time>2026-03-22T09:54:41.512Z</time></trkpt><trkpt lat="43.6739962" lon="12.5512884"><ele>450.0</ele><time>2026-03-22T09:54:42.512Z</time></trkpt><trkpt lat="43.6740579" lon="12.551211"><ele>451.5</ele><time>2026-03-22T09:54:43.512Z</time></trkpt><trkpt lat="43.6741011" lon="12.5511293"><ele>453.0</ele><time>2026-03-22T09:54:44.514Z</time></trkpt><trkpt lat="43.6741302" lon="12.5510283"><ele>454.5</ele><time>2026-03-22T09:54:45.513Z</time></trkpt><trkpt lat="43.6741364" lon="12.5509099"><ele>456.0</ele><time>2026-03-22T09:54:46.513Z</time></trkpt><trkpt lat="43.6741379" lon="12.5507852"><ele>457.5</ele><time>2026-03-22T09:54:47.512Z</time></trkpt><trkpt lat="43.6741379" lon="12.550663"><ele>459.0</ele><time>2026-03-22T09:54:48.513Z</time></trkpt><trkpt lat="43.67414" lon="12.5505431"><ele>459.0</ele><time>2026-03-22T09:54:49.513Z</time></trkpt><trkpt lat="43.6741526" lon="12.5504359"><ele>459.0</ele><time>2026-03-22T09:54:50.513Z</time></trkpt><trkpt lat="43.674183" lon="12.5503398"><ele>459.0</ele><time>2026-03-22T09:54:51.512Z</time></trkpt><trkpt lat="43.6742376" lon="12.5502522"><ele>459.0</ele><time>2026-03-22T09:54:52.513Z</time></trkpt><trkpt lat="43.674304" lon="12.5501682"><ele>459.0</ele><time>2026-03-22T09:54:53.514Z</time></trkpt><trkpt lat="43.6743702" lon="12.5500999"><ele>459.0</ele><time>2026-03-22T09:54:54.513Z</time></trkpt><trkpt lat="43.6744371" lon="12.5500425"><ele>456.3333333333333</ele><time>2026-03-22T09:54:55.512Z</time></trkpt><trkpt lat="43.6745093" lon="12.5499879"><ele>453.66666666666663</ele><time>2026-03-22T09:54:56.513Z</time></trkpt><trkpt lat="43.6745842" lon="12.5499401"><ele>451.0</ele><time>2026-03-22T09:54:57.512Z</time></trkpt><trkpt lat="43.6746588" lon="12.5498839"><ele>448.3333333333333</ele><time>2026-03-22T09:54:58.512Z</time></trkpt><trkpt lat="43.6747355" lon="12.5498344"><ele>445.66666666666663</ele><time>2026-03-22T09:54:59.512Z</time></trkpt><trkpt lat="43.6748101" lon="12.5497808"><ele>443.0</ele><time>2026-03-22T09:55:00.513Z</time></trkpt><trkpt lat="43.6748785" lon="12.5497303"><ele>442.99999999999994</ele><time>2026-03-22T09:55:01.512Z</time></trkpt><trkpt lat="43.6749411" lon="12.5496883"><ele>443.0</ele><time>2026-03-22T09:55:02.513Z</time></trkpt><trkpt lat="43.6749975" lon="12.5496472"><ele>443.0</ele><time>2026-03-22T09:55:03.513Z</time></trkpt><trkpt lat="43.6750907" lon="12.549585"><ele>443.0</ele><time>2026-03-22T09:55:05.514Z</time></trkpt><trkpt lat="43.6751491" lon="12.5495507"><ele>442.99999999999994</ele><time>2026-03-22T09:55:07.512Z</time></trkpt><trkpt lat="43.6752284" lon="12.5494958"><ele>443.0</ele><time>2026-03-22T09:55:10.512Z</time></trkpt><trkpt lat="43.6752873" lon="12.5494442"><ele>441.0</ele><time>2026-03-22T09:55:13.513Z</time></trkpt><trkpt lat="43.6753497" lon="12.5493866"><ele>438.99999999999994</ele><time>2026-03-22T09:55:17.513Z</time></trkpt><trkpt lat="43.6753788" lon="12.5492867"><ele>436.99999999999994</ele><time>2026-03-22T09:55:19.514Z</time></trkpt><trkpt lat="43.6753667" lon="12.5491482"><ele>435.0</ele><time>2026-03-22T09:55:21.513Z</time></trkpt><trkpt lat="43.675326" lon="12.5489847"><ele>433.0</ele><time>2026-03-22T09:55:23.513Z</time></trkpt><trkpt lat="43.6752671" lon="12.548862"><ele>437.0</ele><time>2026-03-22T09:55:25.512Z</time></trkpt><trkpt lat="43.6752117" lon="12.5487608"><ele>440.99999999999994</ele><time>2026-03-22T09:55:27.512Z</time></trkpt><trkpt lat="43.6751447" lon="12.5486559"><ele>444.99999999999994</ele><time>2026-03-22T09:55:29.513Z</time></trkpt><trkpt lat="43.6750738" lon="12.5485042"><ele>449.0</ele><time>2026-03-22T09:55:31.512Z</time></trkpt><trkpt lat="43.6750396" lon="12.5484309"><ele>453.0</ele><time>2026-03-22T09:55:32.512Z</time></trkpt><trkpt lat="43.6750123" lon="12.5483511"><ele>453.4</ele><time>2026-03-22T09:55:33.512Z</time></trkpt><trkpt lat="43.6749939" lon="12.548264"><ele>453.79999999999995</ele><time>2026-03-22T09:55:34.512Z</time></trkpt><trkpt lat="43.6749947" lon="12.5481075"><ele>454.2</ele><time>2026-03-22T09:55:36.512Z</time></trkpt><trkpt lat="43.6749971" lon="12.5479381"><ele>454.6</ele><time>2026-03-22T09:55:38.513Z</time></trkpt><trkpt lat="43.674995" lon="12.547774"><ele>455.0</ele><time>2026-03-22T09:55:40.513Z</time></trkpt><trkpt lat="43.6750614" lon="12.5476319"><ele>454.99999999999994</ele><time>2026-03-22T09:55:42.514Z</time></trkpt><trkpt lat="43.6751133" lon="12.5475692"><ele>455.0</ele><time>2026-03-22T09:55:43.513Z</time></trkpt><trkpt lat="43.6751802" lon="12.547503"><ele>455.0</ele><time>2026-03-22T09:55:44.512Z</time></trkpt><trkpt lat="43.6752379" lon="12.547428"><ele>455.0</ele><time>2026-03-22T09:55:45.514Z</time></trkpt><trkpt lat="43.6752704" lon="12.5473427"><ele>454.99999999999994</ele><time>2026-03-22T09:55:46.513Z</time></trkpt><trkpt lat="43.6752884" lon="12.547238"><ele>455.0</ele><time>2026-03-22T09:55:47.512Z</time></trkpt><trkpt lat="43.6752958" lon="12.5471092"><ele>453.0</ele><time>2026-03-22T09:55:48.513Z</time></trkpt><trkpt lat="43.6752976" lon="12.5469499"><ele>451.0</ele><time>2026-03-22T09:55:49.514Z</time></trkpt><trkpt lat="43.6753024" lon="12.5468038"><ele>449.0</ele><time>2026-03-22T09:55:50.513Z</time></trkpt><trkpt lat="43.6753263" lon="12.5466677"><ele>447.0</ele><time>2026-03-22T09:55:51.513Z</time></trkpt><trkpt lat="43.675379" lon="12.5465183"><ele>445.0</ele><time>2026-03-22T09:55:52.513Z</time></trkpt><trkpt lat="43.6754392" lon="12.5463468"><ele>448.0</ele><time>2026-03-22T09:55:53.512Z</time></trkpt><trkpt lat="43.6754899" lon="12.5461617"><ele>451.0</ele><time>2026-03-22T09:55:54.513Z</time></trkpt><trkpt lat="43.6755557" lon="12.5459464"><ele>454.0</ele><time>2026-03-22T09:55:55.514Z</time></trkpt><trkpt lat="43.6756147" lon="12.5457922"><ele>457.0</ele><time>2026-03-22T09:55:56.513Z</time></trkpt><trkpt lat="43.6756778" lon="12.5456699"><ele>457.00000000000006</ele><time>2026-03-22T09:55:57.513Z</time></trkpt><trkpt lat="43.6757611" lon="12.5455612"><ele>457.0</ele><time>2026-03-22T09:55:58.514Z</time></trkpt><trkpt lat="43.6758378" lon="12.5454904"><ele>457.0</ele><time>2026-03-22T09:55:59.513Z</time></trkpt><trkpt lat="43.6759044" lon="12.5454228"><ele>457.0</ele><time>2026-03-22T09:56:00.512Z</time></trkpt><trkpt lat="43.6759611" lon="12.5453492"><ele>457.00000000000006</ele><time>2026-03-22T09:56:01.512Z</time></trkpt><trkpt lat="43.6760081" lon="12.5452572"><ele>457.0</ele><time>2026-03-22T09:56:02.513Z</time></trkpt><trkpt lat="43.6760415" lon="12.5451378"><ele>459.25</ele><time>2026-03-22T09:56:03.513Z</time></trkpt><trkpt lat="43.6760668" lon="12.5449837"><ele>461.5</ele><time>2026-03-22T09:56:04.513Z</time></trkpt><trkpt lat="43.676092" lon="12.544786"><ele>463.75</ele><time>2026-03-22T09:56:05.513Z</time></trkpt><trkpt lat="43.6761218" lon="12.5445977"><ele>466.0</ele><time>2026-03-22T09:56:06.514Z</time></trkpt><trkpt lat="43.6761548" lon="12.5444179"><ele>460.8</ele><time>2026-03-22T09:56:07.513Z</time></trkpt><trkpt lat="43.6761926" lon="12.5442561"><ele>455.6</ele><time>2026-03-22T09:56:08.512Z</time></trkpt><trkpt lat="43.6762294" lon="12.5441118"><ele>450.4</ele><time>2026-03-22T09:56:09.514Z</time></trkpt><trkpt lat="43.6762625" lon="12.5439832"><ele>445.2</ele><time>2026-03-22T09:56:10.513Z</time></trkpt><trkpt lat="43.676296" lon="12.5438665"><ele>440.0</ele><time>2026-03-22T09:56:11.513Z</time></trkpt><trkpt lat="43.6763275" lon="12.5437588"><ele>439.3333333333333</ele><time>2026-03-22T09:56:12.513Z</time></trkpt><trkpt lat="43.6763527" lon="12.5436587"><ele>438.66666666666663</ele><time>2026-03-22T09:56:13.513Z</time></trkpt><trkpt lat="43.6763717" lon="12.543565"><ele>438.0</ele><time>2026-03-22T09:56:14.514Z</time></trkpt><trkpt lat="43.6763866" lon="12.543478"><ele>437.33333333333337</ele><time>2026-03-22T09:56:15.512Z</time></trkpt><trkpt lat="43.6764059" lon="12.5433399"><ele>436.6666666666667</ele><time>2026-03-22T09:56:17.512Z</time></trkpt><trkpt lat="43.676459" lon="12.5432779"><ele>436.0</ele><time>2026-03-22T09:56:19.514Z</time></trkpt><trkpt lat="43.6765242" lon="12.543331"><ele>436.0</ele><time>2026-03-22T09:56:21.512Z</time></trkpt><trkpt lat="43.6765588" lon="12.5435012"><ele>436.0</ele><time>2026-03-22T09:56:23.513Z</time></trkpt><trkpt lat="43.6765676" lon="12.543625"><ele>436.0</ele><time>2026-03-22T09:56:24.513Z</time></trkpt><trkpt lat="43.6765753" lon="12.543776"><ele>436.0</ele><time>2026-03-22T09:56:25.512Z</time></trkpt><trkpt lat="43.6765918" lon="12.5439482"><ele>437.0</ele><time>2026-03-22T09:56:26.512Z</time></trkpt><trkpt lat="43.6766237" lon="12.5441409"><ele>438.0</ele><time>2026-03-22T09:56:27.513Z</time></trkpt><trkpt lat="43.676654" lon="12.5443113"><ele>439.0</ele><time>2026-03-22T09:56:28.513Z</time></trkpt><trkpt lat="43.6766815" lon="12.5444759"><ele>440.0</ele><time>2026-03-22T09:56:29.512Z</time></trkpt><trkpt lat="43.6767147" lon="12.5446293"><ele>440.6</ele><time>2026-03-22T09:56:30.513Z</time></trkpt><trkpt lat="43.6767496" lon="12.5447782"><ele>441.2</ele><time>2026-03-22T09:56:31.512Z</time></trkpt><trkpt lat="43.6767862" lon="12.5449176"><ele>441.79999999999995</ele><time>2026-03-22T09:56:32.514Z</time></trkpt><trkpt lat="43.6768285" lon="12.5450483"><ele>442.4</ele><time>2026-03-22T09:56:33.513Z</time></trkpt><trkpt lat="43.6768759" lon="12.5451741"><ele>443.0</ele><time>2026-03-22T09:56:34.513Z</time></trkpt><trkpt lat="43.6769262" lon="12.5452907"><ele>439.8333333333333</ele><time>2026-03-22T09:56:35.513Z</time></trkpt><trkpt lat="43.6769824" lon="12.545392"><ele>436.66666666666663</ele><time>2026-03-22T09:56:36.513Z</time></trkpt><trkpt lat="43.6770485" lon="12.5454827"><ele>433.5</ele><time>2026-03-22T09:56:37.513Z</time></trkpt><trkpt lat="43.6771119" lon="12.5455412"><ele>430.33333333333337</ele><time>2026-03-22T09:56:38.513Z</time></trkpt><trkpt lat="43.6771673" lon="12.5455872"><ele>427.1666666666667</ele><time>2026-03-22T09:56:39.512Z</time></trkpt><trkpt lat="43.6772652" lon="12.5455705"><ele>424.0</ele><time>2026-03-22T09:56:41.513Z</time></trkpt><trkpt lat="43.6773115" lon="12.545499"><ele>423.6</ele><time>2026-03-22T09:56:42.513Z</time></trkpt><trkpt lat="43.677363" lon="12.5453721"><ele>423.2</ele><time>2026-03-22T09:56:43.512Z</time></trkpt><trkpt lat="43.6774123" lon="12.5452044"><ele>422.8</ele><time>2026-03-22T09:56:44.513Z</time></trkpt><trkpt lat="43.6774521" lon="12.5450682"><ele>422.40000000000003</ele><time>2026-03-22T09:56:45.513Z</time></trkpt><trkpt lat="43.67749" lon="12.5449362"><ele>422.0</ele><time>2026-03-22T09:56:46.513Z</time></trkpt><trkpt lat="43.6775258" lon="12.5448189"><ele>422.0</ele><time>2026-03-22T09:56:47.512Z</time></trkpt><trkpt lat="43.677562" lon="12.5447217"><ele>422.0</ele><time>2026-03-22T09:56:48.513Z</time></trkpt><trkpt lat="43.677611" lon="12.5446354"><ele>422.0</ele><time>2026-03-22T09:56:49.513Z</time></trkpt><trkpt lat="43.6776868" lon="12.5445642"><ele>422.0</ele><time>2026-03-22T09:56:50.513Z</time></trkpt><trkpt lat="43.6777881" lon="12.5445018"><ele>422.0</ele><time>2026-03-22T09:56:51.514Z</time></trkpt><trkpt lat="43.6779113" lon="12.5444339"><ele>419.25</ele><time>2026-03-22T09:56:52.512Z</time></trkpt><trkpt lat="43.6780503" lon="12.5443635"><ele>416.5</ele><time>2026-03-22T09:56:53.512Z</time></trkpt><trkpt lat="43.6781814" lon="12.5443078"><ele>413.75</ele><time>2026-03-22T09:56:54.513Z</time></trkpt><trkpt lat="43.6783095" lon="12.5442747"><ele>411.0</ele><time>2026-03-22T09:56:55.513Z</time></trkpt><trkpt lat="43.678454" lon="12.5442649"><ele>409.66666666666663</ele><time>2026-03-22T09:56:56.512Z</time></trkpt><trkpt lat="43.6786076" lon="12.5442846"><ele>408.3333333333333</ele><time>2026-03-22T09:56:57.514Z</time></trkpt><trkpt lat="43.6787748" lon="12.5443368"><ele>407.0</ele><time>2026-03-22T09:56:58.512Z</time></trkpt><trkpt lat="43.6789307" lon="12.5444018"><ele>407.0</ele><time>2026-03-22T09:56:59.513Z</time></trkpt><trkpt lat="43.6790732" lon="12.5444626"><ele>407.0</ele><time>2026-03-22T09:57:00.512Z</time></trkpt><trkpt lat="43.6791998" lon="12.544525"><ele>407.0</ele><time>2026-03-22T09:57:01.513Z</time></trkpt><trkpt lat="43.6793094" lon="12.5445849"><ele>407.0</ele><time>2026-03-22T09:57:02.513Z</time></trkpt><trkpt lat="43.6794106" lon="12.5446365"><ele>408.8</ele><time>2026-03-22T09:57:03.512Z</time></trkpt><trkpt lat="43.6795144" lon="12.5446712"><ele>410.6</ele><time>2026-03-22T09:57:04.514Z</time></trkpt><trkpt lat="43.679609" lon="12.5446862"><ele>412.40000000000003</ele><time>2026-03-22T09:57:05.512Z</time></trkpt><trkpt lat="43.6797112" lon="12.5446641"><ele>414.20000000000005</ele><time>2026-03-22T09:57:06.512Z</time></trkpt><trkpt lat="43.6798212" lon="12.5446267"><ele>416.0</ele><time>2026-03-22T09:57:07.513Z</time></trkpt><trkpt lat="43.6799245" lon="12.5446178"><ele>416.0</ele><time>2026-03-22T09:57:08.513Z</time></trkpt><trkpt lat="43.6800425" lon="12.5446342"><ele>416.0</ele><time>2026-03-22T09:57:09.512Z</time></trkpt><trkpt lat="43.6801583" lon="12.5446738"><ele>416.0</ele><time>2026-03-22T09:57:10.514Z</time></trkpt><trkpt lat="43.6802525" lon="12.5446958"><ele>416.0</ele><time>2026-03-22T09:57:11.513Z</time></trkpt><trkpt lat="43.6803485" lon="12.544683"><ele>416.0</ele><time>2026-03-22T09:57:12.513Z</time></trkpt><trkpt lat="43.680464" lon="12.5446388"><ele>415.0</ele><time>2026-03-22T09:57:13.513Z</time></trkpt><trkpt lat="43.6806036" lon="12.5445739"><ele>414.0</ele><time>2026-03-22T09:57:14.512Z</time></trkpt><trkpt lat="43.6807792" lon="12.5445058"><ele>413.0</ele><time>2026-03-22T09:57:15.513Z</time></trkpt><trkpt lat="43.6809759" lon="12.5444296"><ele>415.66666666666663</ele><time>2026-03-22T09:57:16.514Z</time></trkpt><trkpt lat="43.6811421" lon="12.5443649"><ele>418.33333333333337</ele><time>2026-03-22T09:57:17.513Z</time></trkpt><trkpt lat="43.681296" lon="12.5443089"><ele>421.0</ele><time>2026-03-22T09:57:18.513Z</time></trkpt><trkpt lat="43.6814244" lon="12.5442534"><ele>421.0</ele><time>2026-03-22T09:57:19.512Z</time></trkpt><trkpt lat="43.681545" lon="12.544189"><ele>421.0</ele><time>2026-03-22T09:57:20.512Z</time></trkpt><trkpt lat="43.6816805" lon="12.5441039"><ele>421.0</ele><time>2026-03-22T09:57:21.512Z</time></trkpt><trkpt lat="43.6818316" lon="12.5440047"><ele>421.0</ele><time>2026-03-22T09:57:22.514Z</time></trkpt><trkpt lat="43.6819948" lon="12.5439048"><ele>421.33333333333337</ele><time>2026-03-22T09:57:23.512Z</time></trkpt><trkpt lat="43.6821567" lon="12.5438078"><ele>421.66666666666663</ele><time>2026-03-22T09:57:24.512Z</time></trkpt><trkpt lat="43.6823019" lon="12.5437208"><ele>422.0</ele><time>2026-03-22T09:57:25.514Z</time></trkpt><trkpt lat="43.682436" lon="12.5436362"><ele>422.0</ele><time>2026-03-22T09:57:26.512Z</time></trkpt><trkpt lat="43.6825633" lon="12.5435602"><ele>422.0</ele><time>2026-03-22T09:57:27.513Z</time></trkpt><trkpt lat="43.6826936" lon="12.543475"><ele>422.0</ele><time>2026-03-22T09:57:28.512Z</time></trkpt><trkpt lat="43.6828272" lon="12.543387"><ele>422.0</ele><time>2026-03-22T09:57:29.514Z</time></trkpt><trkpt lat="43.6829618" lon="12.5433079"><ele>423.75</ele><time>2026-03-22T09:57:30.513Z</time></trkpt><trkpt lat="43.6830982" lon="12.5432347"><ele>425.5</ele><time>2026-03-22T09:57:31.512Z</time></trkpt><trkpt lat="43.683228" lon="12.543177"><ele>427.25</ele><time>2026-03-22T09:57:32.513Z</time></trkpt><trkpt lat="43.6833568" lon="12.5431313"><ele>429.0</ele><time>2026-03-22T09:57:33.512Z</time></trkpt><trkpt lat="43.683483" lon="12.5430731"><ele>428.75</ele><time>2026-03-22T09:57:34.513Z</time></trkpt><trkpt lat="43.6836101" lon="12.5430069"><ele>428.5</ele><time>2026-03-22T09:57:35.513Z</time></trkpt><trkpt lat="43.6837199" lon="12.5429465"><ele>428.25</ele><time>2026-03-22T09:57:36.512Z</time></trkpt><trkpt lat="43.6838187" lon="12.5428802"><ele>428.0</ele><time>2026-03-22T09:57:37.513Z</time></trkpt><trkpt lat="43.6839117" lon="12.5427973"><ele>431.75</ele><time>2026-03-22T09:57:38.512Z</time></trkpt><trkpt lat="43.6840054" lon="12.5426993"><ele>435.5</ele><time>2026-03-22T09:57:39.514Z</time></trkpt><trkpt lat="43.6841028" lon="12.5425946"><ele>439.25</ele><time>2026-03-22T09:57:40.514Z</time></trkpt><trkpt lat="43.6842056" lon="12.5424784"><ele>443.0</ele><time>2026-03-22T09:57:41.512Z</time></trkpt><trkpt lat="43.6843125" lon="12.5423618"><ele>443.0</ele><time>2026-03-22T09:57:42.512Z</time></trkpt><trkpt lat="43.6844046" lon="12.5422569"><ele>442.99999999999994</ele><time>2026-03-22T09:57:43.512Z</time></trkpt><trkpt lat="43.684485" lon="12.5421618"><ele>442.99999999999994</ele><time>2026-03-22T09:57:44.513Z</time></trkpt><trkpt lat="43.6845639" lon="12.5420676"><ele>443.0</ele><time>2026-03-22T09:57:45.513Z</time></trkpt><trkpt lat="43.684643" lon="12.5419742"><ele>443.0</ele><time>2026-03-22T09:57:46.513Z</time></trkpt><trkpt lat="43.6847156" lon="12.5418759"><ele>443.16666666666663</ele><time>2026-03-22T09:57:47.513Z</time></trkpt><trkpt lat="43.6847793" lon="12.5417648"><ele>443.3333333333333</ele><time>2026-03-22T09:57:48.514Z</time></trkpt><trkpt lat="43.6848365" lon="12.541661"><ele>443.5</ele><time>2026-03-22T09:57:49.513Z</time></trkpt><trkpt lat="43.68488" lon="12.541586"><ele>443.66666666666663</ele><time>2026-03-22T09:57:50.514Z</time></trkpt><trkpt lat="43.6849309" lon="12.5414934"><ele>443.8333333333333</ele><time>2026-03-22T09:57:52.512Z</time></trkpt><trkpt lat="43.6850062" lon="12.5414937"><ele>444.0</ele><time>2026-03-22T09:57:55.513Z</time></trkpt><trkpt lat="43.6851287" lon="12.5415711"><ele>444.0</ele><time>2026-03-22T09:57:57.512Z</time></trkpt><trkpt lat="43.6852252" lon="12.54161"><ele>444.0</ele><time>2026-03-22T09:57:58.511Z</time></trkpt><trkpt lat="43.6853429" lon="12.5416549"><ele>444.0</ele><time>2026-03-22T09:57:59.511Z</time></trkpt><trkpt lat="43.6854888" lon="12.5417084"><ele>444.0</ele><time>2026-03-22T09:58:00.511Z</time></trkpt><trkpt lat="43.6856586" lon="12.5417708"><ele>443.66666666666663</ele><time>2026-03-22T09:58:01.512Z</time></trkpt><trkpt lat="43.6858366" lon="12.5418395"><ele>443.3333333333333</ele><time>2026-03-22T09:58:02.511Z</time></trkpt><trkpt lat="43.6860071" lon="12.5419102"><ele>443.0</ele><time>2026-03-22T09:58:03.511Z</time></trkpt><trkpt lat="43.6861606" lon="12.5419849"><ele>443.66666666666663</ele><time>2026-03-22T09:58:04.511Z</time></trkpt><trkpt lat="43.6863007" lon="12.5420957"><ele>444.33333333333337</ele><time>2026-03-22T09:58:05.511Z</time></trkpt><trkpt lat="43.6864359" lon="12.5422353"><ele>445.0</ele><time>2026-03-22T09:58:06.511Z</time></trkpt><trkpt lat="43.6865586" lon="12.5423679"><ele>445.0</ele><time>2026-03-22T09:58:07.513Z</time></trkpt><trkpt lat="43.6866699" lon="12.5424964"><ele>445.0</ele><time>2026-03-22T09:58:08.511Z</time></trkpt><trkpt lat="43.686775" lon="12.5426178"><ele>445.0</ele><time>2026-03-22T09:58:09.512Z</time></trkpt><trkpt lat="43.6868757" lon="12.542729"><ele>445.0</ele><time>2026-03-22T09:58:10.513Z</time></trkpt><trkpt lat="43.686969" lon="12.5428205"><ele>445.25</ele><time>2026-03-22T09:58:11.511Z</time></trkpt><trkpt lat="43.6870623" lon="12.5428912"><ele>445.5</ele><time>2026-03-22T09:58:12.512Z</time></trkpt><trkpt lat="43.6871744" lon="12.5429305"><ele>445.75</ele><time>2026-03-22T09:58:13.511Z</time></trkpt><trkpt lat="43.6873031" lon="12.5429275"><ele>446.0</ele><time>2026-03-22T09:58:14.512Z</time></trkpt><trkpt lat="43.6874508" lon="12.5428734"><ele>446.0</ele><time>2026-03-22T09:58:15.512Z</time></trkpt><trkpt lat="43.6876118" lon="12.5427929"><ele>446.0</ele><time>2026-03-22T09:58:16.511Z</time></trkpt><trkpt lat="43.6877573" lon="12.5427282"><ele>446.0</ele><time>2026-03-22T09:58:17.511Z</time></trkpt><trkpt lat="43.6879093" lon="12.5426936"><ele>443.3333333333333</ele><time>2026-03-22T09:58:18.511Z</time></trkpt><trkpt lat="43.6880767" lon="12.5427111"><ele>440.66666666666663</ele><time>2026-03-22T09:58:19.512Z</time></trkpt><trkpt lat="43.6882504" lon="12.5427762"><ele>438.0</ele><time>2026-03-22T09:58:20.512Z</time></trkpt><trkpt lat="43.6884457" lon="12.5428688"><ele>434.0</ele><time>2026-03-22T09:58:21.513Z</time></trkpt><trkpt lat="43.6886482" lon="12.5429604"><ele>430.0</ele><time>2026-03-22T09:58:22.511Z</time></trkpt><trkpt lat="43.6888295" lon="12.5430445"><ele>426.0</ele><time>2026-03-22T09:58:23.512Z</time></trkpt><trkpt lat="43.6890032" lon="12.543121"><ele>426.0</ele><time>2026-03-22T09:58:24.513Z</time></trkpt><trkpt lat="43.6891655" lon="12.5431935"><ele>426.0</ele><time>2026-03-22T09:58:25.511Z</time></trkpt><trkpt lat="43.6893166" lon="12.5432715"><ele>426.0</ele><time>2026-03-22T09:58:26.512Z</time></trkpt><trkpt lat="43.6894672" lon="12.5433648"><ele>427.0</ele><time>2026-03-22T09:58:27.513Z</time></trkpt><trkpt lat="43.6896206" lon="12.5434941"><ele>428.0</ele><time>2026-03-22T09:58:28.511Z</time></trkpt><trkpt lat="43.6897793" lon="12.5436751"><ele>429.0</ele><time>2026-03-22T09:58:29.511Z</time></trkpt><trkpt lat="43.6899469" lon="12.5438937"><ele>429.0</ele><time>2026-03-22T09:58:30.512Z</time></trkpt><trkpt lat="43.6901118" lon="12.5441374"><ele>429.0</ele><time>2026-03-22T09:58:31.511Z</time></trkpt><trkpt lat="43.6902438" lon="12.5443657"><ele>432.33333333333337</ele><time>2026-03-22T09:58:32.513Z</time></trkpt><trkpt lat="43.6903504" lon="12.5445817"><ele>435.6666666666667</ele><time>2026-03-22T09:58:33.512Z</time></trkpt><trkpt lat="43.6904321" lon="12.5447855"><ele>439.0</ele><time>2026-03-22T09:58:34.511Z</time></trkpt><trkpt lat="43.6904906" lon="12.5450002"><ele>439.0</ele><time>2026-03-22T09:58:35.512Z</time></trkpt><trkpt lat="43.690524" lon="12.5452429"><ele>439.0</ele><time>2026-03-22T09:58:36.512Z</time></trkpt><trkpt lat="43.6905519" lon="12.5454692"><ele>439.0</ele><time>2026-03-22T09:58:37.511Z</time></trkpt><trkpt lat="43.6905886" lon="12.5456638"><ele>440.6666666666667</ele><time>2026-03-22T09:58:38.512Z</time></trkpt><trkpt lat="43.6906442" lon="12.5458583"><ele>442.33333333333337</ele><time>2026-03-22T09:58:39.511Z</time></trkpt><trkpt lat="43.690729" lon="12.5460466"><ele>444.0</ele><time>2026-03-22T09:58:40.512Z</time></trkpt><trkpt lat="43.6908348" lon="12.546216"><ele>441.5</ele><time>2026-03-22T09:58:41.513Z</time></trkpt><trkpt lat="43.6909292" lon="12.5463759"><ele>439.0</ele><time>2026-03-22T09:58:42.512Z</time></trkpt><trkpt lat="43.6909848" lon="12.5465611"><ele>436.5</ele><time>2026-03-22T09:58:43.513Z</time></trkpt><trkpt lat="43.6910145" lon="12.5467704"><ele>434.0</ele><time>2026-03-22T09:58:44.511Z</time></trkpt><trkpt lat="43.6910599" lon="12.5469617"><ele>439.5</ele><time>2026-03-22T09:58:45.512Z</time></trkpt><trkpt lat="43.6911229" lon="12.5471246"><ele>445.0</ele><time>2026-03-22T09:58:46.512Z</time></trkpt><trkpt lat="43.6911821" lon="12.5472807"><ele>450.5</ele><time>2026-03-22T09:58:47.512Z</time></trkpt><trkpt lat="43.6912113" lon="12.5474423"><ele>456.0</ele><time>2026-03-22T09:58:48.512Z</time></trkpt><trkpt lat="43.6911967" lon="12.5476015"><ele>456.0</ele><time>2026-03-22T09:58:49.513Z</time></trkpt><trkpt lat="43.6911457" lon="12.5477591"><ele>456.0</ele><time>2026-03-22T09:58:50.512Z</time></trkpt><trkpt lat="43.6910498" lon="12.5478951"><ele>456.0</ele><time>2026-03-22T09:58:51.512Z</time></trkpt><trkpt lat="43.6909144" lon="12.548005"><ele>456.0</ele><time>2026-03-22T09:58:52.511Z</time></trkpt><trkpt lat="43.6907659" lon="12.5481072"><ele>450.66666666666663</ele><time>2026-03-22T09:58:53.512Z</time></trkpt><trkpt lat="43.6906392" lon="12.5482175"><ele>445.3333333333333</ele><time>2026-03-22T09:58:54.512Z</time></trkpt><trkpt lat="43.6905236" lon="12.5483623"><ele>440.0</ele><time>2026-03-22T09:58:55.512Z</time></trkpt><trkpt lat="43.6904275" lon="12.5485302"><ele>441.5</ele><time>2026-03-22T09:58:56.512Z</time></trkpt><trkpt lat="43.6903487" lon="12.5487108"><ele>443.0</ele><time>2026-03-22T09:58:57.512Z</time></trkpt><trkpt lat="43.6902923" lon="12.5488801"><ele>444.5</ele><time>2026-03-22T09:58:58.513Z</time></trkpt><trkpt lat="43.6902596" lon="12.549037"><ele>446.0</ele><time>2026-03-22T09:58:59.511Z</time></trkpt><trkpt lat="43.6902626" lon="12.5491674"><ele>446.0</ele><time>2026-03-22T09:59:00.512Z</time></trkpt><trkpt lat="43.6903035" lon="12.5492827"><ele>446.0</ele><time>2026-03-22T09:59:01.511Z</time></trkpt><trkpt lat="43.6903848" lon="12.5493586"><ele>446.0</ele><time>2026-03-22T09:59:02.512Z</time></trkpt><trkpt lat="43.6904943" lon="12.5494003"><ele>446.0</ele><time>2026-03-22T09:59:03.512Z</time></trkpt><trkpt lat="43.6906385" lon="12.5494277"><ele>446.0</ele><time>2026-03-22T09:59:04.513Z</time></trkpt><trkpt lat="43.6908104" lon="12.5494651"><ele>446.0</ele><time>2026-03-22T09:59:05.512Z</time></trkpt><trkpt lat="43.6910113" lon="12.549506"><ele>446.0</ele><time>2026-03-22T09:59:06.511Z</time></trkpt><trkpt lat="43.691242" lon="12.5495429"><ele>441.0</ele><time>2026-03-22T09:59:07.512Z</time></trkpt><trkpt lat="43.6914626" lon="12.5495685"><ele>436.0</ele><time>2026-03-22T09:59:08.511Z</time></trkpt><trkpt lat="43.691669" lon="12.5495807"><ele>431.0</ele><time>2026-03-22T09:59:09.512Z</time></trkpt><trkpt lat="43.6918613" lon="12.5495785"><ele>434.3333333333333</ele><time>2026-03-22T09:59:10.512Z</time></trkpt><trkpt lat="43.6920501" lon="12.5495523"><ele>437.66666666666663</ele><time>2026-03-22T09:59:11.512Z</time></trkpt><trkpt lat="43.692244" lon="12.5494939"><ele>441.0</ele><time>2026-03-22T09:59:12.512Z</time></trkpt><trkpt lat="43.6924466" lon="12.5493923"><ele>441.0</ele><time>2026-03-22T09:59:13.512Z</time></trkpt><trkpt lat="43.6926572" lon="12.5492602"><ele>441.0</ele><time>2026-03-22T09:59:14.512Z</time></trkpt><trkpt lat="43.6928709" lon="12.5491499"><ele>436.33333333333337</ele><time>2026-03-22T09:59:15.512Z</time></trkpt><trkpt lat="43.6930694" lon="12.5490621"><ele>431.6666666666667</ele><time>2026-03-22T09:59:16.512Z</time></trkpt><trkpt lat="43.6932606" lon="12.5489774"><ele>427.0</ele><time>2026-03-22T09:59:17.512Z</time></trkpt><trkpt lat="43.6934426" lon="12.5488953"><ele>429.6666666666667</ele><time>2026-03-22T09:59:18.511Z</time></trkpt><trkpt lat="43.6936152" lon="12.5488196"><ele>432.33333333333337</ele><time>2026-03-22T09:59:19.512Z</time></trkpt><trkpt lat="43.6937792" lon="12.5487539"><ele>435.0</ele><time>2026-03-22T09:59:20.511Z</time></trkpt><trkpt lat="43.6939339" lon="12.5487036"><ele>435.0</ele><time>2026-03-22T09:59:21.511Z</time></trkpt><trkpt lat="43.6940869" lon="12.5486688"><ele>435.0</ele><time>2026-03-22T09:59:22.512Z</time></trkpt><trkpt lat="43.6942402" lon="12.5486582"><ele>435.0</ele><time>2026-03-22T09:59:23.512Z</time></trkpt><trkpt lat="43.6943826" lon="12.5486865"><ele>430.66666666666663</ele><time>2026-03-22T09:59:24.512Z</time></trkpt><trkpt lat="43.6945304" lon="12.548754"><ele>426.3333333333333</ele><time>2026-03-22T09:59:25.511Z</time></trkpt><trkpt lat="43.6946861" lon="12.5488539"><ele>422.0</ele><time>2026-03-22T09:59:26.512Z</time></trkpt><trkpt lat="43.6948348" lon="12.5489632"><ele>422.0</ele><time>2026-03-22T09:59:27.512Z</time></trkpt><trkpt lat="43.6949663" lon="12.549091"><ele>422.0</ele><time>2026-03-22T09:59:28.511Z</time></trkpt><trkpt lat="43.6950993" lon="12.5492556"><ele>422.0</ele><time>2026-03-22T09:59:29.513Z</time></trkpt><trkpt lat="43.6952308" lon="12.5494588"><ele>425.66666666666663</ele><time>2026-03-22T09:59:30.513Z</time></trkpt><trkpt lat="43.6953537" lon="12.5496647"><ele>429.33333333333337</ele><time>2026-03-22T09:59:31.512Z</time></trkpt><trkpt lat="43.6954565" lon="12.5498545"><ele>433.0</ele><time>2026-03-22T09:59:32.512Z</time></trkpt><trkpt lat="43.6955372" lon="12.5500452"><ele>433.0</ele><time>2026-03-22T09:59:33.511Z</time></trkpt><trkpt lat="43.6955946" lon="12.5502316"><ele>433.0</ele><time>2026-03-22T09:59:34.512Z</time></trkpt><trkpt lat="43.6956333" lon="12.5504063"><ele>433.0</ele><time>2026-03-22T09:59:35.512Z</time></trkpt><trkpt lat="43.6956716" lon="12.5505647"><ele>433.0</ele><time>2026-03-22T09:59:36.511Z</time></trkpt><trkpt lat="43.6957305" lon="12.5507013"><ele>432.25</ele><time>2026-03-22T09:59:37.512Z</time></trkpt><trkpt lat="43.6958216" lon="12.5508208"><ele>431.5</ele><time>2026-03-22T09:59:38.511Z</time></trkpt><trkpt lat="43.6959267" lon="12.5509391"><ele>430.75</ele><time>2026-03-22T09:59:39.512Z</time></trkpt><trkpt lat="43.6960271" lon="12.5510819"><ele>430.0</ele><time>2026-03-22T09:59:40.511Z</time></trkpt><trkpt lat="43.6961048" lon="12.5512528"><ele>430.0</ele><time>2026-03-22T09:59:41.512Z</time></trkpt><trkpt lat="43.6961585" lon="12.5514477"><ele>430.0</ele><time>2026-03-22T09:59:42.511Z</time></trkpt><trkpt lat="43.6961917" lon="12.5516297"><ele>430.0</ele><time>2026-03-22T09:59:43.512Z</time></trkpt><trkpt lat="43.6962003" lon="12.5518118"><ele>430.0</ele><time>2026-03-22T09:59:44.512Z</time></trkpt><trkpt lat="43.69618" lon="12.5519894"><ele>429.0</ele><time>2026-03-22T09:59:45.512Z</time></trkpt><trkpt lat="43.6961207" lon="12.5521694"><ele>428.0</ele><time>2026-03-22T09:59:46.513Z</time></trkpt><trkpt lat="43.6960239" lon="12.552346"><ele>427.0</ele><time>2026-03-22T09:59:47.513Z</time></trkpt><trkpt lat="43.6959043" lon="12.5525331"><ele>426.33333333333337</ele><time>2026-03-22T09:59:48.511Z</time></trkpt><trkpt lat="43.6957803" lon="12.5527431"><ele>425.66666666666663</ele><time>2026-03-22T09:59:49.511Z</time></trkpt><trkpt lat="43.6956753" lon="12.5529815"><ele>425.0</ele><time>2026-03-22T09:59:50.512Z</time></trkpt><trkpt lat="43.6955829" lon="12.5532235"><ele>431.0</ele><time>2026-03-22T09:59:51.512Z</time></trkpt><trkpt lat="43.6954948" lon="12.5534377"><ele>437.0</ele><time>2026-03-22T09:59:52.511Z</time></trkpt><trkpt lat="43.6954191" lon="12.5536438"><ele>443.0</ele><time>2026-03-22T09:59:53.511Z</time></trkpt><trkpt lat="43.6953647" lon="12.5538436"><ele>443.3333333333333</ele><time>2026-03-22T09:59:54.513Z</time></trkpt><trkpt lat="43.6953322" lon="12.5540568"><ele>443.66666666666663</ele><time>2026-03-22T09:59:55.512Z</time></trkpt><trkpt lat="43.695323" lon="12.5542811"><ele>444.0</ele><time>2026-03-22T09:59:56.511Z</time></trkpt><trkpt lat="43.6953369" lon="12.5544992"><ele>438.66666666666663</ele><time>2026-03-22T09:59:57.512Z</time></trkpt><trkpt lat="43.6953805" lon="12.5547027"><ele>433.3333333333333</ele><time>2026-03-22T09:59:58.512Z</time></trkpt><trkpt lat="43.6954581" lon="12.5548983"><ele>428.0</ele><time>2026-03-22T09:59:59.513Z</time></trkpt><trkpt lat="43.6955365" lon="12.555105"><ele>428.0</ele><time>2026-03-22T10:00:00.511Z</time></trkpt><trkpt lat="43.695589" lon="12.5553359"><ele>428.0</ele><time>2026-03-22T10:00:01.512Z</time></trkpt><trkpt lat="43.6956293" lon="12.5556154"><ele>428.0</ele><time>2026-03-22T10:00:02.511Z</time></trkpt><trkpt lat="43.6956574" lon="12.55592"><ele>428.66666666666663</ele><time>2026-03-22T10:00:03.512Z</time></trkpt><trkpt lat="43.6956665" lon="12.5562023"><ele>429.33333333333337</ele><time>2026-03-22T10:00:04.511Z</time></trkpt><trkpt lat="43.69567" lon="12.5564623"><ele>430.0</ele><time>2026-03-22T10:00:05.513Z</time></trkpt><trkpt lat="43.6956732" lon="12.5567106"><ele>431.33333333333337</ele><time>2026-03-22T10:00:06.507Z</time></trkpt><trkpt lat="43.6956916" lon="12.5569587"><ele>432.66666666666663</ele><time>2026-03-22T10:00:07.511Z</time></trkpt><trkpt lat="43.6957406" lon="12.5572045"><ele>434.0</ele><time>2026-03-22T10:00:08.511Z</time></trkpt><trkpt lat="43.6958192" lon="12.5574539"><ele>434.3333333333333</ele><time>2026-03-22T10:00:09.511Z</time></trkpt><trkpt lat="43.6959078" lon="12.557661"><ele>434.66666666666663</ele><time>2026-03-22T10:00:10.512Z</time></trkpt><trkpt lat="43.6959875" lon="12.5578506"><ele>435.0</ele><time>2026-03-22T10:00:11.512Z</time></trkpt><trkpt lat="43.6960325" lon="12.5580489"><ele>436.5</ele><time>2026-03-22T10:00:12.512Z</time></trkpt><trkpt lat="43.6960422" lon="12.5582476"><ele>438.0</ele><time>2026-03-22T10:00:13.512Z</time></trkpt><trkpt lat="43.6960132" lon="12.558425"><ele>439.5</ele><time>2026-03-22T10:00:14.513Z</time></trkpt><trkpt lat="43.6959493" lon="12.5585832"><ele>441.0</ele><time>2026-03-22T10:00:15.513Z</time></trkpt><trkpt lat="43.6958426" lon="12.5587125"><ele>448.0</ele><time>2026-03-22T10:00:16.511Z</time></trkpt><trkpt lat="43.6957032" lon="12.558841"><ele>455.0</ele><time>2026-03-22T10:00:17.512Z</time></trkpt><trkpt lat="43.6955426" lon="12.5589772"><ele>462.0</ele><time>2026-03-22T10:00:18.512Z</time></trkpt><trkpt lat="43.695366" lon="12.5591105"><ele>456.0</ele><time>2026-03-22T10:00:19.512Z</time></trkpt><trkpt lat="43.6952011" lon="12.5592108"><ele>450.0</ele><time>2026-03-22T10:00:20.511Z</time></trkpt><trkpt lat="43.6950453" lon="12.5592868"><ele>444.0</ele><time>2026-03-22T10:00:21.513Z</time></trkpt><trkpt lat="43.6949066" lon="12.5593486"><ele>444.0</ele><time>2026-03-22T10:00:22.512Z</time></trkpt><trkpt lat="43.6947865" lon="12.5594029"><ele>444.0</ele><time>2026-03-22T10:00:23.511Z</time></trkpt><trkpt lat="43.6947024" lon="12.5594588"><ele>444.0</ele><time>2026-03-22T10:00:24.512Z</time></trkpt><trkpt lat="43.6946517" lon="12.5595254"><ele>444.0</ele><time>2026-03-22T10:00:25.511Z</time></trkpt><trkpt lat="43.6946671" lon="12.5596778"><ele>444.0</ele><time>2026-03-22T10:00:27.511Z</time></trkpt><trkpt lat="43.6947259" lon="12.559713"><ele>446.5</ele><time>2026-03-22T10:00:28.513Z</time></trkpt><trkpt lat="43.6948055" lon="12.5597074"><ele>449.0</ele><time>2026-03-22T10:00:29.512Z</time></trkpt><trkpt lat="43.6949017" lon="12.5596616"><ele>451.5</ele><time>2026-03-22T10:00:30.512Z</time></trkpt><trkpt lat="43.695019" lon="12.5596032"><ele>454.0</ele><time>2026-03-22T10:00:31.511Z</time></trkpt><trkpt lat="43.6951563" lon="12.5595435"><ele>455.25</ele><time>2026-03-22T10:00:32.513Z</time></trkpt><trkpt lat="43.6952693" lon="12.5594918"><ele>456.5</ele><time>2026-03-22T10:00:33.513Z</time></trkpt><trkpt lat="43.6953761" lon="12.5594567"><ele>457.75</ele><time>2026-03-22T10:00:34.512Z</time></trkpt><trkpt lat="43.6954881" lon="12.5594738"><ele>459.0</ele><time>2026-03-22T10:00:35.513Z</time></trkpt><trkpt lat="43.6956024" lon="12.5595382"><ele>459.0</ele><time>2026-03-22T10:00:36.512Z</time></trkpt><trkpt lat="43.6957215" lon="12.5596493"><ele>459.0</ele><time>2026-03-22T10:00:37.511Z</time></trkpt><trkpt lat="43.6958352" lon="12.5597933"><ele>459.0</ele><time>2026-03-22T10:00:38.512Z</time></trkpt><trkpt lat="43.6959442" lon="12.5599904"><ele>459.0</ele><time>2026-03-22T10:00:39.513Z</time></trkpt><trkpt lat="43.696033" lon="12.5602087"><ele>459.0</ele><time>2026-03-22T10:00:40.512Z</time></trkpt><trkpt lat="43.696116" lon="12.5604104"><ele>459.0</ele><time>2026-03-22T10:00:41.512Z</time></trkpt><trkpt lat="43.6961973" lon="12.5605826"><ele>456.5</ele><time>2026-03-22T10:00:42.511Z</time></trkpt><trkpt lat="43.6962761" lon="12.5607136"><ele>454.0</ele><time>2026-03-22T10:00:43.512Z</time></trkpt><trkpt lat="43.6963654" lon="12.5607959"><ele>451.5</ele><time>2026-03-22T10:00:44.511Z</time></trkpt><trkpt lat="43.6964721" lon="12.5608319"><ele>449.0</ele><time>2026-03-22T10:00:45.513Z</time></trkpt><trkpt lat="43.6965849" lon="12.5608044"><ele>449.0</ele><time>2026-03-22T10:00:46.512Z</time></trkpt><trkpt lat="43.6967131" lon="12.5607733"><ele>449.0</ele><time>2026-03-22T10:00:47.512Z</time></trkpt><trkpt lat="43.6968513" lon="12.5606858"><ele>449.0</ele><time>2026-03-22T10:00:48.512Z</time></trkpt><trkpt lat="43.6970076" lon="12.5606833"><ele>449.0</ele><time>2026-03-22T10:00:49.511Z</time></trkpt><trkpt lat="43.697168" lon="12.5607287"><ele>451.66666666666663</ele><time>2026-03-22T10:00:50.512Z</time></trkpt><trkpt lat="43.6973324" lon="12.560831"><ele>454.33333333333337</ele><time>2026-03-22T10:00:51.512Z</time></trkpt><trkpt lat="43.6974914" lon="12.5609663"><ele>457.0</ele><time>2026-03-22T10:00:52.512Z</time></trkpt><trkpt lat="43.6976326" lon="12.5610956"><ele>452.6666666666667</ele><time>2026-03-22T10:00:53.512Z</time></trkpt><trkpt lat="43.6977635" lon="12.561232"><ele>448.33333333333337</ele><time>2026-03-22T10:00:54.512Z</time></trkpt><trkpt lat="43.6978732" lon="12.5613796"><ele>444.0</ele><time>2026-03-22T10:00:55.511Z</time></trkpt><trkpt lat="43.697958" lon="12.5615456"><ele>444.0</ele><time>2026-03-22T10:00:56.512Z</time></trkpt><trkpt lat="43.6980266" lon="12.5617226"><ele>444.0</ele><time>2026-03-22T10:00:57.513Z</time></trkpt><trkpt lat="43.6980714" lon="12.5619169"><ele>444.0</ele><time>2026-03-22T10:00:58.512Z</time></trkpt><trkpt lat="43.6980896" lon="12.5621112"><ele>444.0</ele><time>2026-03-22T10:00:59.512Z</time></trkpt><trkpt lat="43.6980994" lon="12.5622917"><ele>443.25</ele><time>2026-03-22T10:01:00.512Z</time></trkpt><trkpt lat="43.6981381" lon="12.5624725"><ele>442.5</ele><time>2026-03-22T10:01:01.513Z</time></trkpt><trkpt lat="43.6982084" lon="12.5626554"><ele>441.75</ele><time>2026-03-22T10:01:02.511Z</time></trkpt><trkpt lat="43.6983064" lon="12.562831"><ele>441.0</ele><time>2026-03-22T10:01:03.512Z</time></trkpt><trkpt lat="43.6984152" lon="12.5629764"><ele>441.75</ele><time>2026-03-22T10:01:04.512Z</time></trkpt><trkpt lat="43.6985259" lon="12.5630941"><ele>442.5</ele><time>2026-03-22T10:01:05.511Z</time></trkpt><trkpt lat="43.6986274" lon="12.5631981"><ele>443.25</ele><time>2026-03-22T10:01:06.512Z</time></trkpt><trkpt lat="43.6987115" lon="12.5633018"><ele>444.0</ele><time>2026-03-22T10:01:07.512Z</time></trkpt><trkpt lat="43.6987724" lon="12.5634288"><ele>444.0</ele><time>2026-03-22T10:01:08.512Z</time></trkpt><trkpt lat="43.6988066" lon="12.5635871"><ele>444.0</ele><time>2026-03-22T10:01:09.512Z</time></trkpt><trkpt lat="43.6988093" lon="12.5637778"><ele>444.0</ele><time>2026-03-22T10:01:10.512Z</time></trkpt><trkpt lat="43.6987831" lon="12.5639874"><ele>444.0</ele><time>2026-03-22T10:01:11.513Z</time></trkpt><trkpt lat="43.6987254" lon="12.5641851"><ele>442.5</ele><time>2026-03-22T10:01:12.513Z</time></trkpt><trkpt lat="43.6986589" lon="12.5643495"><ele>441.0</ele><time>2026-03-22T10:01:13.512Z</time></trkpt><trkpt lat="43.6985965" lon="12.5645074"><ele>439.5</ele><time>2026-03-22T10:01:14.512Z</time></trkpt><trkpt lat="43.6985391" lon="12.5646533"><ele>438.0</ele><time>2026-03-22T10:01:15.512Z</time></trkpt><trkpt lat="43.6984924" lon="12.564791"><ele>438.0</ele><time>2026-03-22T10:01:16.512Z</time></trkpt><trkpt lat="43.6984682" lon="12.564924"><ele>437.99999999999994</ele><time>2026-03-22T10:01:17.513Z</time></trkpt><trkpt lat="43.6984558" lon="12.5650454"><ele>437.99999999999994</ele><time>2026-03-22T10:01:18.512Z</time></trkpt><trkpt lat="43.6984308" lon="12.565154"><ele>438.0</ele><time>2026-03-22T10:01:19.512Z</time></trkpt><trkpt lat="43.6983965" lon="12.5652647"><ele>438.0</ele><time>2026-03-22T10:01:20.512Z</time></trkpt><trkpt lat="43.6983689" lon="12.5653947"><ele>439.59999999999997</ele><time>2026-03-22T10:01:21.513Z</time></trkpt><trkpt lat="43.6983422" lon="12.5655405"><ele>441.19999999999993</ele><time>2026-03-22T10:01:22.511Z</time></trkpt><trkpt lat="43.6983209" lon="12.5656922"><ele>442.8</ele><time>2026-03-22T10:01:23.512Z</time></trkpt><trkpt lat="43.6983031" lon="12.5658422"><ele>444.4</ele><time>2026-03-22T10:01:24.512Z</time></trkpt><trkpt lat="43.6982787" lon="12.5659827"><ele>446.0</ele><time>2026-03-22T10:01:25.512Z</time></trkpt><trkpt lat="43.6982439" lon="12.5661132"><ele>447.5</ele><time>2026-03-22T10:01:26.511Z</time></trkpt><trkpt lat="43.6981854" lon="12.5662332"><ele>449.0</ele><time>2026-03-22T10:01:27.512Z</time></trkpt><trkpt lat="43.698094" lon="12.5663558"><ele>450.5</ele><time>2026-03-22T10:01:28.511Z</time></trkpt><trkpt lat="43.6979798" lon="12.5664713"><ele>452.0</ele><time>2026-03-22T10:01:29.511Z</time></trkpt><trkpt lat="43.6978405" lon="12.5665744"><ele>449.66666666666663</ele><time>2026-03-22T10:01:30.511Z</time></trkpt><trkpt lat="43.6976959" lon="12.5666686"><ele>447.33333333333337</ele><time>2026-03-22T10:01:31.511Z</time></trkpt><trkpt lat="43.6975673" lon="12.566774"><ele>445.0</ele><time>2026-03-22T10:01:32.512Z</time></trkpt><trkpt lat="43.6974366" lon="12.5668881"><ele>450.33333333333337</ele><time>2026-03-22T10:01:33.512Z</time></trkpt><trkpt lat="43.6973085" lon="12.5670323"><ele>455.66666666666663</ele><time>2026-03-22T10:01:34.512Z</time></trkpt><trkpt lat="43.6971716" lon="12.5672052"><ele>461.0</ele><time>2026-03-22T10:01:35.512Z</time></trkpt><trkpt lat="43.6970244" lon="12.5673883"><ele>457.3333333333333</ele><time>2026-03-22T10:01:36.512Z</time></trkpt><trkpt lat="43.6968927" lon="12.5675528"><ele>453.66666666666663</ele><time>2026-03-22T10:01:37.513Z</time></trkpt><trkpt lat="43.69677" lon="12.5677058"><ele>450.0</ele><time>2026-03-22T10:01:38.511Z</time></trkpt><trkpt lat="43.6966502" lon="12.5678488"><ele>453.5</ele><time>2026-03-22T10:01:39.511Z</time></trkpt><trkpt lat="43.6965394" lon="12.5679786"><ele>457.0</ele><time>2026-03-22T10:01:40.513Z</time></trkpt><trkpt lat="43.6964396" lon="12.5680944"><ele>460.5</ele><time>2026-03-22T10:01:41.513Z</time></trkpt><trkpt lat="43.6963394" lon="12.5682116"><ele>464.0</ele><time>2026-03-22T10:01:42.513Z</time></trkpt><trkpt lat="43.6962359" lon="12.568338"><ele>464.0</ele><time>2026-03-22T10:01:43.511Z</time></trkpt><trkpt lat="43.6961234" lon="12.568468"><ele>464.0</ele><time>2026-03-22T10:01:44.512Z</time></trkpt><trkpt lat="43.6960103" lon="12.5686095"><ele>464.0</ele><time>2026-03-22T10:01:45.511Z</time></trkpt><trkpt lat="43.6958951" lon="12.5687824"><ele>459.3333333333333</ele><time>2026-03-22T10:01:46.511Z</time></trkpt><trkpt lat="43.6957699" lon="12.5689802"><ele>454.66666666666663</ele><time>2026-03-22T10:01:47.511Z</time></trkpt><trkpt lat="43.695656" lon="12.5691668"><ele>450.0</ele><time>2026-03-22T10:01:48.511Z</time></trkpt><trkpt lat="43.695541" lon="12.5693458"><ele>450.0</ele><time>2026-03-22T10:01:49.511Z</time></trkpt><trkpt lat="43.695428" lon="12.5695135"><ele>450.0</ele><time>2026-03-22T10:01:50.513Z</time></trkpt><trkpt lat="43.6953128" lon="12.5696654"><ele>450.0</ele><time>2026-03-22T10:01:51.513Z</time></trkpt><trkpt lat="43.6951934" lon="12.5697989"><ele>446.66666666666663</ele><time>2026-03-22T10:01:52.512Z</time></trkpt><trkpt lat="43.6950637" lon="12.5699069"><ele>443.3333333333333</ele><time>2026-03-22T10:01:53.512Z</time></trkpt><trkpt lat="43.6949174" lon="12.5699831"><ele>440.0</ele><time>2026-03-22T10:01:54.512Z</time></trkpt><trkpt lat="43.6947687" lon="12.5700283"><ele>440.0</ele><time>2026-03-22T10:01:55.512Z</time></trkpt><trkpt lat="43.6946362" lon="12.5700718"><ele>440.0</ele><time>2026-03-22T10:01:56.512Z</time></trkpt><trkpt lat="43.6945157" lon="12.5701257"><ele>440.0</ele><time>2026-03-22T10:01:57.512Z</time></trkpt><trkpt lat="43.6944074" lon="12.5701793"><ele>440.0</ele><time>2026-03-22T10:01:58.511Z</time></trkpt><trkpt lat="43.6943102" lon="12.5702405"><ele>439.75</ele><time>2026-03-22T10:01:59.512Z</time></trkpt><trkpt lat="43.6942164" lon="12.5703262"><ele>439.5</ele><time>2026-03-22T10:02:00.513Z</time></trkpt><trkpt lat="43.6941296" lon="12.5704472"><ele>439.25</ele><time>2026-03-22T10:02:01.513Z</time></trkpt><trkpt lat="43.6940446" lon="12.5706068"><ele>439.0</ele><time>2026-03-22T10:02:02.511Z</time></trkpt><trkpt lat="43.6939607" lon="12.5708067"><ele>440.6666666666667</ele><time>2026-03-22T10:02:03.511Z</time></trkpt><trkpt lat="43.6938797" lon="12.5710033"><ele>442.33333333333337</ele><time>2026-03-22T10:02:04.512Z</time></trkpt><trkpt lat="43.6937943" lon="12.5711928"><ele>444.0</ele><time>2026-03-22T10:02:05.511Z</time></trkpt><trkpt lat="43.6936832" lon="12.5713637"><ele>438.0</ele><time>2026-03-22T10:02:06.511Z</time></trkpt><trkpt lat="43.6935297" lon="12.5715389"><ele>432.0</ele><time>2026-03-22T10:02:07.511Z</time></trkpt><trkpt lat="43.6933847" lon="12.5716836"><ele>426.0</ele><time>2026-03-22T10:02:08.513Z</time></trkpt><trkpt lat="43.6932525" lon="12.5718166"><ele>426.0</ele><time>2026-03-22T10:02:09.513Z</time></trkpt><trkpt lat="43.6931234" lon="12.5719387"><ele>426.0</ele><time>2026-03-22T10:02:10.512Z</time></trkpt><trkpt lat="43.693004" lon="12.5720537"><ele>426.0</ele><time>2026-03-22T10:02:11.511Z</time></trkpt><trkpt lat="43.6928858" lon="12.57215"><ele>426.0</ele><time>2026-03-22T10:02:12.512Z</time></trkpt><trkpt lat="43.6927584" lon="12.5722284"><ele>427.0</ele><time>2026-03-22T10:02:13.512Z</time></trkpt><trkpt lat="43.6926128" lon="12.5722885"><ele>428.0</ele><time>2026-03-22T10:02:14.512Z</time></trkpt><trkpt lat="43.6924656" lon="12.5723107"><ele>429.0</ele><time>2026-03-22T10:02:15.512Z</time></trkpt><trkpt lat="43.6923274" lon="12.5723169"><ele>430.0</ele><time>2026-03-22T10:02:16.511Z</time></trkpt><trkpt lat="43.6921949" lon="12.5723323"><ele>430.0</ele><time>2026-03-22T10:02:17.512Z</time></trkpt><trkpt lat="43.6920779" lon="12.572371"><ele>430.0</ele><time>2026-03-22T10:02:18.511Z</time></trkpt><trkpt lat="43.6919751" lon="12.5724429"><ele>430.0</ele><time>2026-03-22T10:02:19.511Z</time></trkpt><trkpt lat="43.6918916" lon="12.5725466"><ele>430.0</ele><time>2026-03-22T10:02:20.512Z</time></trkpt><trkpt lat="43.6918218" lon="12.5726862"><ele>428.25</ele><time>2026-03-22T10:02:21.512Z</time></trkpt><trkpt lat="43.6917616" lon="12.57285"><ele>426.5</ele><time>2026-03-22T10:02:22.511Z</time></trkpt><trkpt lat="43.6917186" lon="12.5730341"><ele>424.75</ele><time>2026-03-22T10:02:23.513Z</time></trkpt><trkpt lat="43.6916793" lon="12.5732276"><ele>423.0</ele><time>2026-03-22T10:02:24.511Z</time></trkpt><trkpt lat="43.6916327" lon="12.5734026"><ele>423.0</ele><time>2026-03-22T10:02:25.512Z</time></trkpt><trkpt lat="43.6915668" lon="12.5735713"><ele>423.0</ele><time>2026-03-22T10:02:26.513Z</time></trkpt><trkpt lat="43.6914927" lon="12.5737226"><ele>423.0</ele><time>2026-03-22T10:02:27.512Z</time></trkpt><trkpt lat="43.6914113" lon="12.5738712"><ele>423.0</ele><time>2026-03-22T10:02:28.511Z</time></trkpt><trkpt lat="43.6913261" lon="12.5740016"><ele>421.4</ele><time>2026-03-22T10:02:29.512Z</time></trkpt><trkpt lat="43.6912442" lon="12.5741193"><ele>419.79999999999995</ele><time>2026-03-22T10:02:30.512Z</time></trkpt><trkpt lat="43.6911733" lon="12.5742297"><ele>418.2</ele><time>2026-03-22T10:02:31.513Z</time></trkpt><trkpt lat="43.6911079" lon="12.5743267"><ele>416.6</ele><time>2026-03-22T10:02:32.512Z</time></trkpt><trkpt lat="43.6910409" lon="12.5744005"><ele>415.0</ele><time>2026-03-22T10:02:33.511Z</time></trkpt><trkpt lat="43.6909682" lon="12.5744352"><ele>415.0</ele><time>2026-03-22T10:02:34.511Z</time></trkpt><trkpt lat="43.6908921" lon="12.5744165"><ele>415.0</ele><time>2026-03-22T10:02:35.511Z</time></trkpt><trkpt lat="43.6908068" lon="12.5743397"><ele>415.0</ele><time>2026-03-22T10:02:36.511Z</time></trkpt><trkpt lat="43.6907227" lon="12.5742078"><ele>415.0</ele><time>2026-03-22T10:02:37.511Z</time></trkpt><trkpt lat="43.6906307" lon="12.5740693"><ele>415.0</ele><time>2026-03-22T10:02:38.511Z</time></trkpt><trkpt lat="43.6905607" lon="12.5739471"><ele>415.0</ele><time>2026-03-22T10:02:39.511Z</time></trkpt><trkpt lat="43.6905076" lon="12.5738375"><ele>415.0</ele><time>2026-03-22T10:02:40.511Z</time></trkpt><trkpt lat="43.6904592" lon="12.5737607"><ele>415.0</ele><time>2026-03-22T10:02:41.511Z</time></trkpt><trkpt lat="43.6903528" lon="12.573725"><ele>415.0</ele><time>2026-03-22T10:02:43.511Z</time></trkpt><trkpt lat="43.6903333" lon="12.5738583"><ele>415.0</ele><time>2026-03-22T10:02:45.512Z</time></trkpt><trkpt lat="43.6903711" lon="12.5739494"><ele>415.0</ele><time>2026-03-22T10:02:46.511Z</time></trkpt><trkpt lat="43.6904078" lon="12.5740549"><ele>415.0</ele><time>2026-03-22T10:02:47.511Z</time></trkpt><trkpt lat="43.6904622" lon="12.5742151"><ele>415.0</ele><time>2026-03-22T10:02:48.513Z</time></trkpt><trkpt lat="43.690492" lon="12.5743969"><ele>415.0</ele><time>2026-03-22T10:02:49.512Z</time></trkpt><trkpt lat="43.6904981" lon="12.5745781"><ele>412.5</ele><time>2026-03-22T10:02:50.511Z</time></trkpt><trkpt lat="43.6904997" lon="12.5747548"><ele>410.0</ele><time>2026-03-22T10:02:51.512Z</time></trkpt><trkpt lat="43.6904981" lon="12.5749261"><ele>407.5</ele><time>2026-03-22T10:02:52.511Z</time></trkpt><trkpt lat="43.6904929" lon="12.5750814"><ele>405.0</ele><time>2026-03-22T10:02:53.512Z</time></trkpt><trkpt lat="43.6904753" lon="12.5752199"><ele>405.0</ele><time>2026-03-22T10:02:54.512Z</time></trkpt><trkpt lat="43.6904484" lon="12.5753461"><ele>405.0</ele><time>2026-03-22T10:02:55.511Z</time></trkpt><trkpt lat="43.6904121" lon="12.575456"><ele>405.0</ele><time>2026-03-22T10:02:56.513Z</time></trkpt><trkpt lat="43.6903729" lon="12.5755501"><ele>405.0</ele><time>2026-03-22T10:02:57.512Z</time></trkpt><trkpt lat="43.6903323" lon="12.5756238"><ele>405.0</ele><time>2026-03-22T10:02:58.511Z</time></trkpt><trkpt lat="43.6902827" lon="12.5756857"><ele>405.0</ele><time>2026-03-22T10:02:59.512Z</time></trkpt><trkpt lat="43.6902255" lon="12.5757417"><ele>401.6666666666667</ele><time>2026-03-22T10:03:00.512Z</time></trkpt><trkpt lat="43.6901615" lon="12.5757963"><ele>398.33333333333337</ele><time>2026-03-22T10:03:01.511Z</time></trkpt><trkpt lat="43.6900957" lon="12.5758557"><ele>395.0</ele><time>2026-03-22T10:03:02.511Z</time></trkpt><trkpt lat="43.6900247" lon="12.5759118"><ele>391.6666666666667</ele><time>2026-03-22T10:03:03.513Z</time></trkpt><trkpt lat="43.6899421" lon="12.5759689"><ele>388.33333333333337</ele><time>2026-03-22T10:03:04.512Z</time></trkpt><trkpt lat="43.6898487" lon="12.5760278"><ele>385.0</ele><time>2026-03-22T10:03:05.512Z</time></trkpt><trkpt lat="43.6897476" lon="12.5760848"><ele>385.0</ele><time>2026-03-22T10:03:06.512Z</time></trkpt><trkpt lat="43.6896394" lon="12.5761395"><ele>385.0</ele><time>2026-03-22T10:03:07.511Z</time></trkpt><trkpt lat="43.6895259" lon="12.5761938"><ele>385.0</ele><time>2026-03-22T10:03:08.512Z</time></trkpt><trkpt lat="43.6894086" lon="12.576236"><ele>385.0</ele><time>2026-03-22T10:03:09.512Z</time></trkpt><trkpt lat="43.6893029" lon="12.5762622"><ele>385.6</ele><time>2026-03-22T10:03:10.512Z</time></trkpt><trkpt lat="43.6892031" lon="12.5762777"><ele>386.2</ele><time>2026-03-22T10:03:11.512Z</time></trkpt><trkpt lat="43.6891105" lon="12.576284"><ele>386.79999999999995</ele><time>2026-03-22T10:03:12.511Z</time></trkpt><trkpt lat="43.689021" lon="12.5762972"><ele>387.4</ele><time>2026-03-22T10:03:13.512Z</time></trkpt><trkpt lat="43.6889206" lon="12.5763124"><ele>388.0</ele><time>2026-03-22T10:03:14.513Z</time></trkpt><trkpt lat="43.6888136" lon="12.576329"><ele>388.0</ele><time>2026-03-22T10:03:15.512Z</time></trkpt><trkpt lat="43.6887002" lon="12.5763505"><ele>388.0</ele><time>2026-03-22T10:03:16.512Z</time></trkpt><trkpt lat="43.6885912" lon="12.5763725"><ele>388.0</ele><time>2026-03-22T10:03:17.512Z</time></trkpt><trkpt lat="43.6884864" lon="12.5763905"><ele>388.0</ele><time>2026-03-22T10:03:18.512Z</time></trkpt><trkpt lat="43.6883834" lon="12.5764003"><ele>388.0</ele><time>2026-03-22T10:03:19.512Z</time></trkpt><trkpt lat="43.6882831" lon="12.5764024"><ele>386.0</ele><time>2026-03-22T10:03:20.512Z</time></trkpt><trkpt lat="43.6881801" lon="12.5763998"><ele>384.0</ele><time>2026-03-22T10:03:21.512Z</time></trkpt><trkpt lat="43.6880684" lon="12.5763933"><ele>382.0</ele><time>2026-03-22T10:03:22.512Z</time></trkpt><trkpt lat="43.6879473" lon="12.5763825"><ele>380.0</ele><time>2026-03-22T10:03:23.511Z</time></trkpt><trkpt lat="43.6878272" lon="12.5763672"><ele>379.6</ele><time>2026-03-22T10:03:24.512Z</time></trkpt><trkpt lat="43.6877173" lon="12.5763491"><ele>379.2</ele><time>2026-03-22T10:03:25.511Z</time></trkpt><trkpt lat="43.6876124" lon="12.5763279"><ele>378.79999999999995</ele><time>2026-03-22T10:03:26.511Z</time></trkpt><trkpt lat="43.6875111" lon="12.5762911"><ele>378.4</ele><time>2026-03-22T10:03:27.512Z</time></trkpt><trkpt lat="43.6874067" lon="12.5762429"><ele>378.0</ele><time>2026-03-22T10:03:28.512Z</time></trkpt><trkpt lat="43.6872902" lon="12.5762141"><ele>378.0</ele><time>2026-03-22T10:03:29.511Z</time></trkpt><trkpt lat="43.6871642" lon="12.5762018"><ele>378.0</ele><time>2026-03-22T10:03:30.511Z</time></trkpt><trkpt lat="43.6870404" lon="12.576206"><ele>378.0</ele><time>2026-03-22T10:03:31.512Z</time></trkpt><trkpt lat="43.686931" lon="12.5762336"><ele>378.0</ele><time>2026-03-22T10:03:32.512Z</time></trkpt><trkpt lat="43.6868391" lon="12.5762771"><ele>376.6666666666667</ele><time>2026-03-22T10:03:33.512Z</time></trkpt><trkpt lat="43.686764" lon="12.5763255"><ele>375.3333333333333</ele><time>2026-03-22T10:03:34.511Z</time></trkpt><trkpt lat="43.6867014" lon="12.5763568"><ele>374.0</ele><time>2026-03-22T10:03:35.512Z</time></trkpt><trkpt lat="43.6866104" lon="12.5763465"><ele>372.66666666666663</ele><time>2026-03-22T10:03:37.512Z</time></trkpt><trkpt lat="43.6865681" lon="12.5762624"><ele>371.3333333333333</ele><time>2026-03-22T10:03:39.513Z</time></trkpt><trkpt lat="43.6866033" lon="12.5761357"><ele>370.0</ele><time>2026-03-22T10:03:41.511Z</time></trkpt><trkpt lat="43.6866934" lon="12.5760617"><ele>370.0</ele><time>2026-03-22T10:03:43.513Z</time></trkpt><trkpt lat="43.6867877" lon="12.5760303"><ele>370.0</ele><time>2026-03-22T10:03:45.512Z</time></trkpt><trkpt lat="43.6867049" lon="12.5760138"><ele>370.0</ele><time>2026-03-22T10:03:51.512Z</time></trkpt><trkpt lat="43.686647" lon="12.5760557"><ele>370.0</ele><time>2026-03-22T10:03:52.511Z</time></trkpt><trkpt lat="43.6865778" lon="12.5761876"><ele>370.0</ele><time>2026-03-22T10:03:54.513Z</time></trkpt><trkpt lat="43.686593" lon="12.5763374"><ele>370.0</ele><time>2026-03-22T10:03:56.513Z</time></trkpt><trkpt lat="43.6866385" lon="12.5764813"><ele>370.0</ele><time>2026-03-22T10:03:58.511Z</time></trkpt><trkpt lat="43.6866181" lon="12.5766505"><ele>370.0</ele><time>2026-03-22T10:04:00.513Z</time></trkpt><trkpt lat="43.686593" lon="12.5767474"><ele>370.0</ele><time>2026-03-22T10:04:01.513Z</time></trkpt><trkpt lat="43.6865514" lon="12.5768532"><ele>370.0</ele><time>2026-03-22T10:04:02.512Z</time></trkpt><trkpt lat="43.6865064" lon="12.5769466"><ele>369.66666666666663</ele><time>2026-03-22T10:04:03.512Z</time></trkpt><trkpt lat="43.6864603" lon="12.5770435"><ele>369.3333333333333</ele><time>2026-03-22T10:04:04.512Z</time></trkpt><trkpt lat="43.6864231" lon="12.5771422"><ele>369.0</ele><time>2026-03-22T10:04:05.511Z</time></trkpt><trkpt lat="43.6863913" lon="12.5772493"><ele>368.6666666666667</ele><time>2026-03-22T10:04:06.512Z</time></trkpt><trkpt lat="43.6863598" lon="12.5773526"><ele>368.33333333333337</ele><time>2026-03-22T10:04:07.511Z</time></trkpt><trkpt lat="43.6863323" lon="12.5774558"><ele>368.0</ele><time>2026-03-22T10:04:08.513Z</time></trkpt><trkpt lat="43.6863057" lon="12.5775585"><ele>368.0</ele><time>2026-03-22T10:04:09.511Z</time></trkpt><trkpt lat="43.6862795" lon="12.5776616"><ele>368.0</ele><time>2026-03-22T10:04:10.512Z</time></trkpt><trkpt lat="43.6862512" lon="12.5777631"><ele>368.0</ele><time>2026-03-22T10:04:11.513Z</time></trkpt><trkpt lat="43.6862219" lon="12.5778707"><ele>368.0</ele><time>2026-03-22T10:04:12.512Z</time></trkpt><trkpt lat="43.6861897" lon="12.5779717"><ele>368.0</ele><time>2026-03-22T10:04:13.513Z</time></trkpt><trkpt lat="43.6861506" lon="12.5780622"><ele>368.0</ele><time>2026-03-22T10:04:14.511Z</time></trkpt><trkpt lat="43.686102" lon="12.5781354"><ele>365.0</ele><time>2026-03-22T10:04:15.512Z</time></trkpt><trkpt lat="43.6860483" lon="12.5781906"><ele>362.0</ele><time>2026-03-22T10:04:16.511Z</time></trkpt><trkpt lat="43.6859186" lon="12.5782545"><ele>359.0</ele><time>2026-03-22T10:04:18.512Z</time></trkpt><trkpt lat="43.6858351" lon="12.5782583"><ele>356.0</ele><time>2026-03-22T10:04:19.511Z</time></trkpt><trkpt lat="43.6857444" lon="12.5782433"><ele>353.0</ele><time>2026-03-22T10:04:20.512Z</time></trkpt><trkpt lat="43.6856504" lon="12.5782127"><ele>353.0</ele><time>2026-03-22T10:04:21.511Z</time></trkpt><trkpt lat="43.6855524" lon="12.5781671"><ele>353.0</ele><time>2026-03-22T10:04:22.512Z</time></trkpt><trkpt lat="43.6854523" lon="12.578123"><ele>353.0</ele><time>2026-03-22T10:04:23.512Z</time></trkpt><trkpt lat="43.6853536" lon="12.5780738"><ele>353.0</ele><time>2026-03-22T10:04:24.512Z</time></trkpt><trkpt lat="43.6852514" lon="12.5780213"><ele>353.0</ele><time>2026-03-22T10:04:25.511Z</time></trkpt><trkpt lat="43.6851503" lon="12.5779632"><ele>353.59999999999997</ele><time>2026-03-22T10:04:26.511Z</time></trkpt><trkpt lat="43.6850496" lon="12.577912"><ele>354.2</ele><time>2026-03-22T10:04:27.512Z</time></trkpt><trkpt lat="43.6849512" lon="12.577858"><ele>354.8</ele><time>2026-03-22T10:04:28.512Z</time></trkpt><trkpt lat="43.6848622" lon="12.5777932"><ele>355.4</ele><time>2026-03-22T10:04:29.512Z</time></trkpt><trkpt lat="43.6847907" lon="12.5777358"><ele>356.0</ele><time>2026-03-22T10:04:30.512Z</time></trkpt><trkpt lat="43.6847181" lon="12.5776503"><ele>356.0</ele><time>2026-03-22T10:04:32.511Z</time></trkpt><trkpt lat="43.6846718" lon="12.5775709"><ele>356.0</ele><time>2026-03-22T10:04:35.513Z</time></trkpt><trkpt lat="43.6846158" lon="12.5774819"><ele>356.0</ele><time>2026-03-22T10:04:40.512Z</time></trkpt><trkpt lat="43.6845979" lon="12.5773674"><ele>356.0</ele><time>2026-03-22T10:04:42.511Z</time></trkpt><trkpt lat="43.684577" lon="12.5771877"><ele>356.0</ele><time>2026-03-22T10:04:44.512Z</time></trkpt><trkpt lat="43.6845696" lon="12.5770776"><ele>354.83333333333337</ele><time>2026-03-22T10:04:45.512Z</time></trkpt><trkpt lat="43.6845624" lon="12.5769583"><ele>353.6666666666667</ele><time>2026-03-22T10:04:46.512Z</time></trkpt><trkpt lat="43.6845557" lon="12.5768477"><ele>352.5</ele><time>2026-03-22T10:04:47.511Z</time></trkpt><trkpt lat="43.6845488" lon="12.5767423"><ele>351.3333333333333</ele><time>2026-03-22T10:04:48.511Z</time></trkpt><trkpt lat="43.6845401" lon="12.5766498"><ele>350.16666666666663</ele><time>2026-03-22T10:04:49.513Z</time></trkpt><trkpt lat="43.6845147" lon="12.5765662"><ele>349.0</ele><time>2026-03-22T10:04:50.511Z</time></trkpt><trkpt lat="43.6844718" lon="12.5764792"><ele>351.2</ele><time>2026-03-22T10:04:51.512Z</time></trkpt><trkpt lat="43.6844194" lon="12.5763869"><ele>353.4</ele><time>2026-03-22T10:04:52.513Z</time></trkpt><trkpt lat="43.6843629" lon="12.5762854"><ele>355.6</ele><time>2026-03-22T10:04:53.512Z</time></trkpt><trkpt lat="43.684305" lon="12.5761751"><ele>357.8</ele><time>2026-03-22T10:04:54.512Z</time></trkpt><trkpt lat="43.684248" lon="12.5760653"><ele>360.0</ele><time>2026-03-22T10:04:55.513Z</time></trkpt><trkpt lat="43.6841954" lon="12.5759559"><ele>360.0</ele><time>2026-03-22T10:04:56.512Z</time></trkpt><trkpt lat="43.6841486" lon="12.5758441"><ele>360.0</ele><time>2026-03-22T10:04:57.512Z</time></trkpt><trkpt lat="43.6841058" lon="12.5757317"><ele>360.0</ele><time>2026-03-22T10:04:58.512Z</time></trkpt><trkpt lat="43.6840728" lon="12.5756162"><ele>360.0</ele><time>2026-03-22T10:04:59.512Z</time></trkpt><trkpt lat="43.684046" lon="12.5754968"><ele>360.0</ele><time>2026-03-22T10:05:00.511Z</time></trkpt><trkpt lat="43.6840316" lon="12.5753736"><ele>358.5</ele><time>2026-03-22T10:05:01.512Z</time></trkpt><trkpt lat="43.6840211" lon="12.5752508"><ele>357.0</ele><time>2026-03-22T10:05:02.513Z</time></trkpt><trkpt lat="43.6840113" lon="12.5751211"><ele>355.5</ele><time>2026-03-22T10:05:03.511Z</time></trkpt><trkpt lat="43.6840047" lon="12.5749927"><ele>354.0</ele><time>2026-03-22T10:05:04.513Z</time></trkpt><trkpt lat="43.6839952" lon="12.5748754"><ele>352.5</ele><time>2026-03-22T10:05:05.512Z</time></trkpt><trkpt lat="43.6839878" lon="12.5747701"><ele>351.0</ele><time>2026-03-22T10:05:06.512Z</time></trkpt><trkpt lat="43.6839756" lon="12.5746768"><ele>351.0</ele><time>2026-03-22T10:05:07.511Z</time></trkpt><trkpt lat="43.6839536" lon="12.5745915"><ele>351.0</ele><time>2026-03-22T10:05:08.512Z</time></trkpt><trkpt lat="43.6839207" lon="12.5745104"><ele>351.0</ele><time>2026-03-22T10:05:09.512Z</time></trkpt><trkpt lat="43.6838764" lon="12.5744243"><ele>351.0</ele><time>2026-03-22T10:05:10.512Z</time></trkpt><trkpt lat="43.6838212" lon="12.5743346"><ele>351.0</ele><time>2026-03-22T10:05:11.513Z</time></trkpt><trkpt lat="43.6837594" lon="12.5742411"><ele>351.0</ele><time>2026-03-22T10:05:12.512Z</time></trkpt><trkpt lat="43.683694" lon="12.5741578"><ele>352.5</ele><time>2026-03-22T10:05:13.511Z</time></trkpt><trkpt lat="43.683629" lon="12.5740809"><ele>354.0</ele><time>2026-03-22T10:05:14.512Z</time></trkpt><trkpt lat="43.6835699" lon="12.5740059"><ele>355.5</ele><time>2026-03-22T10:05:15.512Z</time></trkpt><trkpt lat="43.6835146" lon="12.5739263"><ele>357.0</ele><time>2026-03-22T10:05:16.512Z</time></trkpt><trkpt lat="43.6834599" lon="12.5738523"><ele>358.5</ele><time>2026-03-22T10:05:17.512Z</time></trkpt><trkpt lat="43.683405" lon="12.5737966"><ele>360.0</ele><time>2026-03-22T10:05:18.513Z</time></trkpt><trkpt lat="43.6832894" lon="12.5737372"><ele>360.0</ele><time>2026-03-22T10:05:20.512Z</time></trkpt><trkpt lat="43.6832243" lon="12.5737284"><ele>360.0</ele><time>2026-03-22T10:05:21.513Z</time></trkpt><trkpt lat="43.6831585" lon="12.573736"><ele>360.0</ele><time>2026-03-22T10:05:22.511Z</time></trkpt><trkpt lat="43.6830985" lon="12.5737671"><ele>360.0</ele><time>2026-03-22T10:05:23.512Z</time></trkpt><trkpt lat="43.6830404" lon="12.5738059"><ele>360.0</ele><time>2026-03-22T10:05:24.513Z</time></trkpt><trkpt lat="43.6829794" lon="12.5738419"><ele>360.0</ele><time>2026-03-22T10:05:25.511Z</time></trkpt><trkpt lat="43.6829162" lon="12.573854"><ele>360.0</ele><time>2026-03-22T10:05:26.512Z</time></trkpt><trkpt lat="43.6828099" lon="12.5738256"><ele>358.0</ele><time>2026-03-22T10:05:28.512Z</time></trkpt><trkpt lat="43.6827269" lon="12.5737795"><ele>356.0</ele><time>2026-03-22T10:05:30.512Z</time></trkpt><trkpt lat="43.6826582" lon="12.57377"><ele>354.0</ele><time>2026-03-22T10:05:32.513Z</time></trkpt><trkpt lat="43.6825916" lon="12.5738335"><ele>352.0</ele><time>2026-03-22T10:05:34.512Z</time></trkpt><trkpt lat="43.6825138" lon="12.5739249"><ele>350.0</ele><time>2026-03-22T10:05:36.513Z</time></trkpt><trkpt lat="43.6824427" lon="12.5739755"><ele>348.0</ele><time>2026-03-22T10:05:38.513Z</time></trkpt><trkpt lat="43.6823641" lon="12.5739393"><ele>348.0</ele><time>2026-03-22T10:05:41.513Z</time></trkpt><trkpt lat="43.682331" lon="12.5738548"><ele>348.0</ele><time>2026-03-22T10:05:43.511Z</time></trkpt><trkpt lat="43.6823355" lon="12.5737465"><ele>348.0</ele><time>2026-03-22T10:05:45.513Z</time></trkpt><trkpt lat="43.6823433" lon="12.5736419"><ele>348.0</ele><time>2026-03-22T10:05:47.512Z</time></trkpt><trkpt lat="43.6823088" lon="12.5735514"><ele>348.0</ele><time>2026-03-22T10:05:49.513Z</time></trkpt><trkpt lat="43.6822212" lon="12.573505"><ele>348.0</ele><time>2026-03-22T10:05:51.511Z</time></trkpt><trkpt lat="43.6821107" lon="12.5735006"><ele>345.4</ele><time>2026-03-22T10:05:53.512Z</time></trkpt><trkpt lat="43.681997" lon="12.5735516"><ele>342.79999999999995</ele><time>2026-03-22T10:05:55.511Z</time></trkpt><trkpt lat="43.6819284" lon="12.5736228"><ele>340.2</ele><time>2026-03-22T10:05:57.512Z</time></trkpt><trkpt lat="43.6818622" lon="12.5736471"><ele>337.6</ele><time>2026-03-22T10:05:59.511Z</time></trkpt><trkpt lat="43.6817752" lon="12.5735779"><ele>335.0</ele><time>2026-03-22T10:06:02.512Z</time></trkpt><trkpt lat="43.6817158" lon="12.5734899"><ele>334.1666666666667</ele><time>2026-03-22T10:06:04.512Z</time></trkpt><trkpt lat="43.6816692" lon="12.5733932"><ele>333.33333333333337</ele><time>2026-03-22T10:06:06.512Z</time></trkpt><trkpt lat="43.6816229" lon="12.5732954"><ele>332.5</ele><time>2026-03-22T10:06:08.512Z</time></trkpt><trkpt lat="43.6815703" lon="12.573188"><ele>331.6666666666667</ele><time>2026-03-22T10:06:10.513Z</time></trkpt><trkpt lat="43.6815279" lon="12.5730883"><ele>330.8333333333333</ele><time>2026-03-22T10:06:12.513Z</time></trkpt><trkpt lat="43.6814928" lon="12.5729871"><ele>330.0</ele><time>2026-03-22T10:06:14.513Z</time></trkpt><trkpt lat="43.6814648" lon="12.5728857"><ele>327.5714285714286</ele><time>2026-03-22T10:06:16.512Z</time></trkpt><trkpt lat="43.6814391" lon="12.5727856"><ele>325.14285714285717</ele><time>2026-03-22T10:06:18.512Z</time></trkpt><trkpt lat="43.6814163" lon="12.5726991"><ele>322.7142857142857</ele><time>2026-03-22T10:06:20.512Z</time></trkpt><trkpt lat="43.6813819" lon="12.5725915"><ele>320.28571428571433</ele><time>2026-03-22T10:06:23.512Z</time></trkpt><trkpt lat="43.6813194" lon="12.5725594"><ele>317.8571428571429</ele><time>2026-03-22T10:06:27.512Z</time></trkpt><trkpt lat="43.6812607" lon="12.5725054"><ele>315.42857142857144</ele><time>2026-03-22T10:06:35.511Z</time></trkpt><trkpt lat="43.6812084" lon="12.5725556"><ele>313.0</ele><time>2026-03-22T10:06:37.511Z</time></trkpt><trkpt lat="43.6811943" lon="12.5727018"><ele>313.0</ele><time>2026-03-22T10:06:39.512Z</time></trkpt><trkpt lat="43.6811934" lon="12.5727925"><ele>313.0</ele><time>2026-03-22T10:06:40.512Z</time></trkpt><trkpt lat="43.6811973" lon="12.5729002"><ele>313.0</ele><time>2026-03-22T10:06:41.511Z</time></trkpt><trkpt lat="43.6812048" lon="12.573023"><ele>313.0</ele><time>2026-03-22T10:06:42.512Z</time></trkpt><trkpt lat="43.6812199" lon="12.5731609"><ele>313.0</ele><time>2026-03-22T10:06:43.512Z</time></trkpt><trkpt lat="43.6812369" lon="12.5733151"><ele>313.0</ele><time>2026-03-22T10:06:44.512Z</time></trkpt><trkpt lat="43.6812569" lon="12.5734857"><ele>316.2</ele><time>2026-03-22T10:06:45.511Z</time></trkpt><trkpt lat="43.6812744" lon="12.5736392"><ele>319.4</ele><time>2026-03-22T10:06:46.512Z</time></trkpt><trkpt lat="43.6812876" lon="12.5737761"><ele>322.59999999999997</ele><time>2026-03-22T10:06:47.512Z</time></trkpt><trkpt lat="43.6813007" lon="12.5739118"><ele>325.8</ele><time>2026-03-22T10:06:48.512Z</time></trkpt><trkpt lat="43.6812991" lon="12.5740516"><ele>329.0</ele><time>2026-03-22T10:06:49.512Z</time></trkpt><trkpt lat="43.6812792" lon="12.57418"><ele>329.0</ele><time>2026-03-22T10:06:50.512Z</time></trkpt><trkpt lat="43.681241" lon="12.5743062"><ele>329.0</ele><time>2026-03-22T10:06:51.511Z</time></trkpt><trkpt lat="43.6812005" lon="12.5744266"><ele>329.0</ele><time>2026-03-22T10:06:52.513Z</time></trkpt><trkpt lat="43.681096" lon="12.5744974"><ele>329.0</ele><time>2026-03-22T10:06:53.512Z</time></trkpt><trkpt lat="43.6810084" lon="12.5745616"><ele>329.0</ele><time>2026-03-22T10:06:54.512Z</time></trkpt><trkpt lat="43.6809151" lon="12.5745912"><ele>327.25</ele><time>2026-03-22T10:06:55.512Z</time></trkpt><trkpt lat="43.6808088" lon="12.5745908"><ele>325.5</ele><time>2026-03-22T10:06:56.512Z</time></trkpt><trkpt lat="43.6806944" lon="12.5745632"><ele>323.75</ele><time>2026-03-22T10:06:57.511Z</time></trkpt><trkpt lat="43.6805799" lon="12.5745017"><ele>322.0</ele><time>2026-03-22T10:06:58.512Z</time></trkpt><trkpt lat="43.6804783" lon="12.5744173"><ele>319.75</ele><time>2026-03-22T10:06:59.511Z</time></trkpt><trkpt lat="43.6803799" lon="12.57432"><ele>317.5</ele><time>2026-03-22T10:07:00.512Z</time></trkpt><trkpt lat="43.6802713" lon="12.5742156"><ele>315.25</ele><time>2026-03-22T10:07:01.511Z</time></trkpt><trkpt lat="43.6801643" lon="12.5741113"><ele>313.0</ele><time>2026-03-22T10:07:02.511Z</time></trkpt><trkpt lat="43.6800724" lon="12.5740163"><ele>313.0</ele><time>2026-03-22T10:07:03.511Z</time></trkpt><trkpt lat="43.6799944" lon="12.5739309"><ele>313.0</ele><time>2026-03-22T10:07:04.512Z</time></trkpt><trkpt lat="43.67992" lon="12.5738588"><ele>313.0</ele><time>2026-03-22T10:07:05.512Z</time></trkpt><trkpt lat="43.679842" lon="12.5738075"><ele>313.0</ele><time>2026-03-22T10:07:06.512Z</time></trkpt><trkpt lat="43.6797589" lon="12.5737759"><ele>313.0</ele><time>2026-03-22T10:07:07.513Z</time></trkpt><trkpt lat="43.6796807" lon="12.5737773"><ele>313.0</ele><time>2026-03-22T10:07:08.513Z</time></trkpt><trkpt lat="43.6796038" lon="12.573799"><ele>313.0</ele><time>2026-03-22T10:07:09.512Z</time></trkpt><trkpt lat="43.6795213" lon="12.5738439"><ele>313.0</ele><time>2026-03-22T10:07:10.511Z</time></trkpt><trkpt lat="43.6794335" lon="12.573907"><ele>313.0</ele><time>2026-03-22T10:07:11.512Z</time></trkpt><trkpt lat="43.6793472" lon="12.5739845"><ele>313.0</ele><time>2026-03-22T10:07:12.512Z</time></trkpt><trkpt lat="43.6792699" lon="12.5740774"><ele>313.0</ele><time>2026-03-22T10:07:13.512Z</time></trkpt><trkpt lat="43.679202" lon="12.5741838"><ele>313.0</ele><time>2026-03-22T10:07:14.512Z</time></trkpt><trkpt lat="43.6791417" lon="12.574303"><ele>313.0</ele><time>2026-03-22T10:07:15.512Z</time></trkpt><trkpt lat="43.6790884" lon="12.5744294"><ele>313.0</ele><time>2026-03-22T10:07:16.511Z</time></trkpt><trkpt lat="43.6790464" lon="12.5745627"><ele>313.0</ele><time>2026-03-22T10:07:17.511Z</time></trkpt><trkpt lat="43.6790112" lon="12.5747024"><ele>313.0</ele><time>2026-03-22T10:07:18.511Z</time></trkpt><trkpt lat="43.678987" lon="12.5748613"><ele>313.0</ele><time>2026-03-22T10:07:19.512Z</time></trkpt><trkpt lat="43.6789683" lon="12.5750367"><ele>313.0</ele><time>2026-03-22T10:07:20.512Z</time></trkpt><trkpt lat="43.6789581" lon="12.5752388"><ele>313.0</ele><time>2026-03-22T10:07:21.512Z</time></trkpt><trkpt lat="43.6789489" lon="12.5754823"><ele>312.0</ele><time>2026-03-22T10:07:22.513Z</time></trkpt><trkpt lat="43.6789369" lon="12.5757147"><ele>311.0</ele><time>2026-03-22T10:07:23.512Z</time></trkpt><trkpt lat="43.6789278" lon="12.5759265"><ele>310.0</ele><time>2026-03-22T10:07:24.512Z</time></trkpt><trkpt lat="43.6789159" lon="12.5761259"><ele>307.0</ele><time>2026-03-22T10:07:25.512Z</time></trkpt><trkpt lat="43.678911" lon="12.5763135"><ele>304.0</ele><time>2026-03-22T10:07:26.512Z</time></trkpt><trkpt lat="43.6789041" lon="12.5764878"><ele>301.0</ele><time>2026-03-22T10:07:27.512Z</time></trkpt><trkpt lat="43.6788982" lon="12.5766482"><ele>298.0</ele><time>2026-03-22T10:07:28.511Z</time></trkpt><trkpt lat="43.678891" lon="12.5767925"><ele>298.0</ele><time>2026-03-22T10:07:29.511Z</time></trkpt><trkpt lat="43.6788721" lon="12.57693"><ele>298.0</ele><time>2026-03-22T10:07:30.512Z</time></trkpt><trkpt lat="43.6788414" lon="12.577063"><ele>298.0</ele><time>2026-03-22T10:07:31.512Z</time></trkpt><trkpt lat="43.6787931" lon="12.5772062"><ele>298.0</ele><time>2026-03-22T10:07:32.511Z</time></trkpt><trkpt lat="43.6787245" lon="12.5773552"><ele>298.0</ele><time>2026-03-22T10:07:33.511Z</time></trkpt><trkpt lat="43.6786384" lon="12.5775152"><ele>293.3333333333333</ele><time>2026-03-22T10:07:34.512Z</time></trkpt><trkpt lat="43.6785349" lon="12.5776873"><ele>288.6666666666667</ele><time>2026-03-22T10:07:35.511Z</time></trkpt><trkpt lat="43.6784249" lon="12.5778569"><ele>284.0</ele><time>2026-03-22T10:07:36.511Z</time></trkpt><trkpt lat="43.6783216" lon="12.5780077"><ele>284.0</ele><time>2026-03-22T10:07:37.512Z</time></trkpt><trkpt lat="43.6782159" lon="12.5781454"><ele>284.0</ele><time>2026-03-22T10:07:38.511Z</time></trkpt><trkpt lat="43.6781157" lon="12.5782547"><ele>284.0</ele><time>2026-03-22T10:07:39.513Z</time></trkpt><trkpt lat="43.6780164" lon="12.5783453"><ele>284.0</ele><time>2026-03-22T10:07:40.511Z</time></trkpt><trkpt lat="43.6779182" lon="12.57842"><ele>284.0</ele><time>2026-03-22T10:07:41.512Z</time></trkpt><trkpt lat="43.6778208" lon="12.5784919"><ele>284.0</ele><time>2026-03-22T10:07:42.511Z</time></trkpt><trkpt lat="43.6777189" lon="12.5785626"><ele>284.0</ele><time>2026-03-22T10:07:43.512Z</time></trkpt><trkpt lat="43.6776153" lon="12.5786347"><ele>284.0</ele><time>2026-03-22T10:07:44.511Z</time></trkpt><trkpt lat="43.677513" lon="12.5786964"><ele>283.0</ele><time>2026-03-22T10:07:45.512Z</time></trkpt><trkpt lat="43.6774152" lon="12.5787474"><ele>282.0</ele><time>2026-03-22T10:07:46.512Z</time></trkpt><trkpt lat="43.6773166" lon="12.5787831"><ele>281.0</ele><time>2026-03-22T10:07:47.511Z</time></trkpt><trkpt lat="43.6772194" lon="12.5788065"><ele>280.0</ele><time>2026-03-22T10:07:48.513Z</time></trkpt><trkpt lat="43.677119" lon="12.578823"><ele>279.0</ele><time>2026-03-22T10:07:49.512Z</time></trkpt><trkpt lat="43.6770178" lon="12.5788388"><ele>276.8333333333333</ele><time>2026-03-22T10:07:50.512Z</time></trkpt><trkpt lat="43.676924" lon="12.5788464"><ele>274.6666666666667</ele><time>2026-03-22T10:07:51.513Z</time></trkpt><trkpt lat="43.676835" lon="12.578845"><ele>272.5</ele><time>2026-03-22T10:07:52.512Z</time></trkpt><trkpt lat="43.6767589" lon="12.578826"><ele>270.33333333333337</ele><time>2026-03-22T10:07:53.512Z</time></trkpt><trkpt lat="43.6766931" lon="12.5787826"><ele>268.1666666666667</ele><time>2026-03-22T10:07:54.511Z</time></trkpt><trkpt lat="43.6766444" lon="12.578709"><ele>266.0</ele><time>2026-03-22T10:07:55.512Z</time></trkpt><trkpt lat="43.6766202" lon="12.5786134"><ele>264.8</ele><time>2026-03-22T10:07:56.512Z</time></trkpt><trkpt lat="43.6766236" lon="12.57849"><ele>263.6</ele><time>2026-03-22T10:07:57.513Z</time></trkpt><trkpt lat="43.6766548" lon="12.5783585"><ele>262.4</ele><time>2026-03-22T10:07:58.511Z</time></trkpt><trkpt lat="43.6767071" lon="12.5782452"><ele>261.2</ele><time>2026-03-22T10:07:59.512Z</time></trkpt><trkpt lat="43.676776" lon="12.5781211"><ele>260.0</ele><time>2026-03-22T10:08:00.512Z</time></trkpt><trkpt lat="43.6768365" lon="12.5780003"><ele>260.0</ele><time>2026-03-22T10:08:01.512Z</time></trkpt><trkpt lat="43.6768807" lon="12.5778701"><ele>260.0</ele><time>2026-03-22T10:08:02.512Z</time></trkpt><trkpt lat="43.6768992" lon="12.5777198"><ele>260.0</ele><time>2026-03-22T10:08:03.512Z</time></trkpt><trkpt lat="43.6769006" lon="12.5775673"><ele>260.0</ele><time>2026-03-22T10:08:04.512Z</time></trkpt><trkpt lat="43.6768893" lon="12.5774259"><ele>260.0</ele><time>2026-03-22T10:08:05.513Z</time></trkpt><trkpt lat="43.6768701" lon="12.5773117"><ele>259.5</ele><time>2026-03-22T10:08:06.512Z</time></trkpt><trkpt lat="43.6768497" lon="12.5772182"><ele>259.0</ele><time>2026-03-22T10:08:07.512Z</time></trkpt><trkpt lat="43.6768176" lon="12.5771062"><ele>258.5</ele><time>2026-03-22T10:08:09.512Z</time></trkpt><trkpt lat="43.6767496" lon="12.5771361"><ele>258.0</ele><time>2026-03-22T10:08:12.511Z</time></trkpt><trkpt lat="43.6767379" lon="12.5772968"><ele>257.5</ele><time>2026-03-22T10:08:14.512Z</time></trkpt><trkpt lat="43.6767357" lon="12.5774207"><ele>257.0</ele><time>2026-03-22T10:08:15.513Z</time></trkpt><trkpt lat="43.6767111" lon="12.5775577"><ele>257.0</ele><time>2026-03-22T10:08:16.512Z</time></trkpt><trkpt lat="43.6766681" lon="12.5776587"><ele>257.0</ele><time>2026-03-22T10:08:17.513Z</time></trkpt><trkpt lat="43.6766189" lon="12.577734"><ele>257.0</ele><time>2026-03-22T10:08:18.511Z</time></trkpt><trkpt lat="43.6765545" lon="12.5778135"><ele>257.0</ele><time>2026-03-22T10:08:19.511Z</time></trkpt><trkpt lat="43.6764688" lon="12.5778973"><ele>257.0</ele><time>2026-03-22T10:08:20.511Z</time></trkpt><trkpt lat="43.676363" lon="12.5779801"><ele>257.5</ele><time>2026-03-22T10:08:21.51Z</time></trkpt><trkpt lat="43.6762338" lon="12.5780593"><ele>258.0</ele><time>2026-03-22T10:08:22.51Z</time></trkpt><trkpt lat="43.6761083" lon="12.5781164"><ele>258.5</ele><time>2026-03-22T10:08:23.511Z</time></trkpt><trkpt lat="43.6759978" lon="12.5781799"><ele>259.0</ele><time>2026-03-22T10:08:24.512Z</time></trkpt><trkpt lat="43.6758932" lon="12.5782581"><ele>259.0</ele><time>2026-03-22T10:08:25.511Z</time></trkpt><trkpt lat="43.6757799" lon="12.5783449"><ele>259.0</ele><time>2026-03-22T10:08:26.51Z</time></trkpt><trkpt lat="43.6756661" lon="12.578489"><ele>259.0</ele><time>2026-03-22T10:08:27.511Z</time></trkpt><trkpt lat="43.6755865" lon="12.5785721"><ele>259.0</ele><time>2026-03-22T10:08:28.511Z</time></trkpt><trkpt lat="43.6754937" lon="12.5786272"><ele>259.0</ele><time>2026-03-22T10:08:29.51Z</time></trkpt><trkpt lat="43.6753896" lon="12.5786623"><ele>259.0</ele><time>2026-03-22T10:08:30.51Z</time></trkpt><trkpt lat="43.675281" lon="12.5786625"><ele>259.0</ele><time>2026-03-22T10:08:31.511Z</time></trkpt><trkpt lat="43.6751806" lon="12.578678"><ele>259.0</ele><time>2026-03-22T10:08:32.51Z</time></trkpt><trkpt lat="43.6750916" lon="12.5787181"><ele>259.0</ele><time>2026-03-22T10:08:33.512Z</time></trkpt><trkpt lat="43.6750007" lon="12.5787777"><ele>258.4</ele><time>2026-03-22T10:08:34.512Z</time></trkpt><trkpt lat="43.6749165" lon="12.5788697"><ele>257.79999999999995</ele><time>2026-03-22T10:08:35.51Z</time></trkpt><trkpt lat="43.6748967" lon="12.57903"><ele>257.20000000000005</ele><time>2026-03-22T10:08:36.511Z</time></trkpt><trkpt lat="43.6748631" lon="12.5791369"><ele>256.6</ele><time>2026-03-22T10:08:37.511Z</time></trkpt><trkpt lat="43.6748611" lon="12.5792736"><ele>256.0</ele><time>2026-03-22T10:08:38.51Z</time></trkpt><trkpt lat="43.6748854" lon="12.5794145"><ele>255.5</ele><time>2026-03-22T10:08:39.512Z</time></trkpt><trkpt lat="43.6749252" lon="12.5795575"><ele>255.0</ele><time>2026-03-22T10:08:40.511Z</time></trkpt><trkpt lat="43.6749717" lon="12.5797154"><ele>254.5</ele><time>2026-03-22T10:08:41.511Z</time></trkpt><trkpt lat="43.6750243" lon="12.5798721"><ele>254.0</ele><time>2026-03-22T10:08:42.51Z</time></trkpt><trkpt lat="43.6750763" lon="12.5800134"><ele>254.00000000000003</ele><time>2026-03-22T10:08:43.511Z</time></trkpt><trkpt lat="43.6751293" lon="12.5801402"><ele>254.0</ele><time>2026-03-22T10:08:44.511Z</time></trkpt><trkpt lat="43.6751839" lon="12.5802532"><ele>254.0</ele><time>2026-03-22T10:08:45.51Z</time></trkpt><trkpt lat="43.6752298" lon="12.5803584"><ele>254.0</ele><time>2026-03-22T10:08:46.51Z</time></trkpt><trkpt lat="43.6752515" lon="12.5804548"><ele>254.00000000000003</ele><time>2026-03-22T10:08:47.512Z</time></trkpt><trkpt lat="43.6752431" lon="12.5805588"><ele>254.0</ele><time>2026-03-22T10:08:48.51Z</time></trkpt><trkpt lat="43.6752045" lon="12.5806765"><ele>254.0</ele><time>2026-03-22T10:08:49.51Z</time></trkpt><trkpt lat="43.675132" lon="12.5807961"><ele>254.0</ele><time>2026-03-22T10:08:50.51Z</time></trkpt><trkpt lat="43.6750556" lon="12.5809446"><ele>254.0</ele><time>2026-03-22T10:08:51.512Z</time></trkpt><trkpt lat="43.6749811" lon="12.581085"><ele>254.0</ele><time>2026-03-22T10:08:52.512Z</time></trkpt><trkpt lat="43.6749148" lon="12.5812075"><ele>254.79999999999998</ele><time>2026-03-22T10:08:53.511Z</time></trkpt><trkpt lat="43.6748568" lon="12.5813358"><ele>255.59999999999997</ele><time>2026-03-22T10:08:54.512Z</time></trkpt><trkpt lat="43.6748104" lon="12.5814757"><ele>256.4</ele><time>2026-03-22T10:08:55.51Z</time></trkpt><trkpt lat="43.6747806" lon="12.5816021"><ele>257.2</ele><time>2026-03-22T10:08:56.51Z</time></trkpt><trkpt lat="43.6747471" lon="12.5817268"><ele>258.0</ele><time>2026-03-22T10:08:57.511Z</time></trkpt><trkpt lat="43.6747488" lon="12.5818288"><ele>258.0</ele><time>2026-03-22T10:08:58.512Z</time></trkpt><trkpt lat="43.6747524" lon="12.5819184"><ele>258.0</ele><time>2026-03-22T10:08:59.511Z</time></trkpt><trkpt lat="43.6748346" lon="12.5820177"><ele>258.0</ele><time>2026-03-22T10:09:01.511Z</time></trkpt><trkpt lat="43.6749284" lon="12.5819427"><ele>258.0</ele><time>2026-03-22T10:09:03.511Z</time></trkpt><trkpt lat="43.6749618" lon="12.5818673"><ele>258.0</ele><time>2026-03-22T10:09:04.511Z</time></trkpt><trkpt lat="43.6750157" lon="12.5817795"><ele>258.0</ele><time>2026-03-22T10:09:05.511Z</time></trkpt><trkpt lat="43.6750572" lon="12.5816244"><ele>258.0</ele><time>2026-03-22T10:09:06.51Z</time></trkpt><trkpt lat="43.6751232" lon="12.5815114"><ele>258.0</ele><time>2026-03-22T10:09:07.511Z</time></trkpt><trkpt lat="43.6752058" lon="12.5814089"><ele>258.0</ele><time>2026-03-22T10:09:08.51Z</time></trkpt><trkpt lat="43.675297" lon="12.5813146"><ele>258.0</ele><time>2026-03-22T10:09:09.511Z</time></trkpt><trkpt lat="43.6753762" lon="12.5812349"><ele>258.0</ele><time>2026-03-22T10:09:10.511Z</time></trkpt><trkpt lat="43.6754536" lon="12.5811672"><ele>257.5</ele><time>2026-03-22T10:09:11.511Z</time></trkpt><trkpt lat="43.6755342" lon="12.5811227"><ele>257.0</ele><time>2026-03-22T10:09:12.511Z</time></trkpt><trkpt lat="43.6756147" lon="12.5811287"><ele>256.5</ele><time>2026-03-22T10:09:13.51Z</time></trkpt><trkpt lat="43.6756824" lon="12.5811759"><ele>256.0</ele><time>2026-03-22T10:09:14.511Z</time></trkpt><trkpt lat="43.6757375" lon="12.5812513"><ele>255.5</ele><time>2026-03-22T10:09:15.511Z</time></trkpt><trkpt lat="43.6757845" lon="12.5813554"><ele>255.0</ele><time>2026-03-22T10:09:16.511Z</time></trkpt><trkpt lat="43.6758131" lon="12.5814862"><ele>257.0</ele><time>2026-03-22T10:09:17.511Z</time></trkpt><trkpt lat="43.6758351" lon="12.5816522"><ele>259.0</ele><time>2026-03-22T10:09:18.512Z</time></trkpt><trkpt lat="43.6758504" lon="12.5818067"><ele>261.0</ele><time>2026-03-22T10:09:19.51Z</time></trkpt><trkpt lat="43.6758648" lon="12.5819345"><ele>263.0</ele><time>2026-03-22T10:09:20.511Z</time></trkpt><trkpt lat="43.6758947" lon="12.5820358"><ele>265.0</ele><time>2026-03-22T10:09:21.51Z</time></trkpt><trkpt lat="43.6759471" lon="12.5821054"><ele>265.0</ele><time>2026-03-22T10:09:22.511Z</time></trkpt><trkpt lat="43.6760151" lon="12.5821324"><ele>265.0</ele><time>2026-03-22T10:09:23.51Z</time></trkpt><trkpt lat="43.676088" lon="12.5821132"><ele>265.0</ele><time>2026-03-22T10:09:24.511Z</time></trkpt><trkpt lat="43.6761837" lon="12.5820606"><ele>265.0</ele><time>2026-03-22T10:09:25.511Z</time></trkpt><trkpt lat="43.6762779" lon="12.5820073"><ele>265.0</ele><time>2026-03-22T10:09:26.511Z</time></trkpt><trkpt lat="43.6763622" lon="12.5819863"><ele>265.0</ele><time>2026-03-22T10:09:27.511Z</time></trkpt><trkpt lat="43.6764303" lon="12.5820007"><ele>268.6</ele><time>2026-03-22T10:09:28.51Z</time></trkpt><trkpt lat="43.6764833" lon="12.5820573"><ele>272.2</ele><time>2026-03-22T10:09:29.51Z</time></trkpt><trkpt lat="43.6764913" lon="12.5822058"><ele>275.8</ele><time>2026-03-22T10:09:31.511Z</time></trkpt><trkpt lat="43.6763875" lon="12.5823172"><ele>279.4</ele><time>2026-03-22T10:09:33.511Z</time></trkpt><trkpt lat="43.6763257" lon="12.5823857"><ele>283.0</ele><time>2026-03-22T10:09:34.511Z</time></trkpt><trkpt lat="43.6762772" lon="12.5824867"><ele>283.0</ele><time>2026-03-22T10:09:35.51Z</time></trkpt><trkpt lat="43.6762338" lon="12.5826289"><ele>283.0</ele><time>2026-03-22T10:09:36.511Z</time></trkpt><trkpt lat="43.6761846" lon="12.5828111"><ele>283.0</ele><time>2026-03-22T10:09:37.511Z</time></trkpt><trkpt lat="43.676131" lon="12.5829775"><ele>283.0</ele><time>2026-03-22T10:09:38.51Z</time></trkpt><trkpt lat="43.6760819" lon="12.5831358"><ele>283.4</ele><time>2026-03-22T10:09:39.511Z</time></trkpt><trkpt lat="43.6760339" lon="12.5832881"><ele>283.8</ele><time>2026-03-22T10:09:40.512Z</time></trkpt><trkpt lat="43.6759959" lon="12.5834179"><ele>284.2</ele><time>2026-03-22T10:09:41.511Z</time></trkpt><trkpt lat="43.6759585" lon="12.5835211"><ele>284.6</ele><time>2026-03-22T10:09:42.511Z</time></trkpt><trkpt lat="43.6759337" lon="12.5836094"><ele>285.0</ele><time>2026-03-22T10:09:43.511Z</time></trkpt><trkpt lat="43.6759525" lon="12.583764"><ele>288.0</ele><time>2026-03-22T10:09:45.51Z</time></trkpt><trkpt lat="43.6760382" lon="12.5837719"><ele>291.0</ele><time>2026-03-22T10:09:47.51Z</time></trkpt><trkpt lat="43.6761361" lon="12.5836208"><ele>294.0</ele><time>2026-03-22T10:09:49.511Z</time></trkpt><trkpt lat="43.6762103" lon="12.5835031"><ele>297.0</ele><time>2026-03-22T10:09:50.511Z</time></trkpt><trkpt lat="43.6763206" lon="12.5834002"><ele>297.0</ele><time>2026-03-22T10:09:51.511Z</time></trkpt><trkpt lat="43.6764254" lon="12.5832952"><ele>297.0</ele><time>2026-03-22T10:09:52.511Z</time></trkpt><trkpt lat="43.6765108" lon="12.5831836"><ele>297.0</ele><time>2026-03-22T10:09:53.51Z</time></trkpt><trkpt lat="43.6765869" lon="12.5830678"><ele>297.0</ele><time>2026-03-22T10:09:54.512Z</time></trkpt><trkpt lat="43.6766558" lon="12.5829825"><ele>297.0</ele><time>2026-03-22T10:09:55.51Z</time></trkpt><trkpt lat="43.6767315" lon="12.5829386"><ele>297.0</ele><time>2026-03-22T10:09:56.511Z</time></trkpt><trkpt lat="43.676802" lon="12.5829409"><ele>297.0</ele><time>2026-03-22T10:09:57.511Z</time></trkpt><trkpt lat="43.6768582" lon="12.5829845"><ele>297.0</ele><time>2026-03-22T10:09:58.51Z</time></trkpt><trkpt lat="43.676892" lon="12.5830631"><ele>297.0</ele><time>2026-03-22T10:09:59.51Z</time></trkpt><trkpt lat="43.6769175" lon="12.583173"><ele>297.0</ele><time>2026-03-22T10:10:00.511Z</time></trkpt><trkpt lat="43.6769466" lon="12.583328"><ele>295.8</ele><time>2026-03-22T10:10:01.51Z</time></trkpt><trkpt lat="43.6769855" lon="12.5834763"><ele>294.6</ele><time>2026-03-22T10:10:02.512Z</time></trkpt><trkpt lat="43.67701" lon="12.5836221"><ele>293.40000000000003</ele><time>2026-03-22T10:10:03.511Z</time></trkpt><trkpt lat="43.6770267" lon="12.5837485"><ele>292.2</ele><time>2026-03-22T10:10:04.51Z</time></trkpt><trkpt lat="43.6770727" lon="12.583862"><ele>291.0</ele><time>2026-03-22T10:10:05.511Z</time></trkpt><trkpt lat="43.6771412" lon="12.5839592"><ele>294.0</ele><time>2026-03-22T10:10:06.51Z</time></trkpt><trkpt lat="43.6772088" lon="12.5840592"><ele>297.0</ele><time>2026-03-22T10:10:07.511Z</time></trkpt><trkpt lat="43.6772835" lon="12.5841622"><ele>300.0</ele><time>2026-03-22T10:10:08.51Z</time></trkpt><trkpt lat="43.677362" lon="12.5842644"><ele>303.0</ele><time>2026-03-22T10:10:09.512Z</time></trkpt><trkpt lat="43.6774518" lon="12.5843683"><ele>306.0</ele><time>2026-03-22T10:10:10.511Z</time></trkpt><trkpt lat="43.6775519" lon="12.5844561"><ele>309.75</ele><time>2026-03-22T10:10:11.511Z</time></trkpt><trkpt lat="43.6776634" lon="12.5845191"><ele>313.5</ele><time>2026-03-22T10:10:12.511Z</time></trkpt><trkpt lat="43.6777905" lon="12.5845621"><ele>317.25</ele><time>2026-03-22T10:10:13.511Z</time></trkpt><trkpt lat="43.6779225" lon="12.5845896"><ele>321.0</ele><time>2026-03-22T10:10:14.511Z</time></trkpt><trkpt lat="43.6780611" lon="12.5846154"><ele>321.0</ele><time>2026-03-22T10:10:15.511Z</time></trkpt><trkpt lat="43.6781832" lon="12.5846346"><ele>321.0</ele><time>2026-03-22T10:10:16.511Z</time></trkpt><trkpt lat="43.6782884" lon="12.5846649"><ele>321.0</ele><time>2026-03-22T10:10:17.511Z</time></trkpt><trkpt lat="43.6783734" lon="12.5847189"><ele>321.0</ele><time>2026-03-22T10:10:18.511Z</time></trkpt><trkpt lat="43.6784623" lon="12.5848084"><ele>321.0</ele><time>2026-03-22T10:10:19.511Z</time></trkpt><trkpt lat="43.678541" lon="12.5849128"><ele>321.0</ele><time>2026-03-22T10:10:20.511Z</time></trkpt><trkpt lat="43.6785948" lon="12.5850393"><ele>321.0</ele><time>2026-03-22T10:10:21.51Z</time></trkpt><trkpt lat="43.6786231" lon="12.5851611"><ele>321.0</ele><time>2026-03-22T10:10:22.51Z</time></trkpt><trkpt lat="43.6786349" lon="12.5853004"><ele>321.0</ele><time>2026-03-22T10:10:23.512Z</time></trkpt><trkpt lat="43.6786355" lon="12.5854525"><ele>321.0</ele><time>2026-03-22T10:10:24.512Z</time></trkpt><trkpt lat="43.6786231" lon="12.5856354"><ele>323.6666666666667</ele><time>2026-03-22T10:10:25.51Z</time></trkpt><trkpt lat="43.6786032" lon="12.5858533"><ele>326.33333333333337</ele><time>2026-03-22T10:10:26.511Z</time></trkpt><trkpt lat="43.6785914" lon="12.5860833"><ele>329.0</ele><time>2026-03-22T10:10:27.512Z</time></trkpt><trkpt lat="43.6785892" lon="12.5863283"><ele>330.0</ele><time>2026-03-22T10:10:28.511Z</time></trkpt><trkpt lat="43.6785936" lon="12.5865265"><ele>331.0</ele><time>2026-03-22T10:10:29.511Z</time></trkpt><trkpt lat="43.6785969" lon="12.5867031"><ele>332.0</ele><time>2026-03-22T10:10:30.512Z</time></trkpt><trkpt lat="43.6786014" lon="12.5868498"><ele>333.0</ele><time>2026-03-22T10:10:31.511Z</time></trkpt><trkpt lat="43.678598" lon="12.5869812"><ele>334.25</ele><time>2026-03-22T10:10:32.51Z</time></trkpt><trkpt lat="43.6785816" lon="12.5871202"><ele>335.5</ele><time>2026-03-22T10:10:33.51Z</time></trkpt><trkpt lat="43.6785501" lon="12.5872715"><ele>336.75</ele><time>2026-03-22T10:10:34.512Z</time></trkpt><trkpt lat="43.6785072" lon="12.5874318"><ele>338.0</ele><time>2026-03-22T10:10:35.511Z</time></trkpt><trkpt lat="43.678462" lon="12.5876095"><ele>338.0</ele><time>2026-03-22T10:10:36.511Z</time></trkpt><trkpt lat="43.6784182" lon="12.5877985"><ele>338.0</ele><time>2026-03-22T10:10:37.512Z</time></trkpt><trkpt lat="43.6783776" lon="12.5879952"><ele>338.0</ele><time>2026-03-22T10:10:38.51Z</time></trkpt><trkpt lat="43.6783452" lon="12.5881968"><ele>338.0</ele><time>2026-03-22T10:10:39.511Z</time></trkpt><trkpt lat="43.6783087" lon="12.5883998"><ele>339.0</ele><time>2026-03-22T10:10:40.51Z</time></trkpt><trkpt lat="43.6782759" lon="12.5886081"><ele>340.0</ele><time>2026-03-22T10:10:41.512Z</time></trkpt><trkpt lat="43.6782419" lon="12.5888206"><ele>341.0</ele><time>2026-03-22T10:10:42.511Z</time></trkpt><trkpt lat="43.678208" lon="12.5890365"><ele>341.0</ele><time>2026-03-22T10:10:43.511Z</time></trkpt><trkpt lat="43.6781751" lon="12.5892318"><ele>341.0</ele><time>2026-03-22T10:10:44.512Z</time></trkpt><trkpt lat="43.6781486" lon="12.5894034"><ele>341.0</ele><time>2026-03-22T10:10:45.511Z</time></trkpt><trkpt lat="43.6781238" lon="12.5895606"><ele>341.0</ele><time>2026-03-22T10:10:46.511Z</time></trkpt><trkpt lat="43.6780967" lon="12.5897044"><ele>342.0</ele><time>2026-03-22T10:10:47.51Z</time></trkpt><trkpt lat="43.6780756" lon="12.5898344"><ele>343.0</ele><time>2026-03-22T10:10:48.51Z</time></trkpt><trkpt lat="43.678064" lon="12.5899409"><ele>344.0</ele><time>2026-03-22T10:10:49.51Z</time></trkpt><trkpt lat="43.6780694" lon="12.5900362"><ele>345.0</ele><time>2026-03-22T10:10:50.511Z</time></trkpt><trkpt lat="43.678087" lon="12.5901242"><ele>346.0</ele><time>2026-03-22T10:10:51.51Z</time></trkpt><trkpt lat="43.6781153" lon="12.5902112"><ele>347.0</ele><time>2026-03-22T10:10:52.51Z</time></trkpt><trkpt lat="43.6781612" lon="12.5902902"><ele>349.5</ele><time>2026-03-22T10:10:53.51Z</time></trkpt><trkpt lat="43.6782293" lon="12.5903722"><ele>352.0</ele><time>2026-03-22T10:10:54.511Z</time></trkpt><trkpt lat="43.6783225" lon="12.590467"><ele>354.5</ele><time>2026-03-22T10:10:55.512Z</time></trkpt><trkpt lat="43.6784369" lon="12.5905696"><ele>357.0</ele><time>2026-03-22T10:10:56.511Z</time></trkpt><trkpt lat="43.6785718" lon="12.590672"><ele>356.20000000000005</ele><time>2026-03-22T10:10:57.511Z</time></trkpt><trkpt lat="43.6786955" lon="12.5907455"><ele>355.4</ele><time>2026-03-22T10:10:58.511Z</time></trkpt><trkpt lat="43.6787979" lon="12.59081"><ele>354.6</ele><time>2026-03-22T10:10:59.51Z</time></trkpt><trkpt lat="43.6788847" lon="12.5908721"><ele>353.79999999999995</ele><time>2026-03-22T10:11:00.511Z</time></trkpt><trkpt lat="43.6789557" lon="12.5909604"><ele>353.0</ele><time>2026-03-22T10:11:01.511Z</time></trkpt><trkpt lat="43.6789955" lon="12.5910784"><ele>354.5</ele><time>2026-03-22T10:11:02.511Z</time></trkpt><trkpt lat="43.6790096" lon="12.5912216"><ele>356.0</ele><time>2026-03-22T10:11:03.51Z</time></trkpt><trkpt lat="43.678995" lon="12.5913952"><ele>357.5</ele><time>2026-03-22T10:11:04.511Z</time></trkpt><trkpt lat="43.6789686" lon="12.5916113"><ele>359.0</ele><time>2026-03-22T10:11:05.51Z</time></trkpt><trkpt lat="43.6789439" lon="12.5918222"><ele>359.0</ele><time>2026-03-22T10:11:06.51Z</time></trkpt><trkpt lat="43.67892" lon="12.591993"><ele>359.0</ele><time>2026-03-22T10:11:07.511Z</time></trkpt><trkpt lat="43.6788942" lon="12.5921539"><ele>359.0</ele><time>2026-03-22T10:11:08.512Z</time></trkpt><trkpt lat="43.6788651" lon="12.5922821"><ele>359.0</ele><time>2026-03-22T10:11:09.51Z</time></trkpt><trkpt lat="43.678827" lon="12.5923851"><ele>359.0</ele><time>2026-03-22T10:11:10.511Z</time></trkpt><trkpt lat="43.6787916" lon="12.5924821"><ele>360.4</ele><time>2026-03-22T10:11:11.511Z</time></trkpt><trkpt lat="43.6787737" lon="12.592607"><ele>361.79999999999995</ele><time>2026-03-22T10:11:12.511Z</time></trkpt><trkpt lat="43.6787903" lon="12.5927455"><ele>363.20000000000005</ele><time>2026-03-22T10:11:13.512Z</time></trkpt><trkpt lat="43.6788272" lon="12.5928984"><ele>364.6</ele><time>2026-03-22T10:11:14.511Z</time></trkpt><trkpt lat="43.6788763" lon="12.5930256"><ele>366.0</ele><time>2026-03-22T10:11:15.512Z</time></trkpt><trkpt lat="43.6789575" lon="12.593135"><ele>367.5</ele><time>2026-03-22T10:11:16.511Z</time></trkpt><trkpt lat="43.6790686" lon="12.5932314"><ele>369.0</ele><time>2026-03-22T10:11:17.511Z</time></trkpt><trkpt lat="43.6791948" lon="12.5933095"><ele>370.5</ele><time>2026-03-22T10:11:18.512Z</time></trkpt><trkpt lat="43.6792941" lon="12.593386"><ele>372.0</ele><time>2026-03-22T10:11:19.51Z</time></trkpt><trkpt lat="43.679394" lon="12.5934867"><ele>369.3333333333333</ele><time>2026-03-22T10:11:20.51Z</time></trkpt><trkpt lat="43.6794989" lon="12.593617"><ele>366.66666666666663</ele><time>2026-03-22T10:11:21.511Z</time></trkpt><trkpt lat="43.679627" lon="12.5937576"><ele>364.0</ele><time>2026-03-22T10:11:22.51Z</time></trkpt><trkpt lat="43.67976" lon="12.593917"><ele>369.66666666666663</ele><time>2026-03-22T10:11:23.51Z</time></trkpt><trkpt lat="43.6798996" lon="12.594084"><ele>375.3333333333333</ele><time>2026-03-22T10:11:24.511Z</time></trkpt><trkpt lat="43.6800292" lon="12.5942047"><ele>381.0</ele><time>2026-03-22T10:11:25.511Z</time></trkpt><trkpt lat="43.6801479" lon="12.5943237"><ele>381.0</ele><time>2026-03-22T10:11:26.511Z</time></trkpt><trkpt lat="43.6802562" lon="12.5944373"><ele>381.0</ele><time>2026-03-22T10:11:27.511Z</time></trkpt><trkpt lat="43.6803573" lon="12.5945364"><ele>381.0</ele><time>2026-03-22T10:11:28.51Z</time></trkpt><trkpt lat="43.6804479" lon="12.5946278"><ele>381.0</ele><time>2026-03-22T10:11:29.511Z</time></trkpt><trkpt lat="43.6805612" lon="12.5946946"><ele>383.0</ele><time>2026-03-22T10:11:30.51Z</time></trkpt><trkpt lat="43.680672" lon="12.5947255"><ele>385.0</ele><time>2026-03-22T10:11:31.51Z</time></trkpt><trkpt lat="43.6807685" lon="12.5947655"><ele>387.0</ele><time>2026-03-22T10:11:32.51Z</time></trkpt><trkpt lat="43.6808386" lon="12.5948385"><ele>389.0</ele><time>2026-03-22T10:11:33.51Z</time></trkpt><trkpt lat="43.6809079" lon="12.594952"><ele>391.0</ele><time>2026-03-22T10:11:34.511Z</time></trkpt><trkpt lat="43.6809721" lon="12.5950394"><ele>391.00000000000006</ele><time>2026-03-22T10:11:35.511Z</time></trkpt><trkpt lat="43.6810279" lon="12.5950841"><ele>391.0</ele><time>2026-03-22T10:11:36.512Z</time></trkpt><trkpt lat="43.6810954" lon="12.595103"><ele>391.0</ele><time>2026-03-22T10:11:37.51Z</time></trkpt><trkpt lat="43.6811205" lon="12.5950123"><ele>391.0</ele><time>2026-03-22T10:11:38.51Z</time></trkpt><trkpt lat="43.6811242" lon="12.5948985"><ele>391.00000000000006</ele><time>2026-03-22T10:11:39.511Z</time></trkpt><trkpt lat="43.6811136" lon="12.5947615"><ele>391.0</ele><time>2026-03-22T10:11:40.511Z</time></trkpt><trkpt lat="43.6811103" lon="12.5946389"><ele>392.20000000000005</ele><time>2026-03-22T10:11:41.512Z</time></trkpt><trkpt lat="43.6811478" lon="12.5945486"><ele>393.40000000000003</ele><time>2026-03-22T10:11:42.511Z</time></trkpt><trkpt lat="43.6812056" lon="12.5944865"><ele>394.6</ele><time>2026-03-22T10:11:43.51Z</time></trkpt><trkpt lat="43.681344" lon="12.5944966"><ele>395.8</ele><time>2026-03-22T10:11:45.511Z</time></trkpt><trkpt lat="43.6814848" lon="12.5945586"><ele>397.0</ele><time>2026-03-22T10:11:46.51Z</time></trkpt><trkpt lat="43.6816391" lon="12.5946074"><ele>397.0</ele><time>2026-03-22T10:11:47.51Z</time></trkpt><trkpt lat="43.6818311" lon="12.5946436"><ele>397.0</ele><time>2026-03-22T10:11:48.511Z</time></trkpt><trkpt lat="43.6820065" lon="12.5946755"><ele>397.0</ele><time>2026-03-22T10:11:49.511Z</time></trkpt><trkpt lat="43.6821562" lon="12.5947051"><ele>397.5</ele><time>2026-03-22T10:11:50.511Z</time></trkpt><trkpt lat="43.682295" lon="12.5947458"><ele>398.0</ele><time>2026-03-22T10:11:51.51Z</time></trkpt><trkpt lat="43.6824317" lon="12.5948004"><ele>398.5</ele><time>2026-03-22T10:11:52.51Z</time></trkpt><trkpt lat="43.6825446" lon="12.5948291"><ele>399.0</ele><time>2026-03-22T10:11:53.511Z</time></trkpt><trkpt lat="43.6826611" lon="12.5948212"><ele>401.0</ele><time>2026-03-22T10:11:54.512Z</time></trkpt><trkpt lat="43.6827885" lon="12.5947603"><ele>403.0</ele><time>2026-03-22T10:11:55.511Z</time></trkpt><trkpt lat="43.6829147" lon="12.5946903"><ele>405.0</ele><time>2026-03-22T10:11:56.51Z</time></trkpt><trkpt lat="43.6830237" lon="12.5946513"><ele>407.0</ele><time>2026-03-22T10:11:57.511Z</time></trkpt><trkpt lat="43.6831349" lon="12.5946377"><ele>407.0</ele><time>2026-03-22T10:11:58.511Z</time></trkpt><trkpt lat="43.6832453" lon="12.5946428"><ele>407.0</ele><time>2026-03-22T10:11:59.51Z</time></trkpt><trkpt lat="43.6833498" lon="12.5946178"><ele>407.0</ele><time>2026-03-22T10:12:00.512Z</time></trkpt><trkpt lat="43.6834456" lon="12.5945436"><ele>407.0</ele><time>2026-03-22T10:12:01.511Z</time></trkpt><trkpt lat="43.6835392" lon="12.5944167"><ele>408.66666666666663</ele><time>2026-03-22T10:12:02.51Z</time></trkpt><trkpt lat="43.6836424" lon="12.5942624"><ele>410.33333333333337</ele><time>2026-03-22T10:12:03.511Z</time></trkpt><trkpt lat="43.6837529" lon="12.5940904"><ele>412.0</ele><time>2026-03-22T10:12:04.511Z</time></trkpt><trkpt lat="43.6838411" lon="12.5939315"><ele>412.0</ele><time>2026-03-22T10:12:05.511Z</time></trkpt><trkpt lat="43.6839185" lon="12.5937909"><ele>412.0</ele><time>2026-03-22T10:12:06.511Z</time></trkpt><trkpt lat="43.6839823" lon="12.5936699"><ele>412.0</ele><time>2026-03-22T10:12:07.511Z</time></trkpt><trkpt lat="43.6840362" lon="12.5935684"><ele>412.0</ele><time>2026-03-22T10:12:08.51Z</time></trkpt><trkpt lat="43.6840874" lon="12.5934912"><ele>412.0</ele><time>2026-03-22T10:12:09.511Z</time></trkpt><trkpt lat="43.6841413" lon="12.5933919"><ele>410.6666666666667</ele><time>2026-03-22T10:12:11.51Z</time></trkpt><trkpt lat="43.6841444" lon="12.5932476"><ele>409.33333333333337</ele><time>2026-03-22T10:12:13.511Z</time></trkpt><trkpt lat="43.6841254" lon="12.593149"><ele>408.0</ele><time>2026-03-22T10:12:14.511Z</time></trkpt><trkpt lat="43.6840943" lon="12.5930395"><ele>406.66666666666663</ele><time>2026-03-22T10:12:15.51Z</time></trkpt><trkpt lat="43.6840548" lon="12.5929277"><ele>405.3333333333333</ele><time>2026-03-22T10:12:16.51Z</time></trkpt><trkpt lat="43.6840183" lon="12.5928224"><ele>404.0</ele><time>2026-03-22T10:12:17.51Z</time></trkpt><trkpt lat="43.6839824" lon="12.5927241"><ele>402.2</ele><time>2026-03-22T10:12:18.511Z</time></trkpt><trkpt lat="43.6839399" lon="12.5925819"><ele>400.4</ele><time>2026-03-22T10:12:20.511Z</time></trkpt><trkpt lat="43.6839461" lon="12.5924422"><ele>398.6</ele><time>2026-03-22T10:12:22.51Z</time></trkpt><trkpt lat="43.6839689" lon="12.5922747"><ele>396.8</ele><time>2026-03-22T10:12:24.511Z</time></trkpt><trkpt lat="43.6839655" lon="12.5921754"><ele>395.0</ele><time>2026-03-22T10:12:25.511Z</time></trkpt><trkpt lat="43.6839495" lon="12.5920608"><ele>393.16666666666663</ele><time>2026-03-22T10:12:26.51Z</time></trkpt><trkpt lat="43.6839216" lon="12.5919457"><ele>391.3333333333333</ele><time>2026-03-22T10:12:27.511Z</time></trkpt><trkpt lat="43.6838928" lon="12.5918309"><ele>389.5</ele><time>2026-03-22T10:12:28.511Z</time></trkpt><trkpt lat="43.6838577" lon="12.5917173"><ele>387.66666666666663</ele><time>2026-03-22T10:12:29.511Z</time></trkpt><trkpt lat="43.6838171" lon="12.5916129"><ele>385.8333333333333</ele><time>2026-03-22T10:12:30.511Z</time></trkpt><trkpt lat="43.6837664" lon="12.5915164"><ele>384.0</ele><time>2026-03-22T10:12:31.512Z</time></trkpt><trkpt lat="43.6837108" lon="12.5914236"><ele>384.0</ele><time>2026-03-22T10:12:32.511Z</time></trkpt><trkpt lat="43.6836545" lon="12.5913265"><ele>384.0</ele><time>2026-03-22T10:12:33.511Z</time></trkpt><trkpt lat="43.6835995" lon="12.5912324"><ele>384.0</ele><time>2026-03-22T10:12:34.51Z</time></trkpt><trkpt lat="43.683548" lon="12.5911481"><ele>384.0</ele><time>2026-03-22T10:12:35.51Z</time></trkpt><trkpt lat="43.6834995" lon="12.5910691"><ele>384.0</ele><time>2026-03-22T10:12:36.511Z</time></trkpt><trkpt lat="43.6834575" lon="12.590995"><ele>384.0</ele><time>2026-03-22T10:12:37.51Z</time></trkpt><trkpt lat="43.6834144" lon="12.5908325"><ele>383.0</ele><time>2026-03-22T10:12:39.511Z</time></trkpt><trkpt lat="43.6834255" lon="12.5907387"><ele>382.0</ele><time>2026-03-22T10:12:40.511Z</time></trkpt><trkpt lat="43.6834427" lon="12.5906413"><ele>381.0</ele><time>2026-03-22T10:12:41.512Z</time></trkpt><trkpt lat="43.6834709" lon="12.5905362"><ele>380.0</ele><time>2026-03-22T10:12:42.51Z</time></trkpt><trkpt lat="43.6835087" lon="12.5904159"><ele>379.0</ele><time>2026-03-22T10:12:43.511Z</time></trkpt><trkpt lat="43.6835469" lon="12.5902905"><ele>378.0</ele><time>2026-03-22T10:12:44.51Z</time></trkpt><trkpt lat="43.6835842" lon="12.5901835"><ele>375.8333333333333</ele><time>2026-03-22T10:12:45.511Z</time></trkpt><trkpt lat="43.6836234" lon="12.5900914"><ele>373.6666666666667</ele><time>2026-03-22T10:12:46.511Z</time></trkpt><trkpt lat="43.6836722" lon="12.5900232"><ele>371.5</ele><time>2026-03-22T10:12:47.512Z</time></trkpt><trkpt lat="43.6837397" lon="12.5899733"><ele>369.33333333333337</ele><time>2026-03-22T10:12:48.512Z</time></trkpt><trkpt lat="43.6838265" lon="12.5899348"><ele>367.1666666666667</ele><time>2026-03-22T10:12:49.512Z</time></trkpt><trkpt lat="43.6839317" lon="12.5899066"><ele>365.0</ele><time>2026-03-22T10:12:50.51Z</time></trkpt><trkpt lat="43.684059" lon="12.5898837"><ele>365.0</ele><time>2026-03-22T10:12:51.51Z</time></trkpt><trkpt lat="43.6841723" lon="12.5898656"><ele>365.0</ele><time>2026-03-22T10:12:52.511Z</time></trkpt><trkpt lat="43.6842783" lon="12.5898475"><ele>365.0</ele><time>2026-03-22T10:12:53.511Z</time></trkpt><trkpt lat="43.6843763" lon="12.5898229"><ele>365.0</ele><time>2026-03-22T10:12:54.512Z</time></trkpt><trkpt lat="43.6844627" lon="12.5897833"><ele>365.0</ele><time>2026-03-22T10:12:55.511Z</time></trkpt><trkpt lat="43.6845414" lon="12.5897391"><ele>364.6</ele><time>2026-03-22T10:12:56.511Z</time></trkpt><trkpt lat="43.6846211" lon="12.5896832"><ele>364.2</ele><time>2026-03-22T10:12:57.511Z</time></trkpt><trkpt lat="43.6847214" lon="12.5896528"><ele>363.79999999999995</ele><time>2026-03-22T10:12:58.51Z</time></trkpt><trkpt lat="43.6848522" lon="12.5896312"><ele>363.4</ele><time>2026-03-22T10:12:59.512Z</time></trkpt><trkpt lat="43.6849686" lon="12.5896151"><ele>363.0</ele><time>2026-03-22T10:13:00.511Z</time></trkpt><trkpt lat="43.6850796" lon="12.5895986"><ele>363.0</ele><time>2026-03-22T10:13:01.51Z</time></trkpt><trkpt lat="43.6851866" lon="12.5895883"><ele>363.0</ele><time>2026-03-22T10:13:02.511Z</time></trkpt><trkpt lat="43.6852864" lon="12.5895792"><ele>363.0</ele><time>2026-03-22T10:13:03.511Z</time></trkpt><trkpt lat="43.6853777" lon="12.5895655"><ele>363.0</ele><time>2026-03-22T10:13:04.51Z</time></trkpt><trkpt lat="43.6854566" lon="12.5895318"><ele>363.0</ele><time>2026-03-22T10:13:05.512Z</time></trkpt><trkpt lat="43.6855243" lon="12.589453"><ele>362.79999999999995</ele><time>2026-03-22T10:13:06.511Z</time></trkpt><trkpt lat="43.685592" lon="12.5893326"><ele>362.6</ele><time>2026-03-22T10:13:07.511Z</time></trkpt><trkpt lat="43.6856483" lon="12.5892029"><ele>362.4</ele><time>2026-03-22T10:13:08.512Z</time></trkpt><trkpt lat="43.6856989" lon="12.589097"><ele>362.20000000000005</ele><time>2026-03-22T10:13:09.511Z</time></trkpt><trkpt lat="43.6857425" lon="12.5889991"><ele>362.0</ele><time>2026-03-22T10:13:10.51Z</time></trkpt><trkpt lat="43.685793" lon="12.5889139"><ele>362.0</ele><time>2026-03-22T10:13:11.511Z</time></trkpt><trkpt lat="43.6858541" lon="12.588824"><ele>362.0</ele><time>2026-03-22T10:13:13.51Z</time></trkpt><trkpt lat="43.685865" lon="12.5887248"><ele>362.0</ele><time>2026-03-22T10:13:15.511Z</time></trkpt><trkpt lat="43.685897" lon="12.5886322"><ele>362.0</ele><time>2026-03-22T10:13:24.51Z</time></trkpt><trkpt lat="43.6859441" lon="12.5885511"><ele>362.0</ele><time>2026-03-22T10:13:27.51Z</time></trkpt><trkpt lat="43.6859983" lon="12.5884522"><ele>362.0</ele><time>2026-03-22T10:13:29.51Z</time></trkpt><trkpt lat="43.6860584" lon="12.5883573"><ele>359.6666666666667</ele><time>2026-03-22T10:13:31.51Z</time></trkpt><trkpt lat="43.6861215" lon="12.5883373"><ele>357.33333333333337</ele><time>2026-03-22T10:13:34.511Z</time></trkpt><trkpt lat="43.6861837" lon="12.5884162"><ele>355.0</ele><time>2026-03-22T10:13:37.511Z</time></trkpt><trkpt lat="43.6862327" lon="12.588531"><ele>352.6666666666667</ele><time>2026-03-22T10:13:39.51Z</time></trkpt><trkpt lat="43.6862683" lon="12.5886594"><ele>350.3333333333333</ele><time>2026-03-22T10:13:41.511Z</time></trkpt><trkpt lat="43.6863548" lon="12.5886057"><ele>348.0</ele><time>2026-03-22T10:13:44.512Z</time></trkpt><trkpt lat="43.6863806" lon="12.5884635"><ele>348.0</ele><time>2026-03-22T10:13:46.511Z</time></trkpt><trkpt lat="43.6863861" lon="12.5883593"><ele>348.0</ele><time>2026-03-22T10:13:47.511Z</time></trkpt><trkpt lat="43.6863891" lon="12.5882492"><ele>348.0</ele><time>2026-03-22T10:13:48.511Z</time></trkpt><trkpt lat="43.68639" lon="12.5881449"><ele>348.0</ele><time>2026-03-22T10:13:49.51Z</time></trkpt><trkpt lat="43.6863916" lon="12.5880504"><ele>348.0</ele><time>2026-03-22T10:13:50.511Z</time></trkpt><trkpt lat="43.686402" lon="12.5879626"><ele>348.0</ele><time>2026-03-22T10:13:51.511Z</time></trkpt><trkpt lat="43.6864733" lon="12.5878181"><ele>346.79999999999995</ele><time>2026-03-22T10:13:53.51Z</time></trkpt><trkpt lat="43.6865305" lon="12.5877657"><ele>345.6</ele><time>2026-03-22T10:13:54.512Z</time></trkpt><trkpt lat="43.6865978" lon="12.5877302"><ele>344.4</ele><time>2026-03-22T10:13:55.511Z</time></trkpt><trkpt lat="43.6866603" lon="12.5877059"><ele>343.20000000000005</ele><time>2026-03-22T10:13:56.51Z</time></trkpt><trkpt lat="43.6867363" lon="12.5875955"><ele>342.0</ele><time>2026-03-22T10:13:58.51Z</time></trkpt><trkpt lat="43.6867061" lon="12.5873968"><ele>342.0</ele><time>2026-03-22T10:14:00.51Z</time></trkpt><trkpt lat="43.6866566" lon="12.5872547"><ele>342.0</ele><time>2026-03-22T10:14:01.512Z</time></trkpt><trkpt lat="43.686607" lon="12.5871197"><ele>342.0</ele><time>2026-03-22T10:14:02.511Z</time></trkpt><trkpt lat="43.6865592" lon="12.5869874"><ele>342.0</ele><time>2026-03-22T10:14:03.51Z</time></trkpt><trkpt lat="43.6865145" lon="12.5868607"><ele>342.0</ele><time>2026-03-22T10:14:04.51Z</time></trkpt><trkpt lat="43.6864758" lon="12.5867323"><ele>339.5</ele><time>2026-03-22T10:14:05.511Z</time></trkpt><trkpt lat="43.6864529" lon="12.5865919"><ele>337.0</ele><time>2026-03-22T10:14:06.51Z</time></trkpt><trkpt lat="43.6864479" lon="12.5864315"><ele>334.5</ele><time>2026-03-22T10:14:07.51Z</time></trkpt><trkpt lat="43.6864465" lon="12.5862546"><ele>332.0</ele><time>2026-03-22T10:14:08.51Z</time></trkpt><trkpt lat="43.6864452" lon="12.5860708"><ele>329.5</ele><time>2026-03-22T10:14:09.51Z</time></trkpt><trkpt lat="43.6864417" lon="12.5858912"><ele>327.0</ele><time>2026-03-22T10:14:10.512Z</time></trkpt><trkpt lat="43.6864388" lon="12.5857198"><ele>324.5</ele><time>2026-03-22T10:14:11.512Z</time></trkpt><trkpt lat="43.6864383" lon="12.5855598"><ele>322.0</ele><time>2026-03-22T10:14:12.511Z</time></trkpt><trkpt lat="43.6864292" lon="12.5854031"><ele>320.6</ele><time>2026-03-22T10:14:13.51Z</time></trkpt><trkpt lat="43.686426" lon="12.5852484"><ele>319.20000000000005</ele><time>2026-03-22T10:14:14.51Z</time></trkpt><trkpt lat="43.6864194" lon="12.5851039"><ele>317.8</ele><time>2026-03-22T10:14:15.512Z</time></trkpt><trkpt lat="43.686412" lon="12.5849658"><ele>316.4</ele><time>2026-03-22T10:14:16.51Z</time></trkpt><trkpt lat="43.686406" lon="12.5848332"><ele>315.0</ele><time>2026-03-22T10:14:17.511Z</time></trkpt><trkpt lat="43.6863982" lon="12.5846968"><ele>315.0</ele><time>2026-03-22T10:14:18.511Z</time></trkpt><trkpt lat="43.6863989" lon="12.5845643"><ele>315.0</ele><time>2026-03-22T10:14:19.512Z</time></trkpt><trkpt lat="43.686396" lon="12.5844342"><ele>315.0</ele><time>2026-03-22T10:14:20.511Z</time></trkpt><trkpt lat="43.6864001" lon="12.584308"><ele>315.0</ele><time>2026-03-22T10:14:21.511Z</time></trkpt><trkpt lat="43.6864013" lon="12.5841843"><ele>315.0</ele><time>2026-03-22T10:14:22.51Z</time></trkpt><trkpt lat="43.6863908" lon="12.5840716"><ele>313.6666666666667</ele><time>2026-03-22T10:14:23.512Z</time></trkpt><trkpt lat="43.6863613" lon="12.5839749"><ele>312.3333333333333</ele><time>2026-03-22T10:14:24.51Z</time></trkpt><trkpt lat="43.6863099" lon="12.5838855"><ele>311.0</ele><time>2026-03-22T10:14:25.511Z</time></trkpt><trkpt lat="43.6862335" lon="12.5838058"><ele>309.66666666666663</ele><time>2026-03-22T10:14:26.51Z</time></trkpt><trkpt lat="43.686151" lon="12.5837402"><ele>308.3333333333333</ele><time>2026-03-22T10:14:27.512Z</time></trkpt><trkpt lat="43.6860633" lon="12.5836956"><ele>307.0</ele><time>2026-03-22T10:14:28.511Z</time></trkpt><trkpt lat="43.6859725" lon="12.583665"><ele>305.0</ele><time>2026-03-22T10:14:29.51Z</time></trkpt><trkpt lat="43.6858768" lon="12.5836482"><ele>303.0</ele><time>2026-03-22T10:14:30.512Z</time></trkpt><trkpt lat="43.6857803" lon="12.5836368"><ele>301.0</ele><time>2026-03-22T10:14:31.511Z</time></trkpt><trkpt lat="43.685695" lon="12.5836321"><ele>299.0</ele><time>2026-03-22T10:14:32.511Z</time></trkpt><trkpt lat="43.6856216" lon="12.5836316"><ele>297.0</ele><time>2026-03-22T10:14:33.51Z</time></trkpt><trkpt lat="43.6855565" lon="12.5836264"><ele>295.0</ele><time>2026-03-22T10:14:34.511Z</time></trkpt><trkpt lat="43.6854506" lon="12.5835715"><ele>295.0</ele><time>2026-03-22T10:14:36.512Z</time></trkpt><trkpt lat="43.6853958" lon="12.5835025"><ele>295.0</ele><time>2026-03-22T10:14:37.51Z</time></trkpt><trkpt lat="43.6853346" lon="12.583413"><ele>295.0</ele><time>2026-03-22T10:14:38.512Z</time></trkpt><trkpt lat="43.6852688" lon="12.5833185"><ele>295.0</ele><time>2026-03-22T10:14:39.511Z</time></trkpt><trkpt lat="43.6852087" lon="12.5832475"><ele>295.0</ele><time>2026-03-22T10:14:40.511Z</time></trkpt><trkpt lat="43.6851609" lon="12.5831889"><ele>295.0</ele><time>2026-03-22T10:14:41.51Z</time></trkpt><trkpt lat="43.685127" lon="12.5830462"><ele>295.0</ele><time>2026-03-22T10:14:43.511Z</time></trkpt><trkpt lat="43.6852033" lon="12.5829335"><ele>295.0</ele><time>2026-03-22T10:14:45.51Z</time></trkpt><trkpt lat="43.6852916" lon="12.5828604"><ele>295.0</ele><time>2026-03-22T10:14:46.511Z</time></trkpt><trkpt lat="43.685397" lon="12.5827905"><ele>295.0</ele><time>2026-03-22T10:14:47.511Z</time></trkpt><trkpt lat="43.6855077" lon="12.5827043"><ele>292.0</ele><time>2026-03-22T10:14:48.511Z</time></trkpt><trkpt lat="43.6856169" lon="12.5826288"><ele>289.0</ele><time>2026-03-22T10:14:49.511Z</time></trkpt><trkpt lat="43.685729" lon="12.5825572"><ele>286.0</ele><time>2026-03-22T10:14:50.511Z</time></trkpt><trkpt lat="43.685838" lon="12.5825093"><ele>283.0</ele><time>2026-03-22T10:14:51.511Z</time></trkpt><trkpt lat="43.6859423" lon="12.5824728"><ele>283.0</ele><time>2026-03-22T10:14:52.511Z</time></trkpt><trkpt lat="43.68603" lon="12.5824585"><ele>283.0</ele><time>2026-03-22T10:14:53.511Z</time></trkpt><trkpt lat="43.6861088" lon="12.582463"><ele>283.0</ele><time>2026-03-22T10:14:54.51Z</time></trkpt><trkpt lat="43.6861742" lon="12.5825012"><ele>283.0</ele><time>2026-03-22T10:14:55.51Z</time></trkpt><trkpt lat="43.6862343" lon="12.5825753"><ele>283.0</ele><time>2026-03-22T10:14:56.511Z</time></trkpt><trkpt lat="43.6863042" lon="12.5826803"><ele>283.0</ele><time>2026-03-22T10:14:57.511Z</time></trkpt><trkpt lat="43.6863747" lon="12.5827688"><ele>283.0</ele><time>2026-03-22T10:14:58.511Z</time></trkpt><trkpt lat="43.6864469" lon="12.5828368"><ele>283.0</ele><time>2026-03-22T10:14:59.511Z</time></trkpt><trkpt lat="43.6865267" lon="12.5828668"><ele>283.0</ele><time>2026-03-22T10:15:00.511Z</time></trkpt><trkpt lat="43.6866085" lon="12.5828437"><ele>283.0</ele><time>2026-03-22T10:15:01.51Z</time></trkpt><trkpt lat="43.6867029" lon="12.5827816"><ele>283.0</ele><time>2026-03-22T10:15:02.511Z</time></trkpt><trkpt lat="43.6868125" lon="12.5826961"><ele>283.0</ele><time>2026-03-22T10:15:03.51Z</time></trkpt><trkpt lat="43.6869127" lon="12.5826367"><ele>283.0</ele><time>2026-03-22T10:15:04.511Z</time></trkpt><trkpt lat="43.6870127" lon="12.5826163"><ele>283.0</ele><time>2026-03-22T10:15:05.511Z</time></trkpt><trkpt lat="43.6871132" lon="12.5826228"><ele>283.0</ele><time>2026-03-22T10:15:06.511Z</time></trkpt><trkpt lat="43.6872149" lon="12.582662"><ele>283.0</ele><time>2026-03-22T10:15:07.51Z</time></trkpt><trkpt lat="43.6873411" lon="12.5827252"><ele>285.5</ele><time>2026-03-22T10:15:08.512Z</time></trkpt><trkpt lat="43.6874596" lon="12.5827946"><ele>288.0</ele><time>2026-03-22T10:15:09.512Z</time></trkpt><trkpt lat="43.6875634" lon="12.5828941"><ele>290.5</ele><time>2026-03-22T10:15:10.511Z</time></trkpt><trkpt lat="43.6876546" lon="12.5830014"><ele>293.0</ele><time>2026-03-22T10:15:11.51Z</time></trkpt><trkpt lat="43.6877462" lon="12.5830888"><ele>295.75</ele><time>2026-03-22T10:15:12.512Z</time></trkpt><trkpt lat="43.6878532" lon="12.5831587"><ele>298.5</ele><time>2026-03-22T10:15:13.51Z</time></trkpt><trkpt lat="43.6879785" lon="12.5832158"><ele>301.25</ele><time>2026-03-22T10:15:14.51Z</time></trkpt><trkpt lat="43.6881162" lon="12.5832699"><ele>304.0</ele><time>2026-03-22T10:15:15.511Z</time></trkpt><trkpt lat="43.6882351" lon="12.5833141"><ele>304.0</ele><time>2026-03-22T10:15:16.511Z</time></trkpt><trkpt lat="43.6883525" lon="12.5833425"><ele>304.0</ele><time>2026-03-22T10:15:17.51Z</time></trkpt><trkpt lat="43.6884603" lon="12.5833456"><ele>304.0</ele><time>2026-03-22T10:15:18.511Z</time></trkpt><trkpt lat="43.6885639" lon="12.5833223"><ele>304.0</ele><time>2026-03-22T10:15:19.511Z</time></trkpt><trkpt lat="43.688652" lon="12.5832779"><ele>304.0</ele><time>2026-03-22T10:15:20.51Z</time></trkpt><trkpt lat="43.6887254" lon="12.5832112"><ele>306.0</ele><time>2026-03-22T10:15:21.511Z</time></trkpt><trkpt lat="43.6887916" lon="12.5831153"><ele>308.0</ele><time>2026-03-22T10:15:22.511Z</time></trkpt><trkpt lat="43.6888444" lon="12.5830021"><ele>310.0</ele><time>2026-03-22T10:15:23.51Z</time></trkpt><trkpt lat="43.6889076" lon="12.5828695"><ele>312.0</ele><time>2026-03-22T10:15:24.511Z</time></trkpt><trkpt lat="43.6889811" lon="12.5827623"><ele>314.0</ele><time>2026-03-22T10:15:25.51Z</time></trkpt><trkpt lat="43.6890548" lon="12.58268"><ele>314.0</ele><time>2026-03-22T10:15:26.511Z</time></trkpt><trkpt lat="43.6891314" lon="12.5826438"><ele>314.0</ele><time>2026-03-22T10:15:27.51Z</time></trkpt><trkpt lat="43.6892053" lon="12.5826427"><ele>314.0</ele><time>2026-03-22T10:15:28.511Z</time></trkpt><trkpt lat="43.6892879" lon="12.582721"><ele>314.0</ele><time>2026-03-22T10:15:30.511Z</time></trkpt><trkpt lat="43.6892665" lon="12.5828418"><ele>314.0</ele><time>2026-03-22T10:15:32.511Z</time></trkpt><trkpt lat="43.6892166" lon="12.5829212"><ele>314.0</ele><time>2026-03-22T10:15:33.51Z</time></trkpt><trkpt lat="43.6891703" lon="12.5830188"><ele>316.0</ele><time>2026-03-22T10:15:34.511Z</time></trkpt><trkpt lat="43.6891499" lon="12.5831264"><ele>318.0</ele><time>2026-03-22T10:15:35.511Z</time></trkpt><trkpt lat="43.6891455" lon="12.5832611"><ele>320.0</ele><time>2026-03-22T10:15:36.511Z</time></trkpt><trkpt lat="43.6891402" lon="12.5834206"><ele>322.0</ele><time>2026-03-22T10:15:37.511Z</time></trkpt><trkpt lat="43.6891358" lon="12.5835325"><ele>324.0</ele><time>2026-03-22T10:15:38.511Z</time></trkpt><trkpt lat="43.6891592" lon="12.5836288"><ele>326.0</ele><time>2026-03-22T10:15:39.51Z</time></trkpt><trkpt lat="43.6892066" lon="12.5837029"><ele>326.0</ele><time>2026-03-22T10:15:40.512Z</time></trkpt><trkpt lat="43.689279" lon="12.583773"><ele>326.0</ele><time>2026-03-22T10:15:41.51Z</time></trkpt><trkpt lat="43.689361" lon="12.5838575"><ele>326.0</ele><time>2026-03-22T10:15:42.512Z</time></trkpt><trkpt lat="43.6894402" lon="12.5839561"><ele>326.0</ele><time>2026-03-22T10:15:43.511Z</time></trkpt><trkpt lat="43.6895212" lon="12.5840674"><ele>326.0</ele><time>2026-03-22T10:15:44.51Z</time></trkpt><trkpt lat="43.6895926" lon="12.5842154"><ele>330.75</ele><time>2026-03-22T10:15:45.511Z</time></trkpt><trkpt lat="43.6896685" lon="12.5843941"><ele>335.5</ele><time>2026-03-22T10:15:46.512Z</time></trkpt><trkpt lat="43.6897234" lon="12.5845531"><ele>340.25</ele><time>2026-03-22T10:15:47.511Z</time></trkpt><trkpt lat="43.6897666" lon="12.5846854"><ele>345.0</ele><time>2026-03-22T10:15:48.512Z</time></trkpt><trkpt lat="43.6898083" lon="12.5848015"><ele>345.0</ele><time>2026-03-22T10:15:49.511Z</time></trkpt><trkpt lat="43.6898622" lon="12.5849128"><ele>345.0</ele><time>2026-03-22T10:15:50.512Z</time></trkpt><trkpt lat="43.689928" lon="12.5850121"><ele>345.0</ele><time>2026-03-22T10:15:51.511Z</time></trkpt><trkpt lat="43.6899928" lon="12.5850874"><ele>345.0</ele><time>2026-03-22T10:15:52.511Z</time></trkpt><trkpt lat="43.6901002" lon="12.5851116"><ele>345.0</ele><time>2026-03-22T10:15:54.51Z</time></trkpt><trkpt lat="43.6901495" lon="12.5849889"><ele>345.0</ele><time>2026-03-22T10:15:56.51Z</time></trkpt><trkpt lat="43.6901022" lon="12.5848208"><ele>345.0</ele><time>2026-03-22T10:15:58.51Z</time></trkpt><trkpt lat="43.6900636" lon="12.584715"><ele>345.0</ele><time>2026-03-22T10:15:59.511Z</time></trkpt><trkpt lat="43.6900297" lon="12.5845899"><ele>345.0</ele><time>2026-03-22T10:16:00.511Z</time></trkpt><trkpt lat="43.6900151" lon="12.5844713"><ele>345.0</ele><time>2026-03-22T10:16:01.511Z</time></trkpt><trkpt lat="43.6900451" lon="12.58434"><ele>345.0</ele><time>2026-03-22T10:16:03.51Z</time></trkpt><trkpt lat="43.6901114" lon="12.5843885"><ele>345.0</ele><time>2026-03-22T10:16:06.511Z</time></trkpt><trkpt lat="43.6901661" lon="12.5845103"><ele>345.0</ele><time>2026-03-22T10:16:08.51Z</time></trkpt><trkpt lat="43.6902115" lon="12.5845999"><ele>345.0</ele><time>2026-03-22T10:16:09.511Z</time></trkpt><trkpt lat="43.6902714" lon="12.5847089"><ele>345.0</ele><time>2026-03-22T10:16:10.511Z</time></trkpt><trkpt lat="43.6903412" lon="12.5848169"><ele>349.2</ele><time>2026-03-22T10:16:11.511Z</time></trkpt><trkpt lat="43.6904089" lon="12.584903"><ele>353.4</ele><time>2026-03-22T10:16:12.51Z</time></trkpt><trkpt lat="43.6904917" lon="12.5849752"><ele>357.6</ele><time>2026-03-22T10:16:13.511Z</time></trkpt><trkpt lat="43.6905798" lon="12.5850379"><ele>361.8</ele><time>2026-03-22T10:16:14.511Z</time></trkpt><trkpt lat="43.6906738" lon="12.5850964"><ele>366.0</ele><time>2026-03-22T10:16:15.511Z</time></trkpt><trkpt lat="43.6907753" lon="12.5851468"><ele>366.0</ele><time>2026-03-22T10:16:16.511Z</time></trkpt><trkpt lat="43.6908525" lon="12.585231"><ele>366.0</ele><time>2026-03-22T10:16:17.51Z</time></trkpt><trkpt lat="43.6909304" lon="12.5853441"><ele>366.0</ele><time>2026-03-22T10:16:18.512Z</time></trkpt><trkpt lat="43.6910157" lon="12.5854584"><ele>366.0</ele><time>2026-03-22T10:16:19.51Z</time></trkpt><trkpt lat="43.6911047" lon="12.5855627"><ele>366.0</ele><time>2026-03-22T10:16:20.512Z</time></trkpt><trkpt lat="43.6912137" lon="12.585673"><ele>370.5</ele><time>2026-03-22T10:16:21.511Z</time></trkpt><trkpt lat="43.6913219" lon="12.5857881"><ele>375.0</ele><time>2026-03-22T10:16:22.511Z</time></trkpt><trkpt lat="43.6913904" lon="12.5858977"><ele>379.5</ele><time>2026-03-22T10:16:23.51Z</time></trkpt><trkpt lat="43.6914464" lon="12.5860194"><ele>384.0</ele><time>2026-03-22T10:16:24.511Z</time></trkpt><trkpt lat="43.6914941" lon="12.5861482"><ele>384.0</ele><time>2026-03-22T10:16:25.511Z</time></trkpt><trkpt lat="43.691531" lon="12.5862581"><ele>384.0</ele><time>2026-03-22T10:16:26.511Z</time></trkpt><trkpt lat="43.6915565" lon="12.5863538"><ele>384.0</ele><time>2026-03-22T10:16:27.511Z</time></trkpt><trkpt lat="43.6916403" lon="12.5864229"><ele>384.0</ele><time>2026-03-22T10:16:29.511Z</time></trkpt><trkpt lat="43.6916977" lon="12.5863319"><ele>384.0</ele><time>2026-03-22T10:16:31.512Z</time></trkpt><trkpt lat="43.6917106" lon="12.586158"><ele>384.0</ele><time>2026-03-22T10:16:33.51Z</time></trkpt><trkpt lat="43.6917081" lon="12.5860243"><ele>384.0</ele><time>2026-03-22T10:16:34.512Z</time></trkpt><trkpt lat="43.6917027" lon="12.5858622"><ele>384.0</ele><time>2026-03-22T10:16:35.512Z</time></trkpt><trkpt lat="43.6917013" lon="12.5857276"><ele>384.0</ele><time>2026-03-22T10:16:36.511Z</time></trkpt><trkpt lat="43.6917117" lon="12.5856124"><ele>384.0</ele><time>2026-03-22T10:16:37.511Z</time></trkpt><trkpt lat="43.6917482" lon="12.5855072"><ele>384.0</ele><time>2026-03-22T10:16:38.511Z</time></trkpt><trkpt lat="43.6918202" lon="12.58541"><ele>384.0</ele><time>2026-03-22T10:16:39.51Z</time></trkpt><trkpt lat="43.6919179" lon="12.5853198"><ele>384.0</ele><time>2026-03-22T10:16:40.511Z</time></trkpt><trkpt lat="43.6920361" lon="12.5852336"><ele>384.0</ele><time>2026-03-22T10:16:41.51Z</time></trkpt><trkpt lat="43.6921827" lon="12.585147"><ele>387.75</ele><time>2026-03-22T10:16:42.511Z</time></trkpt><trkpt lat="43.6923005" lon="12.5850664"><ele>391.5</ele><time>2026-03-22T10:16:43.51Z</time></trkpt><trkpt lat="43.6924115" lon="12.5850155"><ele>395.25</ele><time>2026-03-22T10:16:44.51Z</time></trkpt><trkpt lat="43.6925282" lon="12.5849929"><ele>399.0</ele><time>2026-03-22T10:16:45.511Z</time></trkpt><trkpt lat="43.6926459" lon="12.5849899"><ele>402.0</ele><time>2026-03-22T10:16:46.511Z</time></trkpt><trkpt lat="43.6927583" lon="12.5849951"><ele>405.0</ele><time>2026-03-22T10:16:47.51Z</time></trkpt><trkpt lat="43.6928481" lon="12.5850047"><ele>408.0</ele><time>2026-03-22T10:16:48.511Z</time></trkpt><trkpt lat="43.6929177" lon="12.5850191"><ele>411.0</ele><time>2026-03-22T10:16:49.511Z</time></trkpt><trkpt lat="43.6930332" lon="12.5850878"><ele>414.0</ele><time>2026-03-22T10:16:51.51Z</time></trkpt><trkpt lat="43.6930953" lon="12.5851333"><ele>414.0</ele><time>2026-03-22T10:16:52.511Z</time></trkpt><trkpt lat="43.6931656" lon="12.5851978"><ele>414.0</ele><time>2026-03-22T10:16:53.511Z</time></trkpt><trkpt lat="43.6932462" lon="12.5852781"><ele>414.0</ele><time>2026-03-22T10:16:54.51Z</time></trkpt><trkpt lat="43.6933296" lon="12.5853769"><ele>414.0</ele><time>2026-03-22T10:16:55.511Z</time></trkpt><trkpt lat="43.6934164" lon="12.5854893"><ele>414.0</ele><time>2026-03-22T10:16:56.511Z</time></trkpt><trkpt lat="43.6934716" lon="12.5855736"><ele>414.5</ele><time>2026-03-22T10:16:57.512Z</time></trkpt><trkpt lat="43.6935167" lon="12.5856574"><ele>415.0</ele><time>2026-03-22T10:16:58.511Z</time></trkpt><trkpt lat="43.6935484" lon="12.5857522"><ele>415.5</ele><time>2026-03-22T10:16:59.51Z</time></trkpt><trkpt lat="43.6935684" lon="12.5858538"><ele>416.0</ele><time>2026-03-22T10:17:00.512Z</time></trkpt><trkpt lat="43.6935802" lon="12.5859639"><ele>416.5</ele><time>2026-03-22T10:17:01.51Z</time></trkpt><trkpt lat="43.6935921" lon="12.5860845"><ele>417.0</ele><time>2026-03-22T10:17:02.511Z</time></trkpt><trkpt lat="43.693592" lon="12.5862219"><ele>419.20000000000005</ele><time>2026-03-22T10:17:03.51Z</time></trkpt><trkpt lat="43.6935811" lon="12.5863663"><ele>421.4</ele><time>2026-03-22T10:17:04.51Z</time></trkpt><trkpt lat="43.6935458" lon="12.5864931"><ele>423.59999999999997</ele><time>2026-03-22T10:17:05.511Z</time></trkpt><trkpt lat="43.6934823" lon="12.586611"><ele>425.79999999999995</ele><time>2026-03-22T10:17:06.511Z</time></trkpt><trkpt lat="43.6933977" lon="12.5866938"><ele>428.0</ele><time>2026-03-22T10:17:07.511Z</time></trkpt><trkpt lat="43.6933029" lon="12.5867635"><ele>427.99999999999994</ele><time>2026-03-22T10:17:08.511Z</time></trkpt><trkpt lat="43.6932351" lon="12.5868346"><ele>428.0</ele><time>2026-03-22T10:17:09.511Z</time></trkpt><trkpt lat="43.6931945" lon="12.586906"><ele>428.0</ele><time>2026-03-22T10:17:10.511Z</time></trkpt><trkpt lat="43.6931659" lon="12.5869931"><ele>428.0</ele><time>2026-03-22T10:17:11.51Z</time></trkpt><trkpt lat="43.6931575" lon="12.5870972"><ele>427.99999999999994</ele><time>2026-03-22T10:17:12.51Z</time></trkpt><trkpt lat="43.693172" lon="12.5872075"><ele>428.0</ele><time>2026-03-22T10:17:13.511Z</time></trkpt><trkpt lat="43.6932025" lon="12.5873106"><ele>429.4</ele><time>2026-03-22T10:17:14.51Z</time></trkpt><trkpt lat="43.6932479" lon="12.5874183"><ele>430.79999999999995</ele><time>2026-03-22T10:17:15.511Z</time></trkpt><trkpt lat="43.6933098" lon="12.5875071"><ele>432.2</ele><time>2026-03-22T10:17:16.512Z</time></trkpt><trkpt lat="43.6933833" lon="12.5875865"><ele>433.6</ele><time>2026-03-22T10:17:17.511Z</time></trkpt><trkpt lat="43.6934593" lon="12.5876688"><ele>435.0</ele><time>2026-03-22T10:17:18.51Z</time></trkpt><trkpt lat="43.6935274" lon="12.5877505"><ele>435.0</ele><time>2026-03-22T10:17:19.511Z</time></trkpt><trkpt lat="43.6935743" lon="12.5878532"><ele>435.0</ele><time>2026-03-22T10:17:20.51Z</time></trkpt><trkpt lat="43.6936028" lon="12.5879832"><ele>435.0</ele><time>2026-03-22T10:17:21.51Z</time></trkpt><trkpt lat="43.6936259" lon="12.5881547"><ele>435.0</ele><time>2026-03-22T10:17:22.51Z</time></trkpt><trkpt lat="43.6936458" lon="12.5883394"><ele>435.0</ele><time>2026-03-22T10:17:23.51Z</time></trkpt><trkpt lat="43.6936608" lon="12.5884853"><ele>439.8</ele><time>2026-03-22T10:17:24.51Z</time></trkpt><trkpt lat="43.6936834" lon="12.588615"><ele>444.6</ele><time>2026-03-22T10:17:25.511Z</time></trkpt><trkpt lat="43.6937221" lon="12.5887375"><ele>449.4</ele><time>2026-03-22T10:17:26.512Z</time></trkpt><trkpt lat="43.6937713" lon="12.5888513"><ele>454.2</ele><time>2026-03-22T10:17:27.511Z</time></trkpt><trkpt lat="43.6938407" lon="12.5889677"><ele>459.0</ele><time>2026-03-22T10:17:28.511Z</time></trkpt><trkpt lat="43.6939283" lon="12.5890953"><ele>459.5</ele><time>2026-03-22T10:17:29.51Z</time></trkpt><trkpt lat="43.6940174" lon="12.5892391"><ele>460.0</ele><time>2026-03-22T10:17:30.51Z</time></trkpt><trkpt lat="43.6941004" lon="12.5893974"><ele>460.5</ele><time>2026-03-22T10:17:31.511Z</time></trkpt><trkpt lat="43.6941635" lon="12.5895268"><ele>461.0</ele><time>2026-03-22T10:17:32.512Z</time></trkpt><trkpt lat="43.6942209" lon="12.589639"><ele>462.6</ele><time>2026-03-22T10:17:33.511Z</time></trkpt><trkpt lat="43.6942796" lon="12.589731"><ele>464.20000000000005</ele><time>2026-03-22T10:17:34.511Z</time></trkpt><trkpt lat="43.6943485" lon="12.5898018"><ele>465.79999999999995</ele><time>2026-03-22T10:17:35.512Z</time></trkpt><trkpt lat="43.6944394" lon="12.5898535"><ele>467.4</ele><time>2026-03-22T10:17:36.51Z</time></trkpt><trkpt lat="43.6945453" lon="12.5899146"><ele>469.0</ele><time>2026-03-22T10:17:37.511Z</time></trkpt><trkpt lat="43.6946262" lon="12.5899846"><ele>469.0</ele><time>2026-03-22T10:17:38.512Z</time></trkpt><trkpt lat="43.694703" lon="12.5900339"><ele>469.0</ele><time>2026-03-22T10:17:39.51Z</time></trkpt><trkpt lat="43.6947971" lon="12.5900666"><ele>469.0</ele><time>2026-03-22T10:17:40.512Z</time></trkpt><trkpt lat="43.6948981" lon="12.5900881"><ele>469.0</ele><time>2026-03-22T10:17:41.511Z</time></trkpt><trkpt lat="43.6950117" lon="12.5901009"><ele>469.0</ele><time>2026-03-22T10:17:42.51Z</time></trkpt><trkpt lat="43.6951198" lon="12.5901151"><ele>469.0</ele><time>2026-03-22T10:17:43.51Z</time></trkpt><trkpt lat="43.6952255" lon="12.5901208"><ele>469.0</ele><time>2026-03-22T10:17:44.51Z</time></trkpt><trkpt lat="43.6953305" lon="12.5901222"><ele>469.0</ele><time>2026-03-22T10:17:45.511Z</time></trkpt><trkpt lat="43.6954217" lon="12.5901213"><ele>469.0</ele><time>2026-03-22T10:17:46.511Z</time></trkpt><trkpt lat="43.6955021" lon="12.5901182"><ele>469.0</ele><time>2026-03-22T10:17:47.511Z</time></trkpt><trkpt lat="43.6955734" lon="12.5901165"><ele>471.2857142857143</ele><time>2026-03-22T10:17:48.511Z</time></trkpt><trkpt lat="43.6956391" lon="12.5901128"><ele>473.57142857142856</ele><time>2026-03-22T10:17:49.51Z</time></trkpt><trkpt lat="43.6957047" lon="12.5901108"><ele>475.8571428571429</ele><time>2026-03-22T10:17:50.511Z</time></trkpt><trkpt lat="43.6957718" lon="12.5901133"><ele>478.14285714285717</ele><time>2026-03-22T10:17:51.511Z</time></trkpt><trkpt lat="43.6958365" lon="12.5901096"><ele>480.42857142857144</ele><time>2026-03-22T10:17:52.511Z</time></trkpt><trkpt lat="43.6958998" lon="12.5901057"><ele>482.7142857142858</ele><time>2026-03-22T10:17:53.511Z</time></trkpt><trkpt lat="43.6959621" lon="12.5901183"><ele>485.00000000000006</ele><time>2026-03-22T10:17:54.511Z</time></trkpt><trkpt lat="43.6960257" lon="12.5901511"><ele>484.99999999999994</ele><time>2026-03-22T10:17:55.511Z</time></trkpt><trkpt lat="43.6960798" lon="12.5902171"><ele>485.0</ele><time>2026-03-22T10:17:56.51Z</time></trkpt><trkpt lat="43.6961183" lon="12.5903058"><ele>485.0</ele><time>2026-03-22T10:17:57.511Z</time></trkpt><trkpt lat="43.696144" lon="12.5904023"><ele>485.0</ele><time>2026-03-22T10:17:58.511Z</time></trkpt><trkpt lat="43.6961574" lon="12.5905138"><ele>484.99999999999994</ele><time>2026-03-22T10:17:59.51Z</time></trkpt><trkpt lat="43.6961661" lon="12.5906271"><ele>485.0</ele><time>2026-03-22T10:18:00.51Z</time></trkpt><trkpt lat="43.6961865" lon="12.59073"><ele>484.16666666666663</ele><time>2026-03-22T10:18:01.51Z</time></trkpt><trkpt lat="43.6962232" lon="12.5908175"><ele>483.3333333333333</ele><time>2026-03-22T10:18:02.511Z</time></trkpt><trkpt lat="43.6962787" lon="12.5908722"><ele>482.5</ele><time>2026-03-22T10:18:03.51Z</time></trkpt><trkpt lat="43.6963504" lon="12.5908865"><ele>481.66666666666663</ele><time>2026-03-22T10:18:04.511Z</time></trkpt><trkpt lat="43.6964389" lon="12.5908768"><ele>480.8333333333333</ele><time>2026-03-22T10:18:05.511Z</time></trkpt><trkpt lat="43.6965499" lon="12.5908629"><ele>480.0</ele><time>2026-03-22T10:18:06.511Z</time></trkpt><trkpt lat="43.6966762" lon="12.5908686"><ele>480.0</ele><time>2026-03-22T10:18:07.511Z</time></trkpt><trkpt lat="43.6968156" lon="12.5909027"><ele>480.0</ele><time>2026-03-22T10:18:08.511Z</time></trkpt><trkpt lat="43.6969458" lon="12.5909358"><ele>480.0</ele><time>2026-03-22T10:18:09.51Z</time></trkpt><trkpt lat="43.6970581" lon="12.5909572"><ele>480.0</ele><time>2026-03-22T10:18:10.511Z</time></trkpt><trkpt lat="43.6971515" lon="12.5909736"><ele>480.1666666666667</ele><time>2026-03-22T10:18:11.512Z</time></trkpt><trkpt lat="43.6972316" lon="12.5909882"><ele>480.33333333333337</ele><time>2026-03-22T10:18:12.51Z</time></trkpt><trkpt lat="43.6972957" lon="12.5910191"><ele>480.5</ele><time>2026-03-22T10:18:13.511Z</time></trkpt><trkpt lat="43.6973475" lon="12.59109"><ele>480.6666666666667</ele><time>2026-03-22T10:18:14.51Z</time></trkpt><trkpt lat="43.6973593" lon="12.591187"><ele>480.83333333333337</ele><time>2026-03-22T10:18:15.51Z</time></trkpt><trkpt lat="43.6973359" lon="12.5913168"><ele>481.0</ele><time>2026-03-22T10:18:16.51Z</time></trkpt><trkpt lat="43.6973141" lon="12.5914458"><ele>481.00000000000006</ele><time>2026-03-22T10:18:17.511Z</time></trkpt><trkpt lat="43.6973033" lon="12.5915559"><ele>481.0</ele><time>2026-03-22T10:18:18.51Z</time></trkpt><trkpt lat="43.6973142" lon="12.5916528"><ele>481.0</ele><time>2026-03-22T10:18:19.51Z</time></trkpt><trkpt lat="43.6973493" lon="12.5917302"><ele>481.0</ele><time>2026-03-22T10:18:20.51Z</time></trkpt><trkpt lat="43.6974104" lon="12.5917792"><ele>481.00000000000006</ele><time>2026-03-22T10:18:21.509Z</time></trkpt><trkpt lat="43.6974903" lon="12.5917879"><ele>481.0</ele><time>2026-03-22T10:18:22.509Z</time></trkpt><trkpt lat="43.6975966" lon="12.5917631"><ele>481.0</ele><time>2026-03-22T10:18:23.51Z</time></trkpt><trkpt lat="43.6977266" lon="12.5917238"><ele>481.0</ele><time>2026-03-22T10:18:24.509Z</time></trkpt><trkpt lat="43.6978449" lon="12.591686"><ele>481.0</ele><time>2026-03-22T10:18:25.51Z</time></trkpt><trkpt lat="43.6979464" lon="12.591659"><ele>481.0</ele><time>2026-03-22T10:18:26.511Z</time></trkpt><trkpt lat="43.6980422" lon="12.5916597"><ele>482.8</ele><time>2026-03-22T10:18:27.51Z</time></trkpt><trkpt lat="43.6981273" lon="12.5916931"><ele>484.6</ele><time>2026-03-22T10:18:28.51Z</time></trkpt><trkpt lat="43.6982022" lon="12.5917534"><ele>486.4</ele><time>2026-03-22T10:18:29.51Z</time></trkpt><trkpt lat="43.6982749" lon="12.5918001"><ele>488.2</ele><time>2026-03-22T10:18:30.51Z</time></trkpt><trkpt lat="43.6983733" lon="12.5918224"><ele>490.0</ele><time>2026-03-22T10:18:31.51Z</time></trkpt><trkpt lat="43.6984962" lon="12.591838"><ele>491.25</ele><time>2026-03-22T10:18:32.51Z</time></trkpt><trkpt lat="43.6986228" lon="12.5918742"><ele>492.5</ele><time>2026-03-22T10:18:33.51Z</time></trkpt><trkpt lat="43.698732" lon="12.5919224"><ele>493.75</ele><time>2026-03-22T10:18:34.511Z</time></trkpt><trkpt lat="43.6988333" lon="12.5919747"><ele>495.0</ele><time>2026-03-22T10:18:35.51Z</time></trkpt><trkpt lat="43.6989376" lon="12.5920337"><ele>489.5</ele><time>2026-03-22T10:18:36.51Z</time></trkpt><trkpt lat="43.6990286" lon="12.5920761"><ele>484.0</ele><time>2026-03-22T10:18:37.511Z</time></trkpt><trkpt lat="43.6991327" lon="12.5921007"><ele>478.5</ele><time>2026-03-22T10:18:38.509Z</time></trkpt><trkpt lat="43.6992466" lon="12.5920984"><ele>473.0</ele><time>2026-03-22T10:18:39.509Z</time></trkpt><trkpt lat="43.6993824" lon="12.5920753"><ele>475.25</ele><time>2026-03-22T10:18:40.509Z</time></trkpt><trkpt lat="43.6995329" lon="12.5920443"><ele>477.5</ele><time>2026-03-22T10:18:41.511Z</time></trkpt><trkpt lat="43.6996596" lon="12.5920185"><ele>479.75</ele><time>2026-03-22T10:18:42.51Z</time></trkpt><trkpt lat="43.6997787" lon="12.5919883"><ele>482.0</ele><time>2026-03-22T10:18:43.509Z</time></trkpt><trkpt lat="43.699899" lon="12.5919623"><ele>484.6</ele><time>2026-03-22T10:18:44.511Z</time></trkpt><trkpt lat="43.7000186" lon="12.5919379"><ele>487.20000000000005</ele><time>2026-03-22T10:18:45.51Z</time></trkpt><trkpt lat="43.7001245" lon="12.591921"><ele>489.8</ele><time>2026-03-22T10:18:46.51Z</time></trkpt><trkpt lat="43.7002232" lon="12.5919137"><ele>492.4</ele><time>2026-03-22T10:18:47.51Z</time></trkpt><trkpt lat="43.7003067" lon="12.5919098"><ele>495.0</ele><time>2026-03-22T10:18:48.51Z</time></trkpt><trkpt lat="43.7003796" lon="12.5919095"><ele>495.2</ele><time>2026-03-22T10:18:49.51Z</time></trkpt><trkpt lat="43.7004886" lon="12.5919614"><ele>495.4</ele><time>2026-03-22T10:18:51.51Z</time></trkpt><trkpt lat="43.7005114" lon="12.5920804"><ele>495.6</ele><time>2026-03-22T10:18:53.51Z</time></trkpt><trkpt lat="43.7004465" lon="12.5922156"><ele>495.8</ele><time>2026-03-22T10:18:55.51Z</time></trkpt><trkpt lat="43.7003763" lon="12.5922886"><ele>496.0</ele><time>2026-03-22T10:18:56.51Z</time></trkpt><trkpt lat="43.7002891" lon="12.5923695"><ele>492.5</ele><time>2026-03-22T10:18:57.51Z</time></trkpt><trkpt lat="43.7001911" lon="12.5924575"><ele>489.0</ele><time>2026-03-22T10:18:58.509Z</time></trkpt><trkpt lat="43.7000861" lon="12.5925652"><ele>485.5</ele><time>2026-03-22T10:18:59.51Z</time></trkpt><trkpt lat="43.6999757" lon="12.592698"><ele>482.0</ele><time>2026-03-22T10:19:00.509Z</time></trkpt><trkpt lat="43.6998667" lon="12.5928343"><ele>483.3333333333333</ele><time>2026-03-22T10:19:01.51Z</time></trkpt><trkpt lat="43.6997594" lon="12.5929634"><ele>484.66666666666663</ele><time>2026-03-22T10:19:02.51Z</time></trkpt><trkpt lat="43.6996453" lon="12.5931168"><ele>486.0</ele><time>2026-03-22T10:19:03.509Z</time></trkpt><trkpt lat="43.6995241" lon="12.5932729"><ele>486.75</ele><time>2026-03-22T10:19:04.51Z</time></trkpt><trkpt lat="43.6994106" lon="12.5934059"><ele>487.5</ele><time>2026-03-22T10:19:05.509Z</time></trkpt><trkpt lat="43.6992981" lon="12.5935225"><ele>488.25</ele><time>2026-03-22T10:19:06.51Z</time></trkpt><trkpt lat="43.6991854" lon="12.5936346"><ele>489.0</ele><time>2026-03-22T10:19:07.51Z</time></trkpt><trkpt lat="43.6990688" lon="12.5937427"><ele>489.0</ele><time>2026-03-22T10:19:08.511Z</time></trkpt><trkpt lat="43.698938" lon="12.5938316"><ele>489.0</ele><time>2026-03-22T10:19:09.509Z</time></trkpt><trkpt lat="43.6988024" lon="12.5938911"><ele>489.0</ele><time>2026-03-22T10:19:10.509Z</time></trkpt><trkpt lat="43.6986548" lon="12.5939352"><ele>489.0</ele><time>2026-03-22T10:19:11.511Z</time></trkpt><trkpt lat="43.6985232" lon="12.5939491"><ele>487.5</ele><time>2026-03-22T10:19:12.51Z</time></trkpt><trkpt lat="43.6983999" lon="12.5939679"><ele>486.0</ele><time>2026-03-22T10:19:13.509Z</time></trkpt><trkpt lat="43.6982747" lon="12.5940186"><ele>484.5</ele><time>2026-03-22T10:19:14.509Z</time></trkpt><trkpt lat="43.6981312" lon="12.5940912"><ele>483.0</ele><time>2026-03-22T10:19:15.51Z</time></trkpt><trkpt lat="43.6979987" lon="12.5941598"><ele>483.0</ele><time>2026-03-22T10:19:16.509Z</time></trkpt><trkpt lat="43.6978943" lon="12.5942155"><ele>483.0</ele><time>2026-03-22T10:19:17.509Z</time></trkpt><trkpt lat="43.6978103" lon="12.5942841"><ele>483.0</ele><time>2026-03-22T10:19:18.51Z</time></trkpt><trkpt lat="43.6977236" lon="12.5943932"><ele>483.0</ele><time>2026-03-22T10:19:19.509Z</time></trkpt><trkpt lat="43.6976304" lon="12.5945303"><ele>484.25</ele><time>2026-03-22T10:19:20.509Z</time></trkpt><trkpt lat="43.6975306" lon="12.594654"><ele>485.5</ele><time>2026-03-22T10:19:21.509Z</time></trkpt><trkpt lat="43.6974218" lon="12.5947468"><ele>486.75</ele><time>2026-03-22T10:19:22.511Z</time></trkpt><trkpt lat="43.6972879" lon="12.5948196"><ele>488.0</ele><time>2026-03-22T10:19:23.51Z</time></trkpt><trkpt lat="43.6971438" lon="12.5948782"><ele>488.0</ele><time>2026-03-22T10:19:24.509Z</time></trkpt><trkpt lat="43.6970031" lon="12.5949127"><ele>488.0</ele><time>2026-03-22T10:19:25.51Z</time></trkpt><trkpt lat="43.6968618" lon="12.5949306"><ele>488.0</ele><time>2026-03-22T10:19:26.509Z</time></trkpt><trkpt lat="43.6967155" lon="12.5949417"><ele>488.0</ele><time>2026-03-22T10:19:27.509Z</time></trkpt><trkpt lat="43.6965595" lon="12.5949522"><ele>485.59999999999997</ele><time>2026-03-22T10:19:28.51Z</time></trkpt><trkpt lat="43.6964222" lon="12.5949494"><ele>483.19999999999993</ele><time>2026-03-22T10:19:29.509Z</time></trkpt><trkpt lat="43.6963102" lon="12.594942"><ele>480.8</ele><time>2026-03-22T10:19:30.511Z</time></trkpt><trkpt lat="43.6962196" lon="12.5949386"><ele>478.4</ele><time>2026-03-22T10:19:31.509Z</time></trkpt><trkpt lat="43.6961414" lon="12.5949524"><ele>476.0</ele><time>2026-03-22T10:19:32.509Z</time></trkpt><trkpt lat="43.6960798" lon="12.5949852"><ele>476.0</ele><time>2026-03-22T10:19:33.509Z</time></trkpt><trkpt lat="43.6960182" lon="12.5951018"><ele>476.0</ele><time>2026-03-22T10:19:35.509Z</time></trkpt><trkpt lat="43.6960749" lon="12.5952494"><ele>476.0</ele><time>2026-03-22T10:19:37.51Z</time></trkpt><trkpt lat="43.6961178" lon="12.5953409"><ele>476.0</ele><time>2026-03-22T10:19:38.509Z</time></trkpt><trkpt lat="43.6961476" lon="12.5954733"><ele>476.0</ele><time>2026-03-22T10:19:39.509Z</time></trkpt><trkpt lat="43.6961868" lon="12.5956458"><ele>480.25</ele><time>2026-03-22T10:19:40.511Z</time></trkpt><trkpt lat="43.6962388" lon="12.5958559"><ele>484.5</ele><time>2026-03-22T10:19:41.51Z</time></trkpt><trkpt lat="43.6962743" lon="12.5960266"><ele>488.75</ele><time>2026-03-22T10:19:42.51Z</time></trkpt><trkpt lat="43.6963075" lon="12.5961676"><ele>493.0</ele><time>2026-03-22T10:19:43.509Z</time></trkpt><trkpt lat="43.6963335" lon="12.5962788"><ele>494.50000000000006</ele><time>2026-03-22T10:19:44.509Z</time></trkpt><trkpt lat="43.6963597" lon="12.5963739"><ele>496.0</ele><time>2026-03-22T10:19:45.511Z</time></trkpt><trkpt lat="43.6963878" lon="12.5964698"><ele>497.5</ele><time>2026-03-22T10:19:46.509Z</time></trkpt><trkpt lat="43.6964222" lon="12.5965632"><ele>499.0</ele><time>2026-03-22T10:19:47.51Z</time></trkpt><trkpt lat="43.6964613" lon="12.5966591"><ele>500.50000000000006</ele><time>2026-03-22T10:19:48.509Z</time></trkpt><trkpt lat="43.6965041" lon="12.5967561"><ele>502.0</ele><time>2026-03-22T10:19:49.509Z</time></trkpt><trkpt lat="43.6965458" lon="12.596854"><ele>502.0</ele><time>2026-03-22T10:19:50.509Z</time></trkpt><trkpt lat="43.6965897" lon="12.5969553"><ele>502.00000000000006</ele><time>2026-03-22T10:19:51.509Z</time></trkpt><trkpt lat="43.6966402" lon="12.5970553"><ele>502.00000000000006</ele><time>2026-03-22T10:19:52.51Z</time></trkpt><trkpt lat="43.6966977" lon="12.5971573"><ele>502.0</ele><time>2026-03-22T10:19:53.511Z</time></trkpt><trkpt lat="43.6967672" lon="12.5972603"><ele>502.0</ele><time>2026-03-22T10:19:54.51Z</time></trkpt><trkpt lat="43.6968272" lon="12.5973646"><ele>501.0</ele><time>2026-03-22T10:19:55.51Z</time></trkpt><trkpt lat="43.6968706" lon="12.5974976"><ele>500.00000000000006</ele><time>2026-03-22T10:19:56.51Z</time></trkpt><trkpt lat="43.6969006" lon="12.5976611"><ele>499.00000000000006</ele><time>2026-03-22T10:19:57.509Z</time></trkpt><trkpt lat="43.6969217" lon="12.5978158"><ele>498.0</ele><time>2026-03-22T10:19:58.511Z</time></trkpt><trkpt lat="43.6969463" lon="12.5979605"><ele>497.0</ele><time>2026-03-22T10:19:59.509Z</time></trkpt><trkpt lat="43.6969675" lon="12.5980999"><ele>495.8</ele><time>2026-03-22T10:20:00.509Z</time></trkpt><trkpt lat="43.696989" lon="12.5982354"><ele>494.6</ele><time>2026-03-22T10:20:01.51Z</time></trkpt><trkpt lat="43.6970115" lon="12.5983631"><ele>493.40000000000003</ele><time>2026-03-22T10:20:02.51Z</time></trkpt><trkpt lat="43.697036" lon="12.5984833"><ele>492.20000000000005</ele><time>2026-03-22T10:20:03.51Z</time></trkpt><trkpt lat="43.6970718" lon="12.5985964"><ele>491.0</ele><time>2026-03-22T10:20:04.51Z</time></trkpt><trkpt lat="43.6971181" lon="12.5987123"><ele>491.0</ele><time>2026-03-22T10:20:05.51Z</time></trkpt><trkpt lat="43.6971731" lon="12.5988271"><ele>491.0</ele><time>2026-03-22T10:20:06.509Z</time></trkpt><trkpt lat="43.6972329" lon="12.598925"><ele>491.0</ele><time>2026-03-22T10:20:07.51Z</time></trkpt><trkpt lat="43.6972977" lon="12.5990067"><ele>491.0</ele><time>2026-03-22T10:20:08.51Z</time></trkpt><trkpt lat="43.6973675" lon="12.5990726"><ele>491.0</ele><time>2026-03-22T10:20:09.51Z</time></trkpt><trkpt lat="43.6974542" lon="12.5991306"><ele>491.0</ele><time>2026-03-22T10:20:10.51Z</time></trkpt><trkpt lat="43.6975565" lon="12.5991876"><ele>491.0</ele><time>2026-03-22T10:20:11.509Z</time></trkpt><trkpt lat="43.6976694" lon="12.5992459"><ele>491.0</ele><time>2026-03-22T10:20:12.51Z</time></trkpt><trkpt lat="43.6977764" lon="12.5993285"><ele>491.0</ele><time>2026-03-22T10:20:13.51Z</time></trkpt><trkpt lat="43.6978654" lon="12.5994227"><ele>488.8</ele><time>2026-03-22T10:20:14.51Z</time></trkpt><trkpt lat="43.6979465" lon="12.5995168"><ele>486.6</ele><time>2026-03-22T10:20:15.51Z</time></trkpt><trkpt lat="43.6980243" lon="12.5996053"><ele>484.4</ele><time>2026-03-22T10:20:16.51Z</time></trkpt><trkpt lat="43.6981097" lon="12.5996837"><ele>482.2</ele><time>2026-03-22T10:20:17.51Z</time></trkpt><trkpt lat="43.6982131" lon="12.5997545"><ele>480.0</ele><time>2026-03-22T10:20:18.51Z</time></trkpt><trkpt lat="43.6983398" lon="12.5998137"><ele>480.0</ele><time>2026-03-22T10:20:19.51Z</time></trkpt><trkpt lat="43.6984627" lon="12.5998653"><ele>480.0</ele><time>2026-03-22T10:20:20.51Z</time></trkpt><trkpt lat="43.6985732" lon="12.5999171"><ele>480.0</ele><time>2026-03-22T10:20:21.51Z</time></trkpt><trkpt lat="43.6986742" lon="12.5999553"><ele>480.0</ele><time>2026-03-22T10:20:22.509Z</time></trkpt><trkpt lat="43.6987649" lon="12.599984"><ele>480.0</ele><time>2026-03-22T10:20:23.51Z</time></trkpt><trkpt lat="43.6988491" lon="12.6000157"><ele>482.1666666666667</ele><time>2026-03-22T10:20:24.511Z</time></trkpt><trkpt lat="43.6989228" lon="12.6000546"><ele>484.33333333333337</ele><time>2026-03-22T10:20:25.509Z</time></trkpt><trkpt lat="43.6989722" lon="12.6001465"><ele>486.5</ele><time>2026-03-22T10:20:26.509Z</time></trkpt><trkpt lat="43.6990035" lon="12.6002477"><ele>488.6666666666667</ele><time>2026-03-22T10:20:27.511Z</time></trkpt><trkpt lat="43.6990229" lon="12.6003452"><ele>490.83333333333337</ele><time>2026-03-22T10:20:28.509Z</time></trkpt><trkpt lat="43.6989864" lon="12.6004742"><ele>493.0</ele><time>2026-03-22T10:20:29.51Z</time></trkpt><trkpt lat="43.6989286" lon="12.6006441"><ele>493.5</ele><time>2026-03-22T10:20:30.511Z</time></trkpt><trkpt lat="43.6989048" lon="12.6008024"><ele>494.0</ele><time>2026-03-22T10:20:31.51Z</time></trkpt><trkpt lat="43.698894" lon="12.6009759"><ele>494.5</ele><time>2026-03-22T10:20:32.51Z</time></trkpt><trkpt lat="43.6988962" lon="12.6011492"><ele>495.0</ele><time>2026-03-22T10:20:33.509Z</time></trkpt><trkpt lat="43.6989195" lon="12.6013124"><ele>495.0</ele><time>2026-03-22T10:20:34.511Z</time></trkpt><trkpt lat="43.698958" lon="12.6014607"><ele>495.0</ele><time>2026-03-22T10:20:35.51Z</time></trkpt><trkpt lat="43.6990111" lon="12.6016072"><ele>495.0</ele><time>2026-03-22T10:20:36.509Z</time></trkpt><trkpt lat="43.6990747" lon="12.6017624"><ele>495.0</ele><time>2026-03-22T10:20:37.51Z</time></trkpt><trkpt lat="43.699153" lon="12.6019472"><ele>495.4</ele><time>2026-03-22T10:20:38.51Z</time></trkpt><trkpt lat="43.6992225" lon="12.6021001"><ele>495.8</ele><time>2026-03-22T10:20:39.509Z</time></trkpt><trkpt lat="43.6992841" lon="12.6022263"><ele>496.20000000000005</ele><time>2026-03-22T10:20:40.509Z</time></trkpt><trkpt lat="43.6993513" lon="12.6023262"><ele>496.6</ele><time>2026-03-22T10:20:41.509Z</time></trkpt><trkpt lat="43.6994232" lon="12.6024087"><ele>497.0</ele><time>2026-03-22T10:20:42.511Z</time></trkpt><trkpt lat="43.699487" lon="12.6024721"><ele>497.0</ele><time>2026-03-22T10:20:43.509Z</time></trkpt><trkpt lat="43.6995546" lon="12.602564"><ele>497.00000000000006</ele><time>2026-03-22T10:20:45.51Z</time></trkpt><trkpt lat="43.6995305" lon="12.6026625"><ele>497.00000000000006</ele><time>2026-03-22T10:20:48.51Z</time></trkpt><trkpt lat="43.699416" lon="12.6026713"><ele>497.0</ele><time>2026-03-22T10:20:50.51Z</time></trkpt><trkpt lat="43.6993362" lon="12.6026625"><ele>497.0</ele><time>2026-03-22T10:20:51.509Z</time></trkpt><trkpt lat="43.699247" lon="12.6026619"><ele>497.0</ele><time>2026-03-22T10:20:52.511Z</time></trkpt><trkpt lat="43.6991557" lon="12.6026845"><ele>497.00000000000006</ele><time>2026-03-22T10:20:53.51Z</time></trkpt><trkpt lat="43.6990707" lon="12.6027212"><ele>497.00000000000006</ele><time>2026-03-22T10:20:54.51Z</time></trkpt><trkpt lat="43.6990014" lon="12.6027934"><ele>497.0</ele><time>2026-03-22T10:20:55.509Z</time></trkpt><trkpt lat="43.6989475" lon="12.6029036"><ele>497.0</ele><time>2026-03-22T10:20:56.509Z</time></trkpt><trkpt lat="43.6988953" lon="12.6030409"><ele>497.40000000000003</ele><time>2026-03-22T10:20:57.511Z</time></trkpt><trkpt lat="43.698843" lon="12.6031749"><ele>497.80000000000007</ele><time>2026-03-22T10:20:58.51Z</time></trkpt><trkpt lat="43.6987929" lon="12.603322"><ele>498.2</ele><time>2026-03-22T10:20:59.51Z</time></trkpt><trkpt lat="43.6987515" lon="12.6034625"><ele>498.6</ele><time>2026-03-22T10:21:00.51Z</time></trkpt><trkpt lat="43.6987093" lon="12.6035872"><ele>499.0</ele><time>2026-03-22T10:21:01.511Z</time></trkpt><trkpt lat="43.6986512" lon="12.603703"><ele>499.83333333333337</ele><time>2026-03-22T10:21:02.51Z</time></trkpt><trkpt lat="43.6985933" lon="12.603797"><ele>500.6666666666667</ele><time>2026-03-22T10:21:03.511Z</time></trkpt><trkpt lat="43.6985359" lon="12.60388"><ele>501.5</ele><time>2026-03-22T10:21:04.509Z</time></trkpt><trkpt lat="43.6984738" lon="12.6039572"><ele>502.33333333333337</ele><time>2026-03-22T10:21:05.51Z</time></trkpt><trkpt lat="43.6984086" lon="12.60402"><ele>503.1666666666667</ele><time>2026-03-22T10:21:06.509Z</time></trkpt><trkpt lat="43.6983373" lon="12.6040713"><ele>504.0</ele><time>2026-03-22T10:21:07.509Z</time></trkpt><trkpt lat="43.6982668" lon="12.6041174"><ele>504.0</ele><time>2026-03-22T10:21:08.51Z</time></trkpt><trkpt lat="43.698195" lon="12.6041711"><ele>504.0</ele><time>2026-03-22T10:21:09.511Z</time></trkpt><trkpt lat="43.6981289" lon="12.6042335"><ele>504.0</ele><time>2026-03-22T10:21:10.509Z</time></trkpt><trkpt lat="43.6980662" lon="12.6043079"><ele>504.0</ele><time>2026-03-22T10:21:11.51Z</time></trkpt><trkpt lat="43.6980054" lon="12.6043909"><ele>504.0</ele><time>2026-03-22T10:21:12.51Z</time></trkpt><trkpt lat="43.6979458" lon="12.6044726"><ele>504.0</ele><time>2026-03-22T10:21:13.51Z</time></trkpt><trkpt lat="43.6978856" lon="12.6045559"><ele>502.8333333333333</ele><time>2026-03-22T10:21:14.51Z</time></trkpt><trkpt lat="43.6978227" lon="12.6046358"><ele>501.66666666666663</ele><time>2026-03-22T10:21:15.509Z</time></trkpt><trkpt lat="43.6977549" lon="12.6047137"><ele>500.5</ele><time>2026-03-22T10:21:16.509Z</time></trkpt><trkpt lat="43.6976825" lon="12.6047855"><ele>499.3333333333333</ele><time>2026-03-22T10:21:17.51Z</time></trkpt><trkpt lat="43.6976111" lon="12.604863"><ele>498.16666666666663</ele><time>2026-03-22T10:21:18.51Z</time></trkpt><trkpt lat="43.6975349" lon="12.6049307"><ele>497.0</ele><time>2026-03-22T10:21:19.509Z</time></trkpt><trkpt lat="43.6974734" lon="12.6049874"><ele>502.8</ele><time>2026-03-22T10:21:20.51Z</time></trkpt><trkpt lat="43.6973694" lon="12.6050737"><ele>508.6</ele><time>2026-03-22T10:21:22.509Z</time></trkpt><trkpt lat="43.6972867" lon="12.6051257"><ele>514.4000000000001</ele><time>2026-03-22T10:21:24.511Z</time></trkpt><trkpt lat="43.6973603" lon="12.6050983"><ele>520.2</ele><time>2026-03-22T10:21:32.511Z</time></trkpt><trkpt lat="43.697471" lon="12.6050047"><ele>526.0</ele><time>2026-03-22T10:21:34.509Z</time></trkpt><trkpt lat="43.6975389" lon="12.604944"><ele>526.0</ele><time>2026-03-22T10:21:35.51Z</time></trkpt><trkpt lat="43.6976032" lon="12.6048798"><ele>526.0</ele><time>2026-03-22T10:21:36.511Z</time></trkpt><trkpt lat="43.6976668" lon="12.6048148"><ele>526.0</ele><time>2026-03-22T10:21:37.509Z</time></trkpt><trkpt lat="43.697727" lon="12.6047539"><ele>526.0</ele><time>2026-03-22T10:21:38.51Z</time></trkpt><trkpt lat="43.6977852" lon="12.6046907"><ele>526.0</ele><time>2026-03-22T10:21:39.509Z</time></trkpt><trkpt lat="43.6978368" lon="12.6046165"><ele>526.0</ele><time>2026-03-22T10:21:40.511Z</time></trkpt><trkpt lat="43.6978884" lon="12.6045472"><ele>522.8571428571429</ele><time>2026-03-22T10:21:41.509Z</time></trkpt><trkpt lat="43.6979401" lon="12.6044765"><ele>519.7142857142857</ele><time>2026-03-22T10:21:42.51Z</time></trkpt><trkpt lat="43.6979932" lon="12.6044053"><ele>516.5714285714286</ele><time>2026-03-22T10:21:43.51Z</time></trkpt><trkpt lat="43.6980465" lon="12.6043363"><ele>513.4285714285714</ele><time>2026-03-22T10:21:44.509Z</time></trkpt><trkpt lat="43.6981034" lon="12.6042704"><ele>510.2857142857143</ele><time>2026-03-22T10:21:45.51Z</time></trkpt><trkpt lat="43.6981592" lon="12.6042073"><ele>507.1428571428571</ele><time>2026-03-22T10:21:46.509Z</time></trkpt><trkpt lat="43.6982224" lon="12.6041561"><ele>504.0</ele><time>2026-03-22T10:21:47.509Z</time></trkpt><trkpt lat="43.6982909" lon="12.6041116"><ele>504.0</ele><time>2026-03-22T10:21:48.511Z</time></trkpt><trkpt lat="43.6983616" lon="12.6040582"><ele>504.0</ele><time>2026-03-22T10:21:49.509Z</time></trkpt><trkpt lat="43.6984336" lon="12.6039892"><ele>504.0</ele><time>2026-03-22T10:21:50.51Z</time></trkpt><trkpt lat="43.6985056" lon="12.6039093"><ele>504.0</ele><time>2026-03-22T10:21:51.511Z</time></trkpt><trkpt lat="43.6985733" lon="12.6038257"><ele>504.0</ele><time>2026-03-22T10:21:52.509Z</time></trkpt><trkpt lat="43.6986309" lon="12.6037396"><ele>504.0</ele><time>2026-03-22T10:21:53.51Z</time></trkpt><trkpt lat="43.6986751" lon="12.6036651"><ele>503.0</ele><time>2026-03-22T10:21:54.51Z</time></trkpt><trkpt lat="43.6987329" lon="12.6035292"><ele>502.0</ele><time>2026-03-22T10:21:56.509Z</time></trkpt><trkpt lat="43.6987689" lon="12.6034392"><ele>501.0</ele><time>2026-03-22T10:21:58.509Z</time></trkpt><trkpt lat="43.6988384" lon="12.603481"><ele>500.0</ele><time>2026-03-22T10:22:01.51Z</time></trkpt><trkpt lat="43.6988405" lon="12.6036056"><ele>499.0</ele><time>2026-03-22T10:22:03.51Z</time></trkpt><trkpt lat="43.6988106" lon="12.6037803"><ele>495.2</ele><time>2026-03-22T10:22:05.51Z</time></trkpt><trkpt lat="43.6987842" lon="12.6038891"><ele>491.4</ele><time>2026-03-22T10:22:06.509Z</time></trkpt><trkpt lat="43.6987515" lon="12.6040076"><ele>487.6</ele><time>2026-03-22T10:22:07.511Z</time></trkpt><trkpt lat="43.6987122" lon="12.6041384"><ele>483.8</ele><time>2026-03-22T10:22:08.509Z</time></trkpt><trkpt lat="43.6986695" lon="12.6042822"><ele>480.0</ele><time>2026-03-22T10:22:09.51Z</time></trkpt><trkpt lat="43.6986259" lon="12.6044424"><ele>476.5</ele><time>2026-03-22T10:22:10.51Z</time></trkpt><trkpt lat="43.6985871" lon="12.6046139"><ele>473.0</ele><time>2026-03-22T10:22:11.511Z</time></trkpt><trkpt lat="43.6985522" lon="12.6047991"><ele>469.5</ele><time>2026-03-22T10:22:12.511Z</time></trkpt><trkpt lat="43.6985144" lon="12.604994"><ele>466.0</ele><time>2026-03-22T10:22:13.51Z</time></trkpt><trkpt lat="43.6984866" lon="12.6052006"><ele>472.0</ele><time>2026-03-22T10:22:14.51Z</time></trkpt><trkpt lat="43.6984712" lon="12.6054092"><ele>478.0</ele><time>2026-03-22T10:22:15.509Z</time></trkpt><trkpt lat="43.6984621" lon="12.6056151"><ele>484.0</ele><time>2026-03-22T10:22:16.51Z</time></trkpt><trkpt lat="43.6984521" lon="12.6058158"><ele>490.0</ele><time>2026-03-22T10:22:17.51Z</time></trkpt><trkpt lat="43.6984476" lon="12.6060114"><ele>490.25</ele><time>2026-03-22T10:22:18.509Z</time></trkpt><trkpt lat="43.6984604" lon="12.6062015"><ele>490.5</ele><time>2026-03-22T10:22:19.509Z</time></trkpt><trkpt lat="43.6984808" lon="12.6063752"><ele>490.75</ele><time>2026-03-22T10:22:20.51Z</time></trkpt><trkpt lat="43.6985004" lon="12.6065375"><ele>491.0</ele><time>2026-03-22T10:22:21.51Z</time></trkpt><trkpt lat="43.6985252" lon="12.606688"><ele>490.99999999999994</ele><time>2026-03-22T10:22:22.51Z</time></trkpt><trkpt lat="43.6985557" lon="12.6068252"><ele>491.0</ele><time>2026-03-22T10:22:23.509Z</time></trkpt><trkpt lat="43.6985845" lon="12.6069449"><ele>491.0</ele><time>2026-03-22T10:22:24.511Z</time></trkpt><trkpt lat="43.698605" lon="12.6070611"><ele>491.0</ele><time>2026-03-22T10:22:25.51Z</time></trkpt><trkpt lat="43.6986144" lon="12.6071579"><ele>490.99999999999994</ele><time>2026-03-22T10:22:26.509Z</time></trkpt><trkpt lat="43.6986017" lon="12.607271"><ele>491.0</ele><time>2026-03-22T10:22:28.509Z</time></trkpt><trkpt lat="43.6985624" lon="12.6073393"><ele>489.6</ele><time>2026-03-22T10:22:30.511Z</time></trkpt><trkpt lat="43.6984675" lon="12.607402"><ele>488.20000000000005</ele><time>2026-03-22T10:22:32.51Z</time></trkpt><trkpt lat="43.6983855" lon="12.6074049"><ele>486.79999999999995</ele><time>2026-03-22T10:22:33.51Z</time></trkpt><trkpt lat="43.6983003" lon="12.6073978"><ele>485.4</ele><time>2026-03-22T10:22:34.51Z</time></trkpt><trkpt lat="43.6982028" lon="12.6074035"><ele>484.0</ele><time>2026-03-22T10:22:35.51Z</time></trkpt><trkpt lat="43.6981082" lon="12.6074276"><ele>484.0</ele><time>2026-03-22T10:22:36.509Z</time></trkpt><trkpt lat="43.6980197" lon="12.6074817"><ele>484.0</ele><time>2026-03-22T10:22:37.51Z</time></trkpt><trkpt lat="43.6979372" lon="12.6075735"><ele>484.0</ele><time>2026-03-22T10:22:38.509Z</time></trkpt><trkpt lat="43.6978546" lon="12.6076899"><ele>484.0</ele><time>2026-03-22T10:22:39.509Z</time></trkpt><trkpt lat="43.6977686" lon="12.6078311"><ele>481.5</ele><time>2026-03-22T10:22:40.51Z</time></trkpt><trkpt lat="43.6976778" lon="12.6079909"><ele>479.0</ele><time>2026-03-22T10:22:41.509Z</time></trkpt><trkpt lat="43.6975852" lon="12.6081331"><ele>476.5</ele><time>2026-03-22T10:22:42.511Z</time></trkpt><trkpt lat="43.697491" lon="12.6082466"><ele>474.0</ele><time>2026-03-22T10:22:43.511Z</time></trkpt><trkpt lat="43.6973979" lon="12.6083392"><ele>474.0</ele><time>2026-03-22T10:22:44.509Z</time></trkpt><trkpt lat="43.6973154" lon="12.6084369"><ele>474.0</ele><time>2026-03-22T10:22:45.51Z</time></trkpt><trkpt lat="43.6972371" lon="12.6085642"><ele>474.0</ele><time>2026-03-22T10:22:46.509Z</time></trkpt><trkpt lat="43.6971685" lon="12.6087156"><ele>474.0</ele><time>2026-03-22T10:22:47.51Z</time></trkpt><trkpt lat="43.6971012" lon="12.6088895"><ele>473.5</ele><time>2026-03-22T10:22:48.509Z</time></trkpt><trkpt lat="43.6970228" lon="12.609072"><ele>473.0</ele><time>2026-03-22T10:22:49.51Z</time></trkpt><trkpt lat="43.6969465" lon="12.6092365"><ele>472.5</ele><time>2026-03-22T10:22:50.51Z</time></trkpt><trkpt lat="43.6968739" lon="12.6093859"><ele>472.0</ele><time>2026-03-22T10:22:51.509Z</time></trkpt><trkpt lat="43.6968012" lon="12.6095283"><ele>472.0</ele><time>2026-03-22T10:22:52.509Z</time></trkpt><trkpt lat="43.6967479" lon="12.6096673"><ele>472.0</ele><time>2026-03-22T10:22:53.51Z</time></trkpt><trkpt lat="43.6967211" lon="12.609824"><ele>472.0</ele><time>2026-03-22T10:22:54.51Z</time></trkpt><trkpt lat="43.696719" lon="12.6100018"><ele>472.0</ele><time>2026-03-22T10:22:55.509Z</time></trkpt><trkpt lat="43.69675" lon="12.6101834"><ele>471.75</ele><time>2026-03-22T10:22:56.51Z</time></trkpt><trkpt lat="43.6968017" lon="12.6103579"><ele>471.5</ele><time>2026-03-22T10:22:57.509Z</time></trkpt><trkpt lat="43.6968588" lon="12.6105106"><ele>471.25</ele><time>2026-03-22T10:22:58.511Z</time></trkpt><trkpt lat="43.6969084" lon="12.6106545"><ele>471.0</ele><time>2026-03-22T10:22:59.51Z</time></trkpt><trkpt lat="43.6969489" lon="12.6107852"><ele>470.8</ele><time>2026-03-22T10:23:00.51Z</time></trkpt><trkpt lat="43.6969781" lon="12.6109106"><ele>470.6</ele><time>2026-03-22T10:23:01.51Z</time></trkpt><trkpt lat="43.6969836" lon="12.6110473"><ele>470.4</ele><time>2026-03-22T10:23:02.509Z</time></trkpt><trkpt lat="43.696962" lon="12.6111977"><ele>470.2</ele><time>2026-03-22T10:23:03.51Z</time></trkpt><trkpt lat="43.6969199" lon="12.6113534"><ele>470.0</ele><time>2026-03-22T10:23:04.51Z</time></trkpt><trkpt lat="43.696873" lon="12.6115238"><ele>470.0</ele><time>2026-03-22T10:23:05.51Z</time></trkpt><trkpt lat="43.696831" lon="12.6117027"><ele>470.0</ele><time>2026-03-22T10:23:06.511Z</time></trkpt><trkpt lat="43.6968097" lon="12.611875"><ele>470.0</ele><time>2026-03-22T10:23:07.51Z</time></trkpt><trkpt lat="43.6968088" lon="12.6120339"><ele>470.0</ele><time>2026-03-22T10:23:08.509Z</time></trkpt><trkpt lat="43.6968085" lon="12.6121808"><ele>468.8</ele><time>2026-03-22T10:23:09.51Z</time></trkpt><trkpt lat="43.6968052" lon="12.6123191"><ele>467.6</ele><time>2026-03-22T10:23:10.51Z</time></trkpt><trkpt lat="43.6968026" lon="12.6124605"><ele>466.4</ele><time>2026-03-22T10:23:11.51Z</time></trkpt><trkpt lat="43.6967825" lon="12.61261"><ele>465.2</ele><time>2026-03-22T10:23:12.509Z</time></trkpt><trkpt lat="43.6967435" lon="12.6127623"><ele>464.0</ele><time>2026-03-22T10:23:13.509Z</time></trkpt><trkpt lat="43.6966894" lon="12.6129203"><ele>462.0</ele><time>2026-03-22T10:23:14.51Z</time></trkpt><trkpt lat="43.6966312" lon="12.6130832"><ele>460.0</ele><time>2026-03-22T10:23:15.509Z</time></trkpt><trkpt lat="43.6965846" lon="12.6132311"><ele>458.0</ele><time>2026-03-22T10:23:16.511Z</time></trkpt><trkpt lat="43.6965429" lon="12.6133728"><ele>456.0</ele><time>2026-03-22T10:23:17.51Z</time></trkpt><trkpt lat="43.6965069" lon="12.6135081"><ele>456.0</ele><time>2026-03-22T10:23:18.509Z</time></trkpt><trkpt lat="43.6964752" lon="12.6136389"><ele>456.0</ele><time>2026-03-22T10:23:19.509Z</time></trkpt><trkpt lat="43.6964461" lon="12.6137646"><ele>456.0</ele><time>2026-03-22T10:23:20.51Z</time></trkpt><trkpt lat="43.6964269" lon="12.6138913"><ele>456.0</ele><time>2026-03-22T10:23:21.51Z</time></trkpt><trkpt lat="43.6964337" lon="12.6140264"><ele>456.0</ele><time>2026-03-22T10:23:22.51Z</time></trkpt><trkpt lat="43.6964688" lon="12.614184"><ele>455.25</ele><time>2026-03-22T10:23:23.509Z</time></trkpt><trkpt lat="43.6965324" lon="12.6143568"><ele>454.5</ele><time>2026-03-22T10:23:24.51Z</time></trkpt><trkpt lat="43.6966033" lon="12.6145411"><ele>453.75</ele><time>2026-03-22T10:23:25.511Z</time></trkpt><trkpt lat="43.6966606" lon="12.6147085"><ele>453.0</ele><time>2026-03-22T10:23:26.509Z</time></trkpt><trkpt lat="43.6967147" lon="12.6148802"><ele>453.0</ele><time>2026-03-22T10:23:27.509Z</time></trkpt><trkpt lat="43.6967452" lon="12.615042"><ele>453.0</ele><time>2026-03-22T10:23:28.509Z</time></trkpt><trkpt lat="43.6967662" lon="12.6152074"><ele>453.0</ele><time>2026-03-22T10:23:29.509Z</time></trkpt><trkpt lat="43.696781" lon="12.6153652"><ele>453.0</ele><time>2026-03-22T10:23:30.511Z</time></trkpt><trkpt lat="43.6967875" lon="12.6155137"><ele>451.2</ele><time>2026-03-22T10:23:31.51Z</time></trkpt><trkpt lat="43.6967943" lon="12.6156492"><ele>449.4</ele><time>2026-03-22T10:23:32.511Z</time></trkpt><trkpt lat="43.6967944" lon="12.6157493"><ele>447.59999999999997</ele><time>2026-03-22T10:23:33.509Z</time></trkpt><trkpt lat="43.6968317" lon="12.6158763"><ele>445.79999999999995</ele><time>2026-03-22T10:23:35.511Z</time></trkpt><trkpt lat="43.6969116" lon="12.6158364"><ele>444.0</ele><time>2026-03-22T10:23:37.509Z</time></trkpt><trkpt lat="43.696942" lon="12.6156641"><ele>440.25</ele><time>2026-03-22T10:23:39.51Z</time></trkpt><trkpt lat="43.6969457" lon="12.6155377"><ele>436.5</ele><time>2026-03-22T10:23:40.51Z</time></trkpt><trkpt lat="43.6969429" lon="12.6153717"><ele>432.75</ele><time>2026-03-22T10:23:41.51Z</time></trkpt><trkpt lat="43.6969437" lon="12.6151842"><ele>429.0</ele><time>2026-03-22T10:23:42.51Z</time></trkpt><trkpt lat="43.6969484" lon="12.6150191"><ele>428.79999999999995</ele><time>2026-03-22T10:23:43.51Z</time></trkpt><trkpt lat="43.6969587" lon="12.6148706"><ele>428.59999999999997</ele><time>2026-03-22T10:23:44.51Z</time></trkpt><trkpt lat="43.6969844" lon="12.6147372"><ele>428.4</ele><time>2026-03-22T10:23:45.51Z</time></trkpt><trkpt lat="43.6970293" lon="12.6146173"><ele>428.2</ele><time>2026-03-22T10:23:46.509Z</time></trkpt><trkpt lat="43.6971042" lon="12.614507"><ele>428.0</ele><time>2026-03-22T10:23:47.509Z</time></trkpt><trkpt lat="43.6972061" lon="12.6144023"><ele>430.0</ele><time>2026-03-22T10:23:48.509Z</time></trkpt><trkpt lat="43.6972969" lon="12.6143172"><ele>432.0</ele><time>2026-03-22T10:23:49.51Z</time></trkpt><trkpt lat="43.6973947" lon="12.6142492"><ele>434.0</ele><time>2026-03-22T10:23:50.51Z</time></trkpt><trkpt lat="43.6975088" lon="12.6142003"><ele>436.0</ele><time>2026-03-22T10:23:51.51Z</time></trkpt><trkpt lat="43.6976213" lon="12.6141503"><ele>436.0</ele><time>2026-03-22T10:23:52.51Z</time></trkpt><trkpt lat="43.6977245" lon="12.6141031"><ele>436.0</ele><time>2026-03-22T10:23:53.511Z</time></trkpt><trkpt lat="43.6978209" lon="12.6140459"><ele>436.0</ele><time>2026-03-22T10:23:54.509Z</time></trkpt><trkpt lat="43.6979172" lon="12.6139944"><ele>436.0</ele><time>2026-03-22T10:23:55.509Z</time></trkpt><trkpt lat="43.6980206" lon="12.6139625"><ele>436.0</ele><time>2026-03-22T10:23:56.51Z</time></trkpt><trkpt lat="43.6981318" lon="12.6139361"><ele>433.4</ele><time>2026-03-22T10:23:57.51Z</time></trkpt><trkpt lat="43.6982434" lon="12.6139044"><ele>430.8</ele><time>2026-03-22T10:23:58.509Z</time></trkpt><trkpt lat="43.6983497" lon="12.6138771"><ele>428.2</ele><time>2026-03-22T10:23:59.509Z</time></trkpt><trkpt lat="43.698452" lon="12.6138493"><ele>425.59999999999997</ele><time>2026-03-22T10:24:00.51Z</time></trkpt><trkpt lat="43.6985427" lon="12.6138219"><ele>423.0</ele><time>2026-03-22T10:24:01.509Z</time></trkpt><trkpt lat="43.6986206" lon="12.6137864"><ele>420.8333333333333</ele><time>2026-03-22T10:24:02.51Z</time></trkpt><trkpt lat="43.6986906" lon="12.6137351"><ele>418.66666666666663</ele><time>2026-03-22T10:24:03.51Z</time></trkpt><trkpt lat="43.6987518" lon="12.6136688"><ele>416.5</ele><time>2026-03-22T10:24:04.509Z</time></trkpt><trkpt lat="43.6988077" lon="12.6135803"><ele>414.3333333333333</ele><time>2026-03-22T10:24:05.511Z</time></trkpt><trkpt lat="43.6988578" lon="12.6134832"><ele>412.16666666666663</ele><time>2026-03-22T10:24:06.511Z</time></trkpt><trkpt lat="43.6988979" lon="12.6133842"><ele>410.0</ele><time>2026-03-22T10:24:07.51Z</time></trkpt><trkpt lat="43.6989244" lon="12.6132926"><ele>410.0</ele><time>2026-03-22T10:24:08.511Z</time></trkpt><trkpt lat="43.69898" lon="12.6131594"><ele>410.0</ele><time>2026-03-22T10:24:10.51Z</time></trkpt><trkpt lat="43.6990796" lon="12.6131521"><ele>410.0</ele><time>2026-03-22T10:24:12.509Z</time></trkpt><trkpt lat="43.6991651" lon="12.6132509"><ele>410.0</ele><time>2026-03-22T10:24:14.509Z</time></trkpt><trkpt lat="43.699213" lon="12.6133097"><ele>410.0</ele><time>2026-03-22T10:24:15.509Z</time></trkpt><trkpt lat="43.6992642" lon="12.6133718"><ele>409.99999999999994</ele><time>2026-03-22T10:24:16.51Z</time></trkpt><trkpt lat="43.6993159" lon="12.6134318"><ele>410.0</ele><time>2026-03-22T10:24:17.51Z</time></trkpt><trkpt lat="43.6993697" lon="12.6134941"><ele>410.0</ele><time>2026-03-22T10:24:18.511Z</time></trkpt><trkpt lat="43.6994217" lon="12.6135571"><ele>410.0</ele><time>2026-03-22T10:24:19.509Z</time></trkpt><trkpt lat="43.6994692" lon="12.6136174"><ele>409.99999999999994</ele><time>2026-03-22T10:24:20.51Z</time></trkpt><trkpt lat="43.6995501" lon="12.6137387"><ele>410.0</ele><time>2026-03-22T10:24:22.51Z</time></trkpt><trkpt lat="43.6995991" lon="12.6138457"><ele>405.99999999999994</ele><time>2026-03-22T10:24:24.51Z</time></trkpt><trkpt lat="43.6996392" lon="12.6139284"><ele>402.0</ele><time>2026-03-22T10:24:27.509Z</time></trkpt><trkpt lat="43.6996756" lon="12.6140183"><ele>398.0</ele><time>2026-03-22T10:24:31.51Z</time></trkpt><trkpt lat="43.6996948" lon="12.6141312"><ele>394.0</ele><time>2026-03-22T10:24:35.51Z</time></trkpt><trkpt lat="43.6997247" lon="12.6142218"><ele>389.99999999999994</ele><time>2026-03-22T10:24:38.51Z</time></trkpt><trkpt lat="43.6996879" lon="12.6140849"><ele>386.0</ele><time>2026-03-22T10:25:43.511Z</time></trkpt><trkpt lat="43.6996357" lon="12.61392"><ele>386.0</ele><time>2026-03-22T10:25:45.511Z</time></trkpt><trkpt lat="43.6995977" lon="12.6138294"><ele>386.0</ele><time>2026-03-22T10:25:46.511Z</time></trkpt><trkpt lat="43.6995504" lon="12.6137336"><ele>386.0</ele><time>2026-03-22T10:25:47.509Z</time></trkpt><trkpt lat="43.6994918" lon="12.6136405"><ele>386.0</ele><time>2026-03-22T10:25:48.509Z</time></trkpt><trkpt lat="43.6994204" lon="12.6135415"><ele>386.0</ele><time>2026-03-22T10:25:49.509Z</time></trkpt><trkpt lat="43.6993488" lon="12.6134417"><ele>390.8</ele><time>2026-03-22T10:25:50.509Z</time></trkpt><trkpt lat="43.6992705" lon="12.6133402"><ele>395.6</ele><time>2026-03-22T10:25:51.509Z</time></trkpt><trkpt lat="43.6991983" lon="12.6132448"><ele>400.4</ele><time>2026-03-22T10:25:52.511Z</time></trkpt><trkpt lat="43.6991393" lon="12.6131634"><ele>405.2</ele><time>2026-03-22T10:25:53.511Z</time></trkpt><trkpt lat="43.6990856" lon="12.613113"><ele>410.0</ele><time>2026-03-22T10:25:54.51Z</time></trkpt><trkpt lat="43.698992" lon="12.6131401"><ele>410.0</ele><time>2026-03-22T10:25:56.509Z</time></trkpt><trkpt lat="43.6989243" lon="12.6132839"><ele>410.0</ele><time>2026-03-22T10:25:58.511Z</time></trkpt><trkpt lat="43.6988907" lon="12.6133734"><ele>410.0</ele><time>2026-03-22T10:25:59.511Z</time></trkpt><trkpt lat="43.6988473" lon="12.6134709"><ele>410.0</ele><time>2026-03-22T10:26:00.51Z</time></trkpt><trkpt lat="43.6987952" lon="12.613574"><ele>410.0</ele><time>2026-03-22T10:26:01.511Z</time></trkpt><trkpt lat="43.6987268" lon="12.6136629"><ele>409.2</ele><time>2026-03-22T10:26:02.509Z</time></trkpt><trkpt lat="43.6986494" lon="12.6137377"><ele>408.4</ele><time>2026-03-22T10:26:03.51Z</time></trkpt><trkpt lat="43.6985606" lon="12.6137888"><ele>407.6</ele><time>2026-03-22T10:26:04.511Z</time></trkpt><trkpt lat="43.6984525" lon="12.6138246"><ele>406.8</ele><time>2026-03-22T10:26:05.51Z</time></trkpt><trkpt lat="43.6983387" lon="12.6138566"><ele>406.0</ele><time>2026-03-22T10:26:06.511Z</time></trkpt><trkpt lat="43.6982151" lon="12.6138907"><ele>409.4</ele><time>2026-03-22T10:26:07.509Z</time></trkpt><trkpt lat="43.6980924" lon="12.6139193"><ele>412.8</ele><time>2026-03-22T10:26:08.511Z</time></trkpt><trkpt lat="43.6979914" lon="12.6139513"><ele>416.2</ele><time>2026-03-22T10:26:09.51Z</time></trkpt><trkpt lat="43.6979021" lon="12.6139901"><ele>419.59999999999997</ele><time>2026-03-22T10:26:10.51Z</time></trkpt><trkpt lat="43.6978061" lon="12.6140419"><ele>423.0</ele><time>2026-03-22T10:26:11.509Z</time></trkpt><trkpt lat="43.6977055" lon="12.614083"><ele>426.25</ele><time>2026-03-22T10:26:12.51Z</time></trkpt><trkpt lat="43.6975949" lon="12.6141346"><ele>429.5</ele><time>2026-03-22T10:26:13.51Z</time></trkpt><trkpt lat="43.6974801" lon="12.6141811"><ele>432.75</ele><time>2026-03-22T10:26:14.51Z</time></trkpt><trkpt lat="43.6973726" lon="12.6142326"><ele>436.0</ele><time>2026-03-22T10:26:15.51Z</time></trkpt><trkpt lat="43.6972771" lon="12.614307"><ele>436.0</ele><time>2026-03-22T10:26:16.51Z</time></trkpt><trkpt lat="43.6971854" lon="12.6143945"><ele>436.0</ele><time>2026-03-22T10:26:17.51Z</time></trkpt><trkpt lat="43.6971008" lon="12.6144745"><ele>436.0</ele><time>2026-03-22T10:26:18.51Z</time></trkpt><trkpt lat="43.6970318" lon="12.6145735"><ele>436.0</ele><time>2026-03-22T10:26:19.509Z</time></trkpt><trkpt lat="43.6969811" lon="12.6146916"><ele>436.0</ele><time>2026-03-22T10:26:20.511Z</time></trkpt><trkpt lat="43.6969547" lon="12.6148196"><ele>434.25</ele><time>2026-03-22T10:26:21.51Z</time></trkpt><trkpt lat="43.6969409" lon="12.6149594"><ele>432.5</ele><time>2026-03-22T10:26:22.51Z</time></trkpt><trkpt lat="43.6969343" lon="12.6151246"><ele>430.75</ele><time>2026-03-22T10:26:23.511Z</time></trkpt><trkpt lat="43.6969327" lon="12.6153089"><ele>429.0</ele><time>2026-03-22T10:26:24.509Z</time></trkpt><trkpt lat="43.6969356" lon="12.6154892"><ele>429.0</ele><time>2026-03-22T10:26:25.51Z</time></trkpt><trkpt lat="43.6969368" lon="12.6156353"><ele>429.0</ele><time>2026-03-22T10:26:26.51Z</time></trkpt><trkpt lat="43.6969323" lon="12.6157609"><ele>429.0</ele><time>2026-03-22T10:26:27.509Z</time></trkpt><trkpt lat="43.6969108" lon="12.6158481"><ele>429.0</ele><time>2026-03-22T10:26:28.509Z</time></trkpt><trkpt lat="43.6968584" lon="12.6159225"><ele>429.0</ele><time>2026-03-22T10:26:30.511Z</time></trkpt><trkpt lat="43.696816" lon="12.6158011"><ele>429.0</ele><time>2026-03-22T10:27:04.51Z</time></trkpt><trkpt lat="43.6968114" lon="12.6157063"><ele>432.0</ele><time>2026-03-22T10:27:05.509Z</time></trkpt><trkpt lat="43.6968073" lon="12.6155736"><ele>435.0</ele><time>2026-03-22T10:27:06.51Z</time></trkpt><trkpt lat="43.6967988" lon="12.6154271"><ele>438.0</ele><time>2026-03-22T10:27:07.51Z</time></trkpt><trkpt lat="43.696786" lon="12.6152689"><ele>441.0</ele><time>2026-03-22T10:27:08.51Z</time></trkpt><trkpt lat="43.6967659" lon="12.6151035"><ele>444.0</ele><time>2026-03-22T10:27:09.509Z</time></trkpt><trkpt lat="43.6967389" lon="12.6149457"><ele>445.5</ele><time>2026-03-22T10:27:10.51Z</time></trkpt><trkpt lat="43.6966958" lon="12.6147852"><ele>447.0</ele><time>2026-03-22T10:27:11.51Z</time></trkpt><trkpt lat="43.696636" lon="12.6146196"><ele>448.5</ele><time>2026-03-22T10:27:12.51Z</time></trkpt><trkpt lat="43.696588" lon="12.6144806"><ele>450.0</ele><time>2026-03-22T10:27:13.509Z</time></trkpt><trkpt lat="43.6965393" lon="12.6143562"><ele>450.0</ele><time>2026-03-22T10:27:14.511Z</time></trkpt><trkpt lat="43.6964965" lon="12.6142378"><ele>450.0</ele><time>2026-03-22T10:27:15.509Z</time></trkpt><trkpt lat="43.6964607" lon="12.6141254"><ele>450.0</ele><time>2026-03-22T10:27:16.511Z</time></trkpt><trkpt lat="43.6964409" lon="12.6140122"><ele>450.0</ele><time>2026-03-22T10:27:17.51Z</time></trkpt><trkpt lat="43.6964402" lon="12.613893"><ele>450.0</ele><time>2026-03-22T10:27:18.51Z</time></trkpt><trkpt lat="43.6964598" lon="12.6137735"><ele>450.0</ele><time>2026-03-22T10:27:19.509Z</time></trkpt><trkpt lat="43.6964922" lon="12.6136451"><ele>451.5</ele><time>2026-03-22T10:27:20.51Z</time></trkpt><trkpt lat="43.6965298" lon="12.6135024"><ele>453.0</ele><time>2026-03-22T10:27:21.511Z</time></trkpt><trkpt lat="43.6965726" lon="12.6133353"><ele>454.5</ele><time>2026-03-22T10:27:22.509Z</time></trkpt><trkpt lat="43.6966314" lon="12.6131456"><ele>456.0</ele><time>2026-03-22T10:27:23.511Z</time></trkpt><trkpt lat="43.6966894" lon="12.6129838"><ele>456.0</ele><time>2026-03-22T10:27:24.51Z</time></trkpt><trkpt lat="43.6967408" lon="12.6128438"><ele>456.0</ele><time>2026-03-22T10:27:25.51Z</time></trkpt><trkpt lat="43.6967806" lon="12.612715"><ele>456.0</ele><time>2026-03-22T10:27:26.509Z</time></trkpt><trkpt lat="43.6968073" lon="12.6125685"><ele>456.0</ele><time>2026-03-22T10:27:27.51Z</time></trkpt><trkpt lat="43.6968224" lon="12.6124108"><ele>456.0</ele><time>2026-03-22T10:27:28.51Z</time></trkpt><trkpt lat="43.6968241" lon="12.6122492"><ele>457.6</ele><time>2026-03-22T10:27:29.51Z</time></trkpt><trkpt lat="43.696823" lon="12.6121123"><ele>459.20000000000005</ele><time>2026-03-22T10:27:30.509Z</time></trkpt><trkpt lat="43.6968167" lon="12.6119941"><ele>460.79999999999995</ele><time>2026-03-22T10:27:31.511Z</time></trkpt><trkpt lat="43.6968165" lon="12.6118768"><ele>462.4</ele><time>2026-03-22T10:27:32.51Z</time></trkpt><trkpt lat="43.6968355" lon="12.6117426"><ele>464.0</ele><time>2026-03-22T10:27:33.509Z</time></trkpt><trkpt lat="43.6968765" lon="12.6115942"><ele>463.0</ele><time>2026-03-22T10:27:34.51Z</time></trkpt><trkpt lat="43.6969265" lon="12.6114317"><ele>462.0</ele><time>2026-03-22T10:27:35.509Z</time></trkpt><trkpt lat="43.6969691" lon="12.6112834"><ele>461.0</ele><time>2026-03-22T10:27:36.51Z</time></trkpt><trkpt lat="43.6969959" lon="12.6111511"><ele>460.0</ele><time>2026-03-22T10:27:37.511Z</time></trkpt><trkpt lat="43.6970031" lon="12.6110091"><ele>459.0</ele><time>2026-03-22T10:27:38.509Z</time></trkpt><trkpt lat="43.6969837" lon="12.6108674"><ele>457.5</ele><time>2026-03-22T10:27:39.511Z</time></trkpt><trkpt lat="43.6969429" lon="12.6107293"><ele>456.0</ele><time>2026-03-22T10:27:40.51Z</time></trkpt><trkpt lat="43.6968882" lon="12.610579"><ele>454.5</ele><time>2026-03-22T10:27:41.509Z</time></trkpt><trkpt lat="43.6968263" lon="12.6103981"><ele>453.0</ele><time>2026-03-22T10:27:42.51Z</time></trkpt><trkpt lat="43.6967796" lon="12.6102481"><ele>457.75</ele><time>2026-03-22T10:27:43.509Z</time></trkpt><trkpt lat="43.6967393" lon="12.6101093"><ele>462.5</ele><time>2026-03-22T10:27:44.511Z</time></trkpt><trkpt lat="43.6967202" lon="12.609964"><ele>467.25</ele><time>2026-03-22T10:27:45.51Z</time></trkpt><trkpt lat="43.6967306" lon="12.6098074"><ele>472.0</ele><time>2026-03-22T10:27:46.511Z</time></trkpt><trkpt lat="43.6967739" lon="12.6096425"><ele>468.33333333333337</ele><time>2026-03-22T10:27:47.509Z</time></trkpt><trkpt lat="43.6968588" lon="12.6094597"><ele>464.66666666666663</ele><time>2026-03-22T10:27:48.509Z</time></trkpt><trkpt lat="43.6969596" lon="12.6092344"><ele>461.0</ele><time>2026-03-22T10:27:49.51Z</time></trkpt><trkpt lat="43.697045" lon="12.6090335"><ele>461.0</ele><time>2026-03-22T10:27:50.51Z</time></trkpt><trkpt lat="43.6971225" lon="12.6088506"><ele>461.0</ele><time>2026-03-22T10:27:51.511Z</time></trkpt><trkpt lat="43.6971892" lon="12.6086798"><ele>461.0</ele><time>2026-03-22T10:27:52.51Z</time></trkpt><trkpt lat="43.6972704" lon="12.6085231"><ele>461.0</ele><time>2026-03-22T10:27:53.509Z</time></trkpt><trkpt lat="43.6973741" lon="12.6083959"><ele>465.3333333333333</ele><time>2026-03-22T10:27:54.51Z</time></trkpt><trkpt lat="43.6974939" lon="12.6082662"><ele>469.66666666666663</ele><time>2026-03-22T10:27:55.51Z</time></trkpt><trkpt lat="43.6976143" lon="12.6080977"><ele>474.0</ele><time>2026-03-22T10:27:56.511Z</time></trkpt><trkpt lat="43.6977222" lon="12.6079035"><ele>476.5</ele><time>2026-03-22T10:27:57.51Z</time></trkpt><trkpt lat="43.697813" lon="12.6077485"><ele>479.0</ele><time>2026-03-22T10:27:58.51Z</time></trkpt><trkpt lat="43.6978999" lon="12.6076206"><ele>481.5</ele><time>2026-03-22T10:27:59.509Z</time></trkpt><trkpt lat="43.6979811" lon="12.6075173"><ele>484.0</ele><time>2026-03-22T10:28:00.511Z</time></trkpt><trkpt lat="43.6980742" lon="12.6074409"><ele>484.00000000000006</ele><time>2026-03-22T10:28:01.509Z</time></trkpt><trkpt lat="43.6981716" lon="12.6074113"><ele>484.0</ele><time>2026-03-22T10:28:02.509Z</time></trkpt><trkpt lat="43.6982604" lon="12.607408"><ele>484.0</ele><time>2026-03-22T10:28:03.509Z</time></trkpt><trkpt lat="43.698351" lon="12.6074149"><ele>484.0</ele><time>2026-03-22T10:28:04.509Z</time></trkpt><trkpt lat="43.6984362" lon="12.6074126"><ele>484.00000000000006</ele><time>2026-03-22T10:28:05.51Z</time></trkpt><trkpt lat="43.6985062" lon="12.6073896"><ele>484.0</ele><time>2026-03-22T10:28:06.51Z</time></trkpt><trkpt lat="43.6985671" lon="12.6073455"><ele>483.00000000000006</ele><time>2026-03-22T10:28:07.511Z</time></trkpt><trkpt lat="43.6986098" lon="12.6072776"><ele>482.0</ele><time>2026-03-22T10:28:08.51Z</time></trkpt><trkpt lat="43.6986282" lon="12.6071902"><ele>481.0</ele><time>2026-03-22T10:28:09.51Z</time></trkpt><trkpt lat="43.6986228" lon="12.6070834"><ele>480.0</ele><time>2026-03-22T10:28:10.51Z</time></trkpt><trkpt lat="43.6985948" lon="12.6069556"><ele>479.00000000000006</ele><time>2026-03-22T10:28:11.51Z</time></trkpt><trkpt lat="43.6985581" lon="12.6067999"><ele>478.0</ele><time>2026-03-22T10:28:12.509Z</time></trkpt><trkpt lat="43.6985226" lon="12.6066176"><ele>481.0</ele><time>2026-03-22T10:28:13.509Z</time></trkpt><trkpt lat="43.6984995" lon="12.6064399"><ele>484.0</ele><time>2026-03-22T10:28:14.511Z</time></trkpt><trkpt lat="43.6984824" lon="12.6062751"><ele>487.0</ele><time>2026-03-22T10:28:15.51Z</time></trkpt><trkpt lat="43.6984736" lon="12.6060999"><ele>490.0</ele><time>2026-03-22T10:28:16.51Z</time></trkpt><trkpt lat="43.6984699" lon="12.6059077"><ele>490.0</ele><time>2026-03-22T10:28:17.509Z</time></trkpt><trkpt lat="43.6984694" lon="12.6057018"><ele>490.0</ele><time>2026-03-22T10:28:18.511Z</time></trkpt><trkpt lat="43.6984742" lon="12.605485"><ele>490.0</ele><time>2026-03-22T10:28:19.51Z</time></trkpt><trkpt lat="43.6984902" lon="12.6052582"><ele>491.75</ele><time>2026-03-22T10:28:20.509Z</time></trkpt><trkpt lat="43.698513" lon="12.6050785"><ele>493.5</ele><time>2026-03-22T10:28:21.51Z</time></trkpt><trkpt lat="43.6985401" lon="12.6049146"><ele>495.25</ele><time>2026-03-22T10:28:22.51Z</time></trkpt><trkpt lat="43.6985737" lon="12.6047475"><ele>497.0</ele><time>2026-03-22T10:28:23.509Z</time></trkpt><trkpt lat="43.6986115" lon="12.6045524"><ele>492.75</ele><time>2026-03-22T10:28:24.509Z</time></trkpt><trkpt lat="43.6986647" lon="12.6043363"><ele>488.5</ele><time>2026-03-22T10:28:25.51Z</time></trkpt><trkpt lat="43.6987166" lon="12.6041558"><ele>484.25</ele><time>2026-03-22T10:28:26.508Z</time></trkpt><trkpt lat="43.6987636" lon="12.6039948"><ele>480.0</ele><time>2026-03-22T10:28:27.508Z</time></trkpt><trkpt lat="43.6988014" lon="12.6038372"><ele>480.0</ele><time>2026-03-22T10:28:28.508Z</time></trkpt><trkpt lat="43.6988308" lon="12.6037176"><ele>480.0</ele><time>2026-03-22T10:28:29.508Z</time></trkpt><trkpt lat="43.6988445" lon="12.6036172"><ele>480.0</ele><time>2026-03-22T10:28:30.509Z</time></trkpt><trkpt lat="43.6988433" lon="12.603453"><ele>480.0</ele><time>2026-03-22T10:28:32.509Z</time></trkpt><trkpt lat="43.6988175" lon="12.6033687"><ele>480.0</ele><time>2026-03-22T10:28:35.51Z</time></trkpt><trkpt lat="43.6988166" lon="12.6032798"><ele>480.0</ele><time>2026-03-22T10:29:17.508Z</time></trkpt><trkpt lat="43.698864" lon="12.6031696"><ele>483.4</ele><time>2026-03-22T10:29:19.508Z</time></trkpt><trkpt lat="43.6989193" lon="12.6030466"><ele>486.8</ele><time>2026-03-22T10:29:21.509Z</time></trkpt><trkpt lat="43.6989637" lon="12.6029041"><ele>490.20000000000005</ele><time>2026-03-22T10:29:23.509Z</time></trkpt><trkpt lat="43.6990152" lon="12.6027975"><ele>493.6</ele><time>2026-03-22T10:29:25.51Z</time></trkpt><trkpt lat="43.6990941" lon="12.6027385"><ele>497.0</ele><time>2026-03-22T10:29:27.508Z</time></trkpt><trkpt lat="43.6991608" lon="12.6027075"><ele>496.99999999999994</ele><time>2026-03-22T10:29:29.509Z</time></trkpt><trkpt lat="43.6990707" lon="12.6027208"><ele>497.0</ele><time>2026-03-22T10:29:34.509Z</time></trkpt><trkpt lat="43.6989878" lon="12.6028278"><ele>497.0</ele><time>2026-03-22T10:29:36.51Z</time></trkpt><trkpt lat="43.6989532" lon="12.6029053"><ele>497.0</ele><time>2026-03-22T10:29:37.51Z</time></trkpt><trkpt lat="43.6989166" lon="12.6029898"><ele>496.99999999999994</ele><time>2026-03-22T10:29:38.509Z</time></trkpt><trkpt lat="43.6988824" lon="12.6030777"><ele>497.0</ele><time>2026-03-22T10:29:39.509Z</time></trkpt><trkpt lat="43.698846" lon="12.603174"><ele>497.20000000000005</ele><time>2026-03-22T10:29:40.509Z</time></trkpt><trkpt lat="43.6988045" lon="12.6032758"><ele>497.40000000000003</ele><time>2026-03-22T10:29:41.509Z</time></trkpt><trkpt lat="43.6987546" lon="12.603377"><ele>497.59999999999997</ele><time>2026-03-22T10:29:42.509Z</time></trkpt><trkpt lat="43.6986846" lon="12.6034902"><ele>497.79999999999995</ele><time>2026-03-22T10:29:43.509Z</time></trkpt><trkpt lat="43.6985841" lon="12.6035893"><ele>498.0</ele><time>2026-03-22T10:29:44.509Z</time></trkpt><trkpt lat="43.698447" lon="12.603663"><ele>500.0</ele><time>2026-03-22T10:29:45.508Z</time></trkpt><trkpt lat="43.6982794" lon="12.6037269"><ele>502.0</ele><time>2026-03-22T10:29:46.509Z</time></trkpt><trkpt lat="43.698113" lon="12.603779"><ele>504.0</ele><time>2026-03-22T10:29:47.509Z</time></trkpt><trkpt lat="43.6979681" lon="12.60382"><ele>504.0</ele><time>2026-03-22T10:29:48.509Z</time></trkpt><trkpt lat="43.6978369" lon="12.603861"><ele>504.0</ele><time>2026-03-22T10:29:49.51Z</time></trkpt><trkpt lat="43.6977233" lon="12.6039175"><ele>504.0</ele><time>2026-03-22T10:29:50.509Z</time></trkpt><trkpt lat="43.6976137" lon="12.6040084"><ele>504.0</ele><time>2026-03-22T10:29:51.509Z</time></trkpt><trkpt lat="43.6975089" lon="12.6041267"><ele>505.5</ele><time>2026-03-22T10:29:52.51Z</time></trkpt><trkpt lat="43.6974044" lon="12.6042593"><ele>507.0</ele><time>2026-03-22T10:29:53.508Z</time></trkpt><trkpt lat="43.697297" lon="12.6043985"><ele>508.5</ele><time>2026-03-22T10:29:54.509Z</time></trkpt><trkpt lat="43.6972044" lon="12.6045124"><ele>510.0</ele><time>2026-03-22T10:29:55.509Z</time></trkpt><trkpt lat="43.6971182" lon="12.6046144"><ele>511.3333333333333</ele><time>2026-03-22T10:29:56.508Z</time></trkpt><trkpt lat="43.6970387" lon="12.6046978"><ele>512.6666666666666</ele><time>2026-03-22T10:29:57.509Z</time></trkpt><trkpt lat="43.6969689" lon="12.6047709"><ele>514.0</ele><time>2026-03-22T10:29:58.51Z</time></trkpt><trkpt lat="43.6969069" lon="12.6048324"><ele>515.3333333333333</ele><time>2026-03-22T10:29:59.509Z</time></trkpt><trkpt lat="43.6968475" lon="12.6049008"><ele>516.6666666666666</ele><time>2026-03-22T10:30:00.509Z</time></trkpt><trkpt lat="43.6967836" lon="12.6049729"><ele>518.0</ele><time>2026-03-22T10:30:01.509Z</time></trkpt><trkpt lat="43.6967161" lon="12.6050439"><ele>518.0</ele><time>2026-03-22T10:30:02.509Z</time></trkpt><trkpt lat="43.6966441" lon="12.605109"><ele>518.0</ele><time>2026-03-22T10:30:03.509Z</time></trkpt><trkpt lat="43.6965737" lon="12.6051644"><ele>518.0</ele><time>2026-03-22T10:30:04.51Z</time></trkpt><trkpt lat="43.6965078" lon="12.6052156"><ele>518.0</ele><time>2026-03-22T10:30:05.509Z</time></trkpt><trkpt lat="43.6964453" lon="12.6052625"><ele>518.0</ele><time>2026-03-22T10:30:06.509Z</time></trkpt><trkpt lat="43.696387" lon="12.6053076"><ele>518.0</ele><time>2026-03-22T10:30:07.509Z</time></trkpt><trkpt lat="43.6963276" lon="12.6053464"><ele>518.0</ele><time>2026-03-22T10:30:08.51Z</time></trkpt><trkpt lat="43.6962641" lon="12.6053587"><ele>518.0</ele><time>2026-03-22T10:30:09.509Z</time></trkpt><trkpt lat="43.6962006" lon="12.6053478"><ele>518.0</ele><time>2026-03-22T10:30:10.508Z</time></trkpt><trkpt lat="43.6961371" lon="12.6053119"><ele>518.0</ele><time>2026-03-22T10:30:11.509Z</time></trkpt><trkpt lat="43.6960694" lon="12.6052663"><ele>518.0</ele><time>2026-03-22T10:30:12.51Z</time></trkpt><trkpt lat="43.6959773" lon="12.6052191"><ele>518.0</ele><time>2026-03-22T10:30:13.509Z</time></trkpt><trkpt lat="43.6958538" lon="12.6051683"><ele>518.0</ele><time>2026-03-22T10:30:14.509Z</time></trkpt><trkpt lat="43.6957107" lon="12.605128"><ele>516.25</ele><time>2026-03-22T10:30:15.508Z</time></trkpt><trkpt lat="43.6955824" lon="12.6051134"><ele>514.5</ele><time>2026-03-22T10:30:16.509Z</time></trkpt><trkpt lat="43.6954674" lon="12.6051325"><ele>512.75</ele><time>2026-03-22T10:30:17.508Z</time></trkpt><trkpt lat="43.6953478" lon="12.6051949"><ele>511.0</ele><time>2026-03-22T10:30:18.509Z</time></trkpt><trkpt lat="43.6952121" lon="12.6052935"><ele>516.75</ele><time>2026-03-22T10:30:19.508Z</time></trkpt><trkpt lat="43.6950615" lon="12.6054052"><ele>522.5</ele><time>2026-03-22T10:30:20.508Z</time></trkpt><trkpt lat="43.6949233" lon="12.6054646"><ele>528.25</ele><time>2026-03-22T10:30:21.509Z</time></trkpt><trkpt lat="43.694792" lon="12.6054833"><ele>534.0</ele><time>2026-03-22T10:30:22.508Z</time></trkpt><trkpt lat="43.6946747" lon="12.605455"><ele>534.0</ele><time>2026-03-22T10:30:23.51Z</time></trkpt><trkpt lat="43.6945812" lon="12.6053692"><ele>534.0</ele><time>2026-03-22T10:30:24.509Z</time></trkpt><trkpt lat="43.6944976" lon="12.6052729"><ele>534.0</ele><time>2026-03-22T10:30:25.508Z</time></trkpt><trkpt lat="43.6944193" lon="12.6052172"><ele>534.0</ele><time>2026-03-22T10:30:26.51Z</time></trkpt><trkpt lat="43.6943347" lon="12.6052078"><ele>534.0</ele><time>2026-03-22T10:30:27.509Z</time></trkpt><trkpt lat="43.6942579" lon="12.605261"><ele>533.0</ele><time>2026-03-22T10:30:28.509Z</time></trkpt><trkpt lat="43.6941963" lon="12.6053724"><ele>532.0</ele><time>2026-03-22T10:30:29.509Z</time></trkpt><trkpt lat="43.6941316" lon="12.6055286"><ele>531.0</ele><time>2026-03-22T10:30:30.508Z</time></trkpt><trkpt lat="43.6940391" lon="12.6057134"><ele>530.0</ele><time>2026-03-22T10:30:31.509Z</time></trkpt><trkpt lat="43.6939397" lon="12.6059175"><ele>530.0</ele><time>2026-03-22T10:30:32.509Z</time></trkpt><trkpt lat="43.6938622" lon="12.6061044"><ele>530.0</ele><time>2026-03-22T10:30:33.508Z</time></trkpt><trkpt lat="43.6937926" lon="12.6062794"><ele>530.0</ele><time>2026-03-22T10:30:34.509Z</time></trkpt><trkpt lat="43.6937247" lon="12.6064344"><ele>530.0</ele><time>2026-03-22T10:30:35.508Z</time></trkpt><trkpt lat="43.6936536" lon="12.6065674"><ele>530.0</ele><time>2026-03-22T10:30:36.508Z</time></trkpt><trkpt lat="43.693576" lon="12.6066693"><ele>530.0</ele><time>2026-03-22T10:30:37.508Z</time></trkpt><trkpt lat="43.6934946" lon="12.6067448"><ele>530.0</ele><time>2026-03-22T10:30:38.51Z</time></trkpt><trkpt lat="43.6934102" lon="12.6068235"><ele>530.0</ele><time>2026-03-22T10:30:39.508Z</time></trkpt><trkpt lat="43.6933227" lon="12.606923"><ele>530.0</ele><time>2026-03-22T10:30:40.509Z</time></trkpt><trkpt lat="43.6932256" lon="12.6070254"><ele>533.0</ele><time>2026-03-22T10:30:41.508Z</time></trkpt><trkpt lat="43.6931411" lon="12.6071172"><ele>536.0</ele><time>2026-03-22T10:30:42.509Z</time></trkpt><trkpt lat="43.6930889" lon="12.6072149"><ele>539.0</ele><time>2026-03-22T10:30:43.509Z</time></trkpt><trkpt lat="43.693041" lon="12.607312"><ele>542.0</ele><time>2026-03-22T10:30:44.509Z</time></trkpt><trkpt lat="43.69307" lon="12.6074437"><ele>545.0</ele><time>2026-03-22T10:30:45.509Z</time></trkpt><trkpt lat="43.6931138" lon="12.6075451"><ele>545.0</ele><time>2026-03-22T10:30:46.509Z</time></trkpt><trkpt lat="43.6931849" lon="12.6076601"><ele>545.0</ele><time>2026-03-22T10:30:47.509Z</time></trkpt><trkpt lat="43.6932586" lon="12.6078055"><ele>545.0</ele><time>2026-03-22T10:30:48.51Z</time></trkpt><trkpt lat="43.6933251" lon="12.6079984"><ele>545.0</ele><time>2026-03-22T10:30:49.508Z</time></trkpt><trkpt lat="43.693384" lon="12.6082199"><ele>542.3333333333333</ele><time>2026-03-22T10:30:50.508Z</time></trkpt><trkpt lat="43.6934381" lon="12.6084958"><ele>539.6666666666666</ele><time>2026-03-22T10:30:51.509Z</time></trkpt><trkpt lat="43.6934824" lon="12.6087428"><ele>537.0</ele><time>2026-03-22T10:30:52.51Z</time></trkpt><trkpt lat="43.6935279" lon="12.6089741"><ele>533.75</ele><time>2026-03-22T10:30:53.508Z</time></trkpt><trkpt lat="43.6935673" lon="12.6091914"><ele>530.5</ele><time>2026-03-22T10:30:54.509Z</time></trkpt><trkpt lat="43.693597" lon="12.6093902"><ele>527.25</ele><time>2026-03-22T10:30:55.509Z</time></trkpt><trkpt lat="43.6936088" lon="12.6095834"><ele>524.0</ele><time>2026-03-22T10:30:56.508Z</time></trkpt><trkpt lat="43.6936122" lon="12.6097778"><ele>521.0</ele><time>2026-03-22T10:30:57.509Z</time></trkpt><trkpt lat="43.6936146" lon="12.609976"><ele>518.0</ele><time>2026-03-22T10:30:58.508Z</time></trkpt><trkpt lat="43.6936005" lon="12.61019"><ele>515.0</ele><time>2026-03-22T10:30:59.508Z</time></trkpt><trkpt lat="43.6935776" lon="12.6104096"><ele>515.0</ele><time>2026-03-22T10:31:00.509Z</time></trkpt><trkpt lat="43.6935635" lon="12.6106202"><ele>515.0</ele><time>2026-03-22T10:31:01.508Z</time></trkpt><trkpt lat="43.6935399" lon="12.6108265"><ele>515.0</ele><time>2026-03-22T10:31:02.509Z</time></trkpt><trkpt lat="43.6935092" lon="12.6110259"><ele>515.0</ele><time>2026-03-22T10:31:03.509Z</time></trkpt><trkpt lat="43.6934763" lon="12.6112246"><ele>515.0</ele><time>2026-03-22T10:31:04.509Z</time></trkpt><trkpt lat="43.6934297" lon="12.6114274"><ele>515.0</ele><time>2026-03-22T10:31:05.508Z</time></trkpt><trkpt lat="43.6933772" lon="12.611612"><ele>515.0</ele><time>2026-03-22T10:31:06.509Z</time></trkpt><trkpt lat="43.6933236" lon="12.6117809"><ele>515.0</ele><time>2026-03-22T10:31:07.51Z</time></trkpt><trkpt lat="43.6932743" lon="12.6119329"><ele>515.0</ele><time>2026-03-22T10:31:08.509Z</time></trkpt><trkpt lat="43.693234" lon="12.612074"><ele>515.0</ele><time>2026-03-22T10:31:09.508Z</time></trkpt><trkpt lat="43.6932173" lon="12.6122098"><ele>515.0</ele><time>2026-03-22T10:31:10.508Z</time></trkpt><trkpt lat="43.6932227" lon="12.612332"><ele>515.0</ele><time>2026-03-22T10:31:11.509Z</time></trkpt><trkpt lat="43.6932085" lon="12.6124412"><ele>512.4</ele><time>2026-03-22T10:31:12.509Z</time></trkpt><trkpt lat="43.6931629" lon="12.6125308"><ele>509.8</ele><time>2026-03-22T10:31:13.509Z</time></trkpt><trkpt lat="43.6930832" lon="12.6126133"><ele>507.20000000000005</ele><time>2026-03-22T10:31:14.509Z</time></trkpt><trkpt lat="43.6929809" lon="12.6126882"><ele>504.6</ele><time>2026-03-22T10:31:15.508Z</time></trkpt><trkpt lat="43.6928925" lon="12.6127623"><ele>502.0</ele><time>2026-03-22T10:31:16.508Z</time></trkpt><trkpt lat="43.6928119" lon="12.6128194"><ele>500.1666666666667</ele><time>2026-03-22T10:31:17.508Z</time></trkpt><trkpt lat="43.6927327" lon="12.6128532"><ele>498.33333333333337</ele><time>2026-03-22T10:31:18.509Z</time></trkpt><trkpt lat="43.6926428" lon="12.6128283"><ele>496.5</ele><time>2026-03-22T10:31:19.508Z</time></trkpt><trkpt lat="43.6925692" lon="12.6127893"><ele>494.66666666666663</ele><time>2026-03-22T10:31:20.508Z</time></trkpt><trkpt lat="43.6924987" lon="12.6127755"><ele>492.8333333333333</ele><time>2026-03-22T10:31:21.508Z</time></trkpt><trkpt lat="43.6924343" lon="12.6127999"><ele>491.0</ele><time>2026-03-22T10:31:22.51Z</time></trkpt><trkpt lat="43.6923876" lon="12.6129702"><ele>489.3333333333333</ele><time>2026-03-22T10:31:24.51Z</time></trkpt><trkpt lat="43.6924189" lon="12.6130885"><ele>487.66666666666663</ele><time>2026-03-22T10:31:25.508Z</time></trkpt><trkpt lat="43.6924732" lon="12.6131944"><ele>486.0</ele><time>2026-03-22T10:31:26.508Z</time></trkpt><trkpt lat="43.6924968" lon="12.6133077"><ele>484.33333333333337</ele><time>2026-03-22T10:31:27.508Z</time></trkpt><trkpt lat="43.6924852" lon="12.6134197"><ele>482.6666666666667</ele><time>2026-03-22T10:31:28.51Z</time></trkpt><trkpt lat="43.6924325" lon="12.6135115"><ele>481.0</ele><time>2026-03-22T10:31:29.508Z</time></trkpt><trkpt lat="43.6923391" lon="12.6135777"><ele>481.0</ele><time>2026-03-22T10:31:30.509Z</time></trkpt><trkpt lat="43.6922018" lon="12.6136321"><ele>481.0</ele><time>2026-03-22T10:31:31.509Z</time></trkpt><trkpt lat="43.6920449" lon="12.6137"><ele>481.0</ele><time>2026-03-22T10:31:32.509Z</time></trkpt><trkpt lat="43.6918761" lon="12.6137785"><ele>481.75</ele><time>2026-03-22T10:31:33.508Z</time></trkpt><trkpt lat="43.6917269" lon="12.6138477"><ele>482.5</ele><time>2026-03-22T10:31:34.509Z</time></trkpt><trkpt lat="43.6915924" lon="12.6139093"><ele>483.25</ele><time>2026-03-22T10:31:35.508Z</time></trkpt><trkpt lat="43.6914702" lon="12.6139674"><ele>484.0</ele><time>2026-03-22T10:31:36.51Z</time></trkpt><trkpt lat="43.6913512" lon="12.6140256"><ele>484.0</ele><time>2026-03-22T10:31:37.509Z</time></trkpt><trkpt lat="43.6912452" lon="12.6140786"><ele>484.0</ele><time>2026-03-22T10:31:38.508Z</time></trkpt><trkpt lat="43.6911495" lon="12.6141555"><ele>484.0</ele><time>2026-03-22T10:31:39.509Z</time></trkpt><trkpt lat="43.6910641" lon="12.6142736"><ele>484.0</ele><time>2026-03-22T10:31:40.509Z</time></trkpt><trkpt lat="43.6909828" lon="12.6144128"><ele>483.79999999999995</ele><time>2026-03-22T10:31:41.508Z</time></trkpt><trkpt lat="43.6909028" lon="12.6145336"><ele>483.59999999999997</ele><time>2026-03-22T10:31:42.509Z</time></trkpt><trkpt lat="43.6908268" lon="12.6145991"><ele>483.4</ele><time>2026-03-22T10:31:43.508Z</time></trkpt><trkpt lat="43.6907563" lon="12.614661"><ele>483.2</ele><time>2026-03-22T10:31:44.509Z</time></trkpt><trkpt lat="43.6906714" lon="12.6145646"><ele>483.0</ele><time>2026-03-22T10:31:45.509Z</time></trkpt><trkpt lat="43.6906063" lon="12.6144622"><ele>483.0</ele><time>2026-03-22T10:31:46.508Z</time></trkpt><trkpt lat="43.6905239" lon="12.6143998"><ele>482.99999999999994</ele><time>2026-03-22T10:31:47.509Z</time></trkpt><trkpt lat="43.6904415" lon="12.6143816"><ele>482.99999999999994</ele><time>2026-03-22T10:31:48.509Z</time></trkpt><trkpt lat="43.6903571" lon="12.6144069"><ele>483.0</ele><time>2026-03-22T10:31:49.51Z</time></trkpt><trkpt lat="43.6902513" lon="12.6144741"><ele>483.0</ele><time>2026-03-22T10:31:50.508Z</time></trkpt><trkpt lat="43.6901187" lon="12.6145734"><ele>487.0</ele><time>2026-03-22T10:31:51.508Z</time></trkpt><trkpt lat="43.6899613" lon="12.6146646"><ele>491.0</ele><time>2026-03-22T10:31:52.509Z</time></trkpt><trkpt lat="43.6897939" lon="12.6147288"><ele>495.0</ele><time>2026-03-22T10:31:53.51Z</time></trkpt><trkpt lat="43.6896323" lon="12.6147587"><ele>495.0</ele><time>2026-03-22T10:31:54.51Z</time></trkpt><trkpt lat="43.6894845" lon="12.6147762"><ele>495.0</ele><time>2026-03-22T10:31:55.51Z</time></trkpt><trkpt lat="43.6893496" lon="12.6148084"><ele>495.0</ele><time>2026-03-22T10:31:56.508Z</time></trkpt><trkpt lat="43.6892186" lon="12.614873"><ele>495.0</ele><time>2026-03-22T10:31:57.509Z</time></trkpt><trkpt lat="43.6890724" lon="12.614964"><ele>495.0</ele><time>2026-03-22T10:31:58.509Z</time></trkpt><trkpt lat="43.6889178" lon="12.6150672"><ele>495.0</ele><time>2026-03-22T10:31:59.509Z</time></trkpt><trkpt lat="43.6887548" lon="12.6151619"><ele>495.0</ele><time>2026-03-22T10:32:00.509Z</time></trkpt><trkpt lat="43.6885845" lon="12.6152973"><ele>498.5</ele><time>2026-03-22T10:32:01.509Z</time></trkpt><trkpt lat="43.6884364" lon="12.6154123"><ele>502.0</ele><time>2026-03-22T10:32:02.508Z</time></trkpt><trkpt lat="43.6883045" lon="12.6155032"><ele>505.5</ele><time>2026-03-22T10:32:03.508Z</time></trkpt><trkpt lat="43.6881919" lon="12.6155775"><ele>509.0</ele><time>2026-03-22T10:32:04.509Z</time></trkpt><trkpt lat="43.6881006" lon="12.6156592"><ele>509.0</ele><time>2026-03-22T10:32:05.51Z</time></trkpt><trkpt lat="43.6880389" lon="12.6157592"><ele>509.0</ele><time>2026-03-22T10:32:06.508Z</time></trkpt><trkpt lat="43.6880013" lon="12.6159016"><ele>509.0</ele><time>2026-03-22T10:32:07.508Z</time></trkpt><trkpt lat="43.6879683" lon="12.616095"><ele>509.0</ele><time>2026-03-22T10:32:08.508Z</time></trkpt><trkpt lat="43.6879095" lon="12.6162947"><ele>510.75</ele><time>2026-03-22T10:32:09.509Z</time></trkpt><trkpt lat="43.6878437" lon="12.6164783"><ele>512.5</ele><time>2026-03-22T10:32:10.509Z</time></trkpt><trkpt lat="43.6878074" lon="12.616634"><ele>514.25</ele><time>2026-03-22T10:32:11.509Z</time></trkpt><trkpt lat="43.6877978" lon="12.6167816"><ele>516.0</ele><time>2026-03-22T10:32:12.509Z</time></trkpt><trkpt lat="43.687814" lon="12.6169349"><ele>515.6</ele><time>2026-03-22T10:32:13.51Z</time></trkpt><trkpt lat="43.6878527" lon="12.6170926"><ele>515.2</ele><time>2026-03-22T10:32:14.509Z</time></trkpt><trkpt lat="43.6878787" lon="12.6172297"><ele>514.8</ele><time>2026-03-22T10:32:15.508Z</time></trkpt><trkpt lat="43.6878648" lon="12.6173513"><ele>514.4</ele><time>2026-03-22T10:32:16.51Z</time></trkpt><trkpt lat="43.6878031" lon="12.6174527"><ele>514.0</ele><time>2026-03-22T10:32:17.509Z</time></trkpt><trkpt lat="43.6877114" lon="12.6175488"><ele>513.25</ele><time>2026-03-22T10:32:18.509Z</time></trkpt><trkpt lat="43.6875968" lon="12.6175946"><ele>512.5</ele><time>2026-03-22T10:32:19.508Z</time></trkpt><trkpt lat="43.6875175" lon="12.6176909"><ele>511.75</ele><time>2026-03-22T10:32:20.509Z</time></trkpt><trkpt lat="43.6874612" lon="12.6178322"><ele>511.0</ele><time>2026-03-22T10:32:21.51Z</time></trkpt><trkpt lat="43.6874065" lon="12.6180177"><ele>511.0</ele><time>2026-03-22T10:32:22.509Z</time></trkpt><trkpt lat="43.6873303" lon="12.6182122"><ele>511.0</ele><time>2026-03-22T10:32:23.509Z</time></trkpt><trkpt lat="43.6872463" lon="12.6184295"><ele>511.0</ele><time>2026-03-22T10:32:24.51Z</time></trkpt><trkpt lat="43.6870971" lon="12.61866"><ele>512.3333333333334</ele><time>2026-03-22T10:32:25.51Z</time></trkpt><trkpt lat="43.6869873" lon="12.6188774"><ele>513.6666666666666</ele><time>2026-03-22T10:32:26.508Z</time></trkpt><trkpt lat="43.6868902" lon="12.6190855"><ele>515.0</ele><time>2026-03-22T10:32:27.508Z</time></trkpt><trkpt lat="43.6868069" lon="12.6192932"><ele>509.25</ele><time>2026-03-22T10:32:28.508Z</time></trkpt><trkpt lat="43.6867388" lon="12.6194999"><ele>503.5</ele><time>2026-03-22T10:32:29.508Z</time></trkpt><trkpt lat="43.6866702" lon="12.6196726"><ele>497.75</ele><time>2026-03-22T10:32:30.508Z</time></trkpt><trkpt lat="43.6865889" lon="12.619818"><ele>492.0</ele><time>2026-03-22T10:32:31.509Z</time></trkpt><trkpt lat="43.6865016" lon="12.6199499"><ele>492.0</ele><time>2026-03-22T10:32:32.51Z</time></trkpt><trkpt lat="43.6863902" lon="12.6200814"><ele>492.0</ele><time>2026-03-22T10:32:33.508Z</time></trkpt><trkpt lat="43.6862591" lon="12.6202313"><ele>492.0</ele><time>2026-03-22T10:32:34.508Z</time></trkpt><trkpt lat="43.6861217" lon="12.6203996"><ele>489.0</ele><time>2026-03-22T10:32:35.508Z</time></trkpt><trkpt lat="43.6859986" lon="12.6205459"><ele>486.0</ele><time>2026-03-22T10:32:36.508Z</time></trkpt><trkpt lat="43.6858813" lon="12.6206658"><ele>483.0</ele><time>2026-03-22T10:32:37.51Z</time></trkpt><trkpt lat="43.6857681" lon="12.6207529"><ele>480.0</ele><time>2026-03-22T10:32:38.508Z</time></trkpt><trkpt lat="43.6856442" lon="12.6208052"><ele>480.0</ele><time>2026-03-22T10:32:39.509Z</time></trkpt><trkpt lat="43.6855055" lon="12.6208106"><ele>480.0</ele><time>2026-03-22T10:32:40.508Z</time></trkpt><trkpt lat="43.6853436" lon="12.6207927"><ele>480.0</ele><time>2026-03-22T10:32:41.509Z</time></trkpt><trkpt lat="43.6851889" lon="12.6207938"><ele>482.25</ele><time>2026-03-22T10:32:42.509Z</time></trkpt><trkpt lat="43.6850504" lon="12.6208076"><ele>484.5</ele><time>2026-03-22T10:32:43.51Z</time></trkpt><trkpt lat="43.6849065" lon="12.6208479"><ele>486.75</ele><time>2026-03-22T10:32:44.509Z</time></trkpt><trkpt lat="43.6847593" lon="12.6209146"><ele>489.0</ele><time>2026-03-22T10:32:45.509Z</time></trkpt><trkpt lat="43.6846017" lon="12.6209981"><ele>490.33333333333337</ele><time>2026-03-22T10:32:46.509Z</time></trkpt><trkpt lat="43.6844259" lon="12.6211007"><ele>491.6666666666667</ele><time>2026-03-22T10:32:47.509Z</time></trkpt><trkpt lat="43.6842293" lon="12.6212332"><ele>493.0</ele><time>2026-03-22T10:32:48.509Z</time></trkpt><trkpt lat="43.6840253" lon="12.6213647"><ele>493.0</ele><time>2026-03-22T10:32:49.508Z</time></trkpt><trkpt lat="43.6838606" lon="12.6214724"><ele>493.0</ele><time>2026-03-22T10:32:50.508Z</time></trkpt><trkpt lat="43.6837099" lon="12.6215691"><ele>493.0</ele><time>2026-03-22T10:32:51.509Z</time></trkpt><trkpt lat="43.6835722" lon="12.6216506"><ele>490.59999999999997</ele><time>2026-03-22T10:32:52.508Z</time></trkpt><trkpt lat="43.6834475" lon="12.6217045"><ele>488.19999999999993</ele><time>2026-03-22T10:32:53.509Z</time></trkpt><trkpt lat="43.6833417" lon="12.6217486"><ele>485.8</ele><time>2026-03-22T10:32:54.508Z</time></trkpt><trkpt lat="43.6832506" lon="12.6217851"><ele>483.4</ele><time>2026-03-22T10:32:55.51Z</time></trkpt><trkpt lat="43.6831652" lon="12.6217937"><ele>481.0</ele><time>2026-03-22T10:32:56.508Z</time></trkpt><trkpt lat="43.6830843" lon="12.6217632"><ele>481.0</ele><time>2026-03-22T10:32:57.51Z</time></trkpt><trkpt lat="43.6830159" lon="12.6217015"><ele>481.0</ele><time>2026-03-22T10:32:58.508Z</time></trkpt><trkpt lat="43.6829587" lon="12.6216071"><ele>481.0</ele><time>2026-03-22T10:32:59.509Z</time></trkpt><trkpt lat="43.6829036" lon="12.6214783"><ele>481.0</ele><time>2026-03-22T10:33:00.509Z</time></trkpt><trkpt lat="43.6828393" lon="12.6213055"><ele>481.0</ele><time>2026-03-22T10:33:01.509Z</time></trkpt><trkpt lat="43.6827859" lon="12.6211214"><ele>480.4</ele><time>2026-03-22T10:33:02.508Z</time></trkpt><trkpt lat="43.6827395" lon="12.6209591"><ele>479.8</ele><time>2026-03-22T10:33:03.509Z</time></trkpt><trkpt lat="43.682703" lon="12.6208196"><ele>479.19999999999993</ele><time>2026-03-22T10:33:04.509Z</time></trkpt><trkpt lat="43.6826659" lon="12.6207115"><ele>478.59999999999997</ele><time>2026-03-22T10:33:05.509Z</time></trkpt><trkpt lat="43.6826163" lon="12.620636"><ele>478.0</ele><time>2026-03-22T10:33:06.508Z</time></trkpt><trkpt lat="43.6825436" lon="12.6205842"><ele>478.0</ele><time>2026-03-22T10:33:07.508Z</time></trkpt><trkpt lat="43.6824496" lon="12.6205437"><ele>478.0</ele><time>2026-03-22T10:33:08.508Z</time></trkpt><trkpt lat="43.6823372" lon="12.6205222"><ele>478.0</ele><time>2026-03-22T10:33:09.508Z</time></trkpt><trkpt lat="43.6822043" lon="12.6205175"><ele>478.0</ele><time>2026-03-22T10:33:10.509Z</time></trkpt><trkpt lat="43.6820703" lon="12.6205221"><ele>478.0</ele><time>2026-03-22T10:33:11.509Z</time></trkpt><trkpt lat="43.6819488" lon="12.6205802"><ele>478.0</ele><time>2026-03-22T10:33:12.508Z</time></trkpt><trkpt lat="43.6818224" lon="12.6206438"><ele>478.0</ele><time>2026-03-22T10:33:13.508Z</time></trkpt><trkpt lat="43.6816948" lon="12.6207115"><ele>478.0</ele><time>2026-03-22T10:33:14.51Z</time></trkpt><trkpt lat="43.6815677" lon="12.6207752"><ele>475.75</ele><time>2026-03-22T10:33:15.509Z</time></trkpt><trkpt lat="43.6814421" lon="12.6208304"><ele>473.5</ele><time>2026-03-22T10:33:16.509Z</time></trkpt><trkpt lat="43.6813198" lon="12.6208705"><ele>471.25</ele><time>2026-03-22T10:33:17.508Z</time></trkpt><trkpt lat="43.6812021" lon="12.6209112"><ele>469.0</ele><time>2026-03-22T10:33:18.508Z</time></trkpt><trkpt lat="43.6810903" lon="12.6209622"><ele>466.4</ele><time>2026-03-22T10:33:19.51Z</time></trkpt><trkpt lat="43.6809874" lon="12.6209983"><ele>463.79999999999995</ele><time>2026-03-22T10:33:20.509Z</time></trkpt><trkpt lat="43.680894" lon="12.6210394"><ele>461.20000000000005</ele><time>2026-03-22T10:33:21.509Z</time></trkpt><trkpt lat="43.6808138" lon="12.621108"><ele>458.6</ele><time>2026-03-22T10:33:22.51Z</time></trkpt><trkpt lat="43.6807584" lon="12.6212167"><ele>456.0</ele><time>2026-03-22T10:33:23.509Z</time></trkpt><trkpt lat="43.6807372" lon="12.6213605"><ele>456.0</ele><time>2026-03-22T10:33:24.509Z</time></trkpt><trkpt lat="43.6807428" lon="12.6215294"><ele>456.0</ele><time>2026-03-22T10:33:25.508Z</time></trkpt><trkpt lat="43.6807563" lon="12.6217225"><ele>456.0</ele><time>2026-03-22T10:33:26.508Z</time></trkpt><trkpt lat="43.6807511" lon="12.6219113"><ele>456.0</ele><time>2026-03-22T10:33:27.509Z</time></trkpt><trkpt lat="43.6807282" lon="12.622102"><ele>457.33333333333337</ele><time>2026-03-22T10:33:28.509Z</time></trkpt><trkpt lat="43.6806648" lon="12.6223094"><ele>458.6666666666667</ele><time>2026-03-22T10:33:29.509Z</time></trkpt><trkpt lat="43.6805913" lon="12.6225637"><ele>460.0</ele><time>2026-03-22T10:33:30.51Z</time></trkpt><trkpt lat="43.6805217" lon="12.6228563"><ele>462.0</ele><time>2026-03-22T10:33:31.508Z</time></trkpt><trkpt lat="43.6804596" lon="12.6231182"><ele>464.0</ele><time>2026-03-22T10:33:32.509Z</time></trkpt><trkpt lat="43.6804001" lon="12.6233666"><ele>466.0</ele><time>2026-03-22T10:33:33.509Z</time></trkpt><trkpt lat="43.6803297" lon="12.6235958"><ele>454.6666666666667</ele><time>2026-03-22T10:33:34.508Z</time></trkpt><trkpt lat="43.680253" lon="12.6238006"><ele>443.33333333333337</ele><time>2026-03-22T10:33:35.51Z</time></trkpt><trkpt lat="43.6801709" lon="12.6239921"><ele>432.0</ele><time>2026-03-22T10:33:36.509Z</time></trkpt><trkpt lat="43.6800759" lon="12.6241934"><ele>432.0</ele><time>2026-03-22T10:33:37.509Z</time></trkpt><trkpt lat="43.6799668" lon="12.6243835"><ele>432.0</ele><time>2026-03-22T10:33:38.509Z</time></trkpt><trkpt lat="43.6798568" lon="12.6245459"><ele>432.0</ele><time>2026-03-22T10:33:39.509Z</time></trkpt><trkpt lat="43.6797466" lon="12.6246811"><ele>430.8</ele><time>2026-03-22T10:33:40.508Z</time></trkpt><trkpt lat="43.6796447" lon="12.6247994"><ele>429.6</ele><time>2026-03-22T10:33:41.509Z</time></trkpt><trkpt lat="43.6795569" lon="12.6249066"><ele>428.40000000000003</ele><time>2026-03-22T10:33:42.508Z</time></trkpt><trkpt lat="43.6794975" lon="12.6249956"><ele>427.20000000000005</ele><time>2026-03-22T10:33:43.509Z</time></trkpt><trkpt lat="43.6794595" lon="12.6250845"><ele>426.0</ele><time>2026-03-22T10:33:44.509Z</time></trkpt><trkpt lat="43.6794531" lon="12.6251815"><ele>426.0</ele><time>2026-03-22T10:33:45.509Z</time></trkpt><trkpt lat="43.6794789" lon="12.6252624"><ele>426.0</ele><time>2026-03-22T10:33:46.509Z</time></trkpt><trkpt lat="43.6795352" lon="12.6253106"><ele>426.0</ele><time>2026-03-22T10:33:47.508Z</time></trkpt><trkpt lat="43.6796149" lon="12.6253138"><ele>426.0</ele><time>2026-03-22T10:33:48.509Z</time></trkpt><trkpt lat="43.6797107" lon="12.6252807"><ele>426.0</ele><time>2026-03-22T10:33:49.509Z</time></trkpt><trkpt lat="43.6798739" lon="12.6252331"><ele>426.0</ele><time>2026-03-22T10:33:50.508Z</time></trkpt><trkpt lat="43.6800354" lon="12.6251956"><ele>426.0</ele><time>2026-03-22T10:33:51.509Z</time></trkpt><trkpt lat="43.6801805" lon="12.6251582"><ele>426.0</ele><time>2026-03-22T10:33:52.509Z</time></trkpt><trkpt lat="43.6803025" lon="12.6251242"><ele>426.0</ele><time>2026-03-22T10:33:53.509Z</time></trkpt><trkpt lat="43.6804027" lon="12.6250975"><ele>425.8</ele><time>2026-03-22T10:33:54.509Z</time></trkpt><trkpt lat="43.6804812" lon="12.6250916"><ele>425.6</ele><time>2026-03-22T10:33:55.508Z</time></trkpt><trkpt lat="43.6805598" lon="12.6251755"><ele>425.4</ele><time>2026-03-22T10:33:57.509Z</time></trkpt><trkpt lat="43.6805055" lon="12.6252884"><ele>425.2</ele><time>2026-03-22T10:33:59.508Z</time></trkpt><trkpt lat="43.6803634" lon="12.6253603"><ele>425.0</ele><time>2026-03-22T10:34:01.51Z</time></trkpt><trkpt lat="43.6802486" lon="12.6253939"><ele>419.25</ele><time>2026-03-22T10:34:02.508Z</time></trkpt><trkpt lat="43.6801263" lon="12.6254619"><ele>413.5</ele><time>2026-03-22T10:34:03.509Z</time></trkpt><trkpt lat="43.6799866" lon="12.6255565"><ele>407.75</ele><time>2026-03-22T10:34:04.51Z</time></trkpt><trkpt lat="43.6798503" lon="12.6256562"><ele>402.0</ele><time>2026-03-22T10:34:05.509Z</time></trkpt><trkpt lat="43.6797188" lon="12.6257492"><ele>402.0</ele><time>2026-03-22T10:34:06.508Z</time></trkpt><trkpt lat="43.6795583" lon="12.6258259"><ele>402.0</ele><time>2026-03-22T10:34:07.508Z</time></trkpt><trkpt lat="43.6793669" lon="12.6258928"><ele>402.0</ele><time>2026-03-22T10:34:08.509Z</time></trkpt><trkpt lat="43.679169" lon="12.6259761"><ele>404.0</ele><time>2026-03-22T10:34:09.508Z</time></trkpt><trkpt lat="43.6790008" lon="12.6260697"><ele>406.0</ele><time>2026-03-22T10:34:10.509Z</time></trkpt><trkpt lat="43.6788601" lon="12.6261427"><ele>408.0</ele><time>2026-03-22T10:34:11.508Z</time></trkpt><trkpt lat="43.6787411" lon="12.6262076"><ele>405.3333333333333</ele><time>2026-03-22T10:34:12.509Z</time></trkpt><trkpt lat="43.6786522" lon="12.6262632"><ele>402.66666666666663</ele><time>2026-03-22T10:34:13.509Z</time></trkpt><trkpt lat="43.6785854" lon="12.6263014"><ele>400.0</ele><time>2026-03-22T10:34:14.509Z</time></trkpt><trkpt lat="43.6785211" lon="12.626298"><ele>397.3333333333333</ele><time>2026-03-22T10:34:15.51Z</time></trkpt><trkpt lat="43.6784661" lon="12.6262496"><ele>394.66666666666663</ele><time>2026-03-22T10:34:16.509Z</time></trkpt><trkpt lat="43.6784358" lon="12.6261692"><ele>392.0</ele><time>2026-03-22T10:34:17.508Z</time></trkpt><trkpt lat="43.6783484" lon="12.6261202"><ele>390.66666666666663</ele><time>2026-03-22T10:34:19.509Z</time></trkpt><trkpt lat="43.678272" lon="12.6261929"><ele>389.3333333333333</ele><time>2026-03-22T10:34:21.508Z</time></trkpt><trkpt lat="43.678233" lon="12.6262845"><ele>388.0</ele><time>2026-03-22T10:34:22.509Z</time></trkpt><trkpt lat="43.6781872" lon="12.6263938"><ele>386.66666666666663</ele><time>2026-03-22T10:34:23.508Z</time></trkpt><trkpt lat="43.6781622" lon="12.6264959"><ele>385.3333333333333</ele><time>2026-03-22T10:34:24.509Z</time></trkpt><trkpt lat="43.6781763" lon="12.6265875"><ele>384.0</ele><time>2026-03-22T10:34:25.509Z</time></trkpt><trkpt lat="43.6782234" lon="12.6266555"><ele>384.0</ele><time>2026-03-22T10:34:26.508Z</time></trkpt><trkpt lat="43.678288" lon="12.626683"><ele>384.0</ele><time>2026-03-22T10:34:27.509Z</time></trkpt><trkpt lat="43.6783807" lon="12.6266645"><ele>384.0</ele><time>2026-03-22T10:34:28.509Z</time></trkpt><trkpt lat="43.6785052" lon="12.6266216"><ele>384.0</ele><time>2026-03-22T10:34:29.508Z</time></trkpt><trkpt lat="43.678663" lon="12.6265552"><ele>381.6666666666667</ele><time>2026-03-22T10:34:30.509Z</time></trkpt><trkpt lat="43.6788595" lon="12.6265135"><ele>379.33333333333337</ele><time>2026-03-22T10:34:31.508Z</time></trkpt><trkpt lat="43.6790714" lon="12.6265098"><ele>377.0</ele><time>2026-03-22T10:34:32.509Z</time></trkpt><trkpt lat="43.6792685" lon="12.6265247"><ele>376.33333333333337</ele><time>2026-03-22T10:34:33.508Z</time></trkpt><trkpt lat="43.6794649" lon="12.6265416"><ele>375.6666666666667</ele><time>2026-03-22T10:34:34.508Z</time></trkpt><trkpt lat="43.6796486" lon="12.6265702"><ele>375.0</ele><time>2026-03-22T10:34:35.508Z</time></trkpt><trkpt lat="43.6798075" lon="12.6266041"><ele>375.0</ele><time>2026-03-22T10:34:36.508Z</time></trkpt><trkpt lat="43.6799444" lon="12.6266346"><ele>375.0</ele><time>2026-03-22T10:34:37.508Z</time></trkpt><trkpt lat="43.680055" lon="12.626664"><ele>375.0</ele><time>2026-03-22T10:34:38.51Z</time></trkpt><trkpt lat="43.6801373" lon="12.6267194"><ele>375.0</ele><time>2026-03-22T10:34:39.508Z</time></trkpt><trkpt lat="43.6801822" lon="12.6267998"><ele>375.0</ele><time>2026-03-22T10:34:40.509Z</time></trkpt><trkpt lat="43.6801927" lon="12.6268893"><ele>375.0</ele><time>2026-03-22T10:34:41.508Z</time></trkpt><trkpt lat="43.6801439" lon="12.6269617"><ele>375.0</ele><time>2026-03-22T10:34:42.509Z</time></trkpt><trkpt lat="43.680069" lon="12.6270031"><ele>375.0</ele><time>2026-03-22T10:34:43.51Z</time></trkpt><trkpt lat="43.6799521" lon="12.6270107"><ele>375.0</ele><time>2026-03-22T10:34:44.51Z</time></trkpt><trkpt lat="43.679804" lon="12.6269959"><ele>375.0</ele><time>2026-03-22T10:34:45.509Z</time></trkpt><trkpt lat="43.67966" lon="12.6269889"><ele>370.25</ele><time>2026-03-22T10:34:46.509Z</time></trkpt><trkpt lat="43.6795201" lon="12.6269998"><ele>365.5</ele><time>2026-03-22T10:34:47.509Z</time></trkpt><trkpt lat="43.679402" lon="12.627037"><ele>360.75</ele><time>2026-03-22T10:34:48.508Z</time></trkpt><trkpt lat="43.6793056" lon="12.627094"><ele>356.0</ele><time>2026-03-22T10:34:49.509Z</time></trkpt><trkpt lat="43.6792456" lon="12.6271835"><ele>356.0</ele><time>2026-03-22T10:34:50.509Z</time></trkpt><trkpt lat="43.6792273" lon="12.6272916"><ele>356.0</ele><time>2026-03-22T10:34:51.508Z</time></trkpt><trkpt lat="43.6792539" lon="12.6273962"><ele>356.0</ele><time>2026-03-22T10:34:52.51Z</time></trkpt><trkpt lat="43.6793299" lon="12.627475"><ele>356.0</ele><time>2026-03-22T10:34:53.509Z</time></trkpt><trkpt lat="43.6794443" lon="12.6275371"><ele>356.0</ele><time>2026-03-22T10:34:54.51Z</time></trkpt><trkpt lat="43.6795973" lon="12.6276008"><ele>355.0</ele><time>2026-03-22T10:34:55.508Z</time></trkpt><trkpt lat="43.6797686" lon="12.6276765"><ele>354.0</ele><time>2026-03-22T10:34:56.509Z</time></trkpt><trkpt lat="43.679925" lon="12.6277396"><ele>353.0</ele><time>2026-03-22T10:34:57.508Z</time></trkpt><trkpt lat="43.680068" lon="12.627779"><ele>353.0</ele><time>2026-03-22T10:34:58.509Z</time></trkpt><trkpt lat="43.6801988" lon="12.6277788"><ele>353.0</ele><time>2026-03-22T10:34:59.508Z</time></trkpt><trkpt lat="43.680311" lon="12.6277573"><ele>353.0</ele><time>2026-03-22T10:35:00.509Z</time></trkpt><trkpt lat="43.6804077" lon="12.6277466"><ele>353.0</ele><time>2026-03-22T10:35:01.508Z</time></trkpt><trkpt lat="43.6804854" lon="12.627771"><ele>353.0</ele><time>2026-03-22T10:35:02.508Z</time></trkpt><trkpt lat="43.6805375" lon="12.6278467"><ele>351.2</ele><time>2026-03-22T10:35:03.51Z</time></trkpt><trkpt lat="43.6805644" lon="12.6279422"><ele>349.4</ele><time>2026-03-22T10:35:04.508Z</time></trkpt><trkpt lat="43.6805161" lon="12.6280368"><ele>347.59999999999997</ele><time>2026-03-22T10:35:05.508Z</time></trkpt><trkpt lat="43.6804423" lon="12.6281056"><ele>345.79999999999995</ele><time>2026-03-22T10:35:06.508Z</time></trkpt><trkpt lat="43.6803286" lon="12.6281609"><ele>344.0</ele><time>2026-03-22T10:35:07.509Z</time></trkpt><trkpt lat="43.6802316" lon="12.6282259"><ele>343.0</ele><time>2026-03-22T10:35:08.508Z</time></trkpt><trkpt lat="43.6801647" lon="12.6283331"><ele>342.0</ele><time>2026-03-22T10:35:09.509Z</time></trkpt><trkpt lat="43.6801349" lon="12.6284675"><ele>341.0</ele><time>2026-03-22T10:35:10.509Z</time></trkpt><trkpt lat="43.6801551" lon="12.6286254"><ele>340.0</ele><time>2026-03-22T10:35:11.509Z</time></trkpt><trkpt lat="43.6802215" lon="12.6287747"><ele>339.0</ele><time>2026-03-22T10:35:12.508Z</time></trkpt><trkpt lat="43.680283" lon="12.628903"><ele>338.5</ele><time>2026-03-22T10:35:13.508Z</time></trkpt><trkpt lat="43.6803078" lon="12.6290417"><ele>338.0</ele><time>2026-03-22T10:35:14.509Z</time></trkpt><trkpt lat="43.6803265" lon="12.6291878"><ele>337.5</ele><time>2026-03-22T10:35:15.51Z</time></trkpt><trkpt lat="43.6802605" lon="12.629349"><ele>337.0</ele><time>2026-03-22T10:35:16.508Z</time></trkpt><trkpt lat="43.6802762" lon="12.6295061"><ele>333.75</ele><time>2026-03-22T10:35:17.509Z</time></trkpt><trkpt lat="43.6803316" lon="12.629664"><ele>330.5</ele><time>2026-03-22T10:35:18.508Z</time></trkpt><trkpt lat="43.6804182" lon="12.6298323"><ele>327.25</ele><time>2026-03-22T10:35:19.508Z</time></trkpt><trkpt lat="43.6805125" lon="12.6300225"><ele>324.0</ele><time>2026-03-22T10:35:20.509Z</time></trkpt><trkpt lat="43.6805789" lon="12.6302699"><ele>322.5</ele><time>2026-03-22T10:35:21.508Z</time></trkpt><trkpt lat="43.6806164" lon="12.6304966"><ele>321.0</ele><time>2026-03-22T10:35:22.508Z</time></trkpt><trkpt lat="43.6806457" lon="12.6306869"><ele>319.5</ele><time>2026-03-22T10:35:23.508Z</time></trkpt><trkpt lat="43.6806588" lon="12.6308489"><ele>318.0</ele><time>2026-03-22T10:35:24.509Z</time></trkpt><trkpt lat="43.6806458" lon="12.630977"><ele>318.0</ele><time>2026-03-22T10:35:25.508Z</time></trkpt><trkpt lat="43.680595" lon="12.6310869"><ele>318.0</ele><time>2026-03-22T10:35:26.509Z</time></trkpt><trkpt lat="43.6804991" lon="12.6311723"><ele>318.0</ele><time>2026-03-22T10:35:27.509Z</time></trkpt><trkpt lat="43.6803648" lon="12.6312199"><ele>318.0</ele><time>2026-03-22T10:35:28.509Z</time></trkpt><trkpt lat="43.6802057" lon="12.6312549"><ele>319.6666666666667</ele><time>2026-03-22T10:35:29.509Z</time></trkpt><trkpt lat="43.6800539" lon="12.6313102"><ele>321.33333333333337</ele><time>2026-03-22T10:35:30.509Z</time></trkpt><trkpt lat="43.6799019" lon="12.6314012"><ele>323.0</ele><time>2026-03-22T10:35:31.509Z</time></trkpt><trkpt lat="43.6797332" lon="12.6315007"><ele>323.0</ele><time>2026-03-22T10:35:32.509Z</time></trkpt><trkpt lat="43.6795542" lon="12.6316006"><ele>323.0</ele><time>2026-03-22T10:35:33.509Z</time></trkpt><trkpt lat="43.679392" lon="12.6316697"><ele>323.0</ele><time>2026-03-22T10:35:34.509Z</time></trkpt><trkpt lat="43.6792491" lon="12.6317324"><ele>323.0</ele><time>2026-03-22T10:35:35.508Z</time></trkpt><trkpt lat="43.6791223" lon="12.6318123"><ele>323.0</ele><time>2026-03-22T10:35:36.51Z</time></trkpt><trkpt lat="43.6790045" lon="12.6319046"><ele>323.0</ele><time>2026-03-22T10:35:37.508Z</time></trkpt><trkpt lat="43.6788987" lon="12.6320328"><ele>323.0</ele><time>2026-03-22T10:35:38.508Z</time></trkpt><trkpt lat="43.6787981" lon="12.6321928"><ele>323.0</ele><time>2026-03-22T10:35:39.508Z</time></trkpt><trkpt lat="43.6786982" lon="12.6323721"><ele>323.0</ele><time>2026-03-22T10:35:40.509Z</time></trkpt><trkpt lat="43.6786111" lon="12.6325334"><ele>323.0</ele><time>2026-03-22T10:35:41.509Z</time></trkpt><trkpt lat="43.6785386" lon="12.6326803"><ele>323.0</ele><time>2026-03-22T10:35:42.509Z</time></trkpt><trkpt lat="43.6784909" lon="12.6328282"><ele>317.0</ele><time>2026-03-22T10:35:43.509Z</time></trkpt><trkpt lat="43.6784777" lon="12.6329819"><ele>311.0</ele><time>2026-03-22T10:35:44.509Z</time></trkpt><trkpt lat="43.6784926" lon="12.6331573"><ele>305.0</ele><time>2026-03-22T10:35:45.509Z</time></trkpt><trkpt lat="43.6785246" lon="12.6333431"><ele>299.0</ele><time>2026-03-22T10:35:46.509Z</time></trkpt><trkpt lat="43.6785812" lon="12.6335477"><ele>302.0</ele><time>2026-03-22T10:35:47.509Z</time></trkpt><trkpt lat="43.6786572" lon="12.6337741"><ele>305.0</ele><time>2026-03-22T10:35:48.508Z</time></trkpt><trkpt lat="43.6787285" lon="12.6339828"><ele>308.0</ele><time>2026-03-22T10:35:49.509Z</time></trkpt><trkpt lat="43.6787918" lon="12.6341716"><ele>308.0</ele><time>2026-03-22T10:35:50.509Z</time></trkpt><trkpt lat="43.6788388" lon="12.6343453"><ele>308.0</ele><time>2026-03-22T10:35:51.508Z</time></trkpt><trkpt lat="43.6788523" lon="12.6345248"><ele>308.0</ele><time>2026-03-22T10:35:52.509Z</time></trkpt><trkpt lat="43.6788378" lon="12.6346982"><ele>308.0</ele><time>2026-03-22T10:35:53.509Z</time></trkpt><trkpt lat="43.6788495" lon="12.6348622"><ele>304.75</ele><time>2026-03-22T10:35:54.508Z</time></trkpt><trkpt lat="43.6788981" lon="12.6350261"><ele>301.5</ele><time>2026-03-22T10:35:55.509Z</time></trkpt><trkpt lat="43.6789665" lon="12.6351899"><ele>298.25</ele><time>2026-03-22T10:35:56.51Z</time></trkpt><trkpt lat="43.6790286" lon="12.635339"><ele>295.0</ele><time>2026-03-22T10:35:57.508Z</time></trkpt><trkpt lat="43.6790889" lon="12.6354642"><ele>293.0</ele><time>2026-03-22T10:35:58.508Z</time></trkpt><trkpt lat="43.6791483" lon="12.6355569"><ele>291.0</ele><time>2026-03-22T10:35:59.51Z</time></trkpt><trkpt lat="43.6792311" lon="12.6356161"><ele>289.0</ele><time>2026-03-22T10:36:00.508Z</time></trkpt><trkpt lat="43.6793513" lon="12.6356498"><ele>287.0</ele><time>2026-03-22T10:36:01.508Z</time></trkpt><trkpt lat="43.6795066" lon="12.6356787"><ele>284.33333333333337</ele><time>2026-03-22T10:36:02.509Z</time></trkpt><trkpt lat="43.6796709" lon="12.6357115"><ele>281.6666666666667</ele><time>2026-03-22T10:36:03.508Z</time></trkpt><trkpt lat="43.6798214" lon="12.6357368"><ele>279.0</ele><time>2026-03-22T10:36:04.509Z</time></trkpt><trkpt lat="43.67997" lon="12.6357611"><ele>279.0</ele><time>2026-03-22T10:36:05.508Z</time></trkpt><trkpt lat="43.6801172" lon="12.6357543"><ele>279.0</ele><time>2026-03-22T10:36:06.51Z</time></trkpt><trkpt lat="43.6802755" lon="12.6357093"><ele>279.0</ele><time>2026-03-22T10:36:07.508Z</time></trkpt><trkpt lat="43.6804344" lon="12.6356224"><ele>276.0</ele><time>2026-03-22T10:36:08.509Z</time></trkpt><trkpt lat="43.6805814" lon="12.6355653"><ele>273.0</ele><time>2026-03-22T10:36:09.509Z</time></trkpt><trkpt lat="43.680724" lon="12.6355186"><ele>270.0</ele><time>2026-03-22T10:36:10.508Z</time></trkpt><trkpt lat="43.6808679" lon="12.6355068"><ele>267.0</ele><time>2026-03-22T10:36:11.509Z</time></trkpt><trkpt lat="43.6810239" lon="12.6355141"><ele>263.6666666666667</ele><time>2026-03-22T10:36:12.509Z</time></trkpt><trkpt lat="43.6811854" lon="12.6355144"><ele>260.33333333333337</ele><time>2026-03-22T10:36:13.509Z</time></trkpt><trkpt lat="43.6813351" lon="12.6355287"><ele>257.0</ele><time>2026-03-22T10:36:14.51Z</time></trkpt><trkpt lat="43.6814762" lon="12.635557"><ele>257.0</ele><time>2026-03-22T10:36:15.509Z</time></trkpt><trkpt lat="43.6816077" lon="12.6355644"><ele>257.0</ele><time>2026-03-22T10:36:16.508Z</time></trkpt><trkpt lat="43.6817227" lon="12.6355428"><ele>257.0</ele><time>2026-03-22T10:36:17.509Z</time></trkpt><trkpt lat="43.6818271" lon="12.6354867"><ele>257.0</ele><time>2026-03-22T10:36:18.509Z</time></trkpt><trkpt lat="43.6819332" lon="12.6353964"><ele>261.0</ele><time>2026-03-22T10:36:19.509Z</time></trkpt><trkpt lat="43.6820227" lon="12.6352952"><ele>265.0</ele><time>2026-03-22T10:36:20.508Z</time></trkpt><trkpt lat="43.6821088" lon="12.6352185"><ele>269.0</ele><time>2026-03-22T10:36:21.509Z</time></trkpt><trkpt lat="43.6821952" lon="12.6351693"><ele>273.0</ele><time>2026-03-22T10:36:22.51Z</time></trkpt><trkpt lat="43.682287" lon="12.6351689"><ele>277.0</ele><time>2026-03-22T10:36:23.509Z</time></trkpt><trkpt lat="43.6823859" lon="12.6352133"><ele>273.0</ele><time>2026-03-22T10:36:24.508Z</time></trkpt><trkpt lat="43.6824835" lon="12.6353051"><ele>269.0</ele><time>2026-03-22T10:36:25.509Z</time></trkpt><trkpt lat="43.6825611" lon="12.63542"><ele>265.0</ele><time>2026-03-22T10:36:26.508Z</time></trkpt><trkpt lat="43.6826182" lon="12.6355575"><ele>261.0</ele><time>2026-03-22T10:36:27.509Z</time></trkpt><trkpt lat="43.6826565" lon="12.6357226"><ele>261.0</ele><time>2026-03-22T10:36:28.508Z</time></trkpt><trkpt lat="43.6826838" lon="12.6359105"><ele>261.0</ele><time>2026-03-22T10:36:29.51Z</time></trkpt><trkpt lat="43.6827026" lon="12.6361116"><ele>261.0</ele><time>2026-03-22T10:36:30.508Z</time></trkpt><trkpt lat="43.6827133" lon="12.6363041"><ele>261.0</ele><time>2026-03-22T10:36:31.508Z</time></trkpt><trkpt lat="43.6827051" lon="12.6364915"><ele>258.75</ele><time>2026-03-22T10:36:32.509Z</time></trkpt><trkpt lat="43.6826841" lon="12.6366774"><ele>256.5</ele><time>2026-03-22T10:36:33.509Z</time></trkpt><trkpt lat="43.6826587" lon="12.6368592"><ele>254.25</ele><time>2026-03-22T10:36:34.508Z</time></trkpt><trkpt lat="43.6826349" lon="12.6370443"><ele>252.0</ele><time>2026-03-22T10:36:35.509Z</time></trkpt><trkpt lat="43.6826121" lon="12.6372325"><ele>251.0</ele><time>2026-03-22T10:36:36.51Z</time></trkpt><trkpt lat="43.6825723" lon="12.6373996"><ele>250.0</ele><time>2026-03-22T10:36:37.51Z</time></trkpt><trkpt lat="43.6825042" lon="12.6375414"><ele>249.0</ele><time>2026-03-22T10:36:38.509Z</time></trkpt><trkpt lat="43.6824306" lon="12.6376735"><ele>248.0</ele><time>2026-03-22T10:36:39.509Z</time></trkpt><trkpt lat="43.6823644" lon="12.6378011"><ele>245.60000000000002</ele><time>2026-03-22T10:36:40.509Z</time></trkpt><trkpt lat="43.68231" lon="12.6379195"><ele>243.20000000000002</ele><time>2026-03-22T10:36:41.509Z</time></trkpt><trkpt lat="43.6822785" lon="12.6380388"><ele>240.8</ele><time>2026-03-22T10:36:42.508Z</time></trkpt><trkpt lat="43.6822731" lon="12.6381586"><ele>238.4</ele><time>2026-03-22T10:36:43.508Z</time></trkpt><trkpt lat="43.6823059" lon="12.6382798"><ele>236.0</ele><time>2026-03-22T10:36:44.51Z</time></trkpt><trkpt lat="43.6823843" lon="12.6384061"><ele>236.0</ele><time>2026-03-22T10:36:45.509Z</time></trkpt><trkpt lat="43.6824947" lon="12.6385345"><ele>236.0</ele><time>2026-03-22T10:36:46.508Z</time></trkpt><trkpt lat="43.682593" lon="12.6386486"><ele>236.0</ele><time>2026-03-22T10:36:47.51Z</time></trkpt><trkpt lat="43.6827024" lon="12.6387497"><ele>236.0</ele><time>2026-03-22T10:36:48.508Z</time></trkpt><trkpt lat="43.6828381" lon="12.6388357"><ele>231.33333333333334</ele><time>2026-03-22T10:36:49.509Z</time></trkpt><trkpt lat="43.6829917" lon="12.6388962"><ele>226.66666666666669</ele><time>2026-03-22T10:36:50.509Z</time></trkpt><trkpt lat="43.6831763" lon="12.6389336"><ele>222.0</ele><time>2026-03-22T10:36:51.508Z</time></trkpt><trkpt lat="43.6833602" lon="12.6389595"><ele>222.0</ele><time>2026-03-22T10:36:52.51Z</time></trkpt><trkpt lat="43.6835335" lon="12.6389886"><ele>222.0</ele><time>2026-03-22T10:36:53.509Z</time></trkpt><trkpt lat="43.6837011" lon="12.6390145"><ele>222.0</ele><time>2026-03-22T10:36:54.509Z</time></trkpt><trkpt lat="43.6838591" lon="12.6390358"><ele>221.25</ele><time>2026-03-22T10:36:55.509Z</time></trkpt><trkpt lat="43.6840043" lon="12.6390665"><ele>220.5</ele><time>2026-03-22T10:36:56.509Z</time></trkpt><trkpt lat="43.6841359" lon="12.6391011"><ele>219.75</ele><time>2026-03-22T10:36:57.51Z</time></trkpt><trkpt lat="43.6842609" lon="12.6391355"><ele>219.0</ele><time>2026-03-22T10:36:58.509Z</time></trkpt><trkpt lat="43.684376" lon="12.6391883"><ele>217.79999999999998</ele><time>2026-03-22T10:36:59.509Z</time></trkpt><trkpt lat="43.6844828" lon="12.639259"><ele>216.59999999999997</ele><time>2026-03-22T10:37:00.508Z</time></trkpt><trkpt lat="43.6845753" lon="12.6393228"><ele>215.4</ele><time>2026-03-22T10:37:01.508Z</time></trkpt><trkpt lat="43.6846544" lon="12.6393887"><ele>214.2</ele><time>2026-03-22T10:37:02.509Z</time></trkpt><trkpt lat="43.684726" lon="12.6394476"><ele>213.0</ele><time>2026-03-22T10:37:03.508Z</time></trkpt><trkpt lat="43.6847868" lon="12.6394954"><ele>212.4</ele><time>2026-03-22T10:37:04.51Z</time></trkpt><trkpt lat="43.6848651" lon="12.6395636"><ele>211.8</ele><time>2026-03-22T10:37:06.509Z</time></trkpt><trkpt lat="43.6848903" lon="12.6396526"><ele>211.2</ele><time>2026-03-22T10:37:08.508Z</time></trkpt><trkpt lat="43.6848607" lon="12.6398328"><ele>210.6</ele><time>2026-03-22T10:37:10.508Z</time></trkpt><trkpt lat="43.6848149" lon="12.6399462"><ele>210.0</ele><time>2026-03-22T10:37:11.509Z</time></trkpt><trkpt lat="43.6847561" lon="12.6401052"><ele>209.0</ele><time>2026-03-22T10:37:12.51Z</time></trkpt><trkpt lat="43.6846839" lon="12.6403025"><ele>208.0</ele><time>2026-03-22T10:37:13.509Z</time></trkpt><trkpt lat="43.6846125" lon="12.6404858"><ele>207.0</ele><time>2026-03-22T10:37:14.51Z</time></trkpt><trkpt lat="43.6845462" lon="12.6406601"><ele>207.0</ele><time>2026-03-22T10:37:15.508Z</time></trkpt><trkpt lat="43.6844757" lon="12.6408196"><ele>207.0</ele><time>2026-03-22T10:37:16.509Z</time></trkpt><trkpt lat="43.6843974" lon="12.6409591"><ele>207.0</ele><time>2026-03-22T10:37:17.509Z</time></trkpt><trkpt lat="43.6843134" lon="12.6410802"><ele>207.0</ele><time>2026-03-22T10:37:18.509Z</time></trkpt><trkpt lat="43.6842264" lon="12.6412037"><ele>206.0</ele><time>2026-03-22T10:37:19.509Z</time></trkpt><trkpt lat="43.6841391" lon="12.6413436"><ele>205.0</ele><time>2026-03-22T10:37:20.507Z</time></trkpt><trkpt lat="43.6840507" lon="12.6414923"><ele>204.0</ele><time>2026-03-22T10:37:21.508Z</time></trkpt><trkpt lat="43.6839649" lon="12.6416399"><ele>203.0</ele><time>2026-03-22T10:37:22.508Z</time></trkpt><trkpt lat="43.6838838" lon="12.6417896"><ele>203.0</ele><time>2026-03-22T10:37:23.508Z</time></trkpt><trkpt lat="43.6838006" lon="12.6419402"><ele>203.0</ele><time>2026-03-22T10:37:24.509Z</time></trkpt><trkpt lat="43.6837146" lon="12.6420882"><ele>203.0</ele><time>2026-03-22T10:37:25.509Z</time></trkpt><trkpt lat="43.6836347" lon="12.6422344"><ele>203.0</ele><time>2026-03-22T10:37:26.508Z</time></trkpt><trkpt lat="43.6835652" lon="12.6423734"><ele>202.8</ele><time>2026-03-22T10:37:27.507Z</time></trkpt><trkpt lat="43.6834879" lon="12.6424906"><ele>202.60000000000002</ele><time>2026-03-22T10:37:28.507Z</time></trkpt><trkpt lat="43.6833976" lon="12.6425667"><ele>202.39999999999998</ele><time>2026-03-22T10:37:29.507Z</time></trkpt><trkpt lat="43.6833043" lon="12.6426053"><ele>202.2</ele><time>2026-03-22T10:37:30.508Z</time></trkpt><trkpt lat="43.6832098" lon="12.6426142"><ele>202.0</ele><time>2026-03-22T10:37:31.507Z</time></trkpt><trkpt lat="43.6831101" lon="12.6426275"><ele>201.99999999999997</ele><time>2026-03-22T10:37:32.509Z</time></trkpt><trkpt lat="43.6830121" lon="12.6426586"><ele>202.0</ele><time>2026-03-22T10:37:33.508Z</time></trkpt><trkpt lat="43.6829232" lon="12.6426959"><ele>202.0</ele><time>2026-03-22T10:37:34.509Z</time></trkpt><trkpt lat="43.6828466" lon="12.6427512"><ele>202.0</ele><time>2026-03-22T10:37:35.507Z</time></trkpt><trkpt lat="43.6827849" lon="12.6428291"><ele>201.99999999999997</ele><time>2026-03-22T10:37:36.508Z</time></trkpt><trkpt lat="43.6827312" lon="12.6429176"><ele>202.0</ele><time>2026-03-22T10:37:37.508Z</time></trkpt><trkpt lat="43.6826803" lon="12.643007"><ele>201.83333333333331</ele><time>2026-03-22T10:37:38.507Z</time></trkpt><trkpt lat="43.6826245" lon="12.6430597"><ele>201.66666666666666</ele><time>2026-03-22T10:37:39.508Z</time></trkpt><trkpt lat="43.6825594" lon="12.643069"><ele>201.5</ele><time>2026-03-22T10:37:41.508Z</time></trkpt><trkpt lat="43.6824402" lon="12.6430731"><ele>201.33333333333331</ele><time>2026-03-22T10:37:50.508Z</time></trkpt><trkpt lat="43.6823587" lon="12.6430795"><ele>201.16666666666666</ele><time>2026-03-22T10:37:51.507Z</time></trkpt><trkpt lat="43.6822618" lon="12.6430834"><ele>201.0</ele><time>2026-03-22T10:37:52.507Z</time></trkpt><trkpt lat="43.6821506" lon="12.6430975"><ele>201.0</ele><time>2026-03-22T10:37:53.509Z</time></trkpt><trkpt lat="43.682023" lon="12.6431154"><ele>201.0</ele><time>2026-03-22T10:37:54.507Z</time></trkpt><trkpt lat="43.6818895" lon="12.6431366"><ele>201.0</ele><time>2026-03-22T10:37:55.508Z</time></trkpt><trkpt lat="43.6817409" lon="12.6431623"><ele>201.0</ele><time>2026-03-22T10:37:56.508Z</time></trkpt><trkpt lat="43.6815849" lon="12.6431913"><ele>201.33333333333331</ele><time>2026-03-22T10:37:57.507Z</time></trkpt><trkpt lat="43.6814142" lon="12.6432375"><ele>201.66666666666666</ele><time>2026-03-22T10:37:58.508Z</time></trkpt><trkpt lat="43.6812291" lon="12.6433139"><ele>202.0</ele><time>2026-03-22T10:37:59.507Z</time></trkpt><trkpt lat="43.6810625" lon="12.6433972"><ele>202.0</ele><time>2026-03-22T10:38:00.508Z</time></trkpt><trkpt lat="43.6809025" lon="12.6434706"><ele>202.0</ele><time>2026-03-22T10:38:01.508Z</time></trkpt><trkpt lat="43.6807548" lon="12.6435377"><ele>202.0</ele><time>2026-03-22T10:38:02.507Z</time></trkpt><trkpt lat="43.6806202" lon="12.6435958"><ele>202.0</ele><time>2026-03-22T10:38:03.508Z</time></trkpt><trkpt lat="43.6804941" lon="12.6436494"><ele>202.0</ele><time>2026-03-22T10:38:04.508Z</time></trkpt><trkpt lat="43.6803769" lon="12.6436986"><ele>202.0</ele><time>2026-03-22T10:38:05.508Z</time></trkpt><trkpt lat="43.6802636" lon="12.6437381"><ele>202.0</ele><time>2026-03-22T10:38:06.508Z</time></trkpt><trkpt lat="43.6801558" lon="12.6437606"><ele>202.0</ele><time>2026-03-22T10:38:07.507Z</time></trkpt><trkpt lat="43.6800433" lon="12.6437736"><ele>202.0</ele><time>2026-03-22T10:38:08.508Z</time></trkpt><trkpt lat="43.6799273" lon="12.6437886"><ele>202.0</ele><time>2026-03-22T10:38:09.509Z</time></trkpt><trkpt lat="43.6798038" lon="12.6438056"><ele>202.0</ele><time>2026-03-22T10:38:10.507Z</time></trkpt><trkpt lat="43.6796789" lon="12.6438259"><ele>202.0</ele><time>2026-03-22T10:38:11.507Z</time></trkpt><trkpt lat="43.6795467" lon="12.6438537"><ele>202.0</ele><time>2026-03-22T10:38:12.507Z</time></trkpt><trkpt lat="43.6794083" lon="12.643878"><ele>202.0</ele><time>2026-03-22T10:38:13.507Z</time></trkpt><trkpt lat="43.6792641" lon="12.6438984"><ele>202.0</ele><time>2026-03-22T10:38:14.507Z</time></trkpt><trkpt lat="43.6791267" lon="12.64392"><ele>202.0</ele><time>2026-03-22T10:38:15.508Z</time></trkpt><trkpt lat="43.6789915" lon="12.643941"><ele>202.0</ele><time>2026-03-22T10:38:16.508Z</time></trkpt><trkpt lat="43.6788616" lon="12.6439587"><ele>202.0</ele><time>2026-03-22T10:38:17.507Z</time></trkpt><trkpt lat="43.6787371" lon="12.6439777"><ele>202.0</ele><time>2026-03-22T10:38:18.507Z</time></trkpt><trkpt lat="43.6786136" lon="12.644002"><ele>202.0</ele><time>2026-03-22T10:38:19.509Z</time></trkpt><trkpt lat="43.6784916" lon="12.644034"><ele>202.0</ele><time>2026-03-22T10:38:20.508Z</time></trkpt><trkpt lat="43.6783687" lon="12.6440644"><ele>202.0</ele><time>2026-03-22T10:38:21.507Z</time></trkpt><trkpt lat="43.6782438" lon="12.6441066"><ele>202.0</ele><time>2026-03-22T10:38:22.508Z</time></trkpt><trkpt lat="43.6781225" lon="12.6441732"><ele>202.0</ele><time>2026-03-22T10:38:23.508Z</time></trkpt><trkpt lat="43.6780031" lon="12.6442478"><ele>202.0</ele><time>2026-03-22T10:38:24.509Z</time></trkpt><trkpt lat="43.6778915" lon="12.6443267"><ele>202.0</ele><time>2026-03-22T10:38:25.507Z</time></trkpt><trkpt lat="43.6777936" lon="12.6444177"><ele>202.0</ele><time>2026-03-22T10:38:26.507Z</time></trkpt><trkpt lat="43.6777015" lon="12.6445095"><ele>201.75</ele><time>2026-03-22T10:38:27.508Z</time></trkpt><trkpt lat="43.677612" lon="12.6446046"><ele>201.5</ele><time>2026-03-22T10:38:28.508Z</time></trkpt><trkpt lat="43.6775235" lon="12.6447101"><ele>201.25</ele><time>2026-03-22T10:38:29.507Z</time></trkpt><trkpt lat="43.6774281" lon="12.6448107"><ele>201.0</ele><time>2026-03-22T10:38:30.508Z</time></trkpt><trkpt lat="43.6773314" lon="12.6449183"><ele>201.0</ele><time>2026-03-22T10:38:31.509Z</time></trkpt><trkpt lat="43.6772431" lon="12.645021"><ele>201.0</ele><time>2026-03-22T10:38:32.508Z</time></trkpt><trkpt lat="43.6771643" lon="12.645102"><ele>201.0</ele><time>2026-03-22T10:38:33.508Z</time></trkpt><trkpt lat="43.6771011" lon="12.645163"><ele>201.0</ele><time>2026-03-22T10:38:34.507Z</time></trkpt><trkpt lat="43.6769777" lon="12.6451948"><ele>201.0</ele><time>2026-03-22T10:38:36.508Z</time></trkpt><trkpt lat="43.6769024" lon="12.6451615"><ele>201.20000000000002</ele><time>2026-03-22T10:38:37.507Z</time></trkpt><trkpt lat="43.6768165" lon="12.6451057"><ele>201.4</ele><time>2026-03-22T10:38:38.508Z</time></trkpt><trkpt lat="43.6767222" lon="12.6450495"><ele>201.6</ele><time>2026-03-22T10:38:39.508Z</time></trkpt><trkpt lat="43.6766224" lon="12.6449967"><ele>201.8</ele><time>2026-03-22T10:38:40.507Z</time></trkpt><trkpt lat="43.6765244" lon="12.6449353"><ele>202.0</ele><time>2026-03-22T10:38:41.507Z</time></trkpt><trkpt lat="43.6764302" lon="12.6448725"><ele>202.0</ele><time>2026-03-22T10:38:42.508Z</time></trkpt><trkpt lat="43.6763286" lon="12.6448246"><ele>202.0</ele><time>2026-03-22T10:38:43.508Z</time></trkpt><trkpt lat="43.6762226" lon="12.6447669"><ele>202.0</ele><time>2026-03-22T10:38:44.507Z</time></trkpt><trkpt lat="43.6761136" lon="12.6447002"><ele>202.0</ele><time>2026-03-22T10:38:45.508Z</time></trkpt><trkpt lat="43.6759949" lon="12.6446391"><ele>202.25</ele><time>2026-03-22T10:38:46.507Z</time></trkpt><trkpt lat="43.6758684" lon="12.6445715"><ele>202.5</ele><time>2026-03-22T10:38:47.509Z</time></trkpt><trkpt lat="43.6757355" lon="12.6444909"><ele>202.75</ele><time>2026-03-22T10:38:48.508Z</time></trkpt><trkpt lat="43.6755975" lon="12.6444059"><ele>203.0</ele><time>2026-03-22T10:38:49.507Z</time></trkpt><trkpt lat="43.6754678" lon="12.6443284"><ele>203.0</ele><time>2026-03-22T10:38:50.508Z</time></trkpt><trkpt lat="43.6753419" lon="12.6442552"><ele>203.0</ele><time>2026-03-22T10:38:51.508Z</time></trkpt><trkpt lat="43.6752205" lon="12.644182"><ele>203.0</ele><time>2026-03-22T10:38:52.507Z</time></trkpt><trkpt lat="43.675099" lon="12.6441077"><ele>203.0</ele><time>2026-03-22T10:38:53.509Z</time></trkpt><trkpt lat="43.6749708" lon="12.6440349"><ele>202.75</ele><time>2026-03-22T10:38:54.508Z</time></trkpt><trkpt lat="43.6748375" lon="12.6439604"><ele>202.5</ele><time>2026-03-22T10:38:55.507Z</time></trkpt><trkpt lat="43.6747024" lon="12.6438809"><ele>202.25</ele><time>2026-03-22T10:38:56.507Z</time></trkpt><trkpt lat="43.6745636" lon="12.6437969"><ele>202.0</ele><time>2026-03-22T10:38:57.508Z</time></trkpt><trkpt lat="43.6744379" lon="12.6437121"><ele>203.75</ele><time>2026-03-22T10:38:58.507Z</time></trkpt><trkpt lat="43.6743239" lon="12.6436263"><ele>205.5</ele><time>2026-03-22T10:38:59.508Z</time></trkpt><trkpt lat="43.674217" lon="12.6435487"><ele>207.25</ele><time>2026-03-22T10:39:00.507Z</time></trkpt><trkpt lat="43.6741195" lon="12.643475"><ele>209.0</ele><time>2026-03-22T10:39:01.508Z</time></trkpt><trkpt lat="43.6740314" lon="12.6434034"><ele>209.00000000000003</ele><time>2026-03-22T10:39:02.507Z</time></trkpt><trkpt lat="43.6739516" lon="12.6433329"><ele>209.0</ele><time>2026-03-22T10:39:03.508Z</time></trkpt><trkpt lat="43.6738805" lon="12.6432649"><ele>209.0</ele><time>2026-03-22T10:39:04.507Z</time></trkpt><trkpt lat="43.6738174" lon="12.6431997"><ele>209.0</ele><time>2026-03-22T10:39:05.507Z</time></trkpt><trkpt lat="43.6737628" lon="12.6431346"><ele>209.00000000000003</ele><time>2026-03-22T10:39:06.508Z</time></trkpt><trkpt lat="43.6736971" lon="12.6430651"><ele>209.0</ele><time>2026-03-22T10:39:08.508Z</time></trkpt><trkpt lat="43.6736116" lon="12.6430227"><ele>207.39999999999998</ele><time>2026-03-22T10:39:19.508Z</time></trkpt><trkpt lat="43.673542" lon="12.643043"><ele>205.8</ele><time>2026-03-22T10:39:21.507Z</time></trkpt><trkpt lat="43.6734838" lon="12.6431619"><ele>204.2</ele><time>2026-03-22T10:39:23.508Z</time></trkpt><trkpt lat="43.6734728" lon="12.643266"><ele>202.60000000000002</ele><time>2026-03-22T10:39:24.507Z</time></trkpt><trkpt lat="43.6734617" lon="12.643415"><ele>201.0</ele><time>2026-03-22T10:39:25.507Z</time></trkpt><trkpt lat="43.6734384" lon="12.6435717"><ele>199.8</ele><time>2026-03-22T10:39:26.508Z</time></trkpt><trkpt lat="43.6734082" lon="12.6437284"><ele>198.60000000000002</ele><time>2026-03-22T10:39:27.508Z</time></trkpt><trkpt lat="43.673391" lon="12.643871"><ele>197.4</ele><time>2026-03-22T10:39:28.507Z</time></trkpt><trkpt lat="43.6733706" lon="12.6440054"><ele>196.2</ele><time>2026-03-22T10:39:29.507Z</time></trkpt><trkpt lat="43.6733517" lon="12.6441281"><ele>195.0</ele><time>2026-03-22T10:39:30.507Z</time></trkpt><trkpt lat="43.6733365" lon="12.6442426"><ele>195.0</ele><time>2026-03-22T10:39:31.508Z</time></trkpt><trkpt lat="43.6733242" lon="12.6443502"><ele>195.0</ele><time>2026-03-22T10:39:32.509Z</time></trkpt><trkpt lat="43.6733098" lon="12.6444488"><ele>195.0</ele><time>2026-03-22T10:39:33.508Z</time></trkpt><trkpt lat="43.6732989" lon="12.6445388"><ele>195.0</ele><time>2026-03-22T10:39:34.507Z</time></trkpt><trkpt lat="43.6732833" lon="12.6446422"><ele>195.0</ele><time>2026-03-22T10:39:36.508Z</time></trkpt><trkpt lat="43.6732596" lon="12.6448037"><ele>195.0</ele><time>2026-03-22T10:39:50.507Z</time></trkpt><trkpt lat="43.6732368" lon="12.6448986"><ele>195.4</ele><time>2026-03-22T10:39:51.508Z</time></trkpt><trkpt lat="43.6732167" lon="12.6450144"><ele>195.8</ele><time>2026-03-22T10:39:52.509Z</time></trkpt><trkpt lat="43.6732024" lon="12.6451504"><ele>196.2</ele><time>2026-03-22T10:39:53.508Z</time></trkpt><trkpt lat="43.6731937" lon="12.645313"><ele>196.6</ele><time>2026-03-22T10:39:54.508Z</time></trkpt><trkpt lat="43.6731766" lon="12.6454868"><ele>197.0</ele><time>2026-03-22T10:39:55.507Z</time></trkpt><trkpt lat="43.673158" lon="12.6456541"><ele>197.6</ele><time>2026-03-22T10:39:56.508Z</time></trkpt><trkpt lat="43.6731517" lon="12.6458131"><ele>198.2</ele><time>2026-03-22T10:39:57.508Z</time></trkpt><trkpt lat="43.6731499" lon="12.6459633"><ele>198.8</ele><time>2026-03-22T10:39:58.508Z</time></trkpt><trkpt lat="43.6731454" lon="12.6460989"><ele>199.4</ele><time>2026-03-22T10:39:59.508Z</time></trkpt><trkpt lat="43.6731418" lon="12.6462311"><ele>200.0</ele><time>2026-03-22T10:40:00.508Z</time></trkpt><trkpt lat="43.6731389" lon="12.6463653"><ele>200.0</ele><time>2026-03-22T10:40:01.508Z</time></trkpt><trkpt lat="43.6731326" lon="12.6465036"><ele>200.0</ele><time>2026-03-22T10:40:02.507Z</time></trkpt><trkpt lat="43.6731224" lon="12.6466455"><ele>200.0</ele><time>2026-03-22T10:40:03.509Z</time></trkpt><trkpt lat="43.6731179" lon="12.6467901"><ele>200.0</ele><time>2026-03-22T10:40:04.507Z</time></trkpt><trkpt lat="43.6731196" lon="12.646947"><ele>200.0</ele><time>2026-03-22T10:40:05.507Z</time></trkpt><trkpt lat="43.6731199" lon="12.6471259"><ele>201.0</ele><time>2026-03-22T10:40:06.508Z</time></trkpt><trkpt lat="43.6731165" lon="12.6473119"><ele>202.0</ele><time>2026-03-22T10:40:07.509Z</time></trkpt><trkpt lat="43.6731292" lon="12.6474858"><ele>203.0</ele><time>2026-03-22T10:40:08.508Z</time></trkpt><trkpt lat="43.6731758" lon="12.6476294"><ele>204.0</ele><time>2026-03-22T10:40:09.509Z</time></trkpt><trkpt lat="43.6732492" lon="12.6477431"><ele>204.79999999999998</ele><time>2026-03-22T10:40:10.507Z</time></trkpt><trkpt lat="43.6733406" lon="12.6478216"><ele>205.6</ele><time>2026-03-22T10:40:11.508Z</time></trkpt><trkpt lat="43.6734493" lon="12.6478533"><ele>206.4</ele><time>2026-03-22T10:40:12.509Z</time></trkpt><trkpt lat="43.6735565" lon="12.6478623"><ele>207.2</ele><time>2026-03-22T10:40:13.507Z</time></trkpt><trkpt lat="43.6736538" lon="12.6478716"><ele>208.0</ele><time>2026-03-22T10:40:14.509Z</time></trkpt><trkpt lat="43.6737337" lon="12.6478828"><ele>208.0</ele><time>2026-03-22T10:40:15.507Z</time></trkpt><trkpt lat="43.6737946" lon="12.6479082"><ele>208.0</ele><time>2026-03-22T10:40:16.508Z</time></trkpt><trkpt lat="43.6738398" lon="12.6480365"><ele>208.0</ele><time>2026-03-22T10:40:18.507Z</time></trkpt><trkpt lat="43.673777" lon="12.6482062"><ele>208.0</ele><time>2026-03-22T10:40:20.508Z</time></trkpt><trkpt lat="43.6737124" lon="12.6482957"><ele>208.0</ele><time>2026-03-22T10:40:21.507Z</time></trkpt><trkpt lat="43.673641" lon="12.6484019"><ele>209.2</ele><time>2026-03-22T10:40:22.507Z</time></trkpt><trkpt lat="43.6735696" lon="12.6485193"><ele>210.4</ele><time>2026-03-22T10:40:23.508Z</time></trkpt><trkpt lat="43.6735163" lon="12.6486434"><ele>211.59999999999997</ele><time>2026-03-22T10:40:24.507Z</time></trkpt><trkpt lat="43.6734989" lon="12.6487776"><ele>212.79999999999998</ele><time>2026-03-22T10:40:25.508Z</time></trkpt><trkpt lat="43.6735096" lon="12.648923"><ele>214.0</ele><time>2026-03-22T10:40:26.508Z</time></trkpt><trkpt lat="43.6735467" lon="12.6490857"><ele>216.0</ele><time>2026-03-22T10:40:27.508Z</time></trkpt><trkpt lat="43.6735954" lon="12.6492828"><ele>218.0</ele><time>2026-03-22T10:40:28.507Z</time></trkpt><trkpt lat="43.6736343" lon="12.6494895"><ele>220.0</ele><time>2026-03-22T10:40:29.509Z</time></trkpt><trkpt lat="43.6736602" lon="12.6496622"><ele>222.0</ele><time>2026-03-22T10:40:30.508Z</time></trkpt><trkpt lat="43.6736761" lon="12.649816"><ele>224.0</ele><time>2026-03-22T10:40:31.507Z</time></trkpt><trkpt lat="43.6736858" lon="12.6499541"><ele>226.0</ele><time>2026-03-22T10:40:32.507Z</time></trkpt><trkpt lat="43.6737043" lon="12.6500735"><ele>228.0</ele><time>2026-03-22T10:40:33.507Z</time></trkpt><trkpt lat="43.6737311" lon="12.6501792"><ele>230.0</ele><time>2026-03-22T10:40:34.509Z</time></trkpt><trkpt lat="43.6738351" lon="12.6502548"><ele>232.0</ele><time>2026-03-22T10:40:36.508Z</time></trkpt><trkpt lat="43.6738885" lon="12.6502082"><ele>232.0</ele><time>2026-03-22T10:40:37.507Z</time></trkpt><trkpt lat="43.6739273" lon="12.6501288"><ele>232.0</ele><time>2026-03-22T10:40:38.508Z</time></trkpt><trkpt lat="43.6739711" lon="12.6500353"><ele>232.0</ele><time>2026-03-22T10:40:39.507Z</time></trkpt><trkpt lat="43.6740358" lon="12.6499598"><ele>232.0</ele><time>2026-03-22T10:40:40.508Z</time></trkpt><trkpt lat="43.6741" lon="12.6498877"><ele>232.0</ele><time>2026-03-22T10:40:41.508Z</time></trkpt><trkpt lat="43.6742299" lon="12.649966"><ele>232.0</ele><time>2026-03-22T10:40:42.508Z</time></trkpt><trkpt lat="43.6743473" lon="12.6500331"><ele>232.0</ele><time>2026-03-22T10:40:43.508Z</time></trkpt><trkpt lat="43.6744613" lon="12.6501137"><ele>232.0</ele><time>2026-03-22T10:40:44.507Z</time></trkpt><trkpt lat="43.6745582" lon="12.6501839"><ele>232.0</ele><time>2026-03-22T10:40:45.508Z</time></trkpt><trkpt lat="43.6746471" lon="12.6502497"><ele>232.0</ele><time>2026-03-22T10:40:46.508Z</time></trkpt><trkpt lat="43.6747355" lon="12.6503138"><ele>249.0</ele><time>2026-03-22T10:40:47.507Z</time></trkpt><trkpt lat="43.6748112" lon="12.6503673"><ele>249.0</ele><time>2026-03-22T10:40:48.509Z</time></trkpt><trkpt lat="43.6748605" lon="12.6504275"><ele>249.0</ele><time>2026-03-22T10:40:49.508Z</time></trkpt><trkpt lat="43.674853" lon="12.6505546"><ele>249.0</ele><time>2026-03-22T10:40:51.508Z</time></trkpt></trkseg></trk></gpx>